<?xml version='1.0' encoding='UTF-8'?><gpx version="1.1" creator="JPX - https://github.com/jenetics/jpx" xmlns="http://www.topografix.com/GPX/1/1"><trk><trkseg><trkpt lat="43.4599617" lon="11.8869517"><ele>263.0</ele><time>2026-04-26T08:50:52.753Z</time></trkpt><trkpt lat="43.459885" lon="11.8869317"><ele>263.0</ele><time>2026-04-26T08:50:55.754Z</time></trkpt><trkpt lat="43.4598067" lon="11.88689"><ele>263.0</ele><time>2026-04-26T08:50:58.753Z</time></trkpt><trkpt lat="43.4597433" lon="11.88684"><ele>263.0</ele><time>2026-04-26T08:51:01.754Z</time></trkpt><trkpt lat="43.4596583" lon="11.88679"><ele>263.0</ele><time>2026-04-26T08:51:04.753Z</time></trkpt><trkpt lat="43.45958" lon="11.8867583"><ele>263.0</ele><time>2026-04-26T08:51:07.753Z</time></trkpt><trkpt lat="43.4595817" lon="11.8866367"><ele>263.0</ele><time>2026-04-26T08:51:14.754Z</time></trkpt><trkpt lat="43.4596367" lon="11.8865683"><ele>263.0</ele><time>2026-04-26T08:51:16.753Z</time></trkpt><trkpt lat="43.45974" lon="11.8865417"><ele>263.0</ele><time>2026-04-26T08:51:19.754Z</time></trkpt><trkpt lat="43.4598433" lon="11.8865433"><ele>263.0</ele><time>2026-04-26T08:51:21.753Z</time></trkpt><trkpt lat="43.459955" lon="11.8865317"><ele>263.0</ele><time>2026-04-26T08:51:23.758Z</time></trkpt><trkpt lat="43.46002" lon="11.88653"><ele>263.0</ele><time>2026-04-26T08:51:24.753Z</time></trkpt><trkpt lat="43.4601033" lon="11.8865433"><ele>263.0</ele><time>2026-04-26T08:51:27.753Z</time></trkpt><trkpt lat="43.4601767" lon="11.8865467"><ele>263.0</ele><time>2026-04-26T08:51:29.754Z</time></trkpt><trkpt lat="43.460275" lon="11.886615"><ele>263.0</ele><time>2026-04-26T08:51:31.754Z</time></trkpt><trkpt lat="43.4603317" lon="11.8867717"><ele>263.0</ele><time>2026-04-26T08:51:33.753Z</time></trkpt><trkpt lat="43.4603783" lon="11.8868483"><ele>263.0</ele><time>2026-04-26T08:51:34.753Z</time></trkpt><trkpt lat="43.4604433" lon="11.8869133"><ele>263.0</ele><time>2026-04-26T08:51:35.753Z</time></trkpt><trkpt lat="43.460505" lon="11.8869617"><ele>263.0</ele><time>2026-04-26T08:51:36.753Z</time></trkpt><trkpt lat="43.4605717" lon="11.8869983"><ele>263.0</ele><time>2026-04-26T08:51:37.753Z</time></trkpt><trkpt lat="43.4606467" lon="11.8870183"><ele>263.0</ele><time>2026-04-26T08:51:38.754Z</time></trkpt><trkpt lat="43.46072" lon="11.8870533"><ele>263.0</ele><time>2026-04-26T08:51:39.753Z</time></trkpt><trkpt lat="43.460795" lon="11.8870967"><ele>263.33333333333337</ele><time>2026-04-26T08:51:40.753Z</time></trkpt><trkpt lat="43.4608659" lon="11.8871479"><ele>263.6666666666667</ele><time>2026-04-26T08:51:41.753Z</time></trkpt><trkpt lat="43.4609256" lon="11.8872201"><ele>264.0</ele><time>2026-04-26T08:51:42.755Z</time></trkpt><trkpt lat="43.4609787" lon="11.8873089"><ele>264.3333333333333</ele><time>2026-04-26T08:51:43.753Z</time></trkpt><trkpt lat="43.4610266" lon="11.887413"><ele>264.66666666666663</ele><time>2026-04-26T08:51:44.753Z</time></trkpt><trkpt lat="43.4610675" lon="11.8875236"><ele>265.0</ele><time>2026-04-26T08:51:45.753Z</time></trkpt><trkpt lat="43.461099" lon="11.8876381"><ele>265.0</ele><time>2026-04-26T08:51:46.753Z</time></trkpt><trkpt lat="43.4611261" lon="11.8877598"><ele>265.0</ele><time>2026-04-26T08:51:47.754Z</time></trkpt><trkpt lat="43.4611506" lon="11.8878857"><ele>265.0</ele><time>2026-04-26T08:51:48.753Z</time></trkpt><trkpt lat="43.4611728" lon="11.8880118"><ele>265.0</ele><time>2026-04-26T08:51:49.753Z</time></trkpt><trkpt lat="43.4611925" lon="11.8881358"><ele>265.0</ele><time>2026-04-26T08:51:50.755Z</time></trkpt><trkpt lat="43.461209" lon="11.8882592"><ele>265.0</ele><time>2026-04-26T08:51:51.753Z</time></trkpt><trkpt lat="43.4612208" lon="11.8883829"><ele>265.0</ele><time>2026-04-26T08:51:52.754Z</time></trkpt><trkpt lat="43.4612343" lon="11.8885025"><ele>265.0</ele><time>2026-04-26T08:51:53.754Z</time></trkpt><trkpt lat="43.4612462" lon="11.8886077"><ele>265.0</ele><time>2026-04-26T08:51:54.753Z</time></trkpt><trkpt lat="43.4612563" lon="11.8886938"><ele>265.0</ele><time>2026-04-26T08:51:55.754Z</time></trkpt><trkpt lat="43.4612834" lon="11.8888206"><ele>265.0</ele><time>2026-04-26T08:51:57.753Z</time></trkpt><trkpt lat="43.4613279" lon="11.8889137"><ele>265.3333333333333</ele><time>2026-04-26T08:51:59.754Z</time></trkpt><trkpt lat="43.4614236" lon="11.8889707"><ele>265.66666666666663</ele><time>2026-04-26T08:52:01.754Z</time></trkpt><trkpt lat="43.4614927" lon="11.8889738"><ele>266.0</ele><time>2026-04-26T08:52:02.755Z</time></trkpt><trkpt lat="43.4615666" lon="11.8889744"><ele>266.3333333333333</ele><time>2026-04-26T08:52:03.753Z</time></trkpt><trkpt lat="43.4616437" lon="11.8889737"><ele>266.6666666666667</ele><time>2026-04-26T08:52:04.753Z</time></trkpt><trkpt lat="43.4617196" lon="11.8889715"><ele>267.0</ele><time>2026-04-26T08:52:05.753Z</time></trkpt><trkpt lat="43.4617939" lon="11.8889675"><ele>267.00000000000006</ele><time>2026-04-26T08:52:06.753Z</time></trkpt><trkpt lat="43.4618648" lon="11.8889628"><ele>267.0</ele><time>2026-04-26T08:52:07.754Z</time></trkpt><trkpt lat="43.4619346" lon="11.8889636"><ele>267.0</ele><time>2026-04-26T08:52:08.755Z</time></trkpt><trkpt lat="43.462006" lon="11.8889632"><ele>267.0</ele><time>2026-04-26T08:52:09.753Z</time></trkpt><trkpt lat="43.4620797" lon="11.8889634"><ele>267.0</ele><time>2026-04-26T08:52:10.753Z</time></trkpt><trkpt lat="43.4621586" lon="11.8889624"><ele>267.00000000000006</ele><time>2026-04-26T08:52:11.754Z</time></trkpt><trkpt lat="43.4622374" lon="11.8889592"><ele>267.0</ele><time>2026-04-26T08:52:12.754Z</time></trkpt><trkpt lat="43.4623049" lon="11.8889584"><ele>267.8</ele><time>2026-04-26T08:52:13.753Z</time></trkpt><trkpt lat="43.462411" lon="11.8889939"><ele>268.6</ele><time>2026-04-26T08:52:15.753Z</time></trkpt><trkpt lat="43.4625107" lon="11.8891157"><ele>269.40000000000003</ele><time>2026-04-26T08:52:17.753Z</time></trkpt><trkpt lat="43.4625649" lon="11.8891912"><ele>270.2</ele><time>2026-04-26T08:52:18.753Z</time></trkpt><trkpt lat="43.4626269" lon="11.8892645"><ele>271.0</ele><time>2026-04-26T08:52:19.754Z</time></trkpt><trkpt lat="43.4626948" lon="11.889337"><ele>271.0</ele><time>2026-04-26T08:52:20.753Z</time></trkpt><trkpt lat="43.4627679" lon="11.8894017"><ele>271.0</ele><time>2026-04-26T08:52:21.753Z</time></trkpt><trkpt lat="43.4628445" lon="11.8894573"><ele>271.0</ele><time>2026-04-26T08:52:22.754Z</time></trkpt><trkpt lat="43.4629217" lon="11.8895021"><ele>271.0</ele><time>2026-04-26T08:52:23.754Z</time></trkpt><trkpt lat="43.463" lon="11.8895316"><ele>271.0</ele><time>2026-04-26T08:52:24.753Z</time></trkpt><trkpt lat="43.463073" lon="11.8895465"><ele>271.0</ele><time>2026-04-26T08:52:25.753Z</time></trkpt><trkpt lat="43.4631382" lon="11.8895516"><ele>272.0</ele><time>2026-04-26T08:52:26.753Z</time></trkpt><trkpt lat="43.4632309" lon="11.8895359"><ele>273.0</ele><time>2026-04-26T08:52:28.753Z</time></trkpt><trkpt lat="43.4633177" lon="11.8895211"><ele>274.0</ele><time>2026-04-26T08:52:31.753Z</time></trkpt><trkpt lat="43.4634036" lon="11.8894991"><ele>275.0</ele><time>2026-04-26T08:52:34.752Z</time></trkpt><trkpt lat="43.4634867" lon="11.889475"><ele>276.0</ele><time>2026-04-26T08:52:44.754Z</time></trkpt><trkpt lat="43.46356" lon="11.8894733"><ele>277.0</ele><time>2026-04-26T08:52:45.753Z</time></trkpt><trkpt lat="43.46363" lon="11.8894917"><ele>277.0</ele><time>2026-04-26T08:52:46.753Z</time></trkpt><trkpt lat="43.4637067" lon="11.88952"><ele>277.0</ele><time>2026-04-26T08:52:47.754Z</time></trkpt><trkpt lat="43.4637867" lon="11.88956"><ele>277.0</ele><time>2026-04-26T08:52:48.753Z</time></trkpt><trkpt lat="43.4638733" lon="11.88961"><ele>277.0</ele><time>2026-04-26T08:52:49.754Z</time></trkpt><trkpt lat="43.463975" lon="11.8896617"><ele>277.0</ele><time>2026-04-26T08:52:50.754Z</time></trkpt><trkpt lat="43.4640783" lon="11.8897183"><ele>279.25</ele><time>2026-04-26T08:52:51.753Z</time></trkpt><trkpt lat="43.4641833" lon="11.889775"><ele>281.5</ele><time>2026-04-26T08:52:52.753Z</time></trkpt><trkpt lat="43.46429" lon="11.889835"><ele>283.75</ele><time>2026-04-26T08:52:53.754Z</time></trkpt><trkpt lat="43.4643967" lon="11.889895"><ele>286.0</ele><time>2026-04-26T08:52:54.753Z</time></trkpt><trkpt lat="43.4645017" lon="11.8899467"><ele>286.0</ele><time>2026-04-26T08:52:55.753Z</time></trkpt><trkpt lat="43.4646017" lon="11.89"><ele>286.0</ele><time>2026-04-26T08:52:56.754Z</time></trkpt><trkpt lat="43.4647033" lon="11.8900683"><ele>286.0</ele><time>2026-04-26T08:52:57.754Z</time></trkpt><trkpt lat="43.4647967" lon="11.89014"><ele>286.0</ele><time>2026-04-26T08:52:58.755Z</time></trkpt><trkpt lat="43.4648833" lon="11.8902217"><ele>286.0</ele><time>2026-04-26T08:52:59.754Z</time></trkpt><trkpt lat="43.46497" lon="11.8903083"><ele>286.0</ele><time>2026-04-26T08:53:00.753Z</time></trkpt><trkpt lat="43.4650617" lon="11.890385"><ele>286.0</ele><time>2026-04-26T08:53:01.753Z</time></trkpt><trkpt lat="43.4651567" lon="11.8904567"><ele>286.0</ele><time>2026-04-26T08:53:02.754Z</time></trkpt><trkpt lat="43.4652467" lon="11.890525"><ele>286.0</ele><time>2026-04-26T08:53:03.753Z</time></trkpt><trkpt lat="43.4653417" lon="11.8905867"><ele>286.0</ele><time>2026-04-26T08:53:04.753Z</time></trkpt><trkpt lat="43.4654417" lon="11.8906367"><ele>285.25</ele><time>2026-04-26T08:53:05.753Z</time></trkpt><trkpt lat="43.46556" lon="11.8906667"><ele>284.5</ele><time>2026-04-26T08:53:06.752Z</time></trkpt><trkpt lat="43.465675" lon="11.8906933"><ele>283.75</ele><time>2026-04-26T08:53:07.754Z</time></trkpt><trkpt lat="43.46579" lon="11.8907183"><ele>283.0</ele><time>2026-04-26T08:53:08.755Z</time></trkpt><trkpt lat="43.465905" lon="11.8907433"><ele>283.0</ele><time>2026-04-26T08:53:09.753Z</time></trkpt><trkpt lat="43.4660133" lon="11.8907783"><ele>283.0</ele><time>2026-04-26T08:53:10.754Z</time></trkpt><trkpt lat="43.4661167" lon="11.8908367"><ele>283.0</ele><time>2026-04-26T08:53:11.753Z</time></trkpt><trkpt lat="43.4662117" lon="11.89093"><ele>283.0</ele><time>2026-04-26T08:53:12.752Z</time></trkpt><trkpt lat="43.4663" lon="11.891045"><ele>281.25</ele><time>2026-04-26T08:53:13.754Z</time></trkpt><trkpt lat="43.4663833" lon="11.8911683"><ele>279.5</ele><time>2026-04-26T08:53:14.754Z</time></trkpt><trkpt lat="43.466465" lon="11.8912933"><ele>277.75</ele><time>2026-04-26T08:53:15.753Z</time></trkpt><trkpt lat="43.4665467" lon="11.8914167"><ele>276.0</ele><time>2026-04-26T08:53:16.754Z</time></trkpt><trkpt lat="43.4666233" lon="11.891535"><ele>276.0</ele><time>2026-04-26T08:53:17.753Z</time></trkpt><trkpt lat="43.466695" lon="11.891645"><ele>276.0</ele><time>2026-04-26T08:53:18.754Z</time></trkpt><trkpt lat="43.466765" lon="11.8917483"><ele>276.0</ele><time>2026-04-26T08:53:19.754Z</time></trkpt><trkpt lat="43.4668317" lon="11.8918433"><ele>276.0</ele><time>2026-04-26T08:53:20.754Z</time></trkpt><trkpt lat="43.4668917" lon="11.891935"><ele>276.0</ele><time>2026-04-26T08:53:21.754Z</time></trkpt><trkpt lat="43.4669483" lon="11.8920183"><ele>275.5</ele><time>2026-04-26T08:53:22.753Z</time></trkpt><trkpt lat="43.46701" lon="11.8920933"><ele>275.0</ele><time>2026-04-26T08:53:23.753Z</time></trkpt><trkpt lat="43.4670733" lon="11.892165"><ele>274.5</ele><time>2026-04-26T08:53:24.754Z</time></trkpt><trkpt lat="43.4671383" lon="11.892235"><ele>274.0</ele><time>2026-04-26T08:53:25.754Z</time></trkpt><trkpt lat="43.4671983" lon="11.8923017"><ele>273.5</ele><time>2026-04-26T08:53:26.754Z</time></trkpt><trkpt lat="43.46728" lon="11.8923467"><ele>273.0</ele><time>2026-04-26T08:53:27.753Z</time></trkpt><trkpt lat="43.4673533" lon="11.8923783"><ele>273.0</ele><time>2026-04-26T08:53:28.754Z</time></trkpt><trkpt lat="43.4674367" lon="11.8923867"><ele>273.0</ele><time>2026-04-26T08:53:29.754Z</time></trkpt><trkpt lat="43.4675267" lon="11.89239"><ele>273.0</ele><time>2026-04-26T08:53:30.753Z</time></trkpt><trkpt lat="43.467625" lon="11.89239"><ele>273.0</ele><time>2026-04-26T08:53:31.753Z</time></trkpt><trkpt lat="43.4677267" lon="11.8923917"><ele>273.0</ele><time>2026-04-26T08:53:32.754Z</time></trkpt><trkpt lat="43.467825" lon="11.8923933"><ele>273.0</ele><time>2026-04-26T08:53:33.754Z</time></trkpt><trkpt lat="43.4679133" lon="11.8923917"><ele>273.0</ele><time>2026-04-26T08:53:34.754Z</time></trkpt><trkpt lat="43.4679983" lon="11.892385"><ele>273.0</ele><time>2026-04-26T08:53:35.754Z</time></trkpt><trkpt lat="43.468075" lon="11.892375"><ele>273.0</ele><time>2026-04-26T08:53:36.754Z</time></trkpt><trkpt lat="43.4681483" lon="11.8923667"><ele>273.0</ele><time>2026-04-26T08:53:37.754Z</time></trkpt><trkpt lat="43.4682467" lon="11.8924333"><ele>273.0</ele><time>2026-04-26T08:53:39.754Z</time></trkpt><trkpt lat="43.46829" lon="11.892515"><ele>272.2</ele><time>2026-04-26T08:53:40.753Z</time></trkpt><trkpt lat="43.4683367" lon="11.8926133"><ele>271.4</ele><time>2026-04-26T08:53:41.753Z</time></trkpt><trkpt lat="43.468385" lon="11.89272"><ele>270.59999999999997</ele><time>2026-04-26T08:53:42.753Z</time></trkpt><trkpt lat="43.4684383" lon="11.89284"><ele>269.8</ele><time>2026-04-26T08:53:43.754Z</time></trkpt><trkpt lat="43.468495" lon="11.892965"><ele>269.0</ele><time>2026-04-26T08:53:44.754Z</time></trkpt><trkpt lat="43.4685533" lon="11.8930917"><ele>269.0</ele><time>2026-04-26T08:53:45.753Z</time></trkpt><trkpt lat="43.4686117" lon="11.8932167"><ele>269.0</ele><time>2026-04-26T08:53:46.754Z</time></trkpt><trkpt lat="43.4686717" lon="11.8933483"><ele>269.0</ele><time>2026-04-26T08:53:47.753Z</time></trkpt><trkpt lat="43.4687333" lon="11.8934783"><ele>269.0</ele><time>2026-04-26T08:53:48.753Z</time></trkpt><trkpt lat="43.468795" lon="11.893605"><ele>269.0</ele><time>2026-04-26T08:53:49.755Z</time></trkpt><trkpt lat="43.468855" lon="11.8937217"><ele>270.2</ele><time>2026-04-26T08:53:50.754Z</time></trkpt><trkpt lat="43.468915" lon="11.8938333"><ele>271.4</ele><time>2026-04-26T08:53:51.753Z</time></trkpt><trkpt lat="43.4689783" lon="11.89394"><ele>272.6</ele><time>2026-04-26T08:53:52.754Z</time></trkpt><trkpt lat="43.469035" lon="11.89403"><ele>273.8</ele><time>2026-04-26T08:53:53.753Z</time></trkpt><trkpt lat="43.469085" lon="11.8941"><ele>275.0</ele><time>2026-04-26T08:53:54.754Z</time></trkpt><trkpt lat="43.4691867" lon="11.8941617"><ele>275.0</ele><time>2026-04-26T08:53:56.754Z</time></trkpt><trkpt lat="43.4692533" lon="11.8941533"><ele>275.0</ele><time>2026-04-26T08:53:57.753Z</time></trkpt><trkpt lat="43.4693217" lon="11.8941317"><ele>275.0</ele><time>2026-04-26T08:53:58.753Z</time></trkpt><trkpt lat="43.4693917" lon="11.8941167"><ele>275.0</ele><time>2026-04-26T08:53:59.754Z</time></trkpt><trkpt lat="43.4694667" lon="11.8941033"><ele>275.0</ele><time>2026-04-26T08:54:00.754Z</time></trkpt><trkpt lat="43.4695383" lon="11.89409"><ele>275.0</ele><time>2026-04-26T08:54:01.754Z</time></trkpt><trkpt lat="43.469605" lon="11.8940733"><ele>275.0</ele><time>2026-04-26T08:54:02.755Z</time></trkpt><trkpt lat="43.4696783" lon="11.8940667"><ele>275.2857142857143</ele><time>2026-04-26T08:54:03.753Z</time></trkpt><trkpt lat="43.4697517" lon="11.8940617"><ele>275.57142857142856</ele><time>2026-04-26T08:54:04.754Z</time></trkpt><trkpt lat="43.4698233" lon="11.8940633"><ele>275.85714285714283</ele><time>2026-04-26T08:54:05.754Z</time></trkpt><trkpt lat="43.46989" lon="11.8940717"><ele>276.1428571428571</ele><time>2026-04-26T08:54:06.753Z</time></trkpt><trkpt lat="43.469955" lon="11.8940783"><ele>276.4285714285714</ele><time>2026-04-26T08:54:07.754Z</time></trkpt><trkpt lat="43.4700217" lon="11.8940883"><ele>276.7142857142857</ele><time>2026-04-26T08:54:08.754Z</time></trkpt><trkpt lat="43.4700883" lon="11.8940967"><ele>277.0</ele><time>2026-04-26T08:54:09.754Z</time></trkpt><trkpt lat="43.4701517" lon="11.894105"><ele>277.0</ele><time>2026-04-26T08:54:10.754Z</time></trkpt><trkpt lat="43.4702183" lon="11.8941067"><ele>277.0</ele><time>2026-04-26T08:54:11.754Z</time></trkpt><trkpt lat="43.4702817" lon="11.8941033"><ele>277.0</ele><time>2026-04-26T08:54:12.753Z</time></trkpt><trkpt lat="43.4703983" lon="11.894075"><ele>277.0</ele><time>2026-04-26T08:54:14.753Z</time></trkpt><trkpt lat="43.4705183" lon="11.894025"><ele>277.0</ele><time>2026-04-26T08:54:16.753Z</time></trkpt><trkpt lat="43.4705867" lon="11.8939967"><ele>277.0</ele><time>2026-04-26T08:54:17.754Z</time></trkpt><trkpt lat="43.470655" lon="11.89397"><ele>277.3333333333333</ele><time>2026-04-26T08:54:18.754Z</time></trkpt><trkpt lat="43.47072" lon="11.8939433"><ele>277.66666666666663</ele><time>2026-04-26T08:54:19.754Z</time></trkpt><trkpt lat="43.4707833" lon="11.8939183"><ele>278.0</ele><time>2026-04-26T08:54:20.754Z</time></trkpt><trkpt lat="43.4709033" lon="11.8938917"><ele>278.3333333333333</ele><time>2026-04-26T08:54:22.753Z</time></trkpt><trkpt lat="43.47097" lon="11.8939033"><ele>278.6666666666667</ele><time>2026-04-26T08:54:23.754Z</time></trkpt><trkpt lat="43.4710383" lon="11.8939217"><ele>279.0</ele><time>2026-04-26T08:54:24.754Z</time></trkpt><trkpt lat="43.47111" lon="11.8939433"><ele>278.99999999999994</ele><time>2026-04-26T08:54:25.753Z</time></trkpt><trkpt lat="43.47118" lon="11.8939567"><ele>279.0</ele><time>2026-04-26T08:54:26.754Z</time></trkpt><trkpt lat="43.471255" lon="11.8939567"><ele>279.0</ele><time>2026-04-26T08:54:27.754Z</time></trkpt><trkpt lat="43.471325" lon="11.8939383"><ele>279.0</ele><time>2026-04-26T08:54:28.754Z</time></trkpt><trkpt lat="43.4713983" lon="11.8939133"><ele>279.0</ele><time>2026-04-26T08:54:29.753Z</time></trkpt><trkpt lat="43.4714617" lon="11.893885"><ele>278.99999999999994</ele><time>2026-04-26T08:54:30.753Z</time></trkpt><trkpt lat="43.4715261" lon="11.8938459"><ele>279.0</ele><time>2026-04-26T08:54:31.754Z</time></trkpt><trkpt lat="43.4715923" lon="11.8938059"><ele>279.8</ele><time>2026-04-26T08:54:32.754Z</time></trkpt><trkpt lat="43.4716537" lon="11.8937646"><ele>280.59999999999997</ele><time>2026-04-26T08:54:33.753Z</time></trkpt><trkpt lat="43.4717621" lon="11.8936915"><ele>281.4</ele><time>2026-04-26T08:54:35.755Z</time></trkpt><trkpt lat="43.4718502" lon="11.8936295"><ele>282.2</ele><time>2026-04-26T08:54:37.754Z</time></trkpt><trkpt lat="43.4719121" lon="11.8935608"><ele>283.0</ele><time>2026-04-26T08:54:39.753Z</time></trkpt><trkpt lat="43.4720015" lon="11.8935531"><ele>283.0</ele><time>2026-04-26T08:54:41.753Z</time></trkpt><trkpt lat="43.4721063" lon="11.8935778"><ele>283.0</ele><time>2026-04-26T08:54:43.754Z</time></trkpt><trkpt lat="43.4721786" lon="11.8935437"><ele>283.0</ele><time>2026-04-26T08:54:44.755Z</time></trkpt><trkpt lat="43.4722488" lon="11.8935106"><ele>283.0</ele><time>2026-04-26T08:54:45.754Z</time></trkpt><trkpt lat="43.4723234" lon="11.8934939"><ele>283.0</ele><time>2026-04-26T08:54:46.755Z</time></trkpt><trkpt lat="43.4724022" lon="11.8934853"><ele>283.0</ele><time>2026-04-26T08:54:47.754Z</time></trkpt><trkpt lat="43.4724868" lon="11.8934806"><ele>283.6</ele><time>2026-04-26T08:54:48.754Z</time></trkpt><trkpt lat="43.4725771" lon="11.8934742"><ele>284.20000000000005</ele><time>2026-04-26T08:54:49.754Z</time></trkpt><trkpt lat="43.4726739" lon="11.893473"><ele>284.8</ele><time>2026-04-26T08:54:50.754Z</time></trkpt><trkpt lat="43.4727719" lon="11.893476"><ele>285.40000000000003</ele><time>2026-04-26T08:54:51.754Z</time></trkpt><trkpt lat="43.4728684" lon="11.8934811"><ele>286.0</ele><time>2026-04-26T08:54:52.753Z</time></trkpt><trkpt lat="43.4729612" lon="11.8934917"><ele>286.0</ele><time>2026-04-26T08:54:53.754Z</time></trkpt><trkpt lat="43.4730533" lon="11.8935088"><ele>286.0</ele><time>2026-04-26T08:54:54.753Z</time></trkpt><trkpt lat="43.4731413" lon="11.893521"><ele>286.0</ele><time>2026-04-26T08:54:55.754Z</time></trkpt><trkpt lat="43.4732188" lon="11.8935212"><ele>286.0</ele><time>2026-04-26T08:54:56.754Z</time></trkpt><trkpt lat="43.4732849" lon="11.8935264"><ele>286.0</ele><time>2026-04-26T08:54:57.753Z</time></trkpt><trkpt lat="43.4733911" lon="11.8935281"><ele>286.0</ele><time>2026-04-26T08:54:59.753Z</time></trkpt><trkpt lat="43.473502" lon="11.8935267"><ele>286.0</ele><time>2026-04-26T08:55:01.754Z</time></trkpt><trkpt lat="43.4736285" lon="11.893539"><ele>286.0</ele><time>2026-04-26T08:55:03.753Z</time></trkpt><trkpt lat="43.4737378" lon="11.8935616"><ele>286.0</ele><time>2026-04-26T08:55:05.754Z</time></trkpt><trkpt lat="43.4738665" lon="11.893575"><ele>286.0</ele><time>2026-04-26T08:55:07.754Z</time></trkpt><trkpt lat="43.473941" lon="11.8935842"><ele>286.0</ele><time>2026-04-26T08:55:08.754Z</time></trkpt><trkpt lat="43.4740219" lon="11.8935969"><ele>284.85714285714283</ele><time>2026-04-26T08:55:09.753Z</time></trkpt><trkpt lat="43.4741008" lon="11.8936127"><ele>283.7142857142857</ele><time>2026-04-26T08:55:10.754Z</time></trkpt><trkpt lat="43.4741694" lon="11.8936281"><ele>282.57142857142856</ele><time>2026-04-26T08:55:11.754Z</time></trkpt><trkpt lat="43.4742361" lon="11.8936424"><ele>281.42857142857144</ele><time>2026-04-26T08:55:12.754Z</time></trkpt><trkpt lat="43.4743037" lon="11.8936524"><ele>280.2857142857143</ele><time>2026-04-26T08:55:13.754Z</time></trkpt><trkpt lat="43.4743769" lon="11.8936621"><ele>279.1428571428571</ele><time>2026-04-26T08:55:14.754Z</time></trkpt><trkpt lat="43.4744546" lon="11.8936731"><ele>278.0</ele><time>2026-04-26T08:55:15.752Z</time></trkpt><trkpt lat="43.4745388" lon="11.8936887"><ele>276.6666666666667</ele><time>2026-04-26T08:55:16.753Z</time></trkpt><trkpt lat="43.4746244" lon="11.8937051"><ele>275.33333333333337</ele><time>2026-04-26T08:55:17.753Z</time></trkpt><trkpt lat="43.4747087" lon="11.8937248"><ele>274.0</ele><time>2026-04-26T08:55:18.753Z</time></trkpt><trkpt lat="43.4747899" lon="11.8937467"><ele>272.6666666666667</ele><time>2026-04-26T08:55:19.754Z</time></trkpt><trkpt lat="43.4748687" lon="11.8937723"><ele>271.3333333333333</ele><time>2026-04-26T08:55:20.755Z</time></trkpt><trkpt lat="43.4749497" lon="11.8937927"><ele>270.0</ele><time>2026-04-26T08:55:21.753Z</time></trkpt><trkpt lat="43.4750314" lon="11.8938062"><ele>270.0</ele><time>2026-04-26T08:55:22.754Z</time></trkpt><trkpt lat="43.4751144" lon="11.8938188"><ele>270.0</ele><time>2026-04-26T08:55:23.754Z</time></trkpt><trkpt lat="43.4751978" lon="11.8938336"><ele>270.0</ele><time>2026-04-26T08:55:24.753Z</time></trkpt><trkpt lat="43.4752785" lon="11.8938526"><ele>270.0</ele><time>2026-04-26T08:55:25.755Z</time></trkpt><trkpt lat="43.4753559" lon="11.8938687"><ele>270.0</ele><time>2026-04-26T08:55:26.754Z</time></trkpt><trkpt lat="43.4754323" lon="11.8938808"><ele>270.0</ele><time>2026-04-26T08:55:27.753Z</time></trkpt><trkpt lat="43.4755127" lon="11.8938849"><ele>269.1666666666667</ele><time>2026-04-26T08:55:28.754Z</time></trkpt><trkpt lat="43.4755944" lon="11.8938804"><ele>268.3333333333333</ele><time>2026-04-26T08:55:29.757Z</time></trkpt><trkpt lat="43.4756776" lon="11.8938729"><ele>267.5</ele><time>2026-04-26T08:55:30.753Z</time></trkpt><trkpt lat="43.4757641" lon="11.8938644"><ele>266.66666666666663</ele><time>2026-04-26T08:55:31.755Z</time></trkpt><trkpt lat="43.475851" lon="11.893856"><ele>265.8333333333333</ele><time>2026-04-26T08:55:32.754Z</time></trkpt><trkpt lat="43.4759393" lon="11.893845"><ele>265.0</ele><time>2026-04-26T08:55:33.753Z</time></trkpt><trkpt lat="43.4760276" lon="11.8938346"><ele>265.0</ele><time>2026-04-26T08:55:34.753Z</time></trkpt><trkpt lat="43.4761133" lon="11.893825"><ele>265.0</ele><time>2026-04-26T08:55:35.753Z</time></trkpt><trkpt lat="43.4761982" lon="11.8938153"><ele>265.0</ele><time>2026-04-26T08:55:36.753Z</time></trkpt><trkpt lat="43.4762806" lon="11.8938083"><ele>265.0</ele><time>2026-04-26T08:55:37.754Z</time></trkpt><trkpt lat="43.4763637" lon="11.8938002"><ele>265.0</ele><time>2026-04-26T08:55:38.754Z</time></trkpt><trkpt lat="43.4764484" lon="11.8937886"><ele>265.0</ele><time>2026-04-26T08:55:39.756Z</time></trkpt><trkpt lat="43.4765334" lon="11.8937769"><ele>266.0</ele><time>2026-04-26T08:55:40.755Z</time></trkpt><trkpt lat="43.4766187" lon="11.8937661"><ele>267.0</ele><time>2026-04-26T08:55:41.754Z</time></trkpt><trkpt lat="43.4767034" lon="11.893756"><ele>268.0</ele><time>2026-04-26T08:55:42.753Z</time></trkpt><trkpt lat="43.4767775" lon="11.8937486"><ele>269.0</ele><time>2026-04-26T08:55:43.755Z</time></trkpt><trkpt lat="43.4768474" lon="11.8937462"><ele>270.0</ele><time>2026-04-26T08:55:44.754Z</time></trkpt><trkpt lat="43.4769193" lon="11.8937441"><ele>271.0</ele><time>2026-04-26T08:55:45.752Z</time></trkpt><trkpt lat="43.4769935" lon="11.8937349"><ele>271.0</ele><time>2026-04-26T08:55:46.754Z</time></trkpt><trkpt lat="43.4770706" lon="11.8937304"><ele>271.0</ele><time>2026-04-26T08:55:47.754Z</time></trkpt><trkpt lat="43.4771407" lon="11.8937263"><ele>271.0</ele><time>2026-04-26T08:55:48.754Z</time></trkpt><trkpt lat="43.477252" lon="11.8937227"><ele>271.0</ele><time>2026-04-26T08:55:50.754Z</time></trkpt><trkpt lat="43.4773467" lon="11.8937394"><ele>271.0</ele><time>2026-04-26T08:55:52.753Z</time></trkpt><trkpt lat="43.4774639" lon="11.8937595"><ele>271.2</ele><time>2026-04-26T08:55:54.754Z</time></trkpt><trkpt lat="43.4775907" lon="11.8937944"><ele>271.40000000000003</ele><time>2026-04-26T08:55:56.754Z</time></trkpt><trkpt lat="43.4776592" lon="11.8938121"><ele>271.6</ele><time>2026-04-26T08:55:57.753Z</time></trkpt><trkpt lat="43.4777267" lon="11.8938305"><ele>271.8</ele><time>2026-04-26T08:55:58.754Z</time></trkpt><trkpt lat="43.4778421" lon="11.8938605"><ele>272.0</ele><time>2026-04-26T08:56:00.753Z</time></trkpt><trkpt lat="43.4779455" lon="11.8938798"><ele>272.0</ele><time>2026-04-26T08:56:02.754Z</time></trkpt><trkpt lat="43.4780601" lon="11.8938958"><ele>272.0</ele><time>2026-04-26T08:56:04.755Z</time></trkpt><trkpt lat="43.4781279" lon="11.8939094"><ele>272.0</ele><time>2026-04-26T08:56:05.753Z</time></trkpt><trkpt lat="43.478197" lon="11.8939319"><ele>272.0</ele><time>2026-04-26T08:56:06.754Z</time></trkpt><trkpt lat="43.4782695" lon="11.8939655"><ele>272.0</ele><time>2026-04-26T08:56:07.754Z</time></trkpt><trkpt lat="43.4783413" lon="11.8940028"><ele>272.0</ele><time>2026-04-26T08:56:08.754Z</time></trkpt><trkpt lat="43.4784128" lon="11.894044"><ele>272.0</ele><time>2026-04-26T08:56:09.753Z</time></trkpt><trkpt lat="43.4784857" lon="11.8940933"><ele>272.0</ele><time>2026-04-26T08:56:10.754Z</time></trkpt><trkpt lat="43.4785575" lon="11.894142"><ele>272.0</ele><time>2026-04-26T08:56:11.752Z</time></trkpt><trkpt lat="43.4786306" lon="11.8941969"><ele>272.0</ele><time>2026-04-26T08:56:12.753Z</time></trkpt><trkpt lat="43.4786986" lon="11.8942494"><ele>272.0</ele><time>2026-04-26T08:56:13.753Z</time></trkpt><trkpt lat="43.4788023" lon="11.8943192"><ele>272.0</ele><time>2026-04-26T08:56:15.753Z</time></trkpt><trkpt lat="43.4789017" lon="11.8943741"><ele>272.33333333333337</ele><time>2026-04-26T08:56:17.754Z</time></trkpt><trkpt lat="43.4790053" lon="11.8944485"><ele>272.6666666666667</ele><time>2026-04-26T08:56:19.753Z</time></trkpt><trkpt lat="43.4790997" lon="11.8945336"><ele>273.0</ele><time>2026-04-26T08:56:21.754Z</time></trkpt><trkpt lat="43.479154" lon="11.8945859"><ele>273.3333333333333</ele><time>2026-04-26T08:56:22.754Z</time></trkpt><trkpt lat="43.4792121" lon="11.8946427"><ele>273.66666666666663</ele><time>2026-04-26T08:56:23.753Z</time></trkpt><trkpt lat="43.4792732" lon="11.8946962"><ele>274.0</ele><time>2026-04-26T08:56:24.754Z</time></trkpt><trkpt lat="43.4793381" lon="11.8947365"><ele>274.0</ele><time>2026-04-26T08:56:25.754Z</time></trkpt><trkpt lat="43.4794109" lon="11.8947681"><ele>274.0</ele><time>2026-04-26T08:56:26.754Z</time></trkpt><trkpt lat="43.4794939" lon="11.8947985"><ele>274.0</ele><time>2026-04-26T08:56:27.753Z</time></trkpt><trkpt lat="43.4795831" lon="11.894828"><ele>274.0</ele><time>2026-04-26T08:56:28.753Z</time></trkpt><trkpt lat="43.4796718" lon="11.8948675"><ele>274.0</ele><time>2026-04-26T08:56:29.754Z</time></trkpt><trkpt lat="43.4797595" lon="11.8949145"><ele>274.0</ele><time>2026-04-26T08:56:30.755Z</time></trkpt><trkpt lat="43.4798448" lon="11.894962"><ele>273.5</ele><time>2026-04-26T08:56:31.753Z</time></trkpt><trkpt lat="43.4799302" lon="11.8950105"><ele>273.0</ele><time>2026-04-26T08:56:32.754Z</time></trkpt><trkpt lat="43.4800135" lon="11.8950643"><ele>272.5</ele><time>2026-04-26T08:56:33.753Z</time></trkpt><trkpt lat="43.4800943" lon="11.8951192"><ele>272.0</ele><time>2026-04-26T08:56:34.755Z</time></trkpt><trkpt lat="43.480173" lon="11.895171"><ele>271.5</ele><time>2026-04-26T08:56:35.753Z</time></trkpt><trkpt lat="43.4802508" lon="11.8952235"><ele>271.0</ele><time>2026-04-26T08:56:36.754Z</time></trkpt><trkpt lat="43.4803297" lon="11.8952742"><ele>271.0</ele><time>2026-04-26T08:56:37.753Z</time></trkpt><trkpt lat="43.4804111" lon="11.8953185"><ele>271.0</ele><time>2026-04-26T08:56:38.753Z</time></trkpt><trkpt lat="43.4804894" lon="11.8953625"><ele>271.0</ele><time>2026-04-26T08:56:39.753Z</time></trkpt><trkpt lat="43.4805689" lon="11.8954108"><ele>271.0</ele><time>2026-04-26T08:56:40.753Z</time></trkpt><trkpt lat="43.4806531" lon="11.8954609"><ele>271.0</ele><time>2026-04-26T08:56:41.753Z</time></trkpt><trkpt lat="43.4807383" lon="11.8955048"><ele>271.0</ele><time>2026-04-26T08:56:42.754Z</time></trkpt><trkpt lat="43.4808236" lon="11.8955482"><ele>269.66666666666663</ele><time>2026-04-26T08:56:43.754Z</time></trkpt><trkpt lat="43.4809058" lon="11.895587"><ele>268.3333333333333</ele><time>2026-04-26T08:56:44.753Z</time></trkpt><trkpt lat="43.480984" lon="11.8956183"><ele>267.0</ele><time>2026-04-26T08:56:45.755Z</time></trkpt><trkpt lat="43.481059" lon="11.8956483"><ele>265.6666666666667</ele><time>2026-04-26T08:56:46.753Z</time></trkpt><trkpt lat="43.4811376" lon="11.8956772"><ele>264.33333333333337</ele><time>2026-04-26T08:56:47.753Z</time></trkpt><trkpt lat="43.4812198" lon="11.8957025"><ele>263.0</ele><time>2026-04-26T08:56:48.753Z</time></trkpt><trkpt lat="43.4813055" lon="11.895721"><ele>262.5</ele><time>2026-04-26T08:56:49.754Z</time></trkpt><trkpt lat="43.4813947" lon="11.8957419"><ele>262.0</ele><time>2026-04-26T08:56:50.755Z</time></trkpt><trkpt lat="43.4814823" lon="11.8957593"><ele>261.5</ele><time>2026-04-26T08:56:51.755Z</time></trkpt><trkpt lat="43.4815704" lon="11.8957628"><ele>261.0</ele><time>2026-04-26T08:56:52.753Z</time></trkpt><trkpt lat="43.4816524" lon="11.8957649"><ele>260.5</ele><time>2026-04-26T08:56:53.753Z</time></trkpt><trkpt lat="43.4817238" lon="11.8957576"><ele>260.0</ele><time>2026-04-26T08:56:54.752Z</time></trkpt><trkpt lat="43.4817868" lon="11.8957602"><ele>260.0</ele><time>2026-04-26T08:56:55.753Z</time></trkpt><trkpt lat="43.4818976" lon="11.8957761"><ele>260.0</ele><time>2026-04-26T08:56:57.753Z</time></trkpt><trkpt lat="43.481967" lon="11.8957772"><ele>260.0</ele><time>2026-04-26T08:56:59.754Z</time></trkpt><trkpt lat="43.4820137" lon="11.8956722"><ele>260.0</ele><time>2026-04-26T08:57:03.754Z</time></trkpt><trkpt lat="43.4819886" lon="11.8954713"><ele>260.0</ele><time>2026-04-26T08:57:05.754Z</time></trkpt><trkpt lat="43.4819771" lon="11.8953244"><ele>260.0</ele><time>2026-04-26T08:57:06.753Z</time></trkpt><trkpt lat="43.4819646" lon="11.8951678"><ele>260.0</ele><time>2026-04-26T08:57:07.754Z</time></trkpt><trkpt lat="43.4819495" lon="11.895006"><ele>260.0</ele><time>2026-04-26T08:57:08.754Z</time></trkpt><trkpt lat="43.4819365" lon="11.8948366"><ele>260.0</ele><time>2026-04-26T08:57:09.753Z</time></trkpt><trkpt lat="43.4819232" lon="11.8946652"><ele>259.75</ele><time>2026-04-26T08:57:10.754Z</time></trkpt><trkpt lat="43.4819109" lon="11.8944998"><ele>259.5</ele><time>2026-04-26T08:57:11.754Z</time></trkpt><trkpt lat="43.4819004" lon="11.8943431"><ele>259.25</ele><time>2026-04-26T08:57:12.754Z</time></trkpt><trkpt lat="43.4818904" lon="11.8941924"><ele>259.0</ele><time>2026-04-26T08:57:13.754Z</time></trkpt><trkpt lat="43.4818783" lon="11.8940443"><ele>259.0</ele><time>2026-04-26T08:57:14.754Z</time></trkpt><trkpt lat="43.4818663" lon="11.8938994"><ele>259.0</ele><time>2026-04-26T08:57:15.754Z</time></trkpt><trkpt lat="43.4818555" lon="11.8937579"><ele>259.0</ele><time>2026-04-26T08:57:16.753Z</time></trkpt><trkpt lat="43.4818443" lon="11.8936165"><ele>259.0</ele><time>2026-04-26T08:57:17.753Z</time></trkpt><trkpt lat="43.4818341" lon="11.8934719"><ele>259.0</ele><time>2026-04-26T08:57:18.753Z</time></trkpt><trkpt lat="43.4818233" lon="11.8933233"><ele>258.59999999999997</ele><time>2026-04-26T08:57:19.753Z</time></trkpt><trkpt lat="43.4818117" lon="11.8931767"><ele>258.2</ele><time>2026-04-26T08:57:20.754Z</time></trkpt><trkpt lat="43.4818" lon="11.8930267"><ele>257.79999999999995</ele><time>2026-04-26T08:57:21.753Z</time></trkpt><trkpt lat="43.48179" lon="11.8928767"><ele>257.4</ele><time>2026-04-26T08:57:22.754Z</time></trkpt><trkpt lat="43.4817783" lon="11.8927267"><ele>257.0</ele><time>2026-04-26T08:57:23.754Z</time></trkpt><trkpt lat="43.4817683" lon="11.8925817"><ele>257.0</ele><time>2026-04-26T08:57:24.753Z</time></trkpt><trkpt lat="43.48176" lon="11.8924417"><ele>257.0</ele><time>2026-04-26T08:57:25.753Z</time></trkpt><trkpt lat="43.4817567" lon="11.8923017"><ele>257.0</ele><time>2026-04-26T08:57:26.756Z</time></trkpt><trkpt lat="43.481755" lon="11.8921683"><ele>257.0</ele><time>2026-04-26T08:57:27.753Z</time></trkpt><trkpt lat="43.4817517" lon="11.89204"><ele>257.0</ele><time>2026-04-26T08:57:28.753Z</time></trkpt><trkpt lat="43.4817433" lon="11.8919017"><ele>257.0</ele><time>2026-04-26T08:57:29.754Z</time></trkpt><trkpt lat="43.4817333" lon="11.8917667"><ele>257.0</ele><time>2026-04-26T08:57:30.754Z</time></trkpt><trkpt lat="43.4817233" lon="11.891635"><ele>257.0</ele><time>2026-04-26T08:57:31.754Z</time></trkpt><trkpt lat="43.4817117" lon="11.8915017"><ele>257.0</ele><time>2026-04-26T08:57:32.754Z</time></trkpt><trkpt lat="43.4817017" lon="11.8913633"><ele>257.0</ele><time>2026-04-26T08:57:33.753Z</time></trkpt><trkpt lat="43.4816917" lon="11.8912183"><ele>256.83333333333337</ele><time>2026-04-26T08:57:34.753Z</time></trkpt><trkpt lat="43.4816833" lon="11.891075"><ele>256.6666666666667</ele><time>2026-04-26T08:57:35.753Z</time></trkpt><trkpt lat="43.4816767" lon="11.8909433"><ele>256.5</ele><time>2026-04-26T08:57:36.753Z</time></trkpt><trkpt lat="43.4816733" lon="11.8908183"><ele>256.3333333333333</ele><time>2026-04-26T08:57:37.753Z</time></trkpt><trkpt lat="43.4816667" lon="11.89071"><ele>256.16666666666663</ele><time>2026-04-26T08:57:38.756Z</time></trkpt><trkpt lat="43.4816583" lon="11.8906183"><ele>256.0</ele><time>2026-04-26T08:57:39.753Z</time></trkpt><trkpt lat="43.481655" lon="11.8905"><ele>255.85714285714283</ele><time>2026-04-26T08:57:41.753Z</time></trkpt><trkpt lat="43.4816633" lon="11.89041"><ele>255.7142857142857</ele><time>2026-04-26T08:57:44.754Z</time></trkpt><trkpt lat="43.4816633" lon="11.89031"><ele>255.57142857142856</ele><time>2026-04-26T08:57:48.753Z</time></trkpt><trkpt lat="43.4816367" lon="11.8902217"><ele>255.42857142857144</ele><time>2026-04-26T08:57:53.754Z</time></trkpt><trkpt lat="43.481625" lon="11.8903183"><ele>255.2857142857143</ele><time>2026-04-26T08:57:56.754Z</time></trkpt><trkpt lat="43.4816383" lon="11.890415"><ele>255.14285714285717</ele><time>2026-04-26T08:57:58.754Z</time></trkpt><trkpt lat="43.4816517" lon="11.8905"><ele>255.0</ele><time>2026-04-26T08:58:01.754Z</time></trkpt><trkpt lat="43.4817333" lon="11.890505"><ele>255.0</ele><time>2026-04-26T08:58:04.753Z</time></trkpt><trkpt lat="43.481795" lon="11.890525"><ele>255.00000000000003</ele><time>2026-04-26T08:58:06.753Z</time></trkpt><trkpt lat="43.4818633" lon="11.890535"><ele>255.0</ele><time>2026-04-26T08:58:08.754Z</time></trkpt><trkpt lat="43.4819317" lon="11.8905383"><ele>255.0</ele><time>2026-04-26T08:58:10.754Z</time></trkpt><trkpt lat="43.4820133" lon="11.8905467"><ele>255.00000000000003</ele><time>2026-04-26T08:58:12.753Z</time></trkpt><trkpt lat="43.4821" lon="11.89055"><ele>255.0</ele><time>2026-04-26T08:58:14.753Z</time></trkpt><trkpt lat="43.48218" lon="11.8905483"><ele>255.0</ele><time>2026-04-26T08:58:16.753Z</time></trkpt><trkpt lat="43.4822533" lon="11.89055"><ele>254.83333333333334</ele><time>2026-04-26T08:58:18.753Z</time></trkpt><trkpt lat="43.4823517" lon="11.8905567"><ele>254.66666666666669</ele><time>2026-04-26T08:58:21.753Z</time></trkpt><trkpt lat="43.4824383" lon="11.8905867"><ele>254.5</ele><time>2026-04-26T08:58:23.754Z</time></trkpt><trkpt lat="43.4825433" lon="11.8906433"><ele>254.33333333333334</ele><time>2026-04-26T08:58:25.754Z</time></trkpt><trkpt lat="43.4826017" lon="11.890685"><ele>254.16666666666669</ele><time>2026-04-26T08:58:26.754Z</time></trkpt><trkpt lat="43.4826617" lon="11.8907317"><ele>254.0</ele><time>2026-04-26T08:58:27.753Z</time></trkpt><trkpt lat="43.4827217" lon="11.8907833"><ele>254.0</ele><time>2026-04-26T08:58:28.754Z</time></trkpt><trkpt lat="43.4827833" lon="11.89084"><ele>254.0</ele><time>2026-04-26T08:58:29.754Z</time></trkpt><trkpt lat="43.4828433" lon="11.8909"><ele>254.0</ele><time>2026-04-26T08:58:30.753Z</time></trkpt><trkpt lat="43.482905" lon="11.89096"><ele>254.0</ele><time>2026-04-26T08:58:31.754Z</time></trkpt><trkpt lat="43.4829683" lon="11.8910133"><ele>254.0</ele><time>2026-04-26T08:58:32.754Z</time></trkpt><trkpt lat="43.483025" lon="11.891065"><ele>254.0</ele><time>2026-04-26T08:58:33.754Z</time></trkpt><trkpt lat="43.483085" lon="11.891105"><ele>254.0</ele><time>2026-04-26T08:58:34.754Z</time></trkpt><trkpt lat="43.4831533" lon="11.8911317"><ele>254.33333333333334</ele><time>2026-04-26T08:58:35.754Z</time></trkpt><trkpt lat="43.4832267" lon="11.8911383"><ele>254.66666666666669</ele><time>2026-04-26T08:58:36.753Z</time></trkpt><trkpt lat="43.4833033" lon="11.8911217"><ele>255.0</ele><time>2026-04-26T08:58:37.754Z</time></trkpt><trkpt lat="43.4833833" lon="11.89109"><ele>255.33333333333331</ele><time>2026-04-26T08:58:38.754Z</time></trkpt><trkpt lat="43.483465" lon="11.89105"><ele>255.66666666666666</ele><time>2026-04-26T08:58:39.753Z</time></trkpt><trkpt lat="43.4835333" lon="11.8910217"><ele>256.0</ele><time>2026-04-26T08:58:40.754Z</time></trkpt><trkpt lat="43.4836" lon="11.8910017"><ele>255.99999999999997</ele><time>2026-04-26T08:58:41.754Z</time></trkpt><trkpt lat="43.4836633" lon="11.890985"><ele>256.0</ele><time>2026-04-26T08:58:42.753Z</time></trkpt><trkpt lat="43.4837317" lon="11.8909733"><ele>256.0</ele><time>2026-04-26T08:58:43.754Z</time></trkpt><trkpt lat="43.483805" lon="11.89097"><ele>256.0</ele><time>2026-04-26T08:58:44.754Z</time></trkpt><trkpt lat="43.4838867" lon="11.8909833"><ele>255.99999999999997</ele><time>2026-04-26T08:58:45.753Z</time></trkpt><trkpt lat="43.4839767" lon="11.8909983"><ele>256.0</ele><time>2026-04-26T08:58:46.755Z</time></trkpt><trkpt lat="43.4840717" lon="11.8910183"><ele>256.40000000000003</ele><time>2026-04-26T08:58:47.754Z</time></trkpt><trkpt lat="43.4841633" lon="11.8910383"><ele>256.8</ele><time>2026-04-26T08:58:48.753Z</time></trkpt><trkpt lat="43.4842417" lon="11.8910567"><ele>257.20000000000005</ele><time>2026-04-26T08:58:49.754Z</time></trkpt><trkpt lat="43.4843067" lon="11.8910717"><ele>257.6</ele><time>2026-04-26T08:58:50.755Z</time></trkpt><trkpt lat="43.4844183" lon="11.8910917"><ele>258.0</ele><time>2026-04-26T08:58:52.754Z</time></trkpt><trkpt lat="43.4845267" lon="11.89113"><ele>257.99999999999994</ele><time>2026-04-26T08:58:54.754Z</time></trkpt><trkpt lat="43.4845867" lon="11.8911567"><ele>258.0</ele><time>2026-04-26T08:58:55.754Z</time></trkpt><trkpt lat="43.4846533" lon="11.89119"><ele>258.0</ele><time>2026-04-26T08:58:56.753Z</time></trkpt><trkpt lat="43.48472" lon="11.89123"><ele>258.0</ele><time>2026-04-26T08:58:57.753Z</time></trkpt><trkpt lat="43.4847933" lon="11.89127"><ele>258.0</ele><time>2026-04-26T08:58:58.753Z</time></trkpt><trkpt lat="43.4848667" lon="11.8913017"><ele>257.99999999999994</ele><time>2026-04-26T08:58:59.754Z</time></trkpt><trkpt lat="43.484935" lon="11.89132"><ele>258.0</ele><time>2026-04-26T08:59:00.753Z</time></trkpt><trkpt lat="43.48504" lon="11.8913283"><ele>258.0</ele><time>2026-04-26T08:59:02.755Z</time></trkpt><trkpt lat="43.48517" lon="11.8913333"><ele>258.0</ele><time>2026-04-26T08:59:04.754Z</time></trkpt><trkpt lat="43.485245" lon="11.8913317"><ele>258.0</ele><time>2026-04-26T08:59:05.754Z</time></trkpt><trkpt lat="43.48531" lon="11.8913317"><ele>258.0</ele><time>2026-04-26T08:59:06.753Z</time></trkpt><trkpt lat="43.485375" lon="11.8913317"><ele>258.0</ele><time>2026-04-26T08:59:07.755Z</time></trkpt><trkpt lat="43.4854383" lon="11.891335"><ele>258.0</ele><time>2026-04-26T08:59:08.755Z</time></trkpt><trkpt lat="43.485555" lon="11.891345"><ele>257.8</ele><time>2026-04-26T08:59:10.754Z</time></trkpt><trkpt lat="43.4856533" lon="11.89136"><ele>257.6</ele><time>2026-04-26T08:59:12.754Z</time></trkpt><trkpt lat="43.4857533" lon="11.8913867"><ele>257.4</ele><time>2026-04-26T08:59:14.755Z</time></trkpt><trkpt lat="43.4858567" lon="11.8914117"><ele>257.2</ele><time>2026-04-26T08:59:16.754Z</time></trkpt><trkpt lat="43.4859583" lon="11.8914367"><ele>257.0</ele><time>2026-04-26T08:59:18.754Z</time></trkpt><trkpt lat="43.4860233" lon="11.8914517"><ele>257.0</ele><time>2026-04-26T08:59:19.754Z</time></trkpt><trkpt lat="43.4860967" lon="11.8914617"><ele>257.0</ele><time>2026-04-26T08:59:20.754Z</time></trkpt><trkpt lat="43.4861667" lon="11.8914733"><ele>257.0</ele><time>2026-04-26T08:59:21.753Z</time></trkpt><trkpt lat="43.4862433" lon="11.8914933"><ele>257.0</ele><time>2026-04-26T08:59:22.754Z</time></trkpt><trkpt lat="43.4863167" lon="11.8915267"><ele>257.0</ele><time>2026-04-26T08:59:23.754Z</time></trkpt><trkpt lat="43.486385" lon="11.8915767"><ele>257.0</ele><time>2026-04-26T08:59:24.754Z</time></trkpt><trkpt lat="43.486445" lon="11.8916417"><ele>257.0</ele><time>2026-04-26T08:59:25.755Z</time></trkpt><trkpt lat="43.4865033" lon="11.8917067"><ele>257.0</ele><time>2026-04-26T08:59:26.754Z</time></trkpt><trkpt lat="43.4865617" lon="11.8917617"><ele>257.0</ele><time>2026-04-26T08:59:27.754Z</time></trkpt><trkpt lat="43.4866217" lon="11.891815"><ele>257.0</ele><time>2026-04-26T08:59:28.754Z</time></trkpt><trkpt lat="43.48668" lon="11.8918683"><ele>257.0</ele><time>2026-04-26T08:59:29.754Z</time></trkpt><trkpt lat="43.4867383" lon="11.891925"><ele>257.0</ele><time>2026-04-26T08:59:30.754Z</time></trkpt><trkpt lat="43.4867983" lon="11.8919883"><ele>257.0</ele><time>2026-04-26T08:59:31.754Z</time></trkpt><trkpt lat="43.48686" lon="11.8920517"><ele>257.0</ele><time>2026-04-26T08:59:32.755Z</time></trkpt><trkpt lat="43.48692" lon="11.892115"><ele>257.0</ele><time>2026-04-26T08:59:33.753Z</time></trkpt><trkpt lat="43.486975" lon="11.89218"><ele>257.0</ele><time>2026-04-26T08:59:34.753Z</time></trkpt><trkpt lat="43.4870267" lon="11.8922517"><ele>257.0</ele><time>2026-04-26T08:59:35.753Z</time></trkpt><trkpt lat="43.4870783" lon="11.8923283"><ele>257.0</ele><time>2026-04-26T08:59:36.754Z</time></trkpt><trkpt lat="43.48713" lon="11.892405"><ele>257.0</ele><time>2026-04-26T08:59:37.754Z</time></trkpt><trkpt lat="43.4871867" lon="11.892475"><ele>257.0</ele><time>2026-04-26T08:59:38.754Z</time></trkpt><trkpt lat="43.4872417" lon="11.8925417"><ele>257.2857142857143</ele><time>2026-04-26T08:59:39.753Z</time></trkpt><trkpt lat="43.4872917" lon="11.892605"><ele>257.57142857142856</ele><time>2026-04-26T08:59:40.754Z</time></trkpt><trkpt lat="43.4873367" lon="11.89267"><ele>257.8571428571429</ele><time>2026-04-26T08:59:41.754Z</time></trkpt><trkpt lat="43.4873767" lon="11.892745"><ele>258.1428571428571</ele><time>2026-04-26T08:59:42.754Z</time></trkpt><trkpt lat="43.4874167" lon="11.892825"><ele>258.42857142857144</ele><time>2026-04-26T08:59:43.754Z</time></trkpt><trkpt lat="43.487465" lon="11.8929017"><ele>258.7142857142857</ele><time>2026-04-26T08:59:44.754Z</time></trkpt><trkpt lat="43.4875217" lon="11.89297"><ele>259.0</ele><time>2026-04-26T08:59:45.753Z</time></trkpt><trkpt lat="43.48758" lon="11.8930333"><ele>259.0</ele><time>2026-04-26T08:59:46.754Z</time></trkpt><trkpt lat="43.48764" lon="11.893085"><ele>259.0</ele><time>2026-04-26T08:59:47.756Z</time></trkpt><trkpt lat="43.487705" lon="11.8931283"><ele>259.0</ele><time>2026-04-26T08:59:48.754Z</time></trkpt><trkpt lat="43.4877817" lon="11.8931667"><ele>259.0</ele><time>2026-04-26T08:59:49.754Z</time></trkpt><trkpt lat="43.4878633" lon="11.8932117"><ele>259.0</ele><time>2026-04-26T08:59:50.755Z</time></trkpt><trkpt lat="43.4879483" lon="11.8932633"><ele>259.0</ele><time>2026-04-26T08:59:51.753Z</time></trkpt><trkpt lat="43.4880433" lon="11.8933233"><ele>259.0</ele><time>2026-04-26T08:59:52.754Z</time></trkpt><trkpt lat="43.48815" lon="11.893385"><ele>259.0</ele><time>2026-04-26T08:59:53.754Z</time></trkpt><trkpt lat="43.4882567" lon="11.8934583"><ele>259.0</ele><time>2026-04-26T08:59:54.754Z</time></trkpt><trkpt lat="43.4883567" lon="11.8935383"><ele>259.0</ele><time>2026-04-26T08:59:55.754Z</time></trkpt><trkpt lat="43.4884433" lon="11.89361"><ele>259.4</ele><time>2026-04-26T08:59:56.754Z</time></trkpt><trkpt lat="43.4885333" lon="11.8936717"><ele>259.79999999999995</ele><time>2026-04-26T08:59:57.754Z</time></trkpt><trkpt lat="43.488625" lon="11.89373"><ele>260.20000000000005</ele><time>2026-04-26T08:59:58.755Z</time></trkpt><trkpt lat="43.4887183" lon="11.8937817"><ele>260.6</ele><time>2026-04-26T08:59:59.754Z</time></trkpt><trkpt lat="43.488805" lon="11.8938283"><ele>261.0</ele><time>2026-04-26T09:00:00.754Z</time></trkpt><trkpt lat="43.4888833" lon="11.8938667"><ele>261.1666666666667</ele><time>2026-04-26T09:00:01.754Z</time></trkpt><trkpt lat="43.48895" lon="11.893895"><ele>261.3333333333333</ele><time>2026-04-26T09:00:02.754Z</time></trkpt><trkpt lat="43.4890567" lon="11.8939133"><ele>261.5</ele><time>2026-04-26T09:00:04.754Z</time></trkpt><trkpt lat="43.489145" lon="11.89393"><ele>261.66666666666663</ele><time>2026-04-26T09:00:06.753Z</time></trkpt><trkpt lat="43.4892333" lon="11.8939267"><ele>261.8333333333333</ele><time>2026-04-26T09:00:09.753Z</time></trkpt><trkpt lat="43.489295" lon="11.8938733"><ele>262.0</ele><time>2026-04-26T09:00:11.754Z</time></trkpt><trkpt lat="43.4893683" lon="11.8938117"><ele>262.0</ele><time>2026-04-26T09:00:13.754Z</time></trkpt><trkpt lat="43.48944" lon="11.8937467"><ele>262.0</ele><time>2026-04-26T09:00:15.754Z</time></trkpt><trkpt lat="43.48951" lon="11.8936667"><ele>262.0</ele><time>2026-04-26T09:00:17.753Z</time></trkpt><trkpt lat="43.4895579" lon="11.8935714"><ele>262.0</ele><time>2026-04-26T09:00:19.816Z</time></trkpt><trkpt lat="43.489547" lon="11.8934621"><ele>262.0</ele><time>2026-04-26T09:00:21.818Z</time></trkpt><trkpt lat="43.4895614" lon="11.893314"><ele>262.0</ele><time>2026-04-26T09:00:23.754Z</time></trkpt><trkpt lat="43.4895728" lon="11.8932233"><ele>262.0</ele><time>2026-04-26T09:00:24.753Z</time></trkpt><trkpt lat="43.4895828" lon="11.8931349"><ele>262.0</ele><time>2026-04-26T09:00:25.755Z</time></trkpt><trkpt lat="43.4896031" lon="11.8929669"><ele>262.0</ele><time>2026-04-26T09:00:27.753Z</time></trkpt><trkpt lat="43.4896272" lon="11.8927964"><ele>262.0</ele><time>2026-04-26T09:00:29.753Z</time></trkpt><trkpt lat="43.4896398" lon="11.8927083"><ele>262.0</ele><time>2026-04-26T09:00:30.753Z</time></trkpt><trkpt lat="43.4896512" lon="11.8926173"><ele>262.0</ele><time>2026-04-26T09:00:31.753Z</time></trkpt><trkpt lat="43.4896565" lon="11.8925241"><ele>261.8571428571429</ele><time>2026-04-26T09:00:32.754Z</time></trkpt><trkpt lat="43.4896634" lon="11.8924345"><ele>261.7142857142857</ele><time>2026-04-26T09:00:33.753Z</time></trkpt><trkpt lat="43.489673" lon="11.892347"><ele>261.57142857142856</ele><time>2026-04-26T09:00:34.754Z</time></trkpt><trkpt lat="43.489687" lon="11.8922587"><ele>261.42857142857144</ele><time>2026-04-26T09:00:35.754Z</time></trkpt><trkpt lat="43.489705" lon="11.8921656"><ele>261.2857142857143</ele><time>2026-04-26T09:00:36.753Z</time></trkpt><trkpt lat="43.4897271" lon="11.8920703"><ele>261.14285714285717</ele><time>2026-04-26T09:00:37.754Z</time></trkpt><trkpt lat="43.4897488" lon="11.8919721"><ele>261.0</ele><time>2026-04-26T09:00:38.754Z</time></trkpt><trkpt lat="43.4897647" lon="11.8918718"><ele>261.0</ele><time>2026-04-26T09:00:39.753Z</time></trkpt><trkpt lat="43.4897755" lon="11.8917715"><ele>261.0</ele><time>2026-04-26T09:00:40.754Z</time></trkpt><trkpt lat="43.4897809" lon="11.8916715"><ele>261.0</ele><time>2026-04-26T09:00:41.754Z</time></trkpt><trkpt lat="43.4897777" lon="11.8915686"><ele>261.0</ele><time>2026-04-26T09:00:42.753Z</time></trkpt><trkpt lat="43.4897674" lon="11.8914681"><ele>261.0</ele><time>2026-04-26T09:00:43.754Z</time></trkpt><trkpt lat="43.4897553" lon="11.8913696"><ele>261.0</ele><time>2026-04-26T09:00:44.754Z</time></trkpt><trkpt lat="43.4897401" lon="11.8912727"><ele>261.0</ele><time>2026-04-26T09:00:45.753Z</time></trkpt><trkpt lat="43.4897222" lon="11.8911785"><ele>261.0</ele><time>2026-04-26T09:00:46.752Z</time></trkpt><trkpt lat="43.4897032" lon="11.8910865"><ele>261.0</ele><time>2026-04-26T09:00:47.755Z</time></trkpt><trkpt lat="43.4896859" lon="11.8909924"><ele>261.0</ele><time>2026-04-26T09:00:48.753Z</time></trkpt><trkpt lat="43.4896726" lon="11.890897"><ele>261.0</ele><time>2026-04-26T09:00:49.754Z</time></trkpt><trkpt lat="43.4896636" lon="11.890802"><ele>261.0</ele><time>2026-04-26T09:00:50.754Z</time></trkpt><trkpt lat="43.4896582" lon="11.8907125"><ele>261.0</ele><time>2026-04-26T09:00:51.753Z</time></trkpt><trkpt lat="43.4896541" lon="11.8906241"><ele>261.0</ele><time>2026-04-26T09:00:52.753Z</time></trkpt><trkpt lat="43.489638" lon="11.8904688"><ele>261.0</ele><time>2026-04-26T09:00:54.753Z</time></trkpt><trkpt lat="43.489618" lon="11.8903184"><ele>261.0</ele><time>2026-04-26T09:00:56.755Z</time></trkpt><trkpt lat="43.4896003" lon="11.8901606"><ele>261.0</ele><time>2026-04-26T09:00:58.754Z</time></trkpt><trkpt lat="43.4895754" lon="11.8900032"><ele>261.0</ele><time>2026-04-26T09:01:00.753Z</time></trkpt><trkpt lat="43.4895417" lon="11.8898358"><ele>260.40000000000003</ele><time>2026-04-26T09:01:02.754Z</time></trkpt><trkpt lat="43.4895159" lon="11.8897488"><ele>259.8</ele><time>2026-04-26T09:01:03.754Z</time></trkpt><trkpt lat="43.4894914" lon="11.8896667"><ele>259.20000000000005</ele><time>2026-04-26T09:01:04.753Z</time></trkpt><trkpt lat="43.4894494" lon="11.889513"><ele>258.6</ele><time>2026-04-26T09:01:06.752Z</time></trkpt><trkpt lat="43.4894163" lon="11.8893681"><ele>258.0</ele><time>2026-04-26T09:01:08.755Z</time></trkpt><trkpt lat="43.4893851" lon="11.8892336"><ele>258.0</ele><time>2026-04-26T09:01:10.755Z</time></trkpt><trkpt lat="43.48936" lon="11.8891297"><ele>258.0</ele><time>2026-04-26T09:01:12.754Z</time></trkpt><trkpt lat="43.4893503" lon="11.8890383"><ele>258.0</ele><time>2026-04-26T09:01:14.754Z</time></trkpt><trkpt lat="43.4894333" lon="11.8890041"><ele>258.0</ele><time>2026-04-26T09:01:17.754Z</time></trkpt><trkpt lat="43.4895609" lon="11.8890401"><ele>258.0</ele><time>2026-04-26T09:01:19.754Z</time></trkpt><trkpt lat="43.4896382" lon="11.8890711"><ele>258.0</ele><time>2026-04-26T09:01:20.754Z</time></trkpt><trkpt lat="43.4897131" lon="11.8891043"><ele>258.0</ele><time>2026-04-26T09:01:21.753Z</time></trkpt><trkpt lat="43.4897754" lon="11.8891325"><ele>258.0</ele><time>2026-04-26T09:01:22.755Z</time></trkpt><trkpt lat="43.4898742" lon="11.8891818"><ele>258.0</ele><time>2026-04-26T09:01:24.755Z</time></trkpt><trkpt lat="43.4899744" lon="11.8892129"><ele>258.0</ele><time>2026-04-26T09:01:26.755Z</time></trkpt><trkpt lat="43.4900752" lon="11.8892259"><ele>258.0</ele><time>2026-04-26T09:01:28.755Z</time></trkpt><trkpt lat="43.4901696" lon="11.8892411"><ele>258.0</ele><time>2026-04-26T09:01:30.754Z</time></trkpt><trkpt lat="43.4902711" lon="11.8892551"><ele>258.0</ele><time>2026-04-26T09:01:32.754Z</time></trkpt><trkpt lat="43.4903641" lon="11.8892642"><ele>258.0</ele><time>2026-04-26T09:01:34.753Z</time></trkpt><trkpt lat="43.4904576" lon="11.8892641"><ele>258.0</ele><time>2026-04-26T09:01:36.754Z</time></trkpt><trkpt lat="43.4905483" lon="11.8892702"><ele>258.0</ele><time>2026-04-26T09:01:38.755Z</time></trkpt><trkpt lat="43.4906271" lon="11.8892652"><ele>258.1666666666667</ele><time>2026-04-26T09:01:40.754Z</time></trkpt><trkpt lat="43.4907074" lon="11.8892487"><ele>258.3333333333333</ele><time>2026-04-26T09:01:44.754Z</time></trkpt><trkpt lat="43.4908052" lon="11.88925"><ele>258.5</ele><time>2026-04-26T09:01:47.754Z</time></trkpt><trkpt lat="43.490896" lon="11.8892294"><ele>258.66666666666663</ele><time>2026-04-26T09:01:49.754Z</time></trkpt><trkpt lat="43.4909795" lon="11.8892106"><ele>258.8333333333333</ele><time>2026-04-26T09:01:51.754Z</time></trkpt><trkpt lat="43.4910628" lon="11.8892308"><ele>259.0</ele><time>2026-04-26T09:01:53.755Z</time></trkpt><trkpt lat="43.4911529" lon="11.8892722"><ele>259.0</ele><time>2026-04-26T09:01:55.754Z</time></trkpt><trkpt lat="43.4912506" lon="11.8893469"><ele>259.0</ele><time>2026-04-26T09:01:57.755Z</time></trkpt><trkpt lat="43.4913317" lon="11.8894123"><ele>259.0</ele><time>2026-04-26T09:01:59.754Z</time></trkpt><trkpt lat="43.4914052" lon="11.8894562"><ele>259.0</ele><time>2026-04-26T09:02:01.754Z</time></trkpt><trkpt lat="43.4914953" lon="11.8894832"><ele>259.0</ele><time>2026-04-26T09:02:03.753Z</time></trkpt><trkpt lat="43.4916127" lon="11.8894593"><ele>258.8333333333333</ele><time>2026-04-26T09:02:05.754Z</time></trkpt><trkpt lat="43.4916832" lon="11.8894406"><ele>258.66666666666663</ele><time>2026-04-26T09:02:06.753Z</time></trkpt><trkpt lat="43.4917564" lon="11.8894265"><ele>258.5</ele><time>2026-04-26T09:02:07.754Z</time></trkpt><trkpt lat="43.4918265" lon="11.8894149"><ele>258.3333333333333</ele><time>2026-04-26T09:02:08.754Z</time></trkpt><trkpt lat="43.4919" lon="11.8894033"><ele>258.1666666666667</ele><time>2026-04-26T09:02:09.753Z</time></trkpt><trkpt lat="43.4919835" lon="11.8893901"><ele>258.0</ele><time>2026-04-26T09:02:10.754Z</time></trkpt><trkpt lat="43.4920709" lon="11.8893732"><ele>258.0</ele><time>2026-04-26T09:02:11.754Z</time></trkpt><trkpt lat="43.4921494" lon="11.8893594"><ele>258.0</ele><time>2026-04-26T09:02:12.753Z</time></trkpt><trkpt lat="43.4922184" lon="11.8893472"><ele>258.0</ele><time>2026-04-26T09:02:13.754Z</time></trkpt><trkpt lat="43.4923139" lon="11.8893366"><ele>258.0</ele><time>2026-04-26T09:02:15.753Z</time></trkpt><trkpt lat="43.4923955" lon="11.8893229"><ele>258.0</ele><time>2026-04-26T09:02:17.753Z</time></trkpt><trkpt lat="43.4924894" lon="11.8893214"><ele>258.0</ele><time>2026-04-26T09:02:19.754Z</time></trkpt><trkpt lat="43.4925505" lon="11.8893429"><ele>258.0</ele><time>2026-04-26T09:02:20.754Z</time></trkpt><trkpt lat="43.4926216" lon="11.8893816"><ele>258.0</ele><time>2026-04-26T09:02:21.753Z</time></trkpt><trkpt lat="43.4927028" lon="11.8894299"><ele>258.0</ele><time>2026-04-26T09:02:22.753Z</time></trkpt><trkpt lat="43.4927867" lon="11.889476"><ele>258.0</ele><time>2026-04-26T09:02:23.754Z</time></trkpt><trkpt lat="43.4928565" lon="11.889509"><ele>258.0</ele><time>2026-04-26T09:02:24.754Z</time></trkpt><trkpt lat="43.4929166" lon="11.8895393"><ele>258.0</ele><time>2026-04-26T09:02:25.754Z</time></trkpt><trkpt lat="43.4930306" lon="11.8895818"><ele>258.1666666666667</ele><time>2026-04-26T09:02:27.753Z</time></trkpt><trkpt lat="43.4931062" lon="11.8896068"><ele>258.3333333333333</ele><time>2026-04-26T09:02:29.755Z</time></trkpt><trkpt lat="43.4931406" lon="11.8895284"><ele>258.5</ele><time>2026-04-26T09:02:32.755Z</time></trkpt><trkpt lat="43.4931281" lon="11.8894433"><ele>258.66666666666663</ele><time>2026-04-26T09:02:33.754Z</time></trkpt><trkpt lat="43.4931096" lon="11.8893436"><ele>258.8333333333333</ele><time>2026-04-26T09:02:34.754Z</time></trkpt><trkpt lat="43.4930909" lon="11.889233"><ele>259.0</ele><time>2026-04-26T09:02:35.755Z</time></trkpt><trkpt lat="43.4930719" lon="11.8891139"><ele>259.0</ele><time>2026-04-26T09:02:36.754Z</time></trkpt><trkpt lat="43.4930527" lon="11.8889888"><ele>259.0</ele><time>2026-04-26T09:02:37.754Z</time></trkpt><trkpt lat="43.4930297" lon="11.8888548"><ele>259.0</ele><time>2026-04-26T09:02:38.754Z</time></trkpt><trkpt lat="43.493005" lon="11.8887139"><ele>259.0</ele><time>2026-04-26T09:02:39.753Z</time></trkpt><trkpt lat="43.492982" lon="11.8885668"><ele>259.0</ele><time>2026-04-26T09:02:40.753Z</time></trkpt><trkpt lat="43.4929549" lon="11.8884107"><ele>258.75</ele><time>2026-04-26T09:02:41.754Z</time></trkpt><trkpt lat="43.4929277" lon="11.88825"><ele>258.5</ele><time>2026-04-26T09:02:42.753Z</time></trkpt><trkpt lat="43.4928966" lon="11.8880862"><ele>258.25</ele><time>2026-04-26T09:02:43.754Z</time></trkpt><trkpt lat="43.4928673" lon="11.8879256"><ele>258.0</ele><time>2026-04-26T09:02:44.754Z</time></trkpt><trkpt lat="43.4928438" lon="11.887779"><ele>258.0</ele><time>2026-04-26T09:02:45.753Z</time></trkpt><trkpt lat="43.4928249" lon="11.8876509"><ele>258.0</ele><time>2026-04-26T09:02:46.754Z</time></trkpt><trkpt lat="43.4928101" lon="11.887542"><ele>258.0</ele><time>2026-04-26T09:02:47.753Z</time></trkpt><trkpt lat="43.4927974" lon="11.8874451"><ele>258.0</ele><time>2026-04-26T09:02:48.753Z</time></trkpt><trkpt lat="43.4927845" lon="11.8873528"><ele>258.0</ele><time>2026-04-26T09:02:49.753Z</time></trkpt><trkpt lat="43.492773" lon="11.8872637"><ele>258.0</ele><time>2026-04-26T09:02:50.758Z</time></trkpt><trkpt lat="43.4927662" lon="11.8871066"><ele>258.0</ele><time>2026-04-26T09:02:52.753Z</time></trkpt><trkpt lat="43.4927578" lon="11.8869962"><ele>258.0</ele><time>2026-04-26T09:02:54.754Z</time></trkpt><trkpt lat="43.49273" lon="11.8868983"><ele>258.0</ele><time>2026-04-26T09:03:01.753Z</time></trkpt><trkpt lat="43.4927016" lon="11.8867893"><ele>258.0</ele><time>2026-04-26T09:03:02.754Z</time></trkpt><trkpt lat="43.4926615" lon="11.8866472"><ele>258.0</ele><time>2026-04-26T09:03:03.753Z</time></trkpt><trkpt lat="43.4926218" lon="11.8864841"><ele>258.0</ele><time>2026-04-26T09:03:04.754Z</time></trkpt><trkpt lat="43.4925876" lon="11.8863048"><ele>258.0</ele><time>2026-04-26T09:03:05.754Z</time></trkpt><trkpt lat="43.4925532" lon="11.886101"><ele>258.0</ele><time>2026-04-26T09:03:06.754Z</time></trkpt><trkpt lat="43.4925112" lon="11.8858809"><ele>258.0</ele><time>2026-04-26T09:03:07.753Z</time></trkpt><trkpt lat="43.4924676" lon="11.8856492"><ele>258.0</ele><time>2026-04-26T09:03:08.754Z</time></trkpt><trkpt lat="43.4924278" lon="11.8854116"><ele>258.0</ele><time>2026-04-26T09:03:09.753Z</time></trkpt><trkpt lat="43.4923904" lon="11.8851696"><ele>257.3333333333333</ele><time>2026-04-26T09:03:10.753Z</time></trkpt><trkpt lat="43.4923483" lon="11.8849294"><ele>256.66666666666663</ele><time>2026-04-26T09:03:11.753Z</time></trkpt><trkpt lat="43.4923014" lon="11.8846915"><ele>256.0</ele><time>2026-04-26T09:03:12.753Z</time></trkpt><trkpt lat="43.4922583" lon="11.8844539"><ele>255.0</ele><time>2026-04-26T09:03:13.753Z</time></trkpt><trkpt lat="43.4922205" lon="11.8842103"><ele>254.0</ele><time>2026-04-26T09:03:14.753Z</time></trkpt><trkpt lat="43.4921799" lon="11.8839643"><ele>253.0</ele><time>2026-04-26T09:03:15.753Z</time></trkpt><trkpt lat="43.4921354" lon="11.883719"><ele>253.0</ele><time>2026-04-26T09:03:16.753Z</time></trkpt><trkpt lat="43.4920905" lon="11.8834769"><ele>253.0</ele><time>2026-04-26T09:03:17.754Z</time></trkpt><trkpt lat="43.4920459" lon="11.8832429"><ele>253.0</ele><time>2026-04-26T09:03:18.753Z</time></trkpt><trkpt lat="43.4920036" lon="11.8830141"><ele>253.33333333333331</ele><time>2026-04-26T09:03:19.754Z</time></trkpt><trkpt lat="43.4919631" lon="11.8827878"><ele>253.66666666666669</ele><time>2026-04-26T09:03:20.754Z</time></trkpt><trkpt lat="43.4919257" lon="11.8825643"><ele>254.0</ele><time>2026-04-26T09:03:21.753Z</time></trkpt><trkpt lat="43.4918866" lon="11.8823326"><ele>254.0</ele><time>2026-04-26T09:03:22.754Z</time></trkpt><trkpt lat="43.4918448" lon="11.8820944"><ele>254.0</ele><time>2026-04-26T09:03:23.754Z</time></trkpt><trkpt lat="43.4918029" lon="11.8818555"><ele>254.0</ele><time>2026-04-26T09:03:24.753Z</time></trkpt><trkpt lat="43.4917625" lon="11.8816214"><ele>254.0</ele><time>2026-04-26T09:03:25.754Z</time></trkpt><trkpt lat="43.4917225" lon="11.8813881"><ele>254.0</ele><time>2026-04-26T09:03:26.755Z</time></trkpt><trkpt lat="43.4916824" lon="11.8811523"><ele>254.0</ele><time>2026-04-26T09:03:27.753Z</time></trkpt><trkpt lat="43.4916437" lon="11.8809239"><ele>254.0</ele><time>2026-04-26T09:03:28.754Z</time></trkpt><trkpt lat="43.491607" lon="11.8807051"><ele>254.0</ele><time>2026-04-26T09:03:29.753Z</time></trkpt><trkpt lat="43.4915706" lon="11.8804916"><ele>254.0</ele><time>2026-04-26T09:03:30.753Z</time></trkpt><trkpt lat="43.4915341" lon="11.8802789"><ele>254.0</ele><time>2026-04-26T09:03:31.753Z</time></trkpt><trkpt lat="43.4914983" lon="11.8800667"><ele>254.0</ele><time>2026-04-26T09:03:32.753Z</time></trkpt><trkpt lat="43.4914617" lon="11.87985"><ele>254.0</ele><time>2026-04-26T09:03:33.753Z</time></trkpt><trkpt lat="43.491425" lon="11.8796317"><ele>254.0</ele><time>2026-04-26T09:03:34.753Z</time></trkpt><trkpt lat="43.4913867" lon="11.8794133"><ele>254.0</ele><time>2026-04-26T09:03:35.753Z</time></trkpt><trkpt lat="43.4913517" lon="11.8792033"><ele>254.0</ele><time>2026-04-26T09:03:36.756Z</time></trkpt><trkpt lat="43.4913183" lon="11.8790033"><ele>254.0</ele><time>2026-04-26T09:03:37.753Z</time></trkpt><trkpt lat="43.491285" lon="11.878805"><ele>254.0</ele><time>2026-04-26T09:03:38.754Z</time></trkpt><trkpt lat="43.4912483" lon="11.878605"><ele>254.0</ele><time>2026-04-26T09:03:39.754Z</time></trkpt><trkpt lat="43.4912133" lon="11.8784"><ele>254.33333333333334</ele><time>2026-04-26T09:03:40.753Z</time></trkpt><trkpt lat="43.4911767" lon="11.87819"><ele>254.66666666666669</ele><time>2026-04-26T09:03:41.754Z</time></trkpt><trkpt lat="43.4911383" lon="11.877975"><ele>255.0</ele><time>2026-04-26T09:03:42.753Z</time></trkpt><trkpt lat="43.491105" lon="11.8777633"><ele>254.75</ele><time>2026-04-26T09:03:43.753Z</time></trkpt><trkpt lat="43.4910733" lon="11.8775683"><ele>254.5</ele><time>2026-04-26T09:03:44.754Z</time></trkpt><trkpt lat="43.4910417" lon="11.87738"><ele>254.25</ele><time>2026-04-26T09:03:45.753Z</time></trkpt><trkpt lat="43.491005" lon="11.8771917"><ele>254.0</ele><time>2026-04-26T09:03:46.753Z</time></trkpt><trkpt lat="43.4909633" lon="11.8770083"><ele>254.0</ele><time>2026-04-26T09:03:47.753Z</time></trkpt><trkpt lat="43.4909133" lon="11.8768417"><ele>254.0</ele><time>2026-04-26T09:03:48.753Z</time></trkpt><trkpt lat="43.4908617" lon="11.876695"><ele>254.0</ele><time>2026-04-26T09:03:49.755Z</time></trkpt><trkpt lat="43.4908167" lon="11.87656"><ele>254.0</ele><time>2026-04-26T09:03:50.755Z</time></trkpt><trkpt lat="43.490775" lon="11.8764333"><ele>254.0</ele><time>2026-04-26T09:03:51.753Z</time></trkpt><trkpt lat="43.4907367" lon="11.8763183"><ele>253.99999999999997</ele><time>2026-04-26T09:03:52.753Z</time></trkpt><trkpt lat="43.49071" lon="11.8762033"><ele>253.99999999999997</ele><time>2026-04-26T09:03:53.754Z</time></trkpt><trkpt lat="43.4906967" lon="11.8760783"><ele>254.0</ele><time>2026-04-26T09:03:54.754Z</time></trkpt><trkpt lat="43.4907233" lon="11.875955"><ele>254.0</ele><time>2026-04-26T09:03:55.754Z</time></trkpt><trkpt lat="43.4907417" lon="11.875815"><ele>253.79999999999998</ele><time>2026-04-26T09:03:56.754Z</time></trkpt><trkpt lat="43.490735" lon="11.8756733"><ele>253.59999999999997</ele><time>2026-04-26T09:03:57.753Z</time></trkpt><trkpt lat="43.4907033" lon="11.87554"><ele>253.4</ele><time>2026-04-26T09:03:58.754Z</time></trkpt><trkpt lat="43.4906383" lon="11.8754367"><ele>253.2</ele><time>2026-04-26T09:03:59.754Z</time></trkpt><trkpt lat="43.4905583" lon="11.8753333"><ele>253.0</ele><time>2026-04-26T09:04:00.754Z</time></trkpt><trkpt lat="43.490485" lon="11.8752067"><ele>253.25</ele><time>2026-04-26T09:04:01.754Z</time></trkpt><trkpt lat="43.490445" lon="11.8750333"><ele>253.5</ele><time>2026-04-26T09:04:02.755Z</time></trkpt><trkpt lat="43.490425" lon="11.874825"><ele>253.75</ele><time>2026-04-26T09:04:03.753Z</time></trkpt><trkpt lat="43.490405" lon="11.8746017"><ele>254.0</ele><time>2026-04-26T09:04:04.754Z</time></trkpt><trkpt lat="43.4903833" lon="11.8743817"><ele>253.0</ele><time>2026-04-26T09:04:05.754Z</time></trkpt><trkpt lat="43.4903617" lon="11.8741667"><ele>252.0</ele><time>2026-04-26T09:04:06.753Z</time></trkpt><trkpt lat="43.4903483" lon="11.8739517"><ele>251.0</ele><time>2026-04-26T09:04:07.754Z</time></trkpt><trkpt lat="43.4903333" lon="11.873745"><ele>251.0</ele><time>2026-04-26T09:04:08.754Z</time></trkpt><trkpt lat="43.49032" lon="11.8735517"><ele>251.0</ele><time>2026-04-26T09:04:09.753Z</time></trkpt><trkpt lat="43.4903067" lon="11.8733667"><ele>251.0</ele><time>2026-04-26T09:04:10.753Z</time></trkpt><trkpt lat="43.490295" lon="11.873185"><ele>251.0</ele><time>2026-04-26T09:04:11.754Z</time></trkpt><trkpt lat="43.490285" lon="11.8730083"><ele>251.0</ele><time>2026-04-26T09:04:12.753Z</time></trkpt><trkpt lat="43.4902767" lon="11.8728333"><ele>251.0</ele><time>2026-04-26T09:04:13.754Z</time></trkpt><trkpt lat="43.4902633" lon="11.8726633"><ele>251.0</ele><time>2026-04-26T09:04:14.755Z</time></trkpt><trkpt lat="43.4902467" lon="11.8724867"><ele>251.0</ele><time>2026-04-26T09:04:15.753Z</time></trkpt><trkpt lat="43.4902283" lon="11.8723083"><ele>251.0</ele><time>2026-04-26T09:04:16.753Z</time></trkpt><trkpt lat="43.49021" lon="11.8721183"><ele>251.0</ele><time>2026-04-26T09:04:17.753Z</time></trkpt><trkpt lat="43.4901917" lon="11.8719283"><ele>251.0</ele><time>2026-04-26T09:04:18.753Z</time></trkpt><trkpt lat="43.4901733" lon="11.87175"><ele>251.0</ele><time>2026-04-26T09:04:19.755Z</time></trkpt><trkpt lat="43.4901617" lon="11.8715917"><ele>251.0</ele><time>2026-04-26T09:04:20.754Z</time></trkpt><trkpt lat="43.490155" lon="11.87143"><ele>251.0</ele><time>2026-04-26T09:04:21.753Z</time></trkpt><trkpt lat="43.4901617" lon="11.87126"><ele>251.0</ele><time>2026-04-26T09:04:22.754Z</time></trkpt><trkpt lat="43.490185" lon="11.8710717"><ele>251.0</ele><time>2026-04-26T09:04:23.753Z</time></trkpt><trkpt lat="43.490235" lon="11.870875"><ele>250.66666666666669</ele><time>2026-04-26T09:04:24.753Z</time></trkpt><trkpt lat="43.4903117" lon="11.8706833"><ele>250.33333333333331</ele><time>2026-04-26T09:04:25.754Z</time></trkpt><trkpt lat="43.4904183" lon="11.8705133"><ele>250.0</ele><time>2026-04-26T09:04:26.754Z</time></trkpt><trkpt lat="43.4905483" lon="11.8703717"><ele>250.66666666666666</ele><time>2026-04-26T09:04:27.753Z</time></trkpt><trkpt lat="43.4907" lon="11.870265"><ele>251.33333333333331</ele><time>2026-04-26T09:04:28.753Z</time></trkpt><trkpt lat="43.4908767" lon="11.870195"><ele>252.0</ele><time>2026-04-26T09:04:29.753Z</time></trkpt><trkpt lat="43.49106" lon="11.8701533"><ele>252.0</ele><time>2026-04-26T09:04:30.752Z</time></trkpt><trkpt lat="43.4912333" lon="11.8701333"><ele>252.0</ele><time>2026-04-26T09:04:31.754Z</time></trkpt><trkpt lat="43.49139" lon="11.8701117"><ele>252.0</ele><time>2026-04-26T09:04:32.754Z</time></trkpt><trkpt lat="43.4915317" lon="11.8700867"><ele>251.6</ele><time>2026-04-26T09:04:33.753Z</time></trkpt><trkpt lat="43.49166" lon="11.8700617"><ele>251.2</ele><time>2026-04-26T09:04:34.753Z</time></trkpt><trkpt lat="43.4917717" lon="11.8700483"><ele>250.8</ele><time>2026-04-26T09:04:35.754Z</time></trkpt><trkpt lat="43.4918517" lon="11.87008"><ele>250.4</ele><time>2026-04-26T09:04:36.754Z</time></trkpt><trkpt lat="43.4919117" lon="11.87014"><ele>250.0</ele><time>2026-04-26T09:04:37.754Z</time></trkpt><trkpt lat="43.4919433" lon="11.8702317"><ele>250.0</ele><time>2026-04-26T09:04:38.754Z</time></trkpt><trkpt lat="43.4919417" lon="11.8703483"><ele>250.0</ele><time>2026-04-26T09:04:39.753Z</time></trkpt><trkpt lat="43.4919337" lon="11.8704686"><ele>250.0</ele><time>2026-04-26T09:04:40.753Z</time></trkpt><trkpt lat="43.4919278" lon="11.8705994"><ele>250.0</ele><time>2026-04-26T09:04:41.753Z</time></trkpt><trkpt lat="43.4919377" lon="11.8707284"><ele>250.0</ele><time>2026-04-26T09:04:42.753Z</time></trkpt><trkpt lat="43.4919464" lon="11.8708584"><ele>250.2</ele><time>2026-04-26T09:04:43.754Z</time></trkpt><trkpt lat="43.4919525" lon="11.8709894"><ele>250.4</ele><time>2026-04-26T09:04:44.754Z</time></trkpt><trkpt lat="43.4919617" lon="11.8711281"><ele>250.60000000000002</ele><time>2026-04-26T09:04:45.753Z</time></trkpt><trkpt lat="43.4919709" lon="11.8712604"><ele>250.8</ele><time>2026-04-26T09:04:46.753Z</time></trkpt><trkpt lat="43.4919774" lon="11.8713806"><ele>251.0</ele><time>2026-04-26T09:04:47.755Z</time></trkpt><trkpt lat="43.4919827" lon="11.8714929"><ele>251.0</ele><time>2026-04-26T09:04:48.754Z</time></trkpt><trkpt lat="43.4919888" lon="11.8715871"><ele>251.00000000000003</ele><time>2026-04-26T09:04:49.754Z</time></trkpt><trkpt lat="43.4919913" lon="11.8717018"><ele>251.00000000000003</ele><time>2026-04-26T09:04:51.754Z</time></trkpt><trkpt lat="43.4920872" lon="11.8717698"><ele>251.0</ele><time>2026-04-26T09:04:54.754Z</time></trkpt><trkpt lat="43.4921852" lon="11.8717538"><ele>251.0</ele><time>2026-04-26T09:04:55.755Z</time></trkpt><trkpt lat="43.4923232" lon="11.8717186"><ele>250.75</ele><time>2026-04-26T09:04:56.754Z</time></trkpt><trkpt lat="43.492468" lon="11.8716888"><ele>250.5</ele><time>2026-04-26T09:04:57.754Z</time></trkpt><trkpt lat="43.4926136" lon="11.8716672"><ele>250.25</ele><time>2026-04-26T09:04:58.754Z</time></trkpt><trkpt lat="43.4927568" lon="11.871648"><ele>250.0</ele><time>2026-04-26T09:04:59.754Z</time></trkpt><trkpt lat="43.492893" lon="11.871635"><ele>250.0</ele><time>2026-04-26T09:05:00.754Z</time></trkpt><trkpt lat="43.4930189" lon="11.8716253"><ele>250.0</ele><time>2026-04-26T09:05:01.753Z</time></trkpt><trkpt lat="43.4931374" lon="11.8716144"><ele>250.0</ele><time>2026-04-26T09:05:02.754Z</time></trkpt><trkpt lat="43.4932451" lon="11.8715993"><ele>250.0</ele><time>2026-04-26T09:05:03.753Z</time></trkpt><trkpt lat="43.4933449" lon="11.8715851"><ele>249.99999999999997</ele><time>2026-04-26T09:05:04.753Z</time></trkpt><trkpt lat="43.4934388" lon="11.8715742"><ele>250.0</ele><time>2026-04-26T09:05:05.753Z</time></trkpt><trkpt lat="43.493523" lon="11.8715603"><ele>250.0</ele><time>2026-04-26T09:05:06.753Z</time></trkpt><trkpt lat="43.4936018" lon="11.8715479"><ele>250.0</ele><time>2026-04-26T09:05:07.754Z</time></trkpt><trkpt lat="43.4936764" lon="11.8715441"><ele>249.99999999999997</ele><time>2026-04-26T09:05:08.753Z</time></trkpt><trkpt lat="43.4937437" lon="11.8715433"><ele>250.0</ele><time>2026-04-26T09:05:09.754Z</time></trkpt><trkpt lat="43.4938485" lon="11.8715252"><ele>250.2</ele><time>2026-04-26T09:05:11.754Z</time></trkpt><trkpt lat="43.493907" lon="11.871476"><ele>250.4</ele><time>2026-04-26T09:05:14.754Z</time></trkpt><trkpt lat="43.4939195" lon="11.8713729"><ele>250.60000000000002</ele><time>2026-04-26T09:05:16.753Z</time></trkpt><trkpt lat="43.493913" lon="11.8712658"><ele>250.8</ele><time>2026-04-26T09:05:17.754Z</time></trkpt><trkpt lat="43.4938967" lon="11.871105"><ele>251.0</ele><time>2026-04-26T09:05:18.753Z</time></trkpt><trkpt lat="43.493885" lon="11.8709417"><ele>251.5</ele><time>2026-04-26T09:05:19.754Z</time></trkpt><trkpt lat="43.4938817" lon="11.87077"><ele>252.0</ele><time>2026-04-26T09:05:20.754Z</time></trkpt><trkpt lat="43.4938833" lon="11.8705883"><ele>252.5</ele><time>2026-04-26T09:05:21.753Z</time></trkpt><trkpt lat="43.49389" lon="11.8704"><ele>253.0</ele><time>2026-04-26T09:05:22.754Z</time></trkpt><trkpt lat="43.493905" lon="11.8702167"><ele>252.75</ele><time>2026-04-26T09:05:23.754Z</time></trkpt><trkpt lat="43.49392" lon="11.8700483"><ele>252.5</ele><time>2026-04-26T09:05:24.753Z</time></trkpt><trkpt lat="43.4939367" lon="11.8698917"><ele>252.25</ele><time>2026-04-26T09:05:25.753Z</time></trkpt><trkpt lat="43.49395" lon="11.8697383"><ele>252.0</ele><time>2026-04-26T09:05:26.754Z</time></trkpt><trkpt lat="43.49397" lon="11.8695767"><ele>252.0</ele><time>2026-04-26T09:05:27.753Z</time></trkpt><trkpt lat="43.493995" lon="11.869405"><ele>252.0</ele><time>2026-04-26T09:05:28.753Z</time></trkpt><trkpt lat="43.494035" lon="11.86924"><ele>252.0</ele><time>2026-04-26T09:05:29.754Z</time></trkpt><trkpt lat="43.494085" lon="11.8690867"><ele>252.0</ele><time>2026-04-26T09:05:30.753Z</time></trkpt><trkpt lat="43.494145" lon="11.8689467"><ele>252.5</ele><time>2026-04-26T09:05:31.753Z</time></trkpt><trkpt lat="43.4942133" lon="11.8688117"><ele>253.0</ele><time>2026-04-26T09:05:32.754Z</time></trkpt><trkpt lat="43.4942983" lon="11.868685"><ele>253.5</ele><time>2026-04-26T09:05:33.753Z</time></trkpt><trkpt lat="43.494395" lon="11.868565"><ele>254.0</ele><time>2026-04-26T09:05:34.754Z</time></trkpt><trkpt lat="43.4945067" lon="11.8684583"><ele>255.25</ele><time>2026-04-26T09:05:35.753Z</time></trkpt><trkpt lat="43.49462" lon="11.8683583"><ele>256.5</ele><time>2026-04-26T09:05:36.753Z</time></trkpt><trkpt lat="43.494725" lon="11.868265"><ele>257.75</ele><time>2026-04-26T09:05:37.753Z</time></trkpt><trkpt lat="43.49482" lon="11.8681633"><ele>259.0</ele><time>2026-04-26T09:05:38.754Z</time></trkpt><trkpt lat="43.494915" lon="11.8680367"><ele>259.0</ele><time>2026-04-26T09:05:39.754Z</time></trkpt><trkpt lat="43.4950083" lon="11.867895"><ele>259.0</ele><time>2026-04-26T09:05:40.753Z</time></trkpt><trkpt lat="43.4951017" lon="11.8677633"><ele>259.0</ele><time>2026-04-26T09:05:41.754Z</time></trkpt><trkpt lat="43.4951933" lon="11.8676617"><ele>259.0</ele><time>2026-04-26T09:05:42.754Z</time></trkpt><trkpt lat="43.4952767" lon="11.8675717"><ele>261.2</ele><time>2026-04-26T09:05:43.754Z</time></trkpt><trkpt lat="43.4953433" lon="11.867465"><ele>263.4</ele><time>2026-04-26T09:05:44.754Z</time></trkpt><trkpt lat="43.4953867" lon="11.8673333"><ele>265.6</ele><time>2026-04-26T09:05:45.753Z</time></trkpt><trkpt lat="43.4954067" lon="11.867205"><ele>267.8</ele><time>2026-04-26T09:05:46.754Z</time></trkpt><trkpt lat="43.4954117" lon="11.8671033"><ele>270.0</ele><time>2026-04-26T09:05:47.756Z</time></trkpt><trkpt lat="43.4954117" lon="11.8669667"><ele>270.0</ele><time>2026-04-26T09:05:49.754Z</time></trkpt><trkpt lat="43.4954183" lon="11.86686"><ele>270.0</ele><time>2026-04-26T09:05:51.753Z</time></trkpt><trkpt lat="43.4954183" lon="11.8667433"><ele>270.0</ele><time>2026-04-26T09:05:53.754Z</time></trkpt><trkpt lat="43.4954333" lon="11.8665917"><ele>270.0</ele><time>2026-04-26T09:05:55.754Z</time></trkpt><trkpt lat="43.4954367" lon="11.8665017"><ele>270.0</ele><time>2026-04-26T09:05:56.757Z</time></trkpt><trkpt lat="43.495445" lon="11.8664117"><ele>270.0</ele><time>2026-04-26T09:05:57.753Z</time></trkpt><trkpt lat="43.4954617" lon="11.8662483"><ele>269.75</ele><time>2026-04-26T09:05:59.754Z</time></trkpt><trkpt lat="43.495485" lon="11.8660883"><ele>269.5</ele><time>2026-04-26T09:06:01.753Z</time></trkpt><trkpt lat="43.4955083" lon="11.86592"><ele>269.25</ele><time>2026-04-26T09:06:03.754Z</time></trkpt><trkpt lat="43.49554" lon="11.8657533"><ele>269.0</ele><time>2026-04-26T09:06:05.754Z</time></trkpt><trkpt lat="43.4955667" lon="11.8656067"><ele>269.83333333333337</ele><time>2026-04-26T09:06:07.754Z</time></trkpt><trkpt lat="43.495585" lon="11.8654933"><ele>270.6666666666667</ele><time>2026-04-26T09:06:09.753Z</time></trkpt><trkpt lat="43.4956067" lon="11.8654117"><ele>271.5</ele><time>2026-04-26T09:06:11.754Z</time></trkpt><trkpt lat="43.49562" lon="11.8652833"><ele>272.3333333333333</ele><time>2026-04-26T09:06:14.753Z</time></trkpt><trkpt lat="43.4955917" lon="11.8651833"><ele>273.16666666666663</ele><time>2026-04-26T09:06:16.753Z</time></trkpt><trkpt lat="43.4955733" lon="11.865065"><ele>274.0</ele><time>2026-04-26T09:06:18.753Z</time></trkpt><trkpt lat="43.495565" lon="11.8649183"><ele>274.7142857142857</ele><time>2026-04-26T09:06:20.753Z</time></trkpt><trkpt lat="43.4955567" lon="11.8648317"><ele>275.42857142857144</ele><time>2026-04-26T09:06:21.753Z</time></trkpt><trkpt lat="43.4955567" lon="11.8647383"><ele>276.1428571428571</ele><time>2026-04-26T09:06:22.753Z</time></trkpt><trkpt lat="43.4955567" lon="11.86465"><ele>276.8571428571429</ele><time>2026-04-26T09:06:23.753Z</time></trkpt><trkpt lat="43.4955717" lon="11.864555"><ele>277.57142857142856</ele><time>2026-04-26T09:06:24.752Z</time></trkpt><trkpt lat="43.4955967" lon="11.864455"><ele>278.2857142857143</ele><time>2026-04-26T09:06:25.754Z</time></trkpt><trkpt lat="43.49561" lon="11.8643583"><ele>279.0</ele><time>2026-04-26T09:06:26.753Z</time></trkpt><trkpt lat="43.4956133" lon="11.8642583"><ele>279.1666666666667</ele><time>2026-04-26T09:06:27.753Z</time></trkpt><trkpt lat="43.4956267" lon="11.86416"><ele>279.3333333333333</ele><time>2026-04-26T09:06:28.753Z</time></trkpt><trkpt lat="43.4956417" lon="11.86405"><ele>279.5</ele><time>2026-04-26T09:06:29.754Z</time></trkpt><trkpt lat="43.4956483" lon="11.86393"><ele>279.66666666666663</ele><time>2026-04-26T09:06:30.753Z</time></trkpt><trkpt lat="43.49564" lon="11.8638083"><ele>279.8333333333333</ele><time>2026-04-26T09:06:31.753Z</time></trkpt><trkpt lat="43.4956167" lon="11.8636983"><ele>280.0</ele><time>2026-04-26T09:06:32.754Z</time></trkpt><trkpt lat="43.49558" lon="11.8636067"><ele>280.0</ele><time>2026-04-26T09:06:33.753Z</time></trkpt><trkpt lat="43.4955333" lon="11.86354"><ele>280.0</ele><time>2026-04-26T09:06:34.754Z</time></trkpt><trkpt lat="43.495475" lon="11.8634967"><ele>280.0</ele><time>2026-04-26T09:06:35.753Z</time></trkpt><trkpt lat="43.4953517" lon="11.863495"><ele>280.0</ele><time>2026-04-26T09:06:37.754Z</time></trkpt><trkpt lat="43.49527" lon="11.8635483"><ele>280.0</ele><time>2026-04-26T09:06:38.754Z</time></trkpt><trkpt lat="43.49518" lon="11.86362"><ele>279.2</ele><time>2026-04-26T09:06:39.753Z</time></trkpt><trkpt lat="43.4950933" lon="11.8636867"><ele>278.4</ele><time>2026-04-26T09:06:40.754Z</time></trkpt><trkpt lat="43.495015" lon="11.8637533"><ele>277.6</ele><time>2026-04-26T09:06:41.756Z</time></trkpt><trkpt lat="43.494935" lon="11.8638183"><ele>276.8</ele><time>2026-04-26T09:06:42.753Z</time></trkpt><trkpt lat="43.4948617" lon="11.8638833"><ele>276.0</ele><time>2026-04-26T09:06:43.754Z</time></trkpt><trkpt lat="43.494795" lon="11.8639483"><ele>276.0</ele><time>2026-04-26T09:06:44.754Z</time></trkpt><trkpt lat="43.4947367" lon="11.8640017"><ele>276.0</ele><time>2026-04-26T09:06:45.754Z</time></trkpt><trkpt lat="43.4946483" lon="11.86408"><ele>276.0</ele><time>2026-04-26T09:06:47.753Z</time></trkpt><trkpt lat="43.4945683" lon="11.8641333"><ele>276.0</ele><time>2026-04-26T09:06:49.755Z</time></trkpt><trkpt lat="43.494435" lon="11.8641333"><ele>276.0</ele><time>2026-04-26T09:06:51.753Z</time></trkpt><trkpt lat="43.4943367" lon="11.8641383"><ele>275.3333333333333</ele><time>2026-04-26T09:06:52.754Z</time></trkpt><trkpt lat="43.4942383" lon="11.86414"><ele>274.6666666666667</ele><time>2026-04-26T09:06:53.754Z</time></trkpt><trkpt lat="43.49416" lon="11.864135"><ele>274.0</ele><time>2026-04-26T09:06:54.754Z</time></trkpt><trkpt lat="43.4940917" lon="11.8641433"><ele>273.33333333333337</ele><time>2026-04-26T09:06:55.753Z</time></trkpt><trkpt lat="43.49399" lon="11.8641733"><ele>272.6666666666667</ele><time>2026-04-26T09:06:57.753Z</time></trkpt><trkpt lat="43.4939467" lon="11.8640933"><ele>272.0</ele><time>2026-04-26T09:07:02.754Z</time></trkpt><trkpt lat="43.4939483" lon="11.8639867"><ele>272.0</ele><time>2026-04-26T09:07:04.753Z</time></trkpt><trkpt lat="43.4939317" lon="11.8638533"><ele>272.0</ele><time>2026-04-26T09:07:06.753Z</time></trkpt><trkpt lat="43.4939" lon="11.86369"><ele>272.0</ele><time>2026-04-26T09:07:08.753Z</time></trkpt><trkpt lat="43.4938733" lon="11.8636083"><ele>272.0</ele><time>2026-04-26T09:07:09.753Z</time></trkpt><trkpt lat="43.4938433" lon="11.8635283"><ele>272.0</ele><time>2026-04-26T09:07:10.754Z</time></trkpt><trkpt lat="43.4938117" lon="11.8634417"><ele>272.0</ele><time>2026-04-26T09:07:11.755Z</time></trkpt><trkpt lat="43.4937733" lon="11.8633567"><ele>269.83333333333337</ele><time>2026-04-26T09:07:12.753Z</time></trkpt><trkpt lat="43.4937383" lon="11.8632733"><ele>267.6666666666667</ele><time>2026-04-26T09:07:13.753Z</time></trkpt><trkpt lat="43.4937067" lon="11.8631933"><ele>265.5</ele><time>2026-04-26T09:07:14.753Z</time></trkpt><trkpt lat="43.49367" lon="11.8631083"><ele>263.3333333333333</ele><time>2026-04-26T09:07:15.754Z</time></trkpt><trkpt lat="43.4936083" lon="11.8629867"><ele>261.16666666666663</ele><time>2026-04-26T09:07:17.754Z</time></trkpt><trkpt lat="43.4935783" lon="11.86291"><ele>259.0</ele><time>2026-04-26T09:07:18.753Z</time></trkpt><trkpt lat="43.4935583" lon="11.8627917"><ele>259.0</ele><time>2026-04-26T09:07:20.755Z</time></trkpt><trkpt lat="43.493595" lon="11.8626883"><ele>259.0</ele><time>2026-04-26T09:07:22.753Z</time></trkpt><trkpt lat="43.4936567" lon="11.8625667"><ele>259.0</ele><time>2026-04-26T09:07:24.753Z</time></trkpt><trkpt lat="43.4937033" lon="11.862435"><ele>259.0</ele><time>2026-04-26T09:07:26.754Z</time></trkpt><trkpt lat="43.4937317" lon="11.86229"><ele>259.0</ele><time>2026-04-26T09:07:28.753Z</time></trkpt><trkpt lat="43.49375" lon="11.8621617"><ele>258.8333333333333</ele><time>2026-04-26T09:07:30.753Z</time></trkpt><trkpt lat="43.4937783" lon="11.8620667"><ele>258.66666666666663</ele><time>2026-04-26T09:07:32.754Z</time></trkpt><trkpt lat="43.4938083" lon="11.8619767"><ele>258.5</ele><time>2026-04-26T09:07:34.754Z</time></trkpt><trkpt lat="43.4938667" lon="11.8618433"><ele>258.3333333333333</ele><time>2026-04-26T09:07:36.752Z</time></trkpt><trkpt lat="43.4939" lon="11.8617683"><ele>258.1666666666667</ele><time>2026-04-26T09:07:37.753Z</time></trkpt><trkpt lat="43.49393" lon="11.8616867"><ele>258.0</ele><time>2026-04-26T09:07:38.754Z</time></trkpt><trkpt lat="43.4939567" lon="11.861605"><ele>257.2</ele><time>2026-04-26T09:07:39.756Z</time></trkpt><trkpt lat="43.4939817" lon="11.86144"><ele>256.4</ele><time>2026-04-26T09:07:41.753Z</time></trkpt><trkpt lat="43.4940017" lon="11.8612883"><ele>255.59999999999997</ele><time>2026-04-26T09:07:43.753Z</time></trkpt><trkpt lat="43.4940167" lon="11.8611633"><ele>254.79999999999998</ele><time>2026-04-26T09:07:45.753Z</time></trkpt><trkpt lat="43.4940383" lon="11.861055"><ele>254.0</ele><time>2026-04-26T09:07:48.753Z</time></trkpt><trkpt lat="43.4940883" lon="11.860945"><ele>253.50000000000003</ele><time>2026-04-26T09:07:51.753Z</time></trkpt><trkpt lat="43.4941267" lon="11.8608667"><ele>253.0</ele><time>2026-04-26T09:07:53.754Z</time></trkpt><trkpt lat="43.494175" lon="11.8607767"><ele>252.5</ele><time>2026-04-26T09:07:58.753Z</time></trkpt><trkpt lat="43.4942317" lon="11.860675"><ele>252.0</ele><time>2026-04-26T09:08:01.753Z</time></trkpt><trkpt lat="43.4942683" lon="11.860595"><ele>251.50000000000003</ele><time>2026-04-26T09:08:03.753Z</time></trkpt><trkpt lat="43.4943117" lon="11.8605117"><ele>251.0</ele><time>2026-04-26T09:08:05.754Z</time></trkpt><trkpt lat="43.4943617" lon="11.860425"><ele>251.0</ele><time>2026-04-26T09:08:07.753Z</time></trkpt><trkpt lat="43.4943917" lon="11.8602933"><ele>251.00000000000003</ele><time>2026-04-26T09:08:09.753Z</time></trkpt><trkpt lat="43.4943933" lon="11.86015"><ele>251.00000000000003</ele><time>2026-04-26T09:08:11.753Z</time></trkpt><trkpt lat="43.4943867" lon="11.8600017"><ele>251.0</ele><time>2026-04-26T09:08:13.753Z</time></trkpt><trkpt lat="43.4943883" lon="11.859885"><ele>251.0</ele><time>2026-04-26T09:08:15.753Z</time></trkpt><trkpt lat="43.4944033" lon="11.8597717"><ele>251.0</ele><time>2026-04-26T09:08:17.754Z</time></trkpt><trkpt lat="43.49444" lon="11.8596417"><ele>251.00000000000003</ele><time>2026-04-26T09:08:19.754Z</time></trkpt><trkpt lat="43.4944867" lon="11.8595067"><ele>251.00000000000003</ele><time>2026-04-26T09:08:21.753Z</time></trkpt><trkpt lat="43.4945517" lon="11.8593783"><ele>251.0</ele><time>2026-04-26T09:08:23.754Z</time></trkpt><trkpt lat="43.4946117" lon="11.8592417"><ele>251.0</ele><time>2026-04-26T09:08:25.754Z</time></trkpt><trkpt lat="43.4946567" lon="11.8591317"><ele>251.00000000000003</ele><time>2026-04-26T09:08:27.754Z</time></trkpt><trkpt lat="43.4947117" lon="11.8590417"><ele>251.0</ele><time>2026-04-26T09:08:29.754Z</time></trkpt><trkpt lat="43.4948233" lon="11.8590233"><ele>251.0</ele><time>2026-04-26T09:08:31.753Z</time></trkpt><trkpt lat="43.4948967" lon="11.8590167"><ele>251.0</ele><time>2026-04-26T09:08:32.754Z</time></trkpt><trkpt lat="43.494975" lon="11.85899"><ele>251.00000000000003</ele><time>2026-04-26T09:08:33.753Z</time></trkpt><trkpt lat="43.49506" lon="11.858945"><ele>251.0</ele><time>2026-04-26T09:08:34.752Z</time></trkpt><trkpt lat="43.4951483" lon="11.8588867"><ele>251.0</ele><time>2026-04-26T09:08:35.754Z</time></trkpt><trkpt lat="43.4952433" lon="11.8588217"><ele>251.0</ele><time>2026-04-26T09:08:36.754Z</time></trkpt><trkpt lat="43.4953433" lon="11.858755"><ele>251.0</ele><time>2026-04-26T09:08:37.753Z</time></trkpt><trkpt lat="43.49545" lon="11.858685"><ele>251.0</ele><time>2026-04-26T09:08:38.755Z</time></trkpt><trkpt lat="43.49556" lon="11.8586183"><ele>251.25</ele><time>2026-04-26T09:08:39.753Z</time></trkpt><trkpt lat="43.4956717" lon="11.858545"><ele>251.5</ele><time>2026-04-26T09:08:40.753Z</time></trkpt><trkpt lat="43.495785" lon="11.8584683"><ele>251.75</ele><time>2026-04-26T09:08:41.754Z</time></trkpt><trkpt lat="43.4959" lon="11.8583917"><ele>252.0</ele><time>2026-04-26T09:08:42.753Z</time></trkpt><trkpt lat="43.4960133" lon="11.8583167"><ele>252.0</ele><time>2026-04-26T09:08:43.753Z</time></trkpt><trkpt lat="43.4961267" lon="11.8582433"><ele>252.0</ele><time>2026-04-26T09:08:44.754Z</time></trkpt><trkpt lat="43.4962417" lon="11.8581717"><ele>252.0</ele><time>2026-04-26T09:08:45.753Z</time></trkpt><trkpt lat="43.4963517" lon="11.8581"><ele>252.0</ele><time>2026-04-26T09:08:46.753Z</time></trkpt><trkpt lat="43.496455" lon="11.8580367"><ele>252.33333333333334</ele><time>2026-04-26T09:08:47.753Z</time></trkpt><trkpt lat="43.4965417" lon="11.8579817"><ele>252.66666666666669</ele><time>2026-04-26T09:08:48.753Z</time></trkpt><trkpt lat="43.49661" lon="11.8579333"><ele>253.0</ele><time>2026-04-26T09:08:49.753Z</time></trkpt><trkpt lat="43.496675" lon="11.8578883"><ele>253.33333333333334</ele><time>2026-04-26T09:08:50.753Z</time></trkpt><trkpt lat="43.4967533" lon="11.85784"><ele>253.66666666666669</ele><time>2026-04-26T09:08:51.753Z</time></trkpt><trkpt lat="43.4968567" lon="11.8577683"><ele>254.0</ele><time>2026-04-26T09:08:52.753Z</time></trkpt><trkpt lat="43.4969683" lon="11.85769"><ele>254.5</ele><time>2026-04-26T09:08:53.753Z</time></trkpt><trkpt lat="43.4970883" lon="11.8576133"><ele>255.0</ele><time>2026-04-26T09:08:54.753Z</time></trkpt><trkpt lat="43.49721" lon="11.8575383"><ele>255.5</ele><time>2026-04-26T09:08:55.752Z</time></trkpt><trkpt lat="43.4973328" lon="11.8574587"><ele>256.0</ele><time>2026-04-26T09:08:56.753Z</time></trkpt><trkpt lat="43.4974522" lon="11.8573817"><ele>256.0</ele><time>2026-04-26T09:08:57.753Z</time></trkpt><trkpt lat="43.4975632" lon="11.8573205"><ele>256.0</ele><time>2026-04-26T09:08:58.753Z</time></trkpt><trkpt lat="43.4976643" lon="11.8572691"><ele>256.0</ele><time>2026-04-26T09:08:59.754Z</time></trkpt><trkpt lat="43.4977596" lon="11.857219"><ele>256.0</ele><time>2026-04-26T09:09:00.753Z</time></trkpt><trkpt lat="43.4978479" lon="11.8571622"><ele>256.0</ele><time>2026-04-26T09:09:01.753Z</time></trkpt><trkpt lat="43.4979298" lon="11.857099"><ele>255.8</ele><time>2026-04-26T09:09:02.754Z</time></trkpt><trkpt lat="43.4980119" lon="11.8570317"><ele>255.60000000000002</ele><time>2026-04-26T09:09:03.753Z</time></trkpt><trkpt lat="43.4980926" lon="11.8569559"><ele>255.4</ele><time>2026-04-26T09:09:04.753Z</time></trkpt><trkpt lat="43.498172" lon="11.8568726"><ele>255.2</ele><time>2026-04-26T09:09:05.753Z</time></trkpt><trkpt lat="43.4982486" lon="11.8567866"><ele>255.0</ele><time>2026-04-26T09:09:06.754Z</time></trkpt><trkpt lat="43.4983192" lon="11.8567034"><ele>255.0</ele><time>2026-04-26T09:09:07.754Z</time></trkpt><trkpt lat="43.4983857" lon="11.8566235"><ele>255.0</ele><time>2026-04-26T09:09:08.754Z</time></trkpt><trkpt lat="43.4984503" lon="11.8565356"><ele>255.0</ele><time>2026-04-26T09:09:09.753Z</time></trkpt><trkpt lat="43.4985176" lon="11.8564365"><ele>255.0</ele><time>2026-04-26T09:09:10.754Z</time></trkpt><trkpt lat="43.4985899" lon="11.8563295"><ele>255.0</ele><time>2026-04-26T09:09:11.754Z</time></trkpt><trkpt lat="43.4986693" lon="11.8562168"><ele>255.5</ele><time>2026-04-26T09:09:12.754Z</time></trkpt><trkpt lat="43.4987532" lon="11.8560941"><ele>256.0</ele><time>2026-04-26T09:09:13.753Z</time></trkpt><trkpt lat="43.4988374" lon="11.8559534"><ele>256.5</ele><time>2026-04-26T09:09:14.754Z</time></trkpt><trkpt lat="43.4989281" lon="11.8557997"><ele>257.0</ele><time>2026-04-26T09:09:15.753Z</time></trkpt><trkpt lat="43.4990305" lon="11.8556426"><ele>257.0</ele><time>2026-04-26T09:09:16.754Z</time></trkpt><trkpt lat="43.4991384" lon="11.8554876"><ele>257.0</ele><time>2026-04-26T09:09:17.753Z</time></trkpt><trkpt lat="43.4992393" lon="11.8553404"><ele>257.0</ele><time>2026-04-26T09:09:18.753Z</time></trkpt><trkpt lat="43.4993324" lon="11.8552025"><ele>257.0</ele><time>2026-04-26T09:09:19.753Z</time></trkpt><trkpt lat="43.4994266" lon="11.8550682"><ele>257.0</ele><time>2026-04-26T09:09:20.754Z</time></trkpt><trkpt lat="43.499516" lon="11.8549248"><ele>257.0</ele><time>2026-04-26T09:09:21.753Z</time></trkpt><trkpt lat="43.4996055" lon="11.8547742"><ele>257.0</ele><time>2026-04-26T09:09:22.753Z</time></trkpt><trkpt lat="43.4996966" lon="11.8546217"><ele>257.0</ele><time>2026-04-26T09:09:23.753Z</time></trkpt><trkpt lat="43.4997842" lon="11.8544757"><ele>257.0</ele><time>2026-04-26T09:09:24.753Z</time></trkpt><trkpt lat="43.4998606" lon="11.8543439"><ele>257.0</ele><time>2026-04-26T09:09:25.753Z</time></trkpt><trkpt lat="43.4999305" lon="11.8542212"><ele>257.0</ele><time>2026-04-26T09:09:26.754Z</time></trkpt><trkpt lat="43.4999968" lon="11.8541036"><ele>257.0</ele><time>2026-04-26T09:09:27.753Z</time></trkpt><trkpt lat="43.5000661" lon="11.8539848"><ele>257.0</ele><time>2026-04-26T09:09:28.754Z</time></trkpt><trkpt lat="43.5001417" lon="11.8538583"><ele>257.0</ele><time>2026-04-26T09:09:29.754Z</time></trkpt><trkpt lat="43.5002217" lon="11.8537383"><ele>257.0</ele><time>2026-04-26T09:09:30.753Z</time></trkpt><trkpt lat="43.500295" lon="11.8536267"><ele>257.0</ele><time>2026-04-26T09:09:31.755Z</time></trkpt><trkpt lat="43.5003683" lon="11.853535"><ele>257.0</ele><time>2026-04-26T09:09:32.754Z</time></trkpt><trkpt lat="43.50043" lon="11.85346"><ele>256.6</ele><time>2026-04-26T09:09:33.754Z</time></trkpt><trkpt lat="43.50049" lon="11.853395"><ele>256.2</ele><time>2026-04-26T09:09:34.754Z</time></trkpt><trkpt lat="43.500545" lon="11.8533367"><ele>255.8</ele><time>2026-04-26T09:09:35.754Z</time></trkpt><trkpt lat="43.50067" lon="11.8532783"><ele>255.4</ele><time>2026-04-26T09:09:37.754Z</time></trkpt><trkpt lat="43.5007517" lon="11.8532583"><ele>255.0</ele><time>2026-04-26T09:09:38.754Z</time></trkpt><trkpt lat="43.5008517" lon="11.8532467"><ele>255.0</ele><time>2026-04-26T09:09:39.753Z</time></trkpt><trkpt lat="43.5009783" lon="11.8532217"><ele>255.0</ele><time>2026-04-26T09:09:40.754Z</time></trkpt><trkpt lat="43.50112" lon="11.853185"><ele>255.0</ele><time>2026-04-26T09:09:41.754Z</time></trkpt><trkpt lat="43.5012767" lon="11.8531367"><ele>255.0</ele><time>2026-04-26T09:09:42.754Z</time></trkpt><trkpt lat="43.501445" lon="11.853085"><ele>254.66666666666669</ele><time>2026-04-26T09:09:43.754Z</time></trkpt><trkpt lat="43.50162" lon="11.8530233"><ele>254.33333333333334</ele><time>2026-04-26T09:09:44.754Z</time></trkpt><trkpt lat="43.50179" lon="11.85295"><ele>254.0</ele><time>2026-04-26T09:09:45.753Z</time></trkpt><trkpt lat="43.5019467" lon="11.85287"><ele>254.0</ele><time>2026-04-26T09:09:46.753Z</time></trkpt><trkpt lat="43.5021033" lon="11.8527967"><ele>254.0</ele><time>2026-04-26T09:09:47.754Z</time></trkpt><trkpt lat="43.5022617" lon="11.8527367"><ele>254.0</ele><time>2026-04-26T09:09:48.754Z</time></trkpt><trkpt lat="43.5024183" lon="11.85269"><ele>254.0</ele><time>2026-04-26T09:09:49.754Z</time></trkpt><trkpt lat="43.502575" lon="11.8526467"><ele>254.0</ele><time>2026-04-26T09:09:50.754Z</time></trkpt><trkpt lat="43.502725" lon="11.8526"><ele>254.0</ele><time>2026-04-26T09:09:51.754Z</time></trkpt><trkpt lat="43.5028683" lon="11.8525283"><ele>254.0</ele><time>2026-04-26T09:09:52.754Z</time></trkpt><trkpt lat="43.5029933" lon="11.8524233"><ele>254.0</ele><time>2026-04-26T09:09:53.754Z</time></trkpt><trkpt lat="43.5031067" lon="11.8522917"><ele>254.0</ele><time>2026-04-26T09:09:54.753Z</time></trkpt><trkpt lat="43.503215" lon="11.8521417"><ele>254.0</ele><time>2026-04-26T09:09:55.754Z</time></trkpt><trkpt lat="43.5033333" lon="11.85198"><ele>254.0</ele><time>2026-04-26T09:09:56.754Z</time></trkpt><trkpt lat="43.503465" lon="11.8518267"><ele>254.0</ele><time>2026-04-26T09:09:57.753Z</time></trkpt><trkpt lat="43.5036117" lon="11.8516933"><ele>254.0</ele><time>2026-04-26T09:09:58.754Z</time></trkpt><trkpt lat="43.5037717" lon="11.8515767"><ele>254.33333333333334</ele><time>2026-04-26T09:09:59.753Z</time></trkpt><trkpt lat="43.5039383" lon="11.8514767"><ele>254.66666666666669</ele><time>2026-04-26T09:10:00.753Z</time></trkpt><trkpt lat="43.5041" lon="11.8513833"><ele>255.0</ele><time>2026-04-26T09:10:01.753Z</time></trkpt><trkpt lat="43.5042567" lon="11.8512883"><ele>255.0</ele><time>2026-04-26T09:10:02.754Z</time></trkpt><trkpt lat="43.5044033" lon="11.8512"><ele>255.0</ele><time>2026-04-26T09:10:03.754Z</time></trkpt><trkpt lat="43.5045417" lon="11.8511283"><ele>255.0</ele><time>2026-04-26T09:10:04.753Z</time></trkpt><trkpt lat="43.5046833" lon="11.8510683"><ele>256.0</ele><time>2026-04-26T09:10:05.754Z</time></trkpt><trkpt lat="43.5048267" lon="11.8510333"><ele>257.0</ele><time>2026-04-26T09:10:06.753Z</time></trkpt><trkpt lat="43.5049567" lon="11.851025"><ele>258.0</ele><time>2026-04-26T09:10:07.753Z</time></trkpt><trkpt lat="43.505075" lon="11.8510217"><ele>259.0</ele><time>2026-04-26T09:10:08.754Z</time></trkpt><trkpt lat="43.505185" lon="11.8510133"><ele>259.0</ele><time>2026-04-26T09:10:09.753Z</time></trkpt><trkpt lat="43.5052883" lon="11.8509833"><ele>259.0</ele><time>2026-04-26T09:10:10.754Z</time></trkpt><trkpt lat="43.5053833" lon="11.850925"><ele>259.0</ele><time>2026-04-26T09:10:11.754Z</time></trkpt><trkpt lat="43.50547" lon="11.8508567"><ele>259.0</ele><time>2026-04-26T09:10:12.754Z</time></trkpt><trkpt lat="43.5055483" lon="11.85079"><ele>259.0</ele><time>2026-04-26T09:10:13.754Z</time></trkpt><trkpt lat="43.50562" lon="11.8507333"><ele>258.85714285714283</ele><time>2026-04-26T09:10:14.754Z</time></trkpt><trkpt lat="43.5056883" lon="11.85068"><ele>258.7142857142857</ele><time>2026-04-26T09:10:15.753Z</time></trkpt><trkpt lat="43.505755" lon="11.85063"><ele>258.57142857142856</ele><time>2026-04-26T09:10:16.753Z</time></trkpt><trkpt lat="43.50582" lon="11.8505783"><ele>258.42857142857144</ele><time>2026-04-26T09:10:17.754Z</time></trkpt><trkpt lat="43.505885" lon="11.850535"><ele>258.2857142857143</ele><time>2026-04-26T09:10:18.753Z</time></trkpt><trkpt lat="43.505945" lon="11.8504967"><ele>258.1428571428571</ele><time>2026-04-26T09:10:19.754Z</time></trkpt><trkpt lat="43.5060067" lon="11.8504683"><ele>258.0</ele><time>2026-04-26T09:10:20.754Z</time></trkpt><trkpt lat="43.50607" lon="11.85045"><ele>257.99999999999994</ele><time>2026-04-26T09:10:21.754Z</time></trkpt><trkpt lat="43.5061367" lon="11.85044"><ele>258.0</ele><time>2026-04-26T09:10:22.754Z</time></trkpt><trkpt lat="43.5062067" lon="11.850435"><ele>258.0</ele><time>2026-04-26T09:10:23.755Z</time></trkpt><trkpt lat="43.5062783" lon="11.8504317"><ele>258.0</ele><time>2026-04-26T09:10:24.754Z</time></trkpt><trkpt lat="43.5063533" lon="11.8504333"><ele>258.0</ele><time>2026-04-26T09:10:25.754Z</time></trkpt><trkpt lat="43.506425" lon="11.8504367"><ele>257.99999999999994</ele><time>2026-04-26T09:10:26.754Z</time></trkpt><trkpt lat="43.5064967" lon="11.8504433"><ele>258.0</ele><time>2026-04-26T09:10:27.753Z</time></trkpt><trkpt lat="43.5065667" lon="11.8504517"><ele>258.5</ele><time>2026-04-26T09:10:28.754Z</time></trkpt><trkpt lat="43.5066433" lon="11.850455"><ele>259.0</ele><time>2026-04-26T09:10:29.754Z</time></trkpt><trkpt lat="43.5067267" lon="11.8504467"><ele>259.5</ele><time>2026-04-26T09:10:30.754Z</time></trkpt><trkpt lat="43.5068083" lon="11.8504233"><ele>260.0</ele><time>2026-04-26T09:10:31.754Z</time></trkpt><trkpt lat="43.5068983" lon="11.8503883"><ele>260.5</ele><time>2026-04-26T09:10:32.756Z</time></trkpt><trkpt lat="43.5069967" lon="11.850345"><ele>261.0</ele><time>2026-04-26T09:10:33.753Z</time></trkpt><trkpt lat="43.5071067" lon="11.8502967"><ele>261.0</ele><time>2026-04-26T09:10:34.754Z</time></trkpt><trkpt lat="43.50722" lon="11.8502417"><ele>261.0</ele><time>2026-04-26T09:10:35.754Z</time></trkpt><trkpt lat="43.5073383" lon="11.850185"><ele>261.0</ele><time>2026-04-26T09:10:36.754Z</time></trkpt><trkpt lat="43.5074583" lon="11.8501133"><ele>261.0</ele><time>2026-04-26T09:10:37.753Z</time></trkpt><trkpt lat="43.5075767" lon="11.85001"><ele>261.0</ele><time>2026-04-26T09:10:38.754Z</time></trkpt><trkpt lat="43.5076867" lon="11.8498783"><ele>261.0</ele><time>2026-04-26T09:10:39.753Z</time></trkpt><trkpt lat="43.507785" lon="11.849725"><ele>261.0</ele><time>2026-04-26T09:10:40.754Z</time></trkpt><trkpt lat="43.507875" lon="11.8495733"><ele>261.0</ele><time>2026-04-26T09:10:41.754Z</time></trkpt><trkpt lat="43.507955" lon="11.8494267"><ele>259.6</ele><time>2026-04-26T09:10:42.753Z</time></trkpt><trkpt lat="43.5080233" lon="11.8492917"><ele>258.20000000000005</ele><time>2026-04-26T09:10:43.753Z</time></trkpt><trkpt lat="43.5080833" lon="11.849165"><ele>256.79999999999995</ele><time>2026-04-26T09:10:44.754Z</time></trkpt><trkpt lat="43.5081367" lon="11.8490483"><ele>255.39999999999998</ele><time>2026-04-26T09:10:45.753Z</time></trkpt><trkpt lat="43.508185" lon="11.848945"><ele>254.0</ele><time>2026-04-26T09:10:46.754Z</time></trkpt><trkpt lat="43.5082233" lon="11.8488467"><ele>254.0</ele><time>2026-04-26T09:10:47.754Z</time></trkpt><trkpt lat="43.5082583" lon="11.8487433"><ele>253.99999999999997</ele><time>2026-04-26T09:10:48.754Z</time></trkpt><trkpt lat="43.5083033" lon="11.84862"><ele>253.99999999999997</ele><time>2026-04-26T09:10:49.754Z</time></trkpt><trkpt lat="43.50836" lon="11.8484767"><ele>254.0</ele><time>2026-04-26T09:10:50.755Z</time></trkpt><trkpt lat="43.5084317" lon="11.8483133"><ele>254.0</ele><time>2026-04-26T09:10:51.753Z</time></trkpt><trkpt lat="43.508505" lon="11.8481217"><ele>254.0</ele><time>2026-04-26T09:10:52.754Z</time></trkpt><trkpt lat="43.5085833" lon="11.8479167"><ele>254.0</ele><time>2026-04-26T09:10:53.755Z</time></trkpt><trkpt lat="43.5086683" lon="11.847705"><ele>254.0</ele><time>2026-04-26T09:10:54.753Z</time></trkpt><trkpt lat="43.50876" lon="11.84748"><ele>253.66666666666669</ele><time>2026-04-26T09:10:55.754Z</time></trkpt><trkpt lat="43.50886" lon="11.84725"><ele>253.33333333333331</ele><time>2026-04-26T09:10:56.754Z</time></trkpt><trkpt lat="43.5089617" lon="11.84704"><ele>253.0</ele><time>2026-04-26T09:10:57.754Z</time></trkpt><trkpt lat="43.509065" lon="11.8468367"><ele>253.66666666666666</ele><time>2026-04-26T09:10:58.753Z</time></trkpt><trkpt lat="43.5091683" lon="11.8466517"><ele>254.33333333333331</ele><time>2026-04-26T09:10:59.753Z</time></trkpt><trkpt lat="43.5092733" lon="11.84647"><ele>255.0</ele><time>2026-04-26T09:11:00.754Z</time></trkpt><trkpt lat="43.5093733" lon="11.84629"><ele>255.0</ele><time>2026-04-26T09:11:01.753Z</time></trkpt><trkpt lat="43.5094683" lon="11.8461083"><ele>255.0</ele><time>2026-04-26T09:11:02.754Z</time></trkpt><trkpt lat="43.509565" lon="11.84593"><ele>255.0</ele><time>2026-04-26T09:11:03.753Z</time></trkpt><trkpt lat="43.50967" lon="11.8457517"><ele>254.33333333333331</ele><time>2026-04-26T09:11:04.753Z</time></trkpt><trkpt lat="43.5097767" lon="11.8455683"><ele>253.66666666666666</ele><time>2026-04-26T09:11:05.753Z</time></trkpt><trkpt lat="43.5098817" lon="11.84538"><ele>253.0</ele><time>2026-04-26T09:11:06.753Z</time></trkpt><trkpt lat="43.509985" lon="11.8452"><ele>252.75</ele><time>2026-04-26T09:11:07.753Z</time></trkpt><trkpt lat="43.5100767" lon="11.8450433"><ele>252.5</ele><time>2026-04-26T09:11:08.755Z</time></trkpt><trkpt lat="43.5101533" lon="11.844905"><ele>252.25</ele><time>2026-04-26T09:11:09.753Z</time></trkpt><trkpt lat="43.5102267" lon="11.8447767"><ele>252.0</ele><time>2026-04-26T09:11:10.753Z</time></trkpt><trkpt lat="43.51029" lon="11.8446617"><ele>252.0</ele><time>2026-04-26T09:11:11.758Z</time></trkpt><trkpt lat="43.5103483" lon="11.844555"><ele>252.0</ele><time>2026-04-26T09:11:12.753Z</time></trkpt><trkpt lat="43.5104017" lon="11.8444583"><ele>252.0</ele><time>2026-04-26T09:11:13.753Z</time></trkpt><trkpt lat="43.5104467" lon="11.8443783"><ele>252.0</ele><time>2026-04-26T09:11:14.754Z</time></trkpt><trkpt lat="43.51053" lon="11.8443083"><ele>252.0</ele><time>2026-04-26T09:11:16.753Z</time></trkpt><trkpt lat="43.51063" lon="11.8443733"><ele>252.16666666666666</ele><time>2026-04-26T09:11:18.754Z</time></trkpt><trkpt lat="43.510695" lon="11.8444483"><ele>252.33333333333331</ele><time>2026-04-26T09:11:19.754Z</time></trkpt><trkpt lat="43.5107667" lon="11.8445367"><ele>252.5</ele><time>2026-04-26T09:11:20.754Z</time></trkpt><trkpt lat="43.5108383" lon="11.84462"><ele>252.66666666666666</ele><time>2026-04-26T09:11:21.753Z</time></trkpt><trkpt lat="43.510905" lon="11.8446967"><ele>252.83333333333331</ele><time>2026-04-26T09:11:22.754Z</time></trkpt><trkpt lat="43.5109683" lon="11.84476"><ele>253.0</ele><time>2026-04-26T09:11:23.756Z</time></trkpt><trkpt lat="43.511025" lon="11.8448067"><ele>253.0</ele><time>2026-04-26T09:11:24.754Z</time></trkpt><trkpt lat="43.5110883" lon="11.8447983"><ele>253.0</ele><time>2026-04-26T09:11:25.754Z</time></trkpt><trkpt lat="43.51116" lon="11.8447333"><ele>253.0</ele><time>2026-04-26T09:11:26.754Z</time></trkpt><trkpt lat="43.511245" lon="11.8446283"><ele>253.0</ele><time>2026-04-26T09:11:27.753Z</time></trkpt><trkpt lat="43.5113367" lon="11.8445083"><ele>253.0</ele><time>2026-04-26T09:11:28.753Z</time></trkpt><trkpt lat="43.5114483" lon="11.8443867"><ele>252.66666666666666</ele><time>2026-04-26T09:11:29.754Z</time></trkpt><trkpt lat="43.5115783" lon="11.844255"><ele>252.33333333333331</ele><time>2026-04-26T09:11:30.753Z</time></trkpt><trkpt lat="43.5117083" lon="11.84412"><ele>252.0</ele><time>2026-04-26T09:11:31.753Z</time></trkpt><trkpt lat="43.5118283" lon="11.8439867"><ele>252.0</ele><time>2026-04-26T09:11:32.755Z</time></trkpt><trkpt lat="43.5119367" lon="11.8438483"><ele>252.0</ele><time>2026-04-26T09:11:33.754Z</time></trkpt><trkpt lat="43.5120317" lon="11.8437083"><ele>252.0</ele><time>2026-04-26T09:11:34.753Z</time></trkpt><trkpt lat="43.5121083" lon="11.8435767"><ele>252.0</ele><time>2026-04-26T09:11:35.754Z</time></trkpt><trkpt lat="43.5121817" lon="11.8434583"><ele>251.8</ele><time>2026-04-26T09:11:36.753Z</time></trkpt><trkpt lat="43.5122533" lon="11.843355"><ele>251.6</ele><time>2026-04-26T09:11:37.755Z</time></trkpt><trkpt lat="43.5123133" lon="11.8432733"><ele>251.40000000000003</ele><time>2026-04-26T09:11:38.755Z</time></trkpt><trkpt lat="43.51236" lon="11.8432117"><ele>251.20000000000002</ele><time>2026-04-26T09:11:39.753Z</time></trkpt><trkpt lat="43.5124167" lon="11.8431283"><ele>251.0</ele><time>2026-04-26T09:11:41.755Z</time></trkpt><trkpt lat="43.512365" lon="11.8429667"><ele>251.0</ele><time>2026-04-26T09:11:50.754Z</time></trkpt><trkpt lat="43.5122717" lon="11.842885"><ele>251.00000000000003</ele><time>2026-04-26T09:11:52.754Z</time></trkpt><trkpt lat="43.5121517" lon="11.84281"><ele>251.00000000000003</ele><time>2026-04-26T09:11:54.754Z</time></trkpt><trkpt lat="43.5120883" lon="11.8427667"><ele>251.0</ele><time>2026-04-26T09:11:55.753Z</time></trkpt><trkpt lat="43.512025" lon="11.8427267"><ele>251.0</ele><time>2026-04-26T09:11:56.753Z</time></trkpt><trkpt lat="43.5119183" lon="11.8426567"><ele>251.60000000000002</ele><time>2026-04-26T09:11:58.753Z</time></trkpt><trkpt lat="43.5118233" lon="11.8425733"><ele>252.20000000000002</ele><time>2026-04-26T09:12:00.753Z</time></trkpt><trkpt lat="43.5117733" lon="11.8424067"><ele>252.79999999999998</ele><time>2026-04-26T09:12:02.754Z</time></trkpt><trkpt lat="43.5117617" lon="11.8422967"><ele>253.39999999999998</ele><time>2026-04-26T09:12:03.753Z</time></trkpt><trkpt lat="43.5117533" lon="11.8422083"><ele>254.0</ele><time>2026-04-26T09:12:04.754Z</time></trkpt><trkpt lat="43.51173" lon="11.8420467"><ele>254.00000000000003</ele><time>2026-04-26T09:12:06.753Z</time></trkpt><trkpt lat="43.5117067" lon="11.8419567"><ele>254.0</ele><time>2026-04-26T09:12:07.754Z</time></trkpt><trkpt lat="43.5116783" lon="11.8418667"><ele>254.0</ele><time>2026-04-26T09:12:08.754Z</time></trkpt><trkpt lat="43.511635" lon="11.8417733"><ele>254.0</ele><time>2026-04-26T09:12:09.753Z</time></trkpt><trkpt lat="43.511595" lon="11.84169"><ele>254.00000000000003</ele><time>2026-04-26T09:12:10.753Z</time></trkpt><trkpt lat="43.5115567" lon="11.841605"><ele>254.0</ele><time>2026-04-26T09:12:11.754Z</time></trkpt><trkpt lat="43.5115" lon="11.8414717"><ele>254.0</ele><time>2026-04-26T09:12:13.754Z</time></trkpt><trkpt lat="43.5114533" lon="11.8413467"><ele>253.99999999999997</ele><time>2026-04-26T09:12:15.753Z</time></trkpt><trkpt lat="43.51141" lon="11.8412033"><ele>253.99999999999997</ele><time>2026-04-26T09:12:17.755Z</time></trkpt><trkpt lat="43.5113883" lon="11.8411133"><ele>254.0</ele><time>2026-04-26T09:12:18.753Z</time></trkpt><trkpt lat="43.5113633" lon="11.8410067"><ele>254.0</ele><time>2026-04-26T09:12:19.754Z</time></trkpt><trkpt lat="43.5113333" lon="11.8408867"><ele>253.79999999999998</ele><time>2026-04-26T09:12:20.754Z</time></trkpt><trkpt lat="43.5112983" lon="11.8407633"><ele>253.59999999999997</ele><time>2026-04-26T09:12:21.753Z</time></trkpt><trkpt lat="43.51126" lon="11.8406383"><ele>253.4</ele><time>2026-04-26T09:12:22.754Z</time></trkpt><trkpt lat="43.51122" lon="11.8405117"><ele>253.2</ele><time>2026-04-26T09:12:23.754Z</time></trkpt><trkpt lat="43.5111733" lon="11.8403833"><ele>253.0</ele><time>2026-04-26T09:12:24.754Z</time></trkpt><trkpt lat="43.5111217" lon="11.8402517"><ele>253.0</ele><time>2026-04-26T09:12:25.753Z</time></trkpt><trkpt lat="43.5110683" lon="11.840125"><ele>253.0</ele><time>2026-04-26T09:12:26.754Z</time></trkpt><trkpt lat="43.5110133" lon="11.8399983"><ele>253.0</ele><time>2026-04-26T09:12:27.753Z</time></trkpt><trkpt lat="43.5109533" lon="11.8398733"><ele>253.0</ele><time>2026-04-26T09:12:28.755Z</time></trkpt><trkpt lat="43.5108967" lon="11.8397483"><ele>253.0</ele><time>2026-04-26T09:12:29.753Z</time></trkpt><trkpt lat="43.5108417" lon="11.8396267"><ele>253.0</ele><time>2026-04-26T09:12:30.753Z</time></trkpt><trkpt lat="43.510785" lon="11.8395083"><ele>253.0</ele><time>2026-04-26T09:12:31.754Z</time></trkpt><trkpt lat="43.5107267" lon="11.839385"><ele>253.0</ele><time>2026-04-26T09:12:32.754Z</time></trkpt><trkpt lat="43.51067" lon="11.839255"><ele>253.0</ele><time>2026-04-26T09:12:33.753Z</time></trkpt><trkpt lat="43.5106167" lon="11.8391167"><ele>253.0</ele><time>2026-04-26T09:12:34.753Z</time></trkpt><trkpt lat="43.5105733" lon="11.8389783"><ele>253.0</ele><time>2026-04-26T09:12:35.753Z</time></trkpt><trkpt lat="43.5105333" lon="11.8388483"><ele>253.0</ele><time>2026-04-26T09:12:36.753Z</time></trkpt><trkpt lat="43.5104933" lon="11.83872"><ele>253.0</ele><time>2026-04-26T09:12:37.754Z</time></trkpt><trkpt lat="43.5104517" lon="11.8385967"><ele>253.0</ele><time>2026-04-26T09:12:38.753Z</time></trkpt><trkpt lat="43.510415" lon="11.838485"><ele>253.0</ele><time>2026-04-26T09:12:39.753Z</time></trkpt><trkpt lat="43.5103783" lon="11.8383783"><ele>252.99999999999997</ele><time>2026-04-26T09:12:40.755Z</time></trkpt><trkpt lat="43.5103333" lon="11.8382717"><ele>253.0</ele><time>2026-04-26T09:12:41.754Z</time></trkpt><trkpt lat="43.510275" lon="11.83817"><ele>253.0</ele><time>2026-04-26T09:12:42.754Z</time></trkpt><trkpt lat="43.510215" lon="11.8380817"><ele>253.0</ele><time>2026-04-26T09:12:43.754Z</time></trkpt><trkpt lat="43.5101583" lon="11.8380033"><ele>252.99999999999997</ele><time>2026-04-26T09:12:44.754Z</time></trkpt><trkpt lat="43.5101083" lon="11.8379367"><ele>253.0</ele><time>2026-04-26T09:12:45.753Z</time></trkpt><trkpt lat="43.5100567" lon="11.8378867"><ele>253.0</ele><time>2026-04-26T09:12:46.754Z</time></trkpt><trkpt lat="43.5099883" lon="11.8378017"><ele>253.0</ele><time>2026-04-26T09:12:48.753Z</time></trkpt><trkpt lat="43.5099317" lon="11.8377267"><ele>253.0</ele><time>2026-04-26T09:12:51.754Z</time></trkpt><trkpt lat="43.5099283" lon="11.8375783"><ele>253.0</ele><time>2026-04-26T09:13:01.754Z</time></trkpt><trkpt lat="43.5099867" lon="11.8375317"><ele>253.0</ele><time>2026-04-26T09:13:02.753Z</time></trkpt><trkpt lat="43.5100783" lon="11.837455"><ele>253.0</ele><time>2026-04-26T09:13:03.753Z</time></trkpt><trkpt lat="43.5101733" lon="11.8373767"><ele>253.0</ele><time>2026-04-26T09:13:04.753Z</time></trkpt><trkpt lat="43.5102667" lon="11.83731"><ele>253.0</ele><time>2026-04-26T09:13:05.754Z</time></trkpt><trkpt lat="43.51037" lon="11.8372433"><ele>253.0</ele><time>2026-04-26T09:13:06.753Z</time></trkpt><trkpt lat="43.5104767" lon="11.8371717"><ele>253.0</ele><time>2026-04-26T09:13:07.755Z</time></trkpt><trkpt lat="43.5105883" lon="11.83709"><ele>252.75</ele><time>2026-04-26T09:13:08.754Z</time></trkpt><trkpt lat="43.5107017" lon="11.8370083"><ele>252.5</ele><time>2026-04-26T09:13:09.753Z</time></trkpt><trkpt lat="43.510815" lon="11.8369367"><ele>252.25</ele><time>2026-04-26T09:13:10.753Z</time></trkpt><trkpt lat="43.5109267" lon="11.83687"><ele>252.0</ele><time>2026-04-26T09:13:11.754Z</time></trkpt><trkpt lat="43.5110317" lon="11.8368"><ele>252.0</ele><time>2026-04-26T09:13:12.754Z</time></trkpt><trkpt lat="43.51114" lon="11.8367267"><ele>252.0</ele><time>2026-04-26T09:13:13.753Z</time></trkpt><trkpt lat="43.5112533" lon="11.8366467"><ele>252.0</ele><time>2026-04-26T09:13:14.754Z</time></trkpt><trkpt lat="43.51137" lon="11.83656"><ele>252.0</ele><time>2026-04-26T09:13:15.753Z</time></trkpt><trkpt lat="43.5114917" lon="11.8364667"><ele>251.75</ele><time>2026-04-26T09:13:16.753Z</time></trkpt><trkpt lat="43.5116117" lon="11.8363717"><ele>251.5</ele><time>2026-04-26T09:13:17.754Z</time></trkpt><trkpt lat="43.5117283" lon="11.8362867"><ele>251.25</ele><time>2026-04-26T09:13:18.753Z</time></trkpt><trkpt lat="43.511835" lon="11.83621"><ele>251.0</ele><time>2026-04-26T09:13:19.754Z</time></trkpt><trkpt lat="43.5119367" lon="11.8361433"><ele>251.0</ele><time>2026-04-26T09:13:20.754Z</time></trkpt><trkpt lat="43.512035" lon="11.8360833"><ele>251.0</ele><time>2026-04-26T09:13:21.754Z</time></trkpt><trkpt lat="43.512135" lon="11.8360083"><ele>251.0</ele><time>2026-04-26T09:13:22.753Z</time></trkpt><trkpt lat="43.51224" lon="11.8359233"><ele>251.0</ele><time>2026-04-26T09:13:23.754Z</time></trkpt><trkpt lat="43.51236" lon="11.835835"><ele>250.0</ele><time>2026-04-26T09:13:24.756Z</time></trkpt><trkpt lat="43.5124867" lon="11.8357433"><ele>249.0</ele><time>2026-04-26T09:13:25.753Z</time></trkpt><trkpt lat="43.5126133" lon="11.83565"><ele>248.0</ele><time>2026-04-26T09:13:26.754Z</time></trkpt><trkpt lat="43.5127417" lon="11.8355467"><ele>247.0</ele><time>2026-04-26T09:13:27.753Z</time></trkpt><trkpt lat="43.51288" lon="11.835435"><ele>246.33333333333331</ele><time>2026-04-26T09:13:28.753Z</time></trkpt><trkpt lat="43.5130333" lon="11.8353167"><ele>245.66666666666669</ele><time>2026-04-26T09:13:29.754Z</time></trkpt><trkpt lat="43.5132017" lon="11.8351983"><ele>245.0</ele><time>2026-04-26T09:13:30.753Z</time></trkpt><trkpt lat="43.5133633" lon="11.83508"><ele>245.0</ele><time>2026-04-26T09:13:31.753Z</time></trkpt><trkpt lat="43.513515" lon="11.8349667"><ele>245.0</ele><time>2026-04-26T09:13:32.754Z</time></trkpt><trkpt lat="43.5136617" lon="11.8348633"><ele>245.0</ele><time>2026-04-26T09:13:33.753Z</time></trkpt><trkpt lat="43.5138017" lon="11.834765"><ele>244.0</ele><time>2026-04-26T09:13:34.754Z</time></trkpt><trkpt lat="43.5139317" lon="11.83467"><ele>243.0</ele><time>2026-04-26T09:13:35.753Z</time></trkpt><trkpt lat="43.5140733" lon="11.83456"><ele>242.0</ele><time>2026-04-26T09:13:36.754Z</time></trkpt><trkpt lat="43.5142117" lon="11.8344483"><ele>242.0</ele><time>2026-04-26T09:13:37.754Z</time></trkpt><trkpt lat="43.5143533" lon="11.8343333"><ele>242.0</ele><time>2026-04-26T09:13:38.755Z</time></trkpt><trkpt lat="43.5144883" lon="11.8342167"><ele>242.0</ele><time>2026-04-26T09:13:39.753Z</time></trkpt><trkpt lat="43.5146267" lon="11.8340867"><ele>238.66666666666669</ele><time>2026-04-26T09:13:40.754Z</time></trkpt><trkpt lat="43.5147567" lon="11.8339567"><ele>235.33333333333331</ele><time>2026-04-26T09:13:41.753Z</time></trkpt><trkpt lat="43.5148867" lon="11.8338317"><ele>232.0</ele><time>2026-04-26T09:13:42.753Z</time></trkpt><trkpt lat="43.5150267" lon="11.8337233"><ele>232.0</ele><time>2026-04-26T09:13:43.754Z</time></trkpt><trkpt lat="43.5151783" lon="11.8336183"><ele>232.0</ele><time>2026-04-26T09:13:44.754Z</time></trkpt><trkpt lat="43.51534" lon="11.8335133"><ele>232.0</ele><time>2026-04-26T09:13:45.753Z</time></trkpt><trkpt lat="43.515505" lon="11.8334017"><ele>228.33333333333331</ele><time>2026-04-26T09:13:46.754Z</time></trkpt><trkpt lat="43.5156733" lon="11.8332867"><ele>224.66666666666669</ele><time>2026-04-26T09:13:47.754Z</time></trkpt><trkpt lat="43.5158417" lon="11.8331733"><ele>221.0</ele><time>2026-04-26T09:13:48.753Z</time></trkpt><trkpt lat="43.5160083" lon="11.8330683"><ele>221.0</ele><time>2026-04-26T09:13:49.753Z</time></trkpt><trkpt lat="43.5161667" lon="11.8329667"><ele>221.0</ele><time>2026-04-26T09:13:50.753Z</time></trkpt><trkpt lat="43.516325" lon="11.832865"><ele>221.0</ele><time>2026-04-26T09:13:51.753Z</time></trkpt><trkpt lat="43.5164833" lon="11.832755"><ele>219.33333333333334</ele><time>2026-04-26T09:13:52.753Z</time></trkpt><trkpt lat="43.5166417" lon="11.8326433"><ele>217.66666666666669</ele><time>2026-04-26T09:13:53.753Z</time></trkpt><trkpt lat="43.5168" lon="11.8325283"><ele>216.0</ele><time>2026-04-26T09:13:54.754Z</time></trkpt><trkpt lat="43.5169617" lon="11.8324083"><ele>215.33333333333331</ele><time>2026-04-26T09:13:55.753Z</time></trkpt><trkpt lat="43.5171283" lon="11.83228"><ele>214.66666666666666</ele><time>2026-04-26T09:13:56.753Z</time></trkpt><trkpt lat="43.5172917" lon="11.832155"><ele>214.0</ele><time>2026-04-26T09:13:57.753Z</time></trkpt><trkpt lat="43.5174417" lon="11.8320383"><ele>214.0</ele><time>2026-04-26T09:13:58.753Z</time></trkpt><trkpt lat="43.5175817" lon="11.8319317"><ele>214.0</ele><time>2026-04-26T09:13:59.754Z</time></trkpt><trkpt lat="43.5177133" lon="11.8318317"><ele>214.0</ele><time>2026-04-26T09:14:00.753Z</time></trkpt><trkpt lat="43.517835" lon="11.8317383"><ele>214.0</ele><time>2026-04-26T09:14:01.753Z</time></trkpt><trkpt lat="43.5179517" lon="11.8316483"><ele>214.0</ele><time>2026-04-26T09:14:02.754Z</time></trkpt><trkpt lat="43.5180583" lon="11.831565"><ele>213.99999999999997</ele><time>2026-04-26T09:14:03.753Z</time></trkpt><trkpt lat="43.518155" lon="11.8314933"><ele>213.99999999999997</ele><time>2026-04-26T09:14:04.753Z</time></trkpt><trkpt lat="43.5182433" lon="11.8314233"><ele>214.0</ele><time>2026-04-26T09:14:05.753Z</time></trkpt><trkpt lat="43.518325" lon="11.831355"><ele>214.0</ele><time>2026-04-26T09:14:06.753Z</time></trkpt><trkpt lat="43.5183983" lon="11.8313"><ele>213.99999999999997</ele><time>2026-04-26T09:14:07.754Z</time></trkpt><trkpt lat="43.518465" lon="11.8312517"><ele>214.0</ele><time>2026-04-26T09:14:08.754Z</time></trkpt><trkpt lat="43.5185233" lon="11.8312117"><ele>214.0</ele><time>2026-04-26T09:14:09.754Z</time></trkpt><trkpt lat="43.5186117" lon="11.83114"><ele>214.0</ele><time>2026-04-26T09:14:11.753Z</time></trkpt><trkpt lat="43.51869" lon="11.8310917"><ele>213.99999999999997</ele><time>2026-04-26T09:14:13.753Z</time></trkpt><trkpt lat="43.51876" lon="11.8310533"><ele>214.0</ele><time>2026-04-26T09:14:15.753Z</time></trkpt><trkpt lat="43.5188283" lon="11.8310083"><ele>213.75</ele><time>2026-04-26T09:14:18.753Z</time></trkpt><trkpt lat="43.518935" lon="11.8309333"><ele>213.5</ele><time>2026-04-26T09:14:23.753Z</time></trkpt><trkpt lat="43.5190317" lon="11.8308933"><ele>213.25</ele><time>2026-04-26T09:14:24.753Z</time></trkpt><trkpt lat="43.5191583" lon="11.8308817"><ele>213.0</ele><time>2026-04-26T09:14:25.753Z</time></trkpt><trkpt lat="43.5193033" lon="11.8309267"><ele>212.33333333333331</ele><time>2026-04-26T09:14:26.754Z</time></trkpt><trkpt lat="43.51945" lon="11.8310283"><ele>211.66666666666666</ele><time>2026-04-26T09:14:27.753Z</time></trkpt><trkpt lat="43.5195967" lon="11.831135"><ele>211.0</ele><time>2026-04-26T09:14:28.753Z</time></trkpt><trkpt lat="43.5197317" lon="11.831235"><ele>210.25</ele><time>2026-04-26T09:14:29.755Z</time></trkpt><trkpt lat="43.5198483" lon="11.83133"><ele>209.5</ele><time>2026-04-26T09:14:30.753Z</time></trkpt><trkpt lat="43.51996" lon="11.831415"><ele>208.75</ele><time>2026-04-26T09:14:31.753Z</time></trkpt><trkpt lat="43.5200617" lon="11.8314967"><ele>208.0</ele><time>2026-04-26T09:14:32.754Z</time></trkpt><trkpt lat="43.5201633" lon="11.831565"><ele>208.0</ele><time>2026-04-26T09:14:33.753Z</time></trkpt><trkpt lat="43.52027" lon="11.831625"><ele>208.0</ele><time>2026-04-26T09:14:34.753Z</time></trkpt><trkpt lat="43.52039" lon="11.8316667"><ele>208.0</ele><time>2026-04-26T09:14:35.754Z</time></trkpt><trkpt lat="43.5205217" lon="11.831705"><ele>208.0</ele><time>2026-04-26T09:14:36.754Z</time></trkpt><trkpt lat="43.5206567" lon="11.8317433"><ele>208.75</ele><time>2026-04-26T09:14:37.754Z</time></trkpt><trkpt lat="43.5207933" lon="11.8317817"><ele>209.5</ele><time>2026-04-26T09:14:38.754Z</time></trkpt><trkpt lat="43.520925" lon="11.8318133"><ele>210.25</ele><time>2026-04-26T09:14:39.753Z</time></trkpt><trkpt lat="43.5210567" lon="11.8318483"><ele>211.0</ele><time>2026-04-26T09:14:40.754Z</time></trkpt><trkpt lat="43.5211867" lon="11.8318817"><ele>211.60000000000002</ele><time>2026-04-26T09:14:41.754Z</time></trkpt><trkpt lat="43.5213083" lon="11.8319117"><ele>212.2</ele><time>2026-04-26T09:14:42.753Z</time></trkpt><trkpt lat="43.5214133" lon="11.8319367"><ele>212.79999999999998</ele><time>2026-04-26T09:14:43.754Z</time></trkpt><trkpt lat="43.5215083" lon="11.8319617"><ele>213.39999999999998</ele><time>2026-04-26T09:14:44.754Z</time></trkpt><trkpt lat="43.5216" lon="11.8319867"><ele>214.0</ele><time>2026-04-26T09:14:45.753Z</time></trkpt><trkpt lat="43.5216917" lon="11.8320167"><ele>214.0</ele><time>2026-04-26T09:14:46.754Z</time></trkpt><trkpt lat="43.5217833" lon="11.8320467"><ele>213.99999999999997</ele><time>2026-04-26T09:14:47.754Z</time></trkpt><trkpt lat="43.52188" lon="11.8320733"><ele>213.99999999999997</ele><time>2026-04-26T09:14:48.754Z</time></trkpt><trkpt lat="43.5219733" lon="11.8320983"><ele>214.0</ele><time>2026-04-26T09:14:49.755Z</time></trkpt><trkpt lat="43.5220617" lon="11.832125"><ele>214.0</ele><time>2026-04-26T09:14:50.754Z</time></trkpt><trkpt lat="43.5221433" lon="11.8321517"><ele>213.99999999999997</ele><time>2026-04-26T09:14:51.753Z</time></trkpt><trkpt lat="43.52222" lon="11.832175"><ele>214.0</ele><time>2026-04-26T09:14:52.754Z</time></trkpt><trkpt lat="43.522295" lon="11.8321983"><ele>214.0</ele><time>2026-04-26T09:14:53.754Z</time></trkpt><trkpt lat="43.5223683" lon="11.8322167"><ele>214.0</ele><time>2026-04-26T09:14:54.753Z</time></trkpt><trkpt lat="43.52243" lon="11.83224"><ele>213.99999999999997</ele><time>2026-04-26T09:14:55.755Z</time></trkpt><trkpt lat="43.5224983" lon="11.832285"><ele>214.0</ele><time>2026-04-26T09:14:57.754Z</time></trkpt><trkpt lat="43.5224167" lon="11.832365"><ele>214.0</ele><time>2026-04-26T09:15:00.753Z</time></trkpt><trkpt lat="43.5223467" lon="11.8323283"><ele>214.0</ele><time>2026-04-26T09:15:03.753Z</time></trkpt></trkseg><trkseg><trkpt lat="43.522415" lon="11.8323767"><ele>213.99999999999997</ele><time>2026-04-26T09:29:08.753Z</time></trkpt><trkpt lat="43.5225033" lon="11.8323783"><ele>214.0</ele><time>2026-04-26T09:29:10.753Z</time></trkpt><trkpt lat="43.5225583" lon="11.8323217"><ele>214.0</ele><time>2026-04-26T09:29:13.754Z</time></trkpt><trkpt lat="43.52265" lon="11.8322067"><ele>214.0</ele><time>2026-04-26T09:29:19.753Z</time></trkpt><trkpt lat="43.5227117" lon="11.83214"><ele>213.99999999999997</ele><time>2026-04-26T09:29:20.754Z</time></trkpt><trkpt lat="43.5227767" lon="11.832075"><ele>214.0</ele><time>2026-04-26T09:29:21.753Z</time></trkpt><trkpt lat="43.5228383" lon="11.8319967"><ele>214.2</ele><time>2026-04-26T09:29:22.753Z</time></trkpt><trkpt lat="43.522905" lon="11.8319133"><ele>214.39999999999998</ele><time>2026-04-26T09:29:23.753Z</time></trkpt><trkpt lat="43.5229733" lon="11.8318233"><ele>214.6</ele><time>2026-04-26T09:29:24.754Z</time></trkpt><trkpt lat="43.5230417" lon="11.831725"><ele>214.8</ele><time>2026-04-26T09:29:25.753Z</time></trkpt><trkpt lat="43.5231133" lon="11.8316183"><ele>215.0</ele><time>2026-04-26T09:29:26.753Z</time></trkpt><trkpt lat="43.5231917" lon="11.8315017"><ele>215.2</ele><time>2026-04-26T09:29:27.752Z</time></trkpt><trkpt lat="43.5232717" lon="11.8313883"><ele>215.4</ele><time>2026-04-26T09:29:28.753Z</time></trkpt><trkpt lat="43.52334" lon="11.8312967"><ele>215.60000000000002</ele><time>2026-04-26T09:29:29.752Z</time></trkpt><trkpt lat="43.52341" lon="11.8312167"><ele>215.8</ele><time>2026-04-26T09:29:30.753Z</time></trkpt><trkpt lat="43.5234833" lon="11.831155"><ele>216.0</ele><time>2026-04-26T09:29:31.753Z</time></trkpt><trkpt lat="43.5235683" lon="11.8311117"><ele>216.0</ele><time>2026-04-26T09:29:32.753Z</time></trkpt><trkpt lat="43.5236483" lon="11.8310933"><ele>216.0</ele><time>2026-04-26T09:29:33.753Z</time></trkpt><trkpt lat="43.5237267" lon="11.8310717"><ele>216.0</ele><time>2026-04-26T09:29:34.753Z</time></trkpt><trkpt lat="43.52379" lon="11.8310333"><ele>216.0</ele><time>2026-04-26T09:29:35.754Z</time></trkpt><trkpt lat="43.5238517" lon="11.8309683"><ele>216.0</ele><time>2026-04-26T09:29:36.753Z</time></trkpt><trkpt lat="43.5238983" lon="11.8308817"><ele>216.0</ele><time>2026-04-26T09:29:37.753Z</time></trkpt><trkpt lat="43.5239117" lon="11.8307667"><ele>215.60000000000002</ele><time>2026-04-26T09:29:38.753Z</time></trkpt><trkpt lat="43.5239017" lon="11.8306483"><ele>215.20000000000002</ele><time>2026-04-26T09:29:39.752Z</time></trkpt><trkpt lat="43.523865" lon="11.8305217"><ele>214.79999999999998</ele><time>2026-04-26T09:29:40.753Z</time></trkpt><trkpt lat="43.52382" lon="11.8303883"><ele>214.39999999999998</ele><time>2026-04-26T09:29:41.752Z</time></trkpt><trkpt lat="43.5237667" lon="11.8302367"><ele>214.0</ele><time>2026-04-26T09:29:42.752Z</time></trkpt><trkpt lat="43.5237" lon="11.83006"><ele>214.0</ele><time>2026-04-26T09:29:43.752Z</time></trkpt><trkpt lat="43.52363" lon="11.8298583"><ele>214.0</ele><time>2026-04-26T09:29:44.758Z</time></trkpt><trkpt lat="43.5235533" lon="11.82964"><ele>214.0</ele><time>2026-04-26T09:29:45.753Z</time></trkpt><trkpt lat="43.523475" lon="11.8294117"><ele>214.66666666666666</ele><time>2026-04-26T09:29:46.753Z</time></trkpt><trkpt lat="43.5233967" lon="11.8291817"><ele>215.33333333333331</ele><time>2026-04-26T09:29:47.753Z</time></trkpt><trkpt lat="43.52332" lon="11.8289567"><ele>216.0</ele><time>2026-04-26T09:29:48.753Z</time></trkpt><trkpt lat="43.523245" lon="11.8287367"><ele>216.0</ele><time>2026-04-26T09:29:49.753Z</time></trkpt><trkpt lat="43.5231667" lon="11.8285217"><ele>216.0</ele><time>2026-04-26T09:29:50.754Z</time></trkpt><trkpt lat="43.5230833" lon="11.828315"><ele>216.0</ele><time>2026-04-26T09:29:51.753Z</time></trkpt><trkpt lat="43.5229917" lon="11.8281167"><ele>215.33333333333331</ele><time>2026-04-26T09:29:52.753Z</time></trkpt><trkpt lat="43.5228933" lon="11.82793"><ele>214.66666666666666</ele><time>2026-04-26T09:29:53.754Z</time></trkpt><trkpt lat="43.5227883" lon="11.82776"><ele>214.0</ele><time>2026-04-26T09:29:54.753Z</time></trkpt><trkpt lat="43.5226767" lon="11.82761"><ele>217.33333333333331</ele><time>2026-04-26T09:29:55.753Z</time></trkpt><trkpt lat="43.5225617" lon="11.8274733"><ele>220.66666666666669</ele><time>2026-04-26T09:29:56.754Z</time></trkpt><trkpt lat="43.5224383" lon="11.8273533"><ele>224.0</ele><time>2026-04-26T09:29:57.754Z</time></trkpt><trkpt lat="43.5223067" lon="11.8272367"><ele>224.0</ele><time>2026-04-26T09:29:58.753Z</time></trkpt><trkpt lat="43.5221733" lon="11.82712"><ele>224.0</ele><time>2026-04-26T09:29:59.753Z</time></trkpt><trkpt lat="43.5220383" lon="11.8270083"><ele>224.0</ele><time>2026-04-26T09:30:00.753Z</time></trkpt><trkpt lat="43.52191" lon="11.8269067"><ele>224.0</ele><time>2026-04-26T09:30:01.753Z</time></trkpt><trkpt lat="43.5217767" lon="11.8268267"><ele>224.0</ele><time>2026-04-26T09:30:02.754Z</time></trkpt><trkpt lat="43.5216367" lon="11.826775"><ele>224.0</ele><time>2026-04-26T09:30:03.753Z</time></trkpt><trkpt lat="43.5215017" lon="11.8267433"><ele>224.0</ele><time>2026-04-26T09:30:04.753Z</time></trkpt><trkpt lat="43.5213717" lon="11.82674"><ele>224.0</ele><time>2026-04-26T09:30:05.754Z</time></trkpt><trkpt lat="43.5212433" lon="11.826765"><ele>224.0</ele><time>2026-04-26T09:30:06.753Z</time></trkpt><trkpt lat="43.5211267" lon="11.82679"><ele>224.0</ele><time>2026-04-26T09:30:07.754Z</time></trkpt><trkpt lat="43.5210233" lon="11.8268183"><ele>224.0</ele><time>2026-04-26T09:30:08.755Z</time></trkpt><trkpt lat="43.5209267" lon="11.8268333"><ele>223.0</ele><time>2026-04-26T09:30:09.753Z</time></trkpt><trkpt lat="43.5208317" lon="11.82684"><ele>221.99999999999997</ele><time>2026-04-26T09:30:10.753Z</time></trkpt><trkpt lat="43.5207383" lon="11.8268183"><ele>220.99999999999997</ele><time>2026-04-26T09:30:11.754Z</time></trkpt><trkpt lat="43.52065" lon="11.8267583"><ele>220.0</ele><time>2026-04-26T09:30:12.753Z</time></trkpt><trkpt lat="43.52058" lon="11.82666"><ele>219.0</ele><time>2026-04-26T09:30:13.753Z</time></trkpt><trkpt lat="43.5205383" lon="11.8265217"><ele>219.0</ele><time>2026-04-26T09:30:14.754Z</time></trkpt><trkpt lat="43.52052" lon="11.82636"><ele>219.0</ele><time>2026-04-26T09:30:15.753Z</time></trkpt><trkpt lat="43.5205167" lon="11.8261817"><ele>219.0</ele><time>2026-04-26T09:30:16.754Z</time></trkpt><trkpt lat="43.52051" lon="11.8259917"><ele>219.0</ele><time>2026-04-26T09:30:17.754Z</time></trkpt><trkpt lat="43.5204883" lon="11.8258017"><ele>218.2</ele><time>2026-04-26T09:30:18.753Z</time></trkpt><trkpt lat="43.5204483" lon="11.8256283"><ele>217.39999999999998</ele><time>2026-04-26T09:30:19.754Z</time></trkpt><trkpt lat="43.5204017" lon="11.825485"><ele>216.6</ele><time>2026-04-26T09:30:20.754Z</time></trkpt><trkpt lat="43.5203567" lon="11.8253633"><ele>215.8</ele><time>2026-04-26T09:30:21.752Z</time></trkpt><trkpt lat="43.520315" lon="11.82526"><ele>215.0</ele><time>2026-04-26T09:30:22.754Z</time></trkpt><trkpt lat="43.5202833" lon="11.82518"><ele>214.50000000000003</ele><time>2026-04-26T09:30:23.754Z</time></trkpt><trkpt lat="43.5202333" lon="11.825065"><ele>214.0</ele><time>2026-04-26T09:30:25.753Z</time></trkpt><trkpt lat="43.5201933" lon="11.8249667"><ele>213.5</ele><time>2026-04-26T09:30:28.754Z</time></trkpt><trkpt lat="43.52019" lon="11.82486"><ele>213.0</ele><time>2026-04-26T09:31:15.752Z</time></trkpt><trkpt lat="43.5201717" lon="11.8247667"><ele>212.50000000000003</ele><time>2026-04-26T09:31:16.753Z</time></trkpt><trkpt lat="43.520165" lon="11.82465"><ele>212.0</ele><time>2026-04-26T09:31:17.754Z</time></trkpt><trkpt lat="43.5201667" lon="11.824525"><ele>212.0</ele><time>2026-04-26T09:31:18.753Z</time></trkpt><trkpt lat="43.5201983" lon="11.8243683"><ele>212.0</ele><time>2026-04-26T09:31:19.753Z</time></trkpt><trkpt lat="43.5202467" lon="11.8242"><ele>212.0</ele><time>2026-04-26T09:31:20.754Z</time></trkpt><trkpt lat="43.5202933" lon="11.8240217"><ele>212.0</ele><time>2026-04-26T09:31:21.753Z</time></trkpt><trkpt lat="43.5203417" lon="11.8238467"><ele>212.75</ele><time>2026-04-26T09:31:22.755Z</time></trkpt><trkpt lat="43.5203883" lon="11.8236833"><ele>213.5</ele><time>2026-04-26T09:31:23.753Z</time></trkpt><trkpt lat="43.5204283" lon="11.82353"><ele>214.25</ele><time>2026-04-26T09:31:24.754Z</time></trkpt><trkpt lat="43.5204617" lon="11.8233867"><ele>215.0</ele><time>2026-04-26T09:31:25.753Z</time></trkpt><trkpt lat="43.520495" lon="11.8232383"><ele>215.5</ele><time>2026-04-26T09:31:26.753Z</time></trkpt><trkpt lat="43.5205233" lon="11.8230767"><ele>216.0</ele><time>2026-04-26T09:31:27.753Z</time></trkpt><trkpt lat="43.5205417" lon="11.82291"><ele>216.5</ele><time>2026-04-26T09:31:28.754Z</time></trkpt><trkpt lat="43.5205583" lon="11.82274"><ele>217.0</ele><time>2026-04-26T09:31:29.753Z</time></trkpt><trkpt lat="43.520575" lon="11.82257"><ele>217.0</ele><time>2026-04-26T09:31:30.752Z</time></trkpt><trkpt lat="43.5205883" lon="11.8224067"><ele>217.0</ele><time>2026-04-26T09:31:31.753Z</time></trkpt><trkpt lat="43.5206017" lon="11.822245"><ele>217.0</ele><time>2026-04-26T09:31:32.754Z</time></trkpt><trkpt lat="43.5206183" lon="11.8220783"><ele>217.0</ele><time>2026-04-26T09:31:33.753Z</time></trkpt><trkpt lat="43.5206333" lon="11.8219033"><ele>217.25</ele><time>2026-04-26T09:31:34.751Z</time></trkpt><trkpt lat="43.52065" lon="11.821715"><ele>217.5</ele><time>2026-04-26T09:31:35.753Z</time></trkpt><trkpt lat="43.5206733" lon="11.821515"><ele>217.75</ele><time>2026-04-26T09:31:36.754Z</time></trkpt><trkpt lat="43.5207067" lon="11.8213083"><ele>218.0</ele><time>2026-04-26T09:31:37.753Z</time></trkpt><trkpt lat="43.520755" lon="11.8210967"><ele>219.25</ele><time>2026-04-26T09:31:38.753Z</time></trkpt><trkpt lat="43.5208133" lon="11.8208917"><ele>220.5</ele><time>2026-04-26T09:31:39.753Z</time></trkpt><trkpt lat="43.5208733" lon="11.8207"><ele>221.75</ele><time>2026-04-26T09:31:40.753Z</time></trkpt><trkpt lat="43.5209267" lon="11.8205317"><ele>223.0</ele><time>2026-04-26T09:31:41.753Z</time></trkpt><trkpt lat="43.5209733" lon="11.82039"><ele>223.0</ele><time>2026-04-26T09:31:42.754Z</time></trkpt><trkpt lat="43.5210283" lon="11.8202783"><ele>223.0</ele><time>2026-04-26T09:31:43.753Z</time></trkpt><trkpt lat="43.5211" lon="11.8202017"><ele>223.0</ele><time>2026-04-26T09:31:44.753Z</time></trkpt><trkpt lat="43.52119" lon="11.820185"><ele>223.0</ele><time>2026-04-26T09:31:45.753Z</time></trkpt><trkpt lat="43.5212817" lon="11.8202283"><ele>223.0</ele><time>2026-04-26T09:31:46.753Z</time></trkpt><trkpt lat="43.521355" lon="11.820315"><ele>225.4</ele><time>2026-04-26T09:31:47.753Z</time></trkpt><trkpt lat="43.5214133" lon="11.8204267"><ele>227.8</ele><time>2026-04-26T09:31:48.752Z</time></trkpt><trkpt lat="43.5214733" lon="11.8205517"><ele>230.2</ele><time>2026-04-26T09:31:49.753Z</time></trkpt><trkpt lat="43.52153" lon="11.82069"><ele>232.6</ele><time>2026-04-26T09:31:50.754Z</time></trkpt><trkpt lat="43.52159" lon="11.820835"><ele>235.0</ele><time>2026-04-26T09:31:51.753Z</time></trkpt><trkpt lat="43.5216583" lon="11.8209883"><ele>235.0</ele><time>2026-04-26T09:31:52.753Z</time></trkpt><trkpt lat="43.5217267" lon="11.8211517"><ele>235.0</ele><time>2026-04-26T09:31:53.753Z</time></trkpt><trkpt lat="43.5217917" lon="11.8213117"><ele>235.0</ele><time>2026-04-26T09:31:54.754Z</time></trkpt><trkpt lat="43.5218267" lon="11.8214717"><ele>235.0</ele><time>2026-04-26T09:31:55.753Z</time></trkpt><trkpt lat="43.5218683" lon="11.82161"><ele>235.0</ele><time>2026-04-26T09:31:56.755Z</time></trkpt><trkpt lat="43.5219183" lon="11.82173"><ele>235.0</ele><time>2026-04-26T09:31:57.758Z</time></trkpt><trkpt lat="43.5219917" lon="11.82183"><ele>235.0</ele><time>2026-04-26T09:31:58.753Z</time></trkpt><trkpt lat="43.5220867" lon="11.821905"><ele>235.0</ele><time>2026-04-26T09:31:59.754Z</time></trkpt><trkpt lat="43.5222" lon="11.8219667"><ele>235.0</ele><time>2026-04-26T09:32:00.754Z</time></trkpt><trkpt lat="43.5223333" lon="11.82201"><ele>235.25</ele><time>2026-04-26T09:32:01.754Z</time></trkpt><trkpt lat="43.5224683" lon="11.8220483"><ele>235.5</ele><time>2026-04-26T09:32:02.754Z</time></trkpt><trkpt lat="43.5226" lon="11.8220717"><ele>235.75</ele><time>2026-04-26T09:32:03.754Z</time></trkpt><trkpt lat="43.5227283" lon="11.822085"><ele>236.0</ele><time>2026-04-26T09:32:04.754Z</time></trkpt><trkpt lat="43.5228517" lon="11.8220667"><ele>236.25</ele><time>2026-04-26T09:32:05.754Z</time></trkpt><trkpt lat="43.5229767" lon="11.8220067"><ele>236.5</ele><time>2026-04-26T09:32:06.754Z</time></trkpt><trkpt lat="43.5230867" lon="11.82192"><ele>236.75</ele><time>2026-04-26T09:32:07.753Z</time></trkpt><trkpt lat="43.5231617" lon="11.821805"><ele>237.0</ele><time>2026-04-26T09:32:08.754Z</time></trkpt><trkpt lat="43.5232383" lon="11.8216967"><ele>240.0</ele><time>2026-04-26T09:32:09.754Z</time></trkpt><trkpt lat="43.5233333" lon="11.8216183"><ele>243.0</ele><time>2026-04-26T09:32:10.754Z</time></trkpt><trkpt lat="43.523445" lon="11.82157"><ele>246.0</ele><time>2026-04-26T09:32:11.754Z</time></trkpt><trkpt lat="43.5235717" lon="11.8215333"><ele>249.0</ele><time>2026-04-26T09:32:12.754Z</time></trkpt><trkpt lat="43.523715" lon="11.821505"><ele>248.0</ele><time>2026-04-26T09:32:13.753Z</time></trkpt><trkpt lat="43.5238667" lon="11.82146"><ele>247.0</ele><time>2026-04-26T09:32:14.755Z</time></trkpt><trkpt lat="43.5240133" lon="11.82139"><ele>246.0</ele><time>2026-04-26T09:32:15.752Z</time></trkpt><trkpt lat="43.524155" lon="11.8212633"><ele>246.0</ele><time>2026-04-26T09:32:16.752Z</time></trkpt><trkpt lat="43.52427" lon="11.82108"><ele>246.0</ele><time>2026-04-26T09:32:17.753Z</time></trkpt><trkpt lat="43.5243433" lon="11.8208733"><ele>246.0</ele><time>2026-04-26T09:32:18.753Z</time></trkpt><trkpt lat="43.5243867" lon="11.8206683"><ele>248.0</ele><time>2026-04-26T09:32:19.753Z</time></trkpt><trkpt lat="43.52443" lon="11.82047"><ele>250.0</ele><time>2026-04-26T09:32:20.754Z</time></trkpt><trkpt lat="43.52449" lon="11.8202733"><ele>252.0</ele><time>2026-04-26T09:32:21.753Z</time></trkpt><trkpt lat="43.52457" lon="11.82009"><ele>255.33333333333331</ele><time>2026-04-26T09:32:22.753Z</time></trkpt><trkpt lat="43.5246533" lon="11.819915"><ele>258.66666666666663</ele><time>2026-04-26T09:32:23.753Z</time></trkpt><trkpt lat="43.52473" lon="11.819735"><ele>262.0</ele><time>2026-04-26T09:32:24.753Z</time></trkpt><trkpt lat="43.5247833" lon="11.8195383"><ele>262.0</ele><time>2026-04-26T09:32:25.753Z</time></trkpt><trkpt lat="43.5248183" lon="11.81932"><ele>262.0</ele><time>2026-04-26T09:32:26.754Z</time></trkpt><trkpt lat="43.5248517" lon="11.81909"><ele>262.0</ele><time>2026-04-26T09:32:27.754Z</time></trkpt><trkpt lat="43.5248933" lon="11.8188567"><ele>261.3333333333333</ele><time>2026-04-26T09:32:28.753Z</time></trkpt><trkpt lat="43.52494" lon="11.8186367"><ele>260.6666666666667</ele><time>2026-04-26T09:32:29.754Z</time></trkpt><trkpt lat="43.5249833" lon="11.8184317"><ele>260.0</ele><time>2026-04-26T09:32:30.753Z</time></trkpt><trkpt lat="43.5250383" lon="11.818255"><ele>259.33333333333337</ele><time>2026-04-26T09:32:31.754Z</time></trkpt><trkpt lat="43.5251117" lon="11.8180833"><ele>258.6666666666667</ele><time>2026-04-26T09:32:32.754Z</time></trkpt><trkpt lat="43.5252167" lon="11.8179167"><ele>258.0</ele><time>2026-04-26T09:32:33.754Z</time></trkpt><trkpt lat="43.5253467" lon="11.81775"><ele>258.3333333333333</ele><time>2026-04-26T09:32:34.753Z</time></trkpt><trkpt lat="43.5254783" lon="11.817585"><ele>258.66666666666663</ele><time>2026-04-26T09:32:35.753Z</time></trkpt><trkpt lat="43.5256083" lon="11.8174233"><ele>259.0</ele><time>2026-04-26T09:32:36.753Z</time></trkpt><trkpt lat="43.5257417" lon="11.8172683"><ele>259.0</ele><time>2026-04-26T09:32:37.753Z</time></trkpt><trkpt lat="43.52587" lon="11.81711"><ele>259.0</ele><time>2026-04-26T09:32:38.754Z</time></trkpt><trkpt lat="43.5259967" lon="11.8169467"><ele>259.0</ele><time>2026-04-26T09:32:39.753Z</time></trkpt><trkpt lat="43.52612" lon="11.81678"><ele>259.3333333333333</ele><time>2026-04-26T09:32:40.753Z</time></trkpt><trkpt lat="43.5262417" lon="11.8166183"><ele>259.6666666666667</ele><time>2026-04-26T09:32:41.753Z</time></trkpt><trkpt lat="43.52636" lon="11.8164583"><ele>260.0</ele><time>2026-04-26T09:32:42.754Z</time></trkpt><trkpt lat="43.5264767" lon="11.8163017"><ele>260.0</ele><time>2026-04-26T09:32:43.753Z</time></trkpt><trkpt lat="43.5265933" lon="11.8161483"><ele>260.0</ele><time>2026-04-26T09:32:44.76Z</time></trkpt><trkpt lat="43.52671" lon="11.8159967"><ele>260.0</ele><time>2026-04-26T09:32:45.753Z</time></trkpt><trkpt lat="43.526825" lon="11.8158483"><ele>260.6666666666667</ele><time>2026-04-26T09:32:46.753Z</time></trkpt><trkpt lat="43.52694" lon="11.8157"><ele>261.3333333333333</ele><time>2026-04-26T09:32:47.755Z</time></trkpt><trkpt lat="43.5270533" lon="11.8155567"><ele>262.0</ele><time>2026-04-26T09:32:48.754Z</time></trkpt><trkpt lat="43.527165" lon="11.8154217"><ele>262.25</ele><time>2026-04-26T09:32:49.753Z</time></trkpt><trkpt lat="43.52726" lon="11.815305"><ele>262.5</ele><time>2026-04-26T09:32:50.753Z</time></trkpt><trkpt lat="43.5273467" lon="11.8151983"><ele>262.75</ele><time>2026-04-26T09:32:51.753Z</time></trkpt><trkpt lat="43.5274283" lon="11.8150933"><ele>263.0</ele><time>2026-04-26T09:32:52.753Z</time></trkpt><trkpt lat="43.5275083" lon="11.81499"><ele>264.0</ele><time>2026-04-26T09:32:53.754Z</time></trkpt><trkpt lat="43.5275833" lon="11.8148883"><ele>265.0</ele><time>2026-04-26T09:32:54.753Z</time></trkpt><trkpt lat="43.52766" lon="11.81479"><ele>266.0</ele><time>2026-04-26T09:32:55.754Z</time></trkpt><trkpt lat="43.52773" lon="11.814695"><ele>267.0</ele><time>2026-04-26T09:32:56.755Z</time></trkpt><trkpt lat="43.5278017" lon="11.814595"><ele>268.0</ele><time>2026-04-26T09:32:57.753Z</time></trkpt><trkpt lat="43.5278733" lon="11.8144933"><ele>267.8</ele><time>2026-04-26T09:32:58.753Z</time></trkpt><trkpt lat="43.527945" lon="11.8143833"><ele>267.6</ele><time>2026-04-26T09:32:59.754Z</time></trkpt><trkpt lat="43.528015" lon="11.814265"><ele>267.4</ele><time>2026-04-26T09:33:00.754Z</time></trkpt><trkpt lat="43.5280817" lon="11.8141433"><ele>267.2</ele><time>2026-04-26T09:33:01.754Z</time></trkpt><trkpt lat="43.5281483" lon="11.8140217"><ele>267.0</ele><time>2026-04-26T09:33:02.754Z</time></trkpt><trkpt lat="43.528215" lon="11.8139"><ele>268.5</ele><time>2026-04-26T09:33:03.753Z</time></trkpt><trkpt lat="43.528285" lon="11.81377"><ele>270.0</ele><time>2026-04-26T09:33:04.753Z</time></trkpt><trkpt lat="43.5283517" lon="11.8136283"><ele>271.5</ele><time>2026-04-26T09:33:05.754Z</time></trkpt><trkpt lat="43.52841" lon="11.8134733"><ele>273.0</ele><time>2026-04-26T09:33:06.753Z</time></trkpt><trkpt lat="43.5284533" lon="11.8133133"><ele>273.0</ele><time>2026-04-26T09:33:07.753Z</time></trkpt><trkpt lat="43.5284883" lon="11.8131433"><ele>273.0</ele><time>2026-04-26T09:33:08.754Z</time></trkpt><trkpt lat="43.5285233" lon="11.812965"><ele>273.0</ele><time>2026-04-26T09:33:09.753Z</time></trkpt><trkpt lat="43.5285633" lon="11.812785"><ele>273.0</ele><time>2026-04-26T09:33:10.754Z</time></trkpt><trkpt lat="43.5286183" lon="11.8126183"><ele>273.0</ele><time>2026-04-26T09:33:11.756Z</time></trkpt><trkpt lat="43.5287" lon="11.8124717"><ele>273.0</ele><time>2026-04-26T09:33:12.754Z</time></trkpt><trkpt lat="43.5288067" lon="11.812345"><ele>273.0</ele><time>2026-04-26T09:33:13.754Z</time></trkpt><trkpt lat="43.5289267" lon="11.8122283"><ele>273.0</ele><time>2026-04-26T09:33:14.753Z</time></trkpt><trkpt lat="43.5290533" lon="11.8121133"><ele>275.0</ele><time>2026-04-26T09:33:15.753Z</time></trkpt><trkpt lat="43.5291817" lon="11.811995"><ele>277.0</ele><time>2026-04-26T09:33:16.753Z</time></trkpt><trkpt lat="43.5293183" lon="11.8118733"><ele>279.0</ele><time>2026-04-26T09:33:17.753Z</time></trkpt><trkpt lat="43.5294617" lon="11.81175"><ele>281.3333333333333</ele><time>2026-04-26T09:33:18.753Z</time></trkpt><trkpt lat="43.5296067" lon="11.811615"><ele>283.66666666666663</ele><time>2026-04-26T09:33:19.753Z</time></trkpt><trkpt lat="43.5297533" lon="11.8114617"><ele>286.0</ele><time>2026-04-26T09:33:20.754Z</time></trkpt><trkpt lat="43.5299017" lon="11.81129"><ele>286.0</ele><time>2026-04-26T09:33:21.753Z</time></trkpt><trkpt lat="43.5300467" lon="11.81112"><ele>286.0</ele><time>2026-04-26T09:33:22.753Z</time></trkpt><trkpt lat="43.5301817" lon="11.810965"><ele>286.0</ele><time>2026-04-26T09:33:23.753Z</time></trkpt><trkpt lat="43.5303067" lon="11.8108117"><ele>288.3333333333333</ele><time>2026-04-26T09:33:24.753Z</time></trkpt><trkpt lat="43.5304267" lon="11.8106533"><ele>290.6666666666667</ele><time>2026-04-26T09:33:25.753Z</time></trkpt><trkpt lat="43.53054" lon="11.81049"><ele>293.0</ele><time>2026-04-26T09:33:26.754Z</time></trkpt><trkpt lat="43.530655" lon="11.8103167"><ele>294.33333333333337</ele><time>2026-04-26T09:33:27.752Z</time></trkpt><trkpt lat="43.5307717" lon="11.810135"><ele>295.6666666666667</ele><time>2026-04-26T09:33:28.753Z</time></trkpt><trkpt lat="43.53089" lon="11.809955"><ele>297.0</ele><time>2026-04-26T09:33:29.754Z</time></trkpt><trkpt lat="43.531" lon="11.8097667"><ele>297.0</ele><time>2026-04-26T09:33:30.753Z</time></trkpt><trkpt lat="43.5311083" lon="11.809555"><ele>297.0</ele><time>2026-04-26T09:33:31.753Z</time></trkpt><trkpt lat="43.5312167" lon="11.809335"><ele>297.0</ele><time>2026-04-26T09:33:32.754Z</time></trkpt><trkpt lat="43.53132" lon="11.8091133"><ele>299.3333333333333</ele><time>2026-04-26T09:33:33.753Z</time></trkpt><trkpt lat="43.5314233" lon="11.8088883"><ele>301.66666666666663</ele><time>2026-04-26T09:33:34.753Z</time></trkpt><trkpt lat="43.5315167" lon="11.808655"><ele>304.0</ele><time>2026-04-26T09:33:35.753Z</time></trkpt><trkpt lat="43.5316033" lon="11.8084167"><ele>306.3333333333333</ele><time>2026-04-26T09:33:36.753Z</time></trkpt><trkpt lat="43.5316917" lon="11.8081933"><ele>308.6666666666667</ele><time>2026-04-26T09:33:37.754Z</time></trkpt><trkpt lat="43.531785" lon="11.808"><ele>311.0</ele><time>2026-04-26T09:33:38.754Z</time></trkpt><trkpt lat="43.53187" lon="11.8078333"><ele>311.0</ele><time>2026-04-26T09:33:39.753Z</time></trkpt><trkpt lat="43.5319383" lon="11.807695"><ele>311.0</ele><time>2026-04-26T09:33:40.753Z</time></trkpt><trkpt lat="43.5319933" lon="11.807585"><ele>311.0</ele><time>2026-04-26T09:33:41.754Z</time></trkpt><trkpt lat="43.532045" lon="11.8074933"><ele>311.0</ele><time>2026-04-26T09:33:42.753Z</time></trkpt><trkpt lat="43.5320983" lon="11.8074067"><ele>311.0</ele><time>2026-04-26T09:33:43.76Z</time></trkpt><trkpt lat="43.5321483" lon="11.8073167"><ele>312.1666666666667</ele><time>2026-04-26T09:33:44.755Z</time></trkpt><trkpt lat="43.5322" lon="11.807225"><ele>313.33333333333337</ele><time>2026-04-26T09:33:45.753Z</time></trkpt><trkpt lat="43.5322517" lon="11.8071367"><ele>314.5</ele><time>2026-04-26T09:33:46.753Z</time></trkpt><trkpt lat="43.5323017" lon="11.80705"><ele>315.6666666666667</ele><time>2026-04-26T09:33:47.754Z</time></trkpt><trkpt lat="43.5323567" lon="11.8069583"><ele>316.8333333333333</ele><time>2026-04-26T09:33:48.753Z</time></trkpt><trkpt lat="43.5324133" lon="11.8068617"><ele>318.0</ele><time>2026-04-26T09:33:49.755Z</time></trkpt><trkpt lat="43.5324733" lon="11.806775"><ele>318.8333333333333</ele><time>2026-04-26T09:33:50.754Z</time></trkpt><trkpt lat="43.5325383" lon="11.8067133"><ele>319.6666666666667</ele><time>2026-04-26T09:33:51.753Z</time></trkpt><trkpt lat="43.532615" lon="11.80668"><ele>320.5</ele><time>2026-04-26T09:33:52.754Z</time></trkpt><trkpt lat="43.5326967" lon="11.8066667"><ele>321.33333333333337</ele><time>2026-04-26T09:33:53.754Z</time></trkpt><trkpt lat="43.53278" lon="11.8066617"><ele>322.1666666666667</ele><time>2026-04-26T09:33:54.755Z</time></trkpt><trkpt lat="43.5328533" lon="11.8066617"><ele>323.0</ele><time>2026-04-26T09:33:55.754Z</time></trkpt><trkpt lat="43.5329283" lon="11.8066467"><ele>323.6666666666667</ele><time>2026-04-26T09:33:56.755Z</time></trkpt><trkpt lat="43.533005" lon="11.8066083"><ele>324.33333333333337</ele><time>2026-04-26T09:33:57.755Z</time></trkpt><trkpt lat="43.5330617" lon="11.806545"><ele>325.0</ele><time>2026-04-26T09:33:58.755Z</time></trkpt><trkpt lat="43.5331017" lon="11.8064517"><ele>325.6666666666667</ele><time>2026-04-26T09:33:59.753Z</time></trkpt><trkpt lat="43.5331317" lon="11.8063417"><ele>326.3333333333333</ele><time>2026-04-26T09:34:00.754Z</time></trkpt><trkpt lat="43.5331467" lon="11.8062367"><ele>327.0</ele><time>2026-04-26T09:34:01.755Z</time></trkpt><trkpt lat="43.53314" lon="11.8061333"><ele>327.0</ele><time>2026-04-26T09:34:02.754Z</time></trkpt><trkpt lat="43.5331217" lon="11.80603"><ele>327.0</ele><time>2026-04-26T09:34:03.754Z</time></trkpt><trkpt lat="43.5331067" lon="11.8059233"><ele>327.0</ele><time>2026-04-26T09:34:04.753Z</time></trkpt><trkpt lat="43.5331017" lon="11.805805"><ele>327.0</ele><time>2026-04-26T09:34:05.754Z</time></trkpt><trkpt lat="43.53311" lon="11.8056717"><ele>327.0</ele><time>2026-04-26T09:34:06.753Z</time></trkpt><trkpt lat="43.53311" lon="11.80554"><ele>327.0</ele><time>2026-04-26T09:34:07.753Z</time></trkpt><trkpt lat="43.5330917" lon="11.805425"><ele>328.40000000000003</ele><time>2026-04-26T09:34:08.754Z</time></trkpt><trkpt lat="43.53305" lon="11.8053217"><ele>329.8</ele><time>2026-04-26T09:34:09.753Z</time></trkpt><trkpt lat="43.53298" lon="11.8052333"><ele>331.2</ele><time>2026-04-26T09:34:10.753Z</time></trkpt><trkpt lat="43.5328983" lon="11.80515"><ele>332.6</ele><time>2026-04-26T09:34:11.754Z</time></trkpt><trkpt lat="43.5328233" lon="11.8050617"><ele>334.0</ele><time>2026-04-26T09:34:12.753Z</time></trkpt><trkpt lat="43.5327567" lon="11.80497"><ele>334.0</ele><time>2026-04-26T09:34:13.753Z</time></trkpt><trkpt lat="43.5326917" lon="11.8048733"><ele>334.0</ele><time>2026-04-26T09:34:14.753Z</time></trkpt><trkpt lat="43.5326333" lon="11.804775"><ele>334.0</ele><time>2026-04-26T09:34:15.754Z</time></trkpt><trkpt lat="43.5325883" lon="11.8046767"><ele>334.0</ele><time>2026-04-26T09:34:16.754Z</time></trkpt><trkpt lat="43.5325583" lon="11.8045817"><ele>334.0</ele><time>2026-04-26T09:34:17.754Z</time></trkpt><trkpt lat="43.5325517" lon="11.8044883"><ele>334.0</ele><time>2026-04-26T09:34:18.753Z</time></trkpt><trkpt lat="43.5325733" lon="11.8044067"><ele>334.0</ele><time>2026-04-26T09:34:19.754Z</time></trkpt><trkpt lat="43.5326267" lon="11.8043433"><ele>334.0</ele><time>2026-04-26T09:34:20.754Z</time></trkpt><trkpt lat="43.5327117" lon="11.80431"><ele>334.0</ele><time>2026-04-26T09:34:21.753Z</time></trkpt><trkpt lat="43.5328283" lon="11.8043233"><ele>334.0</ele><time>2026-04-26T09:34:22.754Z</time></trkpt><trkpt lat="43.5329567" lon="11.8043683"><ele>334.0</ele><time>2026-04-26T09:34:23.753Z</time></trkpt><trkpt lat="43.5330933" lon="11.8044383"><ele>338.66666666666663</ele><time>2026-04-26T09:34:24.754Z</time></trkpt><trkpt lat="43.53324" lon="11.8045033"><ele>343.3333333333333</ele><time>2026-04-26T09:34:25.755Z</time></trkpt><trkpt lat="43.53339" lon="11.8045533"><ele>348.0</ele><time>2026-04-26T09:34:26.754Z</time></trkpt><trkpt lat="43.5335383" lon="11.8045817"><ele>348.0</ele><time>2026-04-26T09:34:27.753Z</time></trkpt><trkpt lat="43.5336783" lon="11.8045683"><ele>348.0</ele><time>2026-04-26T09:34:28.754Z</time></trkpt><trkpt lat="43.5338033" lon="11.8045117"><ele>348.0</ele><time>2026-04-26T09:34:29.755Z</time></trkpt><trkpt lat="43.5339133" lon="11.8044283"><ele>348.0</ele><time>2026-04-26T09:34:30.753Z</time></trkpt><trkpt lat="43.5340117" lon="11.8043317"><ele>349.75</ele><time>2026-04-26T09:34:31.754Z</time></trkpt><trkpt lat="43.53411" lon="11.8042317"><ele>351.5</ele><time>2026-04-26T09:34:32.754Z</time></trkpt><trkpt lat="43.5342117" lon="11.8041267"><ele>353.25</ele><time>2026-04-26T09:34:33.753Z</time></trkpt><trkpt lat="43.5343133" lon="11.8040183"><ele>355.0</ele><time>2026-04-26T09:34:34.755Z</time></trkpt><trkpt lat="43.5344117" lon="11.803925"><ele>355.0</ele><time>2026-04-26T09:34:35.754Z</time></trkpt><trkpt lat="43.5345083" lon="11.803825"><ele>355.0</ele><time>2026-04-26T09:34:36.754Z</time></trkpt><trkpt lat="43.5346067" lon="11.8037333"><ele>355.0</ele><time>2026-04-26T09:34:37.754Z</time></trkpt><trkpt lat="43.5346967" lon="11.80365"><ele>355.0</ele><time>2026-04-26T09:34:38.755Z</time></trkpt><trkpt lat="43.534785" lon="11.8035667"><ele>355.2</ele><time>2026-04-26T09:34:39.757Z</time></trkpt><trkpt lat="43.534875" lon="11.8034783"><ele>355.4</ele><time>2026-04-26T09:34:40.753Z</time></trkpt><trkpt lat="43.5349633" lon="11.80339"><ele>355.6</ele><time>2026-04-26T09:34:41.754Z</time></trkpt><trkpt lat="43.5350517" lon="11.8032983"><ele>355.8</ele><time>2026-04-26T09:34:42.753Z</time></trkpt><trkpt lat="43.5351433" lon="11.8032083"><ele>356.0</ele><time>2026-04-26T09:34:43.756Z</time></trkpt><trkpt lat="43.53523" lon="11.8031117"><ele>356.0</ele><time>2026-04-26T09:34:44.755Z</time></trkpt><trkpt lat="43.53531" lon="11.8030083"><ele>356.0</ele><time>2026-04-26T09:34:45.757Z</time></trkpt><trkpt lat="43.5353967" lon="11.80289"><ele>356.0</ele><time>2026-04-26T09:34:46.754Z</time></trkpt><trkpt lat="43.5354783" lon="11.8027567"><ele>356.0</ele><time>2026-04-26T09:34:47.754Z</time></trkpt><trkpt lat="43.5355533" lon="11.8026183"><ele>356.25</ele><time>2026-04-26T09:34:48.754Z</time></trkpt><trkpt lat="43.5356183" lon="11.80248"><ele>356.5</ele><time>2026-04-26T09:34:49.753Z</time></trkpt><trkpt lat="43.5356633" lon="11.8023233"><ele>356.75</ele><time>2026-04-26T09:34:50.753Z</time></trkpt><trkpt lat="43.5356933" lon="11.8021367"><ele>357.0</ele><time>2026-04-26T09:34:51.753Z</time></trkpt><trkpt lat="43.53571" lon="11.8019333"><ele>357.0</ele><time>2026-04-26T09:34:52.755Z</time></trkpt><trkpt lat="43.53572" lon="11.80172"><ele>357.0</ele><time>2026-04-26T09:34:53.754Z</time></trkpt><trkpt lat="43.5357333" lon="11.801505"><ele>357.0</ele><time>2026-04-26T09:34:54.754Z</time></trkpt><trkpt lat="43.535745" lon="11.801295"><ele>357.0</ele><time>2026-04-26T09:34:55.754Z</time></trkpt><trkpt lat="43.5357517" lon="11.8010867"><ele>357.0</ele><time>2026-04-26T09:34:56.754Z</time></trkpt><trkpt lat="43.535755" lon="11.800885"><ele>357.0</ele><time>2026-04-26T09:34:57.753Z</time></trkpt><trkpt lat="43.535755" lon="11.8006883"><ele>357.0</ele><time>2026-04-26T09:34:58.753Z</time></trkpt><trkpt lat="43.535755" lon="11.8004983"><ele>357.0</ele><time>2026-04-26T09:34:59.753Z</time></trkpt><trkpt lat="43.535755" lon="11.8003133"><ele>357.0</ele><time>2026-04-26T09:35:00.76Z</time></trkpt><trkpt lat="43.535755" lon="11.80014"><ele>357.0</ele><time>2026-04-26T09:35:01.753Z</time></trkpt><trkpt lat="43.535755" lon="11.7999833"><ele>357.0</ele><time>2026-04-26T09:35:02.754Z</time></trkpt><trkpt lat="43.5357533" lon="11.7998467"><ele>357.0</ele><time>2026-04-26T09:35:03.753Z</time></trkpt><trkpt lat="43.5357483" lon="11.7997233"><ele>357.0</ele><time>2026-04-26T09:35:04.754Z</time></trkpt><trkpt lat="43.535735" lon="11.7996083"><ele>357.0</ele><time>2026-04-26T09:35:05.753Z</time></trkpt><trkpt lat="43.5357017" lon="11.7994917"><ele>357.0</ele><time>2026-04-26T09:35:06.754Z</time></trkpt><trkpt lat="43.5356533" lon="11.799375"><ele>357.0</ele><time>2026-04-26T09:35:07.753Z</time></trkpt><trkpt lat="43.5355917" lon="11.799255"><ele>358.0</ele><time>2026-04-26T09:35:08.754Z</time></trkpt><trkpt lat="43.535525" lon="11.79913"><ele>359.0</ele><time>2026-04-26T09:35:09.754Z</time></trkpt><trkpt lat="43.5354583" lon="11.7990017"><ele>360.0</ele><time>2026-04-26T09:35:10.753Z</time></trkpt><trkpt lat="43.53539" lon="11.7988833"><ele>361.0</ele><time>2026-04-26T09:35:11.753Z</time></trkpt><trkpt lat="43.5353133" lon="11.7987783"><ele>362.0</ele><time>2026-04-26T09:35:12.754Z</time></trkpt><trkpt lat="43.5352433" lon="11.798685"><ele>361.42857142857144</ele><time>2026-04-26T09:35:13.753Z</time></trkpt><trkpt lat="43.5351867" lon="11.798605"><ele>360.85714285714283</ele><time>2026-04-26T09:35:14.754Z</time></trkpt><trkpt lat="43.5351383" lon="11.79854"><ele>360.28571428571433</ele><time>2026-04-26T09:35:15.753Z</time></trkpt><trkpt lat="43.535095" lon="11.7984683"><ele>359.7142857142857</ele><time>2026-04-26T09:35:16.753Z</time></trkpt><trkpt lat="43.53506" lon="11.7983917"><ele>359.14285714285717</ele><time>2026-04-26T09:35:17.754Z</time></trkpt><trkpt lat="43.535035" lon="11.79831"><ele>358.5714285714286</ele><time>2026-04-26T09:35:18.753Z</time></trkpt><trkpt lat="43.5350183" lon="11.7982167"><ele>358.0</ele><time>2026-04-26T09:35:19.754Z</time></trkpt><trkpt lat="43.5350133" lon="11.79812"><ele>358.0</ele><time>2026-04-26T09:35:20.754Z</time></trkpt><trkpt lat="43.5350267" lon="11.7980267"><ele>358.0</ele><time>2026-04-26T09:35:21.753Z</time></trkpt><trkpt lat="43.5350567" lon="11.7979317"><ele>358.0</ele><time>2026-04-26T09:35:22.754Z</time></trkpt><trkpt lat="43.535095" lon="11.797835"><ele>358.0</ele><time>2026-04-26T09:35:23.754Z</time></trkpt><trkpt lat="43.535145" lon="11.7977417"><ele>358.0</ele><time>2026-04-26T09:35:24.754Z</time></trkpt><trkpt lat="43.5351933" lon="11.797635"><ele>358.0</ele><time>2026-04-26T09:35:25.754Z</time></trkpt><trkpt lat="43.5352433" lon="11.7975183"><ele>356.79999999999995</ele><time>2026-04-26T09:35:26.754Z</time></trkpt><trkpt lat="43.5352867" lon="11.7973983"><ele>355.6</ele><time>2026-04-26T09:35:27.755Z</time></trkpt><trkpt lat="43.5353233" lon="11.797275"><ele>354.4</ele><time>2026-04-26T09:35:28.754Z</time></trkpt><trkpt lat="43.5353683" lon="11.797155"><ele>353.20000000000005</ele><time>2026-04-26T09:35:29.755Z</time></trkpt><trkpt lat="43.5354183" lon="11.7970483"><ele>352.0</ele><time>2026-04-26T09:35:30.753Z</time></trkpt><trkpt lat="43.53548" lon="11.79695"><ele>352.6</ele><time>2026-04-26T09:35:31.753Z</time></trkpt><trkpt lat="43.5355483" lon="11.796855"><ele>353.20000000000005</ele><time>2026-04-26T09:35:32.755Z</time></trkpt><trkpt lat="43.535615" lon="11.7967583"><ele>353.8</ele><time>2026-04-26T09:35:33.753Z</time></trkpt><trkpt lat="43.53568" lon="11.7966517"><ele>354.4</ele><time>2026-04-26T09:35:34.754Z</time></trkpt><trkpt lat="43.5357433" lon="11.7965383"><ele>355.0</ele><time>2026-04-26T09:35:35.753Z</time></trkpt><trkpt lat="43.5358" lon="11.7964167"><ele>355.0</ele><time>2026-04-26T09:35:36.755Z</time></trkpt><trkpt lat="43.5358517" lon="11.7962883"><ele>355.0</ele><time>2026-04-26T09:35:37.753Z</time></trkpt><trkpt lat="43.5359" lon="11.7961517"><ele>355.0</ele><time>2026-04-26T09:35:38.754Z</time></trkpt><trkpt lat="43.535945" lon="11.796015"><ele>355.0</ele><time>2026-04-26T09:35:39.753Z</time></trkpt><trkpt lat="43.535985" lon="11.7958783"><ele>355.0</ele><time>2026-04-26T09:35:40.754Z</time></trkpt><trkpt lat="43.53602" lon="11.7957383"><ele>354.4</ele><time>2026-04-26T09:35:41.754Z</time></trkpt><trkpt lat="43.5360467" lon="11.7955933"><ele>353.8</ele><time>2026-04-26T09:35:42.754Z</time></trkpt><trkpt lat="43.536065" lon="11.795445"><ele>353.20000000000005</ele><time>2026-04-26T09:35:43.754Z</time></trkpt><trkpt lat="43.53608" lon="11.7952967"><ele>352.6</ele><time>2026-04-26T09:35:44.755Z</time></trkpt><trkpt lat="43.5361" lon="11.7951483"><ele>352.0</ele><time>2026-04-26T09:35:45.753Z</time></trkpt><trkpt lat="43.53612" lon="11.795005"><ele>353.40000000000003</ele><time>2026-04-26T09:35:46.753Z</time></trkpt><trkpt lat="43.5361417" lon="11.79486"><ele>354.8</ele><time>2026-04-26T09:35:47.755Z</time></trkpt><trkpt lat="43.536155" lon="11.794715"><ele>356.2</ele><time>2026-04-26T09:35:48.754Z</time></trkpt><trkpt lat="43.53617" lon="11.7945683"><ele>357.6</ele><time>2026-04-26T09:35:49.754Z</time></trkpt><trkpt lat="43.5361967" lon="11.79443"><ele>359.0</ele><time>2026-04-26T09:35:50.755Z</time></trkpt><trkpt lat="43.5362283" lon="11.7942883"><ele>361.79999999999995</ele><time>2026-04-26T09:35:51.754Z</time></trkpt><trkpt lat="43.5362667" lon="11.7941467"><ele>364.59999999999997</ele><time>2026-04-26T09:35:52.754Z</time></trkpt><trkpt lat="43.5363083" lon="11.7940083"><ele>367.4</ele><time>2026-04-26T09:35:53.755Z</time></trkpt><trkpt lat="43.5363617" lon="11.79388"><ele>370.2</ele><time>2026-04-26T09:35:54.755Z</time></trkpt><trkpt lat="43.5364067" lon="11.7937783"><ele>373.0</ele><time>2026-04-26T09:35:55.754Z</time></trkpt><trkpt lat="43.536445" lon="11.7936917"><ele>373.0</ele><time>2026-04-26T09:35:56.755Z</time></trkpt><trkpt lat="43.53648" lon="11.7935617"><ele>373.0</ele><time>2026-04-26T09:35:58.753Z</time></trkpt><trkpt lat="43.5364683" lon="11.793455"><ele>373.0</ele><time>2026-04-26T09:36:03.753Z</time></trkpt><trkpt lat="43.5364633" lon="11.7933433"><ele>373.0</ele><time>2026-04-26T09:36:06.754Z</time></trkpt><trkpt lat="43.5365133" lon="11.79322"><ele>373.0</ele><time>2026-04-26T09:36:08.754Z</time></trkpt><trkpt lat="43.5365533" lon="11.7931417"><ele>373.0</ele><time>2026-04-26T09:36:09.753Z</time></trkpt><trkpt lat="43.5365983" lon="11.7930567"><ele>373.3333333333333</ele><time>2026-04-26T09:36:10.758Z</time></trkpt><trkpt lat="43.5366433" lon="11.7929583"><ele>373.66666666666663</ele><time>2026-04-26T09:36:11.755Z</time></trkpt><trkpt lat="43.536685" lon="11.7928633"><ele>374.0</ele><time>2026-04-26T09:36:12.754Z</time></trkpt><trkpt lat="43.536725" lon="11.7927767"><ele>374.3333333333333</ele><time>2026-04-26T09:36:13.754Z</time></trkpt><trkpt lat="43.53676" lon="11.7926933"><ele>374.6666666666667</ele><time>2026-04-26T09:36:14.754Z</time></trkpt><trkpt lat="43.5367867" lon="11.7926033"><ele>375.0</ele><time>2026-04-26T09:36:15.754Z</time></trkpt><trkpt lat="43.536795" lon="11.7924883"><ele>375.0</ele><time>2026-04-26T09:36:16.755Z</time></trkpt><trkpt lat="43.5367883" lon="11.7923717"><ele>375.0</ele><time>2026-04-26T09:36:17.753Z</time></trkpt><trkpt lat="43.53677" lon="11.7922667"><ele>375.0</ele><time>2026-04-26T09:36:18.754Z</time></trkpt><trkpt lat="43.5367" lon="11.7921383"><ele>375.0</ele><time>2026-04-26T09:36:20.754Z</time></trkpt><trkpt lat="43.5365967" lon="11.7920633"><ele>375.0</ele><time>2026-04-26T09:36:22.754Z</time></trkpt><trkpt lat="43.5365083" lon="11.7919867"><ele>375.0</ele><time>2026-04-26T09:36:24.754Z</time></trkpt><trkpt lat="43.5364567" lon="11.7919167"><ele>375.0</ele><time>2026-04-26T09:36:25.755Z</time></trkpt><trkpt lat="43.5363933" lon="11.7918467"><ele>375.0</ele><time>2026-04-26T09:36:26.754Z</time></trkpt><trkpt lat="43.5363267" lon="11.7917617"><ele>375.0</ele><time>2026-04-26T09:36:27.753Z</time></trkpt><trkpt lat="43.53624" lon="11.7916367"><ele>375.0</ele><time>2026-04-26T09:36:29.753Z</time></trkpt><trkpt lat="43.5361983" lon="11.7915667"><ele>375.0</ele><time>2026-04-26T09:36:30.753Z</time></trkpt><trkpt lat="43.5361617" lon="11.7914783"><ele>375.2</ele><time>2026-04-26T09:36:31.753Z</time></trkpt><trkpt lat="43.536125" lon="11.7913867"><ele>375.4</ele><time>2026-04-26T09:36:32.754Z</time></trkpt><trkpt lat="43.5360933" lon="11.791215"><ele>375.6</ele><time>2026-04-26T09:36:34.753Z</time></trkpt><trkpt lat="43.53609" lon="11.79111"><ele>375.8</ele><time>2026-04-26T09:36:35.755Z</time></trkpt><trkpt lat="43.5360933" lon="11.7909867"><ele>376.0</ele><time>2026-04-26T09:36:36.753Z</time></trkpt><trkpt lat="43.5361" lon="11.790855"><ele>376.0</ele><time>2026-04-26T09:36:37.755Z</time></trkpt><trkpt lat="43.5361067" lon="11.79073"><ele>376.0</ele><time>2026-04-26T09:36:38.753Z</time></trkpt><trkpt lat="43.5361117" lon="11.7906117"><ele>376.0</ele><time>2026-04-26T09:36:39.753Z</time></trkpt><trkpt lat="43.5361083" lon="11.7904933"><ele>376.0</ele><time>2026-04-26T09:36:40.753Z</time></trkpt><trkpt lat="43.5361" lon="11.79038"><ele>376.0</ele><time>2026-04-26T09:36:41.754Z</time></trkpt><trkpt lat="43.5360983" lon="11.7902733"><ele>376.0</ele><time>2026-04-26T09:36:42.754Z</time></trkpt><trkpt lat="43.5361" lon="11.79018"><ele>377.8333333333333</ele><time>2026-04-26T09:36:43.754Z</time></trkpt><trkpt lat="43.5360917" lon="11.7900267"><ele>379.66666666666663</ele><time>2026-04-26T09:36:45.753Z</time></trkpt><trkpt lat="43.5360217" lon="11.7899583"><ele>381.5</ele><time>2026-04-26T09:36:47.754Z</time></trkpt><trkpt lat="43.535915" lon="11.7899767"><ele>383.3333333333333</ele><time>2026-04-26T09:36:50.755Z</time></trkpt><trkpt lat="43.53585" lon="11.7900233"><ele>385.1666666666667</ele><time>2026-04-26T09:36:51.753Z</time></trkpt><trkpt lat="43.5357867" lon="11.7900667"><ele>387.0</ele><time>2026-04-26T09:36:52.753Z</time></trkpt><trkpt lat="43.5357233" lon="11.79011"><ele>387.0</ele><time>2026-04-26T09:36:53.754Z</time></trkpt><trkpt lat="43.5356083" lon="11.7901783"><ele>387.0</ele><time>2026-04-26T09:36:55.753Z</time></trkpt><trkpt lat="43.535545" lon="11.790185"><ele>387.0</ele><time>2026-04-26T09:36:56.754Z</time></trkpt><trkpt lat="43.53542" lon="11.7901533"><ele>387.0</ele><time>2026-04-26T09:36:58.753Z</time></trkpt><trkpt lat="43.5353617" lon="11.7901"><ele>387.0</ele><time>2026-04-26T09:36:59.753Z</time></trkpt><trkpt lat="43.5353117" lon="11.7900367"><ele>386.0</ele><time>2026-04-26T09:37:00.753Z</time></trkpt><trkpt lat="43.5352167" lon="11.78991"><ele>385.0</ele><time>2026-04-26T09:37:02.754Z</time></trkpt><trkpt lat="43.5351517" lon="11.7898533"><ele>384.0</ele><time>2026-04-26T09:37:03.754Z</time></trkpt><trkpt lat="43.5350867" lon="11.789795"><ele>383.0</ele><time>2026-04-26T09:37:04.754Z</time></trkpt><trkpt lat="43.5350183" lon="11.78974"><ele>382.0</ele><time>2026-04-26T09:37:05.753Z</time></trkpt><trkpt lat="43.5349533" lon="11.78969"><ele>381.0</ele><time>2026-04-26T09:37:06.753Z</time></trkpt><trkpt lat="43.534885" lon="11.789635"><ele>381.0</ele><time>2026-04-26T09:37:07.754Z</time></trkpt><trkpt lat="43.5348067" lon="11.7895733"><ele>381.0</ele><time>2026-04-26T09:37:08.754Z</time></trkpt><trkpt lat="43.5347417" lon="11.7895317"><ele>381.0</ele><time>2026-04-26T09:37:09.753Z</time></trkpt><trkpt lat="43.5346733" lon="11.7895"><ele>381.0</ele><time>2026-04-26T09:37:10.754Z</time></trkpt><trkpt lat="43.534605" lon="11.7894567"><ele>381.0</ele><time>2026-04-26T09:37:11.761Z</time></trkpt><trkpt lat="43.5345417" lon="11.7893883"><ele>381.0</ele><time>2026-04-26T09:37:12.754Z</time></trkpt><trkpt lat="43.5344983" lon="11.7893067"><ele>382.1666666666667</ele><time>2026-04-26T09:37:13.754Z</time></trkpt><trkpt lat="43.5344717" lon="11.7892133"><ele>383.33333333333337</ele><time>2026-04-26T09:37:14.754Z</time></trkpt><trkpt lat="43.53445" lon="11.7891183"><ele>384.5</ele><time>2026-04-26T09:37:15.754Z</time></trkpt><trkpt lat="43.5344283" lon="11.7890217"><ele>385.6666666666667</ele><time>2026-04-26T09:37:16.753Z</time></trkpt><trkpt lat="43.5343567" lon="11.788895"><ele>386.83333333333337</ele><time>2026-04-26T09:37:18.754Z</time></trkpt><trkpt lat="43.5343117" lon="11.7888267"><ele>388.0</ele><time>2026-04-26T09:37:19.754Z</time></trkpt><trkpt lat="43.5342417" lon="11.7887217"><ele>388.00000000000006</ele><time>2026-04-26T09:37:21.754Z</time></trkpt><trkpt lat="43.5342033" lon="11.7886467"><ele>388.0</ele><time>2026-04-26T09:37:24.754Z</time></trkpt><trkpt lat="43.53428" lon="11.7885833"><ele>388.0</ele><time>2026-04-26T09:37:36.754Z</time></trkpt><trkpt lat="43.5343733" lon="11.7885683"><ele>388.0</ele><time>2026-04-26T09:37:38.754Z</time></trkpt><trkpt lat="43.5344683" lon="11.7885767"><ele>388.00000000000006</ele><time>2026-04-26T09:37:40.754Z</time></trkpt><trkpt lat="43.534535" lon="11.788585"><ele>388.0</ele><time>2026-04-26T09:37:41.754Z</time></trkpt><trkpt lat="43.534645" lon="11.7885583"><ele>391.0</ele><time>2026-04-26T09:37:43.755Z</time></trkpt><trkpt lat="43.5347067" lon="11.78846"><ele>394.0</ele><time>2026-04-26T09:37:45.754Z</time></trkpt><trkpt lat="43.5346933" lon="11.7883567"><ele>397.0</ele><time>2026-04-26T09:37:47.754Z</time></trkpt><trkpt lat="43.53458" lon="11.7882533"><ele>400.0</ele><time>2026-04-26T09:37:49.754Z</time></trkpt><trkpt lat="43.5344833" lon="11.7882133"><ele>403.0</ele><time>2026-04-26T09:37:50.754Z</time></trkpt><trkpt lat="43.5343933" lon="11.7881783"><ele>403.0</ele><time>2026-04-26T09:37:51.754Z</time></trkpt><trkpt lat="43.5343167" lon="11.7881517"><ele>403.0</ele><time>2026-04-26T09:37:52.755Z</time></trkpt><trkpt lat="43.5342233" lon="11.7880983"><ele>403.0</ele><time>2026-04-26T09:37:54.755Z</time></trkpt><trkpt lat="43.5341582" lon="11.7879921"><ele>403.0</ele><time>2026-04-26T09:37:56.759Z</time></trkpt><trkpt lat="43.5340913" lon="11.787892"><ele>403.0</ele><time>2026-04-26T09:37:58.754Z</time></trkpt><trkpt lat="43.5339691" lon="11.7878245"><ele>403.0</ele><time>2026-04-26T09:38:00.754Z</time></trkpt><trkpt lat="43.533882" lon="11.7877903"><ele>403.0</ele><time>2026-04-26T09:38:01.754Z</time></trkpt><trkpt lat="43.5337919" lon="11.7877533"><ele>403.0</ele><time>2026-04-26T09:38:02.754Z</time></trkpt><trkpt lat="43.5337133" lon="11.7877223"><ele>403.0</ele><time>2026-04-26T09:38:03.753Z</time></trkpt><trkpt lat="43.5336434" lon="11.7877068"><ele>403.0</ele><time>2026-04-26T09:38:04.754Z</time></trkpt><trkpt lat="43.5335264" lon="11.787661"><ele>404.6666666666667</ele><time>2026-04-26T09:38:06.754Z</time></trkpt><trkpt lat="43.5334649" lon="11.7876223"><ele>406.33333333333337</ele><time>2026-04-26T09:38:07.754Z</time></trkpt><trkpt lat="43.5334016" lon="11.7875712"><ele>408.0</ele><time>2026-04-26T09:38:08.754Z</time></trkpt><trkpt lat="43.5333376" lon="11.7875"><ele>409.66666666666663</ele><time>2026-04-26T09:38:09.848Z</time></trkpt><trkpt lat="43.5332784" lon="11.7874239"><ele>411.3333333333333</ele><time>2026-04-26T09:38:10.755Z</time></trkpt><trkpt lat="43.5332186" lon="11.7873373"><ele>413.0</ele><time>2026-04-26T09:38:11.754Z</time></trkpt><trkpt lat="43.5331705" lon="11.7872648"><ele>413.0</ele><time>2026-04-26T09:38:12.754Z</time></trkpt><trkpt lat="43.5330851" lon="11.7871498"><ele>413.0</ele><time>2026-04-26T09:38:14.754Z</time></trkpt><trkpt lat="43.5329987" lon="11.7870537"><ele>413.0</ele><time>2026-04-26T09:38:16.754Z</time></trkpt><trkpt lat="43.5329368" lon="11.7870015"><ele>413.0</ele><time>2026-04-26T09:38:17.754Z</time></trkpt><trkpt lat="43.532858" lon="11.7869467"><ele>413.0</ele><time>2026-04-26T09:38:18.754Z</time></trkpt><trkpt lat="43.5327749" lon="11.7868888"><ele>413.3333333333333</ele><time>2026-04-26T09:38:19.754Z</time></trkpt><trkpt lat="43.5326927" lon="11.7868281"><ele>413.66666666666663</ele><time>2026-04-26T09:38:20.754Z</time></trkpt><trkpt lat="43.5326172" lon="11.7867645"><ele>414.0</ele><time>2026-04-26T09:38:21.754Z</time></trkpt><trkpt lat="43.5325485" lon="11.7867001"><ele>414.33333333333337</ele><time>2026-04-26T09:38:22.754Z</time></trkpt><trkpt lat="43.5324907" lon="11.7866374"><ele>414.6666666666667</ele><time>2026-04-26T09:38:23.753Z</time></trkpt><trkpt lat="43.532444" lon="11.7865661"><ele>415.0</ele><time>2026-04-26T09:38:24.753Z</time></trkpt><trkpt lat="43.532407" lon="11.7864901"><ele>415.0</ele><time>2026-04-26T09:38:25.754Z</time></trkpt><trkpt lat="43.5323554" lon="11.7863595"><ele>415.0</ele><time>2026-04-26T09:38:27.754Z</time></trkpt><trkpt lat="43.5322945" lon="11.7862617"><ele>415.0</ele><time>2026-04-26T09:38:41.754Z</time></trkpt><trkpt lat="43.5322484" lon="11.7861573"><ele>415.0</ele><time>2026-04-26T09:38:43.754Z</time></trkpt><trkpt lat="43.5321467" lon="11.7860717"><ele>415.0</ele><time>2026-04-26T09:38:57.753Z</time></trkpt><trkpt lat="43.5320917" lon="11.7859833"><ele>412.2</ele><time>2026-04-26T09:39:00.754Z</time></trkpt><trkpt lat="43.5320433" lon="11.7858817"><ele>409.4</ele><time>2026-04-26T09:39:03.753Z</time></trkpt><trkpt lat="43.5319878" lon="11.7856697"><ele>406.6</ele><time>2026-04-26T09:39:14.754Z</time></trkpt><trkpt lat="43.5319844" lon="11.7855495"><ele>403.8</ele><time>2026-04-26T09:39:15.754Z</time></trkpt><trkpt lat="43.5319968" lon="11.7854401"><ele>401.0</ele><time>2026-04-26T09:39:16.753Z</time></trkpt><trkpt lat="43.5320154" lon="11.7853364"><ele>400.99999999999994</ele><time>2026-04-26T09:39:17.755Z</time></trkpt><trkpt lat="43.5320319" lon="11.7852308"><ele>401.0</ele><time>2026-04-26T09:39:18.753Z</time></trkpt><trkpt lat="43.5320476" lon="11.7851217"><ele>401.0</ele><time>2026-04-26T09:39:19.755Z</time></trkpt><trkpt lat="43.5320696" lon="11.785013"><ele>401.0</ele><time>2026-04-26T09:39:20.754Z</time></trkpt><trkpt lat="43.5321069" lon="11.7849095"><ele>400.99999999999994</ele><time>2026-04-26T09:39:21.753Z</time></trkpt><trkpt lat="43.5321613" lon="11.7848185"><ele>401.0</ele><time>2026-04-26T09:39:22.754Z</time></trkpt><trkpt lat="43.5322232" lon="11.7847388"><ele>399.3333333333333</ele><time>2026-04-26T09:39:23.754Z</time></trkpt><trkpt lat="43.5322814" lon="11.7846606"><ele>397.66666666666663</ele><time>2026-04-26T09:39:24.754Z</time></trkpt><trkpt lat="43.5323351" lon="11.7845698"><ele>396.0</ele><time>2026-04-26T09:39:25.756Z</time></trkpt><trkpt lat="43.5323867" lon="11.7844778"><ele>394.33333333333337</ele><time>2026-04-26T09:39:26.754Z</time></trkpt><trkpt lat="43.5324371" lon="11.7843898"><ele>392.6666666666667</ele><time>2026-04-26T09:39:27.753Z</time></trkpt><trkpt lat="43.5324869" lon="11.7843073"><ele>391.0</ele><time>2026-04-26T09:39:28.754Z</time></trkpt><trkpt lat="43.532527" lon="11.7842346"><ele>391.0</ele><time>2026-04-26T09:39:29.753Z</time></trkpt><trkpt lat="43.5326048" lon="11.7840938"><ele>391.0</ele><time>2026-04-26T09:39:31.754Z</time></trkpt><trkpt lat="43.5326558" lon="11.7840171"><ele>391.0</ele><time>2026-04-26T09:39:32.754Z</time></trkpt><trkpt lat="43.5327081" lon="11.7839407"><ele>391.0</ele><time>2026-04-26T09:39:33.754Z</time></trkpt><trkpt lat="43.5327535" lon="11.783871"><ele>391.0</ele><time>2026-04-26T09:39:34.753Z</time></trkpt><trkpt lat="43.5328104" lon="11.7837363"><ele>391.00000000000006</ele><time>2026-04-26T09:39:36.754Z</time></trkpt><trkpt lat="43.5328141" lon="11.783596"><ele>391.0</ele><time>2026-04-26T09:39:38.754Z</time></trkpt><trkpt lat="43.5327291" lon="11.7835177"><ele>391.0</ele><time>2026-04-26T09:39:40.754Z</time></trkpt><trkpt lat="43.5326628" lon="11.7834957"><ele>391.0</ele><time>2026-04-26T09:39:41.753Z</time></trkpt><trkpt lat="43.5325941" lon="11.7834788"><ele>391.00000000000006</ele><time>2026-04-26T09:39:42.753Z</time></trkpt><trkpt lat="43.5325248" lon="11.7834523"><ele>391.0</ele><time>2026-04-26T09:39:43.754Z</time></trkpt><trkpt lat="43.5324626" lon="11.7834059"><ele>389.1428571428571</ele><time>2026-04-26T09:39:44.755Z</time></trkpt><trkpt lat="43.5324054" lon="11.7833476"><ele>387.2857142857143</ele><time>2026-04-26T09:39:45.754Z</time></trkpt><trkpt lat="43.5323559" lon="11.7832847"><ele>385.42857142857144</ele><time>2026-04-26T09:39:46.756Z</time></trkpt><trkpt lat="43.5323076" lon="11.7832166"><ele>383.57142857142856</ele><time>2026-04-26T09:39:47.754Z</time></trkpt><trkpt lat="43.5322588" lon="11.783138"><ele>381.7142857142857</ele><time>2026-04-26T09:39:48.754Z</time></trkpt><trkpt lat="43.5322183" lon="11.7830532"><ele>379.85714285714283</ele><time>2026-04-26T09:39:49.754Z</time></trkpt><trkpt lat="43.5321787" lon="11.7829688"><ele>378.0</ele><time>2026-04-26T09:39:50.754Z</time></trkpt><trkpt lat="43.5321382" lon="11.782885"><ele>378.0</ele><time>2026-04-26T09:39:51.753Z</time></trkpt><trkpt lat="43.5320946" lon="11.7828118"><ele>378.0</ele><time>2026-04-26T09:39:52.755Z</time></trkpt><trkpt lat="43.5320474" lon="11.7827532"><ele>378.0</ele><time>2026-04-26T09:39:53.754Z</time></trkpt><trkpt lat="43.5319941" lon="11.782705"><ele>378.0</ele><time>2026-04-26T09:39:54.754Z</time></trkpt><trkpt lat="43.5319126" lon="11.7826736"><ele>378.0</ele><time>2026-04-26T09:39:55.755Z</time></trkpt><trkpt lat="43.5318349" lon="11.7826465"><ele>378.0</ele><time>2026-04-26T09:39:56.755Z</time></trkpt><trkpt lat="43.5317647" lon="11.7826047"><ele>378.0</ele><time>2026-04-26T09:39:57.755Z</time></trkpt><trkpt lat="43.5316905" lon="11.7825567"><ele>376.5</ele><time>2026-04-26T09:39:58.754Z</time></trkpt><trkpt lat="43.5316087" lon="11.7825102"><ele>375.0</ele><time>2026-04-26T09:39:59.754Z</time></trkpt><trkpt lat="43.531523" lon="11.7824736"><ele>373.5</ele><time>2026-04-26T09:40:00.753Z</time></trkpt><trkpt lat="43.5314328" lon="11.7824412"><ele>372.0</ele><time>2026-04-26T09:40:01.754Z</time></trkpt><trkpt lat="43.5313477" lon="11.7823987"><ele>370.5</ele><time>2026-04-26T09:40:02.755Z</time></trkpt><trkpt lat="43.5312679" lon="11.7823557"><ele>369.0</ele><time>2026-04-26T09:40:03.753Z</time></trkpt><trkpt lat="43.5311875" lon="11.7823188"><ele>367.0</ele><time>2026-04-26T09:40:04.754Z</time></trkpt><trkpt lat="43.5311168" lon="11.7822838"><ele>365.0</ele><time>2026-04-26T09:40:05.753Z</time></trkpt><trkpt lat="43.5310346" lon="11.7822491"><ele>363.0</ele><time>2026-04-26T09:40:06.754Z</time></trkpt><trkpt lat="43.5309538" lon="11.7822083"><ele>361.0</ele><time>2026-04-26T09:40:07.755Z</time></trkpt><trkpt lat="43.5308687" lon="11.782166"><ele>359.0</ele><time>2026-04-26T09:40:08.754Z</time></trkpt><trkpt lat="43.530779" lon="11.7821278"><ele>357.0</ele><time>2026-04-26T09:40:09.758Z</time></trkpt><trkpt lat="43.5306883" lon="11.7820951"><ele>357.0</ele><time>2026-04-26T09:40:10.754Z</time></trkpt><trkpt lat="43.5306023" lon="11.7820579"><ele>357.0</ele><time>2026-04-26T09:40:11.754Z</time></trkpt><trkpt lat="43.530517" lon="11.7820217"><ele>357.0</ele><time>2026-04-26T09:40:12.755Z</time></trkpt><trkpt lat="43.5304316" lon="11.7819876"><ele>357.0</ele><time>2026-04-26T09:40:13.755Z</time></trkpt><trkpt lat="43.5303445" lon="11.7819526"><ele>357.0</ele><time>2026-04-26T09:40:14.754Z</time></trkpt><trkpt lat="43.5302642" lon="11.7819094"><ele>357.0</ele><time>2026-04-26T09:40:15.754Z</time></trkpt><trkpt lat="43.5301826" lon="11.7818676"><ele>353.6666666666667</ele><time>2026-04-26T09:40:16.753Z</time></trkpt><trkpt lat="43.5301041" lon="11.7818351"><ele>350.3333333333333</ele><time>2026-04-26T09:40:17.754Z</time></trkpt><trkpt lat="43.5300294" lon="11.7818084"><ele>347.0</ele><time>2026-04-26T09:40:18.754Z</time></trkpt><trkpt lat="43.5299679" lon="11.781784"><ele>343.66666666666663</ele><time>2026-04-26T09:40:19.754Z</time></trkpt><trkpt lat="43.5298772" lon="11.7817102"><ele>340.3333333333333</ele><time>2026-04-26T09:40:21.756Z</time></trkpt><trkpt lat="43.5298463" lon="11.7815674"><ele>337.0</ele><time>2026-04-26T09:40:23.754Z</time></trkpt><trkpt lat="43.5298659" lon="11.7814653"><ele>337.0</ele><time>2026-04-26T09:40:24.754Z</time></trkpt><trkpt lat="43.5298859" lon="11.7813467"><ele>337.0</ele><time>2026-04-26T09:40:25.754Z</time></trkpt><trkpt lat="43.5299006" lon="11.7812286"><ele>337.0</ele><time>2026-04-26T09:40:26.754Z</time></trkpt><trkpt lat="43.5299213" lon="11.7811137"><ele>337.0</ele><time>2026-04-26T09:40:27.753Z</time></trkpt><trkpt lat="43.5299541" lon="11.7810049"><ele>337.0</ele><time>2026-04-26T09:40:28.754Z</time></trkpt><trkpt lat="43.5300029" lon="11.7809146"><ele>337.0</ele><time>2026-04-26T09:40:29.754Z</time></trkpt><trkpt lat="43.5300675" lon="11.7808412"><ele>334.3333333333333</ele><time>2026-04-26T09:40:30.756Z</time></trkpt><trkpt lat="43.5301402" lon="11.7807751"><ele>331.66666666666663</ele><time>2026-04-26T09:40:31.759Z</time></trkpt><trkpt lat="43.5302041" lon="11.7807092"><ele>329.0</ele><time>2026-04-26T09:40:32.755Z</time></trkpt><trkpt lat="43.5302562" lon="11.7806324"><ele>326.3333333333333</ele><time>2026-04-26T09:40:33.754Z</time></trkpt><trkpt lat="43.5303012" lon="11.7805548"><ele>323.6666666666667</ele><time>2026-04-26T09:40:34.758Z</time></trkpt><trkpt lat="43.5303484" lon="11.7804152"><ele>321.0</ele><time>2026-04-26T09:40:36.753Z</time></trkpt><trkpt lat="43.5303734" lon="11.7802747"><ele>321.0</ele><time>2026-04-26T09:40:38.755Z</time></trkpt><trkpt lat="43.5303349" lon="11.7801775"><ele>321.0</ele><time>2026-04-26T09:40:40.754Z</time></trkpt><trkpt lat="43.5302589" lon="11.7801522"><ele>321.0</ele><time>2026-04-26T09:40:42.754Z</time></trkpt><trkpt lat="43.5301526" lon="11.7801945"><ele>321.0</ele><time>2026-04-26T09:40:44.755Z</time></trkpt><trkpt lat="43.5300458" lon="11.7802387"><ele>321.0</ele><time>2026-04-26T09:40:46.754Z</time></trkpt><trkpt lat="43.5299835" lon="11.7802559"><ele>321.0</ele><time>2026-04-26T09:40:48.753Z</time></trkpt><trkpt lat="43.5299883" lon="11.7801396"><ele>318.6</ele><time>2026-04-26T09:40:52.754Z</time></trkpt><trkpt lat="43.5300632" lon="11.7800285"><ele>316.20000000000005</ele><time>2026-04-26T09:40:54.754Z</time></trkpt><trkpt lat="43.530127" lon="11.7798934"><ele>313.79999999999995</ele><time>2026-04-26T09:40:56.754Z</time></trkpt><trkpt lat="43.5301184" lon="11.7797782"><ele>311.4</ele><time>2026-04-26T09:40:58.754Z</time></trkpt><trkpt lat="43.5300144" lon="11.7797576"><ele>309.0</ele><time>2026-04-26T09:41:00.753Z</time></trkpt><trkpt lat="43.5299418" lon="11.7797797"><ele>309.0</ele><time>2026-04-26T09:41:01.753Z</time></trkpt><trkpt lat="43.5298552" lon="11.77981"><ele>309.0</ele><time>2026-04-26T09:41:02.754Z</time></trkpt><trkpt lat="43.5297756" lon="11.7798256"><ele>309.0</ele><time>2026-04-26T09:41:03.754Z</time></trkpt><trkpt lat="43.5297085" lon="11.7798263"><ele>309.0</ele><time>2026-04-26T09:41:04.754Z</time></trkpt><trkpt lat="43.5296061" lon="11.7797613"><ele>309.0</ele><time>2026-04-26T09:41:06.755Z</time></trkpt><trkpt lat="43.529543" lon="11.7796375"><ele>307.0</ele><time>2026-04-26T09:41:08.755Z</time></trkpt><trkpt lat="43.5294727" lon="11.7795351"><ele>305.0</ele><time>2026-04-26T09:41:10.754Z</time></trkpt><trkpt lat="43.5293792" lon="11.7794821"><ele>303.0</ele><time>2026-04-26T09:41:12.753Z</time></trkpt><trkpt lat="43.5292983" lon="11.7794303"><ele>301.0</ele><time>2026-04-26T09:41:14.754Z</time></trkpt><trkpt lat="43.5292466" lon="11.7793532"><ele>299.0</ele><time>2026-04-26T09:41:16.754Z</time></trkpt><trkpt lat="43.52923" lon="11.7791733"><ele>297.59999999999997</ele><time>2026-04-26T09:41:18.754Z</time></trkpt><trkpt lat="43.5292163" lon="11.7790193"><ele>296.2</ele><time>2026-04-26T09:41:20.755Z</time></trkpt><trkpt lat="43.5292189" lon="11.778881"><ele>294.79999999999995</ele><time>2026-04-26T09:41:22.755Z</time></trkpt><trkpt lat="43.529251" lon="11.7787756"><ele>293.4</ele><time>2026-04-26T09:41:24.755Z</time></trkpt><trkpt lat="43.5293148" lon="11.7786952"><ele>292.0</ele><time>2026-04-26T09:41:26.755Z</time></trkpt><trkpt lat="43.5293457" lon="11.7785702"><ele>290.5</ele><time>2026-04-26T09:41:28.754Z</time></trkpt><trkpt lat="43.5293391" lon="11.7784609"><ele>289.0</ele><time>2026-04-26T09:41:30.755Z</time></trkpt><trkpt lat="43.5292993" lon="11.7783882"><ele>287.5</ele><time>2026-04-26T09:41:33.753Z</time></trkpt><trkpt lat="43.529227" lon="11.7783547"><ele>286.0</ele><time>2026-04-26T09:41:41.754Z</time></trkpt><trkpt lat="43.529122" lon="11.7783293"><ele>284.5</ele><time>2026-04-26T09:41:43.754Z</time></trkpt><trkpt lat="43.5290589" lon="11.7783154"><ele>283.0</ele><time>2026-04-26T09:41:44.755Z</time></trkpt><trkpt lat="43.5289648" lon="11.7783082"><ele>283.0</ele><time>2026-04-26T09:41:46.754Z</time></trkpt><trkpt lat="43.528876" lon="11.7783244"><ele>283.0</ele><time>2026-04-26T09:41:49.754Z</time></trkpt><trkpt lat="43.5288017" lon="11.7783133"><ele>283.0</ele><time>2026-04-26T09:41:53.755Z</time></trkpt><trkpt lat="43.528725" lon="11.778275"><ele>283.0</ele><time>2026-04-26T09:41:56.754Z</time></trkpt><trkpt lat="43.5286617" lon="11.7782167"><ele>283.0</ele><time>2026-04-26T09:41:58.753Z</time></trkpt><trkpt lat="43.5286333" lon="11.7781033"><ele>283.0</ele><time>2026-04-26T09:42:00.753Z</time></trkpt><trkpt lat="43.5286617" lon="11.7779417"><ele>283.0</ele><time>2026-04-26T09:42:02.754Z</time></trkpt><trkpt lat="43.5287033" lon="11.7778317"><ele>283.0</ele><time>2026-04-26T09:42:03.754Z</time></trkpt><trkpt lat="43.528755" lon="11.777705"><ele>283.0</ele><time>2026-04-26T09:42:04.754Z</time></trkpt><trkpt lat="43.5288033" lon="11.7775683"><ele>283.0</ele><time>2026-04-26T09:42:05.754Z</time></trkpt><trkpt lat="43.5288567" lon="11.777435"><ele>283.0</ele><time>2026-04-26T09:42:06.753Z</time></trkpt><trkpt lat="43.528915" lon="11.77729"><ele>281.6</ele><time>2026-04-26T09:42:07.758Z</time></trkpt><trkpt lat="43.5289717" lon="11.777145"><ele>280.20000000000005</ele><time>2026-04-26T09:42:08.754Z</time></trkpt><trkpt lat="43.52903" lon="11.7770133"><ele>278.8</ele><time>2026-04-26T09:42:09.754Z</time></trkpt><trkpt lat="43.5290867" lon="11.776895"><ele>277.40000000000003</ele><time>2026-04-26T09:42:10.754Z</time></trkpt><trkpt lat="43.529135" lon="11.7767767"><ele>276.0</ele><time>2026-04-26T09:42:11.753Z</time></trkpt><trkpt lat="43.529185" lon="11.7766733"><ele>276.0</ele><time>2026-04-26T09:42:12.753Z</time></trkpt><trkpt lat="43.52923" lon="11.7765717"><ele>276.0</ele><time>2026-04-26T09:42:13.755Z</time></trkpt><trkpt lat="43.5292717" lon="11.77647"><ele>276.0</ele><time>2026-04-26T09:42:14.754Z</time></trkpt><trkpt lat="43.5293033" lon="11.7763667"><ele>276.0</ele><time>2026-04-26T09:42:15.754Z</time></trkpt><trkpt lat="43.529345" lon="11.7762933"><ele>276.0</ele><time>2026-04-26T09:42:16.754Z</time></trkpt><trkpt lat="43.5293717" lon="11.7762117"><ele>276.0</ele><time>2026-04-26T09:42:17.754Z</time></trkpt><trkpt lat="43.5294" lon="11.77606"><ele>276.5</ele><time>2026-04-26T09:42:19.756Z</time></trkpt><trkpt lat="43.5294083" lon="11.7759167"><ele>277.0</ele><time>2026-04-26T09:42:21.753Z</time></trkpt><trkpt lat="43.5294133" lon="11.7757567"><ele>277.5</ele><time>2026-04-26T09:42:23.754Z</time></trkpt><trkpt lat="43.5294133" lon="11.7755817"><ele>278.0</ele><time>2026-04-26T09:42:25.755Z</time></trkpt><trkpt lat="43.52941" lon="11.7754033"><ele>278.0</ele><time>2026-04-26T09:42:27.754Z</time></trkpt><trkpt lat="43.5294117" lon="11.7753017"><ele>278.0</ele><time>2026-04-26T09:42:28.753Z</time></trkpt><trkpt lat="43.52941" lon="11.775195"><ele>278.0</ele><time>2026-04-26T09:42:29.754Z</time></trkpt><trkpt lat="43.52941" lon="11.7750933"><ele>278.0</ele><time>2026-04-26T09:42:30.754Z</time></trkpt><trkpt lat="43.5294117" lon="11.774995"><ele>278.0</ele><time>2026-04-26T09:42:31.754Z</time></trkpt><trkpt lat="43.5294017" lon="11.774845"><ele>278.0</ele><time>2026-04-26T09:42:33.754Z</time></trkpt><trkpt lat="43.5293917" lon="11.7747367"><ele>278.0</ele><time>2026-04-26T09:42:35.754Z</time></trkpt><trkpt lat="43.529389" lon="11.7746489"><ele>278.0</ele><time>2026-04-26T09:42:41.801Z</time></trkpt><trkpt lat="43.529405" lon="11.77452"><ele>278.0</ele><time>2026-04-26T09:45:26.753Z</time></trkpt><trkpt lat="43.5293967" lon="11.7744183"><ele>278.0</ele><time>2026-04-26T09:45:27.753Z</time></trkpt><trkpt lat="43.52939" lon="11.7743017"><ele>278.0</ele><time>2026-04-26T09:45:28.754Z</time></trkpt><trkpt lat="43.5293833" lon="11.7741817"><ele>278.0</ele><time>2026-04-26T09:45:29.753Z</time></trkpt><trkpt lat="43.5293783" lon="11.7740583"><ele>278.0</ele><time>2026-04-26T09:45:30.754Z</time></trkpt><trkpt lat="43.5293783" lon="11.77393"><ele>278.0</ele><time>2026-04-26T09:45:31.755Z</time></trkpt><trkpt lat="43.5293867" lon="11.7738017"><ele>278.0</ele><time>2026-04-26T09:45:32.754Z</time></trkpt><trkpt lat="43.5294133" lon="11.7736717"><ele>278.0</ele><time>2026-04-26T09:45:33.753Z</time></trkpt><trkpt lat="43.529445" lon="11.7735433"><ele>278.0</ele><time>2026-04-26T09:45:34.754Z</time></trkpt><trkpt lat="43.529475" lon="11.7734133"><ele>278.0</ele><time>2026-04-26T09:45:35.754Z</time></trkpt><trkpt lat="43.529495" lon="11.7732817"><ele>278.0</ele><time>2026-04-26T09:45:36.753Z</time></trkpt><trkpt lat="43.5295033" lon="11.77314"><ele>278.0</ele><time>2026-04-26T09:45:37.753Z</time></trkpt><trkpt lat="43.5295117" lon="11.772995"><ele>278.0</ele><time>2026-04-26T09:45:38.753Z</time></trkpt><trkpt lat="43.5295233" lon="11.7728483"><ele>278.0</ele><time>2026-04-26T09:45:39.753Z</time></trkpt><trkpt lat="43.5295433" lon="11.7727067"><ele>279.8</ele><time>2026-04-26T09:45:40.754Z</time></trkpt><trkpt lat="43.52956" lon="11.772565"><ele>281.6</ele><time>2026-04-26T09:45:41.754Z</time></trkpt><trkpt lat="43.52958" lon="11.772425"><ele>283.4</ele><time>2026-04-26T09:45:42.753Z</time></trkpt><trkpt lat="43.5296017" lon="11.7722867"><ele>285.2</ele><time>2026-04-26T09:45:43.754Z</time></trkpt><trkpt lat="43.52963" lon="11.7721517"><ele>287.0</ele><time>2026-04-26T09:45:44.754Z</time></trkpt><trkpt lat="43.5296633" lon="11.772025"><ele>287.0</ele><time>2026-04-26T09:45:45.753Z</time></trkpt><trkpt lat="43.529695" lon="11.7719"><ele>287.0</ele><time>2026-04-26T09:45:46.753Z</time></trkpt><trkpt lat="43.5297317" lon="11.77178"><ele>287.0</ele><time>2026-04-26T09:45:47.755Z</time></trkpt><trkpt lat="43.52978" lon="11.7716683"><ele>287.0</ele><time>2026-04-26T09:45:48.754Z</time></trkpt><trkpt lat="43.5298367" lon="11.7715617"><ele>287.0</ele><time>2026-04-26T09:45:49.754Z</time></trkpt><trkpt lat="43.5299083" lon="11.7714633"><ele>285.0</ele><time>2026-04-26T09:45:50.754Z</time></trkpt><trkpt lat="43.529985" lon="11.7713683"><ele>283.0</ele><time>2026-04-26T09:45:51.753Z</time></trkpt><trkpt lat="43.5300633" lon="11.771265"><ele>281.0</ele><time>2026-04-26T09:45:52.754Z</time></trkpt><trkpt lat="43.5301483" lon="11.7711517"><ele>279.0</ele><time>2026-04-26T09:45:53.754Z</time></trkpt><trkpt lat="43.530235" lon="11.7710317"><ele>279.59999999999997</ele><time>2026-04-26T09:45:54.754Z</time></trkpt><trkpt lat="43.5303167" lon="11.7709183"><ele>280.2</ele><time>2026-04-26T09:45:55.754Z</time></trkpt><trkpt lat="43.5303917" lon="11.7708067"><ele>280.79999999999995</ele><time>2026-04-26T09:45:56.753Z</time></trkpt><trkpt lat="43.530445" lon="11.77068"><ele>281.4</ele><time>2026-04-26T09:45:57.754Z</time></trkpt><trkpt lat="43.5304867" lon="11.7705383"><ele>282.0</ele><time>2026-04-26T09:45:58.753Z</time></trkpt><trkpt lat="43.530515" lon="11.77038"><ele>282.0</ele><time>2026-04-26T09:45:59.753Z</time></trkpt><trkpt lat="43.53053" lon="11.7702167"><ele>282.0</ele><time>2026-04-26T09:46:00.753Z</time></trkpt><trkpt lat="43.5305417" lon="11.77006"><ele>282.0</ele><time>2026-04-26T09:46:01.753Z</time></trkpt><trkpt lat="43.53056" lon="11.7699067"><ele>282.0</ele><time>2026-04-26T09:46:02.754Z</time></trkpt><trkpt lat="43.5305833" lon="11.7697533"><ele>282.0</ele><time>2026-04-26T09:46:03.756Z</time></trkpt><trkpt lat="43.530615" lon="11.7696083"><ele>282.0</ele><time>2026-04-26T09:46:04.753Z</time></trkpt><trkpt lat="43.5306667" lon="11.769475"><ele>282.0</ele><time>2026-04-26T09:46:05.753Z</time></trkpt><trkpt lat="43.5307267" lon="11.769355"><ele>282.0</ele><time>2026-04-26T09:46:06.753Z</time></trkpt><trkpt lat="43.5307833" lon="11.769235"><ele>282.0</ele><time>2026-04-26T09:46:07.754Z</time></trkpt><trkpt lat="43.5308233" lon="11.7691017"><ele>281.0</ele><time>2026-04-26T09:46:08.754Z</time></trkpt><trkpt lat="43.5308433" lon="11.7689583"><ele>280.0</ele><time>2026-04-26T09:46:09.753Z</time></trkpt><trkpt lat="43.53083" lon="11.7687933"><ele>279.0</ele><time>2026-04-26T09:46:10.753Z</time></trkpt><trkpt lat="43.5307967" lon="11.768625"><ele>278.0</ele><time>2026-04-26T09:46:11.753Z</time></trkpt><trkpt lat="43.5307517" lon="11.7684567"><ele>278.0</ele><time>2026-04-26T09:46:12.753Z</time></trkpt><trkpt lat="43.5307067" lon="11.7682883"><ele>278.0</ele><time>2026-04-26T09:46:13.753Z</time></trkpt><trkpt lat="43.5306533" lon="11.7681317"><ele>278.0</ele><time>2026-04-26T09:46:14.754Z</time></trkpt><trkpt lat="43.530585" lon="11.7680017"><ele>278.0</ele><time>2026-04-26T09:46:15.753Z</time></trkpt><trkpt lat="43.5305067" lon="11.7679"><ele>278.0</ele><time>2026-04-26T09:46:16.753Z</time></trkpt><trkpt lat="43.53043" lon="11.7678017"><ele>278.0</ele><time>2026-04-26T09:46:17.753Z</time></trkpt><trkpt lat="43.530365" lon="11.7676933"><ele>278.0</ele><time>2026-04-26T09:46:18.754Z</time></trkpt><trkpt lat="43.5303083" lon="11.7675717"><ele>278.0</ele><time>2026-04-26T09:46:19.754Z</time></trkpt><trkpt lat="43.5302533" lon="11.7674433"><ele>278.0</ele><time>2026-04-26T09:46:20.753Z</time></trkpt><trkpt lat="43.5302" lon="11.767305"><ele>278.5</ele><time>2026-04-26T09:46:21.753Z</time></trkpt><trkpt lat="43.5301417" lon="11.767165"><ele>279.0</ele><time>2026-04-26T09:46:22.754Z</time></trkpt><trkpt lat="43.530085" lon="11.7670183"><ele>279.5</ele><time>2026-04-26T09:46:23.757Z</time></trkpt><trkpt lat="43.5300283" lon="11.7668717"><ele>280.0</ele><time>2026-04-26T09:46:24.753Z</time></trkpt><trkpt lat="43.529975" lon="11.7667167"><ele>281.4</ele><time>2026-04-26T09:46:25.753Z</time></trkpt><trkpt lat="43.529935" lon="11.7665567"><ele>282.8</ele><time>2026-04-26T09:46:26.754Z</time></trkpt><trkpt lat="43.52991" lon="11.7664017"><ele>284.2</ele><time>2026-04-26T09:46:27.753Z</time></trkpt><trkpt lat="43.5299033" lon="11.76627"><ele>285.6</ele><time>2026-04-26T09:46:28.753Z</time></trkpt><trkpt lat="43.5298983" lon="11.76616"><ele>287.0</ele><time>2026-04-26T09:46:29.753Z</time></trkpt><trkpt lat="43.5298883" lon="11.7660567"><ele>287.4</ele><time>2026-04-26T09:46:30.755Z</time></trkpt><trkpt lat="43.5298783" lon="11.7658983"><ele>287.79999999999995</ele><time>2026-04-26T09:46:32.769Z</time></trkpt><trkpt lat="43.5298633" lon="11.7657283"><ele>288.2</ele><time>2026-04-26T09:46:34.753Z</time></trkpt><trkpt lat="43.5298533" lon="11.7656367"><ele>288.59999999999997</ele><time>2026-04-26T09:46:35.753Z</time></trkpt><trkpt lat="43.5298383" lon="11.7655383"><ele>289.0</ele><time>2026-04-26T09:46:36.753Z</time></trkpt><trkpt lat="43.52981" lon="11.7654433"><ele>289.0</ele><time>2026-04-26T09:46:37.754Z</time></trkpt><trkpt lat="43.5297767" lon="11.7653583"><ele>289.0</ele><time>2026-04-26T09:46:38.753Z</time></trkpt><trkpt lat="43.52971" lon="11.76525"><ele>289.0</ele><time>2026-04-26T09:46:40.753Z</time></trkpt><trkpt lat="43.52966" lon="11.7651833"><ele>289.0</ele><time>2026-04-26T09:46:42.753Z</time></trkpt><trkpt lat="43.52961" lon="11.76509"><ele>289.0</ele><time>2026-04-26T09:46:45.753Z</time></trkpt><trkpt lat="43.52966" lon="11.7649967"><ele>289.0</ele><time>2026-04-26T09:46:47.755Z</time></trkpt><trkpt lat="43.5297167" lon="11.7648817"><ele>289.0</ele><time>2026-04-26T09:46:49.754Z</time></trkpt><trkpt lat="43.5297817" lon="11.7647483"><ele>289.0</ele><time>2026-04-26T09:46:51.753Z</time></trkpt><trkpt lat="43.5298167" lon="11.7646733"><ele>289.0</ele><time>2026-04-26T09:46:52.754Z</time></trkpt><trkpt lat="43.5298583" lon="11.7645917"><ele>289.0</ele><time>2026-04-26T09:46:53.753Z</time></trkpt><trkpt lat="43.5299017" lon="11.7645117"><ele>289.0</ele><time>2026-04-26T09:46:54.753Z</time></trkpt><trkpt lat="43.52995" lon="11.7644283"><ele>289.0</ele><time>2026-04-26T09:46:55.754Z</time></trkpt><trkpt lat="43.529995" lon="11.7643483"><ele>288.5</ele><time>2026-04-26T09:46:56.754Z</time></trkpt><trkpt lat="43.530035" lon="11.7642667"><ele>288.0</ele><time>2026-04-26T09:46:57.753Z</time></trkpt><trkpt lat="43.5300583" lon="11.7641767"><ele>287.5</ele><time>2026-04-26T09:46:58.754Z</time></trkpt><trkpt lat="43.53007" lon="11.7640883"><ele>287.0</ele><time>2026-04-26T09:46:59.758Z</time></trkpt><trkpt lat="43.5300717" lon="11.7639983"><ele>286.5</ele><time>2026-04-26T09:47:00.753Z</time></trkpt><trkpt lat="43.5300583" lon="11.76382"><ele>286.0</ele><time>2026-04-26T09:47:02.755Z</time></trkpt><trkpt lat="43.530045" lon="11.7637333"><ele>286.0</ele><time>2026-04-26T09:47:03.753Z</time></trkpt><trkpt lat="43.53003" lon="11.7636467"><ele>286.0</ele><time>2026-04-26T09:47:04.754Z</time></trkpt><trkpt lat="43.5300133" lon="11.7635617"><ele>286.0</ele><time>2026-04-26T09:47:05.754Z</time></trkpt><trkpt lat="43.5299833" lon="11.7633967"><ele>286.0</ele><time>2026-04-26T09:47:07.754Z</time></trkpt><trkpt lat="43.5299517" lon="11.763235"><ele>286.0</ele><time>2026-04-26T09:47:09.753Z</time></trkpt><trkpt lat="43.529935" lon="11.76315"><ele>286.0</ele><time>2026-04-26T09:47:10.754Z</time></trkpt><trkpt lat="43.52992" lon="11.7630617"><ele>285.16666666666663</ele><time>2026-04-26T09:47:11.753Z</time></trkpt><trkpt lat="43.529905" lon="11.762975"><ele>284.3333333333333</ele><time>2026-04-26T09:47:12.753Z</time></trkpt><trkpt lat="43.5298883" lon="11.7628867"><ele>283.5</ele><time>2026-04-26T09:47:13.754Z</time></trkpt><trkpt lat="43.5298733" lon="11.7628"><ele>282.6666666666667</ele><time>2026-04-26T09:47:14.755Z</time></trkpt><trkpt lat="43.529845" lon="11.762635"><ele>281.83333333333337</ele><time>2026-04-26T09:47:16.754Z</time></trkpt><trkpt lat="43.5298217" lon="11.7624767"><ele>281.0</ele><time>2026-04-26T09:47:18.755Z</time></trkpt><trkpt lat="43.5298" lon="11.762395"><ele>280.5714285714286</ele><time>2026-04-26T09:47:19.756Z</time></trkpt><trkpt lat="43.5297733" lon="11.7623133"><ele>280.14285714285717</ele><time>2026-04-26T09:47:20.756Z</time></trkpt><trkpt lat="43.529735" lon="11.7622333"><ele>279.7142857142857</ele><time>2026-04-26T09:47:21.755Z</time></trkpt><trkpt lat="43.5296917" lon="11.76216"><ele>279.28571428571433</ele><time>2026-04-26T09:47:22.757Z</time></trkpt><trkpt lat="43.5296483" lon="11.762095"><ele>278.8571428571429</ele><time>2026-04-26T09:47:23.756Z</time></trkpt><trkpt lat="43.5296033" lon="11.7620333"><ele>278.42857142857144</ele><time>2026-04-26T09:47:24.755Z</time></trkpt><trkpt lat="43.5295517" lon="11.7619733"><ele>278.0</ele><time>2026-04-26T09:47:25.755Z</time></trkpt><trkpt lat="43.5295" lon="11.7619167"><ele>277.7142857142857</ele><time>2026-04-26T09:47:26.755Z</time></trkpt><trkpt lat="43.5294467" lon="11.7618617"><ele>277.42857142857144</ele><time>2026-04-26T09:47:27.753Z</time></trkpt><trkpt lat="43.529395" lon="11.76181"><ele>277.14285714285717</ele><time>2026-04-26T09:47:28.753Z</time></trkpt><trkpt lat="43.5293417" lon="11.7617533"><ele>276.8571428571429</ele><time>2026-04-26T09:47:29.753Z</time></trkpt><trkpt lat="43.52929" lon="11.7616967"><ele>276.5714285714286</ele><time>2026-04-26T09:47:30.753Z</time></trkpt><trkpt lat="43.5292367" lon="11.761645"><ele>276.2857142857143</ele><time>2026-04-26T09:47:31.753Z</time></trkpt><trkpt lat="43.5291467" lon="11.7615417"><ele>276.0</ele><time>2026-04-26T09:47:33.753Z</time></trkpt><trkpt lat="43.5290767" lon="11.7614617"><ele>276.0</ele><time>2026-04-26T09:47:35.756Z</time></trkpt><trkpt lat="43.5290217" lon="11.7613533"><ele>276.0</ele><time>2026-04-26T09:47:38.754Z</time></trkpt><trkpt lat="43.5290217" lon="11.7612267"><ele>276.0</ele><time>2026-04-26T09:47:40.755Z</time></trkpt><trkpt lat="43.52903" lon="11.76111"><ele>276.0</ele><time>2026-04-26T09:47:42.752Z</time></trkpt><trkpt lat="43.529045" lon="11.7609917"><ele>276.0</ele><time>2026-04-26T09:47:44.754Z</time></trkpt><trkpt lat="43.5290783" lon="11.7608267"><ele>275.8333333333333</ele><time>2026-04-26T09:47:46.753Z</time></trkpt><trkpt lat="43.52911" lon="11.76073"><ele>275.6666666666667</ele><time>2026-04-26T09:47:47.754Z</time></trkpt><trkpt lat="43.529145" lon="11.7606317"><ele>275.5</ele><time>2026-04-26T09:47:48.753Z</time></trkpt><trkpt lat="43.52918" lon="11.7605333"><ele>275.33333333333337</ele><time>2026-04-26T09:47:49.755Z</time></trkpt><trkpt lat="43.529215" lon="11.76044"><ele>275.1666666666667</ele><time>2026-04-26T09:47:50.754Z</time></trkpt><trkpt lat="43.529245" lon="11.7603533"><ele>275.0</ele><time>2026-04-26T09:47:51.754Z</time></trkpt><trkpt lat="43.5292783" lon="11.760215"><ele>275.0</ele><time>2026-04-26T09:47:53.754Z</time></trkpt><trkpt lat="43.529235" lon="11.7601317"><ele>275.0</ele><time>2026-04-26T09:47:55.754Z</time></trkpt><trkpt lat="43.529125" lon="11.7600867"><ele>275.0</ele><time>2026-04-26T09:47:57.753Z</time></trkpt><trkpt lat="43.5290517" lon="11.76008"><ele>275.0</ele><time>2026-04-26T09:47:58.754Z</time></trkpt><trkpt lat="43.52896" lon="11.7600733"><ele>275.0</ele><time>2026-04-26T09:47:59.754Z</time></trkpt><trkpt lat="43.5288683" lon="11.7600667"><ele>275.0</ele><time>2026-04-26T09:48:00.753Z</time></trkpt><trkpt lat="43.528775" lon="11.7600583"><ele>274.6</ele><time>2026-04-26T09:48:01.754Z</time></trkpt><trkpt lat="43.5286833" lon="11.760045"><ele>274.2</ele><time>2026-04-26T09:48:02.755Z</time></trkpt><trkpt lat="43.5285917" lon="11.7600233"><ele>273.8</ele><time>2026-04-26T09:48:03.753Z</time></trkpt><trkpt lat="43.5285017" lon="11.7599967"><ele>273.4</ele><time>2026-04-26T09:48:04.754Z</time></trkpt><trkpt lat="43.528415" lon="11.7599567"><ele>273.0</ele><time>2026-04-26T09:48:05.755Z</time></trkpt><trkpt lat="43.5283367" lon="11.7599117"><ele>273.0</ele><time>2026-04-26T09:48:06.753Z</time></trkpt><trkpt lat="43.52826" lon="11.7598783"><ele>273.0</ele><time>2026-04-26T09:48:07.754Z</time></trkpt><trkpt lat="43.528195" lon="11.7598467"><ele>273.0</ele><time>2026-04-26T09:48:08.754Z</time></trkpt><trkpt lat="43.5281383" lon="11.759805"><ele>273.0</ele><time>2026-04-26T09:48:09.754Z</time></trkpt><trkpt lat="43.5280667" lon="11.7596817"><ele>273.0</ele><time>2026-04-26T09:48:11.754Z</time></trkpt><trkpt lat="43.5280633" lon="11.7595883"><ele>273.0</ele><time>2026-04-26T09:48:12.754Z</time></trkpt><trkpt lat="43.52807" lon="11.7594833"><ele>273.0</ele><time>2026-04-26T09:48:13.755Z</time></trkpt><trkpt lat="43.528085" lon="11.7593683"><ele>273.0</ele><time>2026-04-26T09:48:14.755Z</time></trkpt><trkpt lat="43.5281067" lon="11.759245"><ele>273.0</ele><time>2026-04-26T09:48:15.752Z</time></trkpt><trkpt lat="43.5281317" lon="11.759125"><ele>273.0</ele><time>2026-04-26T09:48:16.753Z</time></trkpt><trkpt lat="43.5281617" lon="11.7590167"><ele>273.0</ele><time>2026-04-26T09:48:17.754Z</time></trkpt><trkpt lat="43.528195" lon="11.7589183"><ele>273.0</ele><time>2026-04-26T09:48:18.753Z</time></trkpt><trkpt lat="43.528225" lon="11.7588183"><ele>272.8</ele><time>2026-04-26T09:48:19.754Z</time></trkpt><trkpt lat="43.5282317" lon="11.7587083"><ele>272.6</ele><time>2026-04-26T09:48:20.756Z</time></trkpt><trkpt lat="43.5282283" lon="11.75859"><ele>272.4</ele><time>2026-04-26T09:48:21.754Z</time></trkpt><trkpt lat="43.5282217" lon="11.7584567"><ele>272.2</ele><time>2026-04-26T09:48:22.755Z</time></trkpt><trkpt lat="43.5282183" lon="11.7583133"><ele>272.0</ele><time>2026-04-26T09:48:23.754Z</time></trkpt><trkpt lat="43.528225" lon="11.7581483"><ele>271.75</ele><time>2026-04-26T09:48:24.753Z</time></trkpt><trkpt lat="43.5282467" lon="11.7579683"><ele>271.5</ele><time>2026-04-26T09:48:25.754Z</time></trkpt><trkpt lat="43.528285" lon="11.757775"><ele>271.25</ele><time>2026-04-26T09:48:26.754Z</time></trkpt><trkpt lat="43.5283233" lon="11.7575733"><ele>271.0</ele><time>2026-04-26T09:48:27.755Z</time></trkpt><trkpt lat="43.5283583" lon="11.7573633"><ele>269.3333333333333</ele><time>2026-04-26T09:48:28.754Z</time></trkpt><trkpt lat="43.5283917" lon="11.7571483"><ele>267.6666666666667</ele><time>2026-04-26T09:48:29.754Z</time></trkpt><trkpt lat="43.5284267" lon="11.75693"><ele>266.0</ele><time>2026-04-26T09:48:30.753Z</time></trkpt><trkpt lat="43.528465" lon="11.756715"><ele>265.0</ele><time>2026-04-26T09:48:31.753Z</time></trkpt><trkpt lat="43.528505" lon="11.7564917"><ele>264.0</ele><time>2026-04-26T09:48:32.754Z</time></trkpt><trkpt lat="43.528545" lon="11.75626"><ele>263.0</ele><time>2026-04-26T09:48:33.753Z</time></trkpt><trkpt lat="43.5285867" lon="11.7560283"><ele>263.0</ele><time>2026-04-26T09:48:34.754Z</time></trkpt><trkpt lat="43.5286283" lon="11.7557983"><ele>263.0</ele><time>2026-04-26T09:48:35.753Z</time></trkpt><trkpt lat="43.52867" lon="11.7555683"><ele>263.0</ele><time>2026-04-26T09:48:36.753Z</time></trkpt><trkpt lat="43.5287133" lon="11.755345"><ele>263.6666666666667</ele><time>2026-04-26T09:48:37.754Z</time></trkpt><trkpt lat="43.5287583" lon="11.755125"><ele>264.3333333333333</ele><time>2026-04-26T09:48:38.754Z</time></trkpt><trkpt lat="43.52881" lon="11.7549117"><ele>265.0</ele><time>2026-04-26T09:48:39.754Z</time></trkpt><trkpt lat="43.5288733" lon="11.754715"><ele>265.0</ele><time>2026-04-26T09:48:40.753Z</time></trkpt><trkpt lat="43.528945" lon="11.7545317"><ele>265.0</ele><time>2026-04-26T09:48:41.753Z</time></trkpt><trkpt lat="43.5290183" lon="11.7543533"><ele>265.0</ele><time>2026-04-26T09:48:42.753Z</time></trkpt><trkpt lat="43.52909" lon="11.754175"><ele>265.0</ele><time>2026-04-26T09:48:43.753Z</time></trkpt><trkpt lat="43.52916" lon="11.753995"><ele>265.0</ele><time>2026-04-26T09:48:44.754Z</time></trkpt><trkpt lat="43.5292283" lon="11.7538117"><ele>265.0</ele><time>2026-04-26T09:48:45.753Z</time></trkpt><trkpt lat="43.5292917" lon="11.7536333"><ele>265.0</ele><time>2026-04-26T09:48:46.754Z</time></trkpt><trkpt lat="43.5293433" lon="11.753455"><ele>265.0</ele><time>2026-04-26T09:48:47.754Z</time></trkpt><trkpt lat="43.5293883" lon="11.75327"><ele>265.0</ele><time>2026-04-26T09:48:48.754Z</time></trkpt><trkpt lat="43.5294183" lon="11.7530867"><ele>265.0</ele><time>2026-04-26T09:48:49.755Z</time></trkpt><trkpt lat="43.5294333" lon="11.7529083"><ele>265.0</ele><time>2026-04-26T09:48:50.762Z</time></trkpt><trkpt lat="43.5294433" lon="11.75273"><ele>265.0</ele><time>2026-04-26T09:48:51.754Z</time></trkpt><trkpt lat="43.5294417" lon="11.7525483"><ele>264.75</ele><time>2026-04-26T09:48:52.754Z</time></trkpt><trkpt lat="43.5294367" lon="11.7523683"><ele>264.5</ele><time>2026-04-26T09:48:53.755Z</time></trkpt><trkpt lat="43.5294283" lon="11.7521883"><ele>264.25</ele><time>2026-04-26T09:48:54.754Z</time></trkpt><trkpt lat="43.5294217" lon="11.7520033"><ele>264.0</ele><time>2026-04-26T09:48:55.755Z</time></trkpt><trkpt lat="43.5294117" lon="11.7518117"><ele>264.6666666666667</ele><time>2026-04-26T09:48:56.754Z</time></trkpt><trkpt lat="43.5293983" lon="11.7516017"><ele>265.33333333333337</ele><time>2026-04-26T09:48:57.753Z</time></trkpt><trkpt lat="43.5293933" lon="11.7513633"><ele>266.0</ele><time>2026-04-26T09:48:58.753Z</time></trkpt><trkpt lat="43.5293983" lon="11.7511167"><ele>266.33333333333337</ele><time>2026-04-26T09:48:59.754Z</time></trkpt><trkpt lat="43.5294017" lon="11.7508867"><ele>266.6666666666667</ele><time>2026-04-26T09:49:00.753Z</time></trkpt><trkpt lat="43.5293983" lon="11.750675"><ele>267.0</ele><time>2026-04-26T09:49:01.753Z</time></trkpt><trkpt lat="43.5293967" lon="11.7504683"><ele>267.0</ele><time>2026-04-26T09:49:02.753Z</time></trkpt><trkpt lat="43.5293933" lon="11.7502617"><ele>267.0</ele><time>2026-04-26T09:49:03.753Z</time></trkpt><trkpt lat="43.5293867" lon="11.7500567"><ele>267.0</ele><time>2026-04-26T09:49:04.754Z</time></trkpt><trkpt lat="43.5293867" lon="11.7498567"><ele>267.0</ele><time>2026-04-26T09:49:05.754Z</time></trkpt><trkpt lat="43.52939" lon="11.7496633"><ele>267.25</ele><time>2026-04-26T09:49:06.754Z</time></trkpt><trkpt lat="43.5294" lon="11.74948"><ele>267.5</ele><time>2026-04-26T09:49:07.754Z</time></trkpt><trkpt lat="43.5294233" lon="11.7493033"><ele>267.75</ele><time>2026-04-26T09:49:08.755Z</time></trkpt><trkpt lat="43.5294631" lon="11.7491384"><ele>268.0</ele><time>2026-04-26T09:49:09.753Z</time></trkpt><trkpt lat="43.5295208" lon="11.748979"><ele>268.75</ele><time>2026-04-26T09:49:10.753Z</time></trkpt><trkpt lat="43.5295905" lon="11.7488178"><ele>269.5</ele><time>2026-04-26T09:49:11.753Z</time></trkpt><trkpt lat="43.5296622" lon="11.7486415"><ele>270.25</ele><time>2026-04-26T09:49:12.753Z</time></trkpt><trkpt lat="43.5297334" lon="11.7484406"><ele>271.0</ele><time>2026-04-26T09:49:13.754Z</time></trkpt><trkpt lat="43.5298094" lon="11.7482228"><ele>271.0</ele><time>2026-04-26T09:49:14.754Z</time></trkpt><trkpt lat="43.5299003" lon="11.7480027"><ele>271.0</ele><time>2026-04-26T09:49:15.753Z</time></trkpt><trkpt lat="43.529994" lon="11.7477854"><ele>271.0</ele><time>2026-04-26T09:49:16.753Z</time></trkpt><trkpt lat="43.5300818" lon="11.7475563"><ele>271.0</ele><time>2026-04-26T09:49:17.753Z</time></trkpt><trkpt lat="43.5301705" lon="11.7473276"><ele>271.0</ele><time>2026-04-26T09:49:18.753Z</time></trkpt><trkpt lat="43.5302622" lon="11.747107"><ele>271.0</ele><time>2026-04-26T09:49:19.754Z</time></trkpt><trkpt lat="43.5303551" lon="11.7468911"><ele>272.0</ele><time>2026-04-26T09:49:20.755Z</time></trkpt><trkpt lat="43.5304506" lon="11.7466813"><ele>273.0</ele><time>2026-04-26T09:49:21.753Z</time></trkpt><trkpt lat="43.5305474" lon="11.7464738"><ele>274.0</ele><time>2026-04-26T09:49:22.754Z</time></trkpt><trkpt lat="43.5306436" lon="11.746269"><ele>274.0</ele><time>2026-04-26T09:49:23.754Z</time></trkpt><trkpt lat="43.5307408" lon="11.7460648"><ele>274.0</ele><time>2026-04-26T09:49:24.754Z</time></trkpt><trkpt lat="43.5308395" lon="11.745861"><ele>274.0</ele><time>2026-04-26T09:49:25.753Z</time></trkpt><trkpt lat="43.5309374" lon="11.7456522"><ele>273.3333333333333</ele><time>2026-04-26T09:49:26.754Z</time></trkpt><trkpt lat="43.5310384" lon="11.7454394"><ele>272.6666666666667</ele><time>2026-04-26T09:49:27.755Z</time></trkpt><trkpt lat="43.5311406" lon="11.7452238"><ele>272.0</ele><time>2026-04-26T09:49:28.753Z</time></trkpt><trkpt lat="43.531245" lon="11.7450034"><ele>272.0</ele><time>2026-04-26T09:49:29.754Z</time></trkpt><trkpt lat="43.5313505" lon="11.7447909"><ele>272.0</ele><time>2026-04-26T09:49:30.753Z</time></trkpt><trkpt lat="43.53145" lon="11.7445916"><ele>272.0</ele><time>2026-04-26T09:49:31.754Z</time></trkpt><trkpt lat="43.5315423" lon="11.7443961"><ele>271.0</ele><time>2026-04-26T09:49:32.754Z</time></trkpt><trkpt lat="43.531633" lon="11.7441985"><ele>270.0</ele><time>2026-04-26T09:49:33.753Z</time></trkpt><trkpt lat="43.531725" lon="11.7440061"><ele>269.0</ele><time>2026-04-26T09:49:34.752Z</time></trkpt><trkpt lat="43.5318166" lon="11.7438163"><ele>269.0</ele><time>2026-04-26T09:49:35.753Z</time></trkpt><trkpt lat="43.531908" lon="11.7436233"><ele>269.0</ele><time>2026-04-26T09:49:36.752Z</time></trkpt><trkpt lat="43.5319998" lon="11.7434309"><ele>269.0</ele><time>2026-04-26T09:49:37.757Z</time></trkpt><trkpt lat="43.5320924" lon="11.7432395"><ele>271.0</ele><time>2026-04-26T09:49:38.754Z</time></trkpt><trkpt lat="43.5321839" lon="11.7430509"><ele>273.0</ele><time>2026-04-26T09:49:39.753Z</time></trkpt><trkpt lat="43.5322726" lon="11.7428634"><ele>275.0</ele><time>2026-04-26T09:49:40.753Z</time></trkpt><trkpt lat="43.5323606" lon="11.7426795"><ele>275.6666666666667</ele><time>2026-04-26T09:49:41.753Z</time></trkpt><trkpt lat="43.5324474" lon="11.7424964"><ele>276.3333333333333</ele><time>2026-04-26T09:49:42.753Z</time></trkpt><trkpt lat="43.5325338" lon="11.7423164"><ele>277.0</ele><time>2026-04-26T09:49:43.753Z</time></trkpt><trkpt lat="43.5326171" lon="11.7421422"><ele>277.0</ele><time>2026-04-26T09:49:44.754Z</time></trkpt><trkpt lat="43.5326955" lon="11.7419774"><ele>277.0</ele><time>2026-04-26T09:49:45.753Z</time></trkpt><trkpt lat="43.5327664" lon="11.7418264"><ele>277.0</ele><time>2026-04-26T09:49:46.753Z</time></trkpt><trkpt lat="43.532829" lon="11.7416927"><ele>277.0</ele><time>2026-04-26T09:49:47.755Z</time></trkpt><trkpt lat="43.5328796" lon="11.7415771"><ele>277.5</ele><time>2026-04-26T09:49:48.753Z</time></trkpt><trkpt lat="43.5329227" lon="11.7414772"><ele>278.0</ele><time>2026-04-26T09:49:49.753Z</time></trkpt><trkpt lat="43.53295" lon="11.7413861"><ele>278.5</ele><time>2026-04-26T09:49:50.754Z</time></trkpt><trkpt lat="43.5329535" lon="11.7412971"><ele>279.0</ele><time>2026-04-26T09:49:51.753Z</time></trkpt><trkpt lat="43.5329352" lon="11.7412135"><ele>279.5</ele><time>2026-04-26T09:49:52.754Z</time></trkpt><trkpt lat="43.5328498" lon="11.7411001"><ele>280.0</ele><time>2026-04-26T09:49:54.755Z</time></trkpt><trkpt lat="43.5327751" lon="11.7410536"><ele>281.16666666666663</ele><time>2026-04-26T09:49:55.754Z</time></trkpt><trkpt lat="43.5326939" lon="11.7409995"><ele>282.3333333333333</ele><time>2026-04-26T09:49:56.755Z</time></trkpt><trkpt lat="43.5326386" lon="11.7409219"><ele>283.5</ele><time>2026-04-26T09:49:57.754Z</time></trkpt><trkpt lat="43.5326118" lon="11.7408329"><ele>284.6666666666667</ele><time>2026-04-26T09:49:58.759Z</time></trkpt><trkpt lat="43.5326408" lon="11.7406754"><ele>285.83333333333337</ele><time>2026-04-26T09:50:00.753Z</time></trkpt><trkpt lat="43.5327069" lon="11.7406043"><ele>287.0</ele><time>2026-04-26T09:50:01.757Z</time></trkpt><trkpt lat="43.5328058" lon="11.7405263"><ele>286.5</ele><time>2026-04-26T09:50:02.755Z</time></trkpt><trkpt lat="43.5329186" lon="11.7404345"><ele>286.0</ele><time>2026-04-26T09:50:03.754Z</time></trkpt><trkpt lat="43.533035" lon="11.7403315"><ele>285.5</ele><time>2026-04-26T09:50:04.753Z</time></trkpt><trkpt lat="43.5331417" lon="11.7402318"><ele>285.0</ele><time>2026-04-26T09:50:05.754Z</time></trkpt><trkpt lat="43.5332389" lon="11.7401446"><ele>286.4</ele><time>2026-04-26T09:50:06.754Z</time></trkpt><trkpt lat="43.5333269" lon="11.7400655"><ele>287.8</ele><time>2026-04-26T09:50:07.759Z</time></trkpt><trkpt lat="43.5334106" lon="11.7399923"><ele>289.2</ele><time>2026-04-26T09:50:08.755Z</time></trkpt><trkpt lat="43.5334879" lon="11.7399247"><ele>290.6</ele><time>2026-04-26T09:50:09.754Z</time></trkpt><trkpt lat="43.5335592" lon="11.7398582"><ele>292.0</ele><time>2026-04-26T09:50:10.755Z</time></trkpt><trkpt lat="43.5336269" lon="11.7397824"><ele>292.0</ele><time>2026-04-26T09:50:11.754Z</time></trkpt><trkpt lat="43.5336908" lon="11.7396913"><ele>292.0</ele><time>2026-04-26T09:50:12.754Z</time></trkpt><trkpt lat="43.5337447" lon="11.7395759"><ele>292.0</ele><time>2026-04-26T09:50:13.753Z</time></trkpt><trkpt lat="43.5337941" lon="11.7394464"><ele>292.0</ele><time>2026-04-26T09:50:14.754Z</time></trkpt><trkpt lat="43.5338485" lon="11.7393161"><ele>292.0</ele><time>2026-04-26T09:50:15.753Z</time></trkpt><trkpt lat="43.5338968" lon="11.7391848"><ele>292.2</ele><time>2026-04-26T09:50:16.753Z</time></trkpt><trkpt lat="43.5339388" lon="11.7390486"><ele>292.4</ele><time>2026-04-26T09:50:17.754Z</time></trkpt><trkpt lat="43.5339755" lon="11.7389107"><ele>292.6</ele><time>2026-04-26T09:50:18.753Z</time></trkpt><trkpt lat="43.5340072" lon="11.7387794"><ele>292.8</ele><time>2026-04-26T09:50:19.754Z</time></trkpt><trkpt lat="43.5340299" lon="11.7386507"><ele>293.0</ele><time>2026-04-26T09:50:20.754Z</time></trkpt><trkpt lat="43.5340368" lon="11.7385195"><ele>293.0</ele><time>2026-04-26T09:50:21.753Z</time></trkpt><trkpt lat="43.5340288" lon="11.7383862"><ele>293.0</ele><time>2026-04-26T09:50:22.753Z</time></trkpt><trkpt lat="43.5340133" lon="11.7382471"><ele>293.0</ele><time>2026-04-26T09:50:23.754Z</time></trkpt><trkpt lat="43.5339953" lon="11.7381051"><ele>293.0</ele><time>2026-04-26T09:50:24.753Z</time></trkpt><trkpt lat="43.5339823" lon="11.7379598"><ele>293.0</ele><time>2026-04-26T09:50:25.754Z</time></trkpt><trkpt lat="43.5339711" lon="11.7378112"><ele>291.8</ele><time>2026-04-26T09:50:26.754Z</time></trkpt><trkpt lat="43.5339591" lon="11.7376641"><ele>290.6</ele><time>2026-04-26T09:50:27.753Z</time></trkpt><trkpt lat="43.5339439" lon="11.7375197"><ele>289.4</ele><time>2026-04-26T09:50:28.753Z</time></trkpt><trkpt lat="43.5339299" lon="11.7373811"><ele>288.2</ele><time>2026-04-26T09:50:29.754Z</time></trkpt><trkpt lat="43.5339206" lon="11.7372451"><ele>287.0</ele><time>2026-04-26T09:50:30.753Z</time></trkpt><trkpt lat="43.5339171" lon="11.7371011"><ele>287.0</ele><time>2026-04-26T09:50:31.753Z</time></trkpt><trkpt lat="43.533919" lon="11.736951"><ele>287.0</ele><time>2026-04-26T09:50:32.754Z</time></trkpt><trkpt lat="43.533928" lon="11.7367955"><ele>287.0</ele><time>2026-04-26T09:50:33.753Z</time></trkpt><trkpt lat="43.533941" lon="11.7366354"><ele>287.0</ele><time>2026-04-26T09:50:34.754Z</time></trkpt><trkpt lat="43.5339518" lon="11.7364675"><ele>285.75</ele><time>2026-04-26T09:50:35.754Z</time></trkpt><trkpt lat="43.533963" lon="11.7362964"><ele>284.5</ele><time>2026-04-26T09:50:36.754Z</time></trkpt><trkpt lat="43.5339745" lon="11.736117"><ele>283.25</ele><time>2026-04-26T09:50:37.754Z</time></trkpt><trkpt lat="43.533988" lon="11.735928"><ele>282.0</ele><time>2026-04-26T09:50:38.754Z</time></trkpt><trkpt lat="43.5340001" lon="11.7357264"><ele>281.6666666666667</ele><time>2026-04-26T09:50:39.753Z</time></trkpt><trkpt lat="43.5340123" lon="11.7355132"><ele>281.33333333333337</ele><time>2026-04-26T09:50:40.753Z</time></trkpt><trkpt lat="43.5340189" lon="11.7352939"><ele>281.0</ele><time>2026-04-26T09:50:41.753Z</time></trkpt><trkpt lat="43.5340297" lon="11.7350682"><ele>280.6666666666667</ele><time>2026-04-26T09:50:42.753Z</time></trkpt><trkpt lat="43.5340413" lon="11.7348253"><ele>280.3333333333333</ele><time>2026-04-26T09:50:43.754Z</time></trkpt><trkpt lat="43.5340539" lon="11.7345744"><ele>280.0</ele><time>2026-04-26T09:50:44.754Z</time></trkpt><trkpt lat="43.5340695" lon="11.7343342"><ele>280.0</ele><time>2026-04-26T09:50:45.753Z</time></trkpt><trkpt lat="43.5340867" lon="11.7341091"><ele>280.0</ele><time>2026-04-26T09:50:46.757Z</time></trkpt><trkpt lat="43.5341035" lon="11.7338913"><ele>280.0</ele><time>2026-04-26T09:50:47.753Z</time></trkpt><trkpt lat="43.5341202" lon="11.7336768"><ele>279.75</ele><time>2026-04-26T09:50:48.753Z</time></trkpt><trkpt lat="43.5341346" lon="11.7334655"><ele>279.5</ele><time>2026-04-26T09:50:49.753Z</time></trkpt><trkpt lat="43.5341479" lon="11.7332638"><ele>279.25</ele><time>2026-04-26T09:50:50.754Z</time></trkpt><trkpt lat="43.5341596" lon="11.7330719"><ele>279.0</ele><time>2026-04-26T09:50:51.752Z</time></trkpt><trkpt lat="43.5341738" lon="11.732882"><ele>279.0</ele><time>2026-04-26T09:50:52.753Z</time></trkpt><trkpt lat="43.5341951" lon="11.7326923"><ele>279.0</ele><time>2026-04-26T09:50:53.753Z</time></trkpt><trkpt lat="43.534226" lon="11.7325013"><ele>279.0</ele><time>2026-04-26T09:50:54.752Z</time></trkpt><trkpt lat="43.5342641" lon="11.7323145"><ele>279.0</ele><time>2026-04-26T09:50:55.754Z</time></trkpt><trkpt lat="43.5343086" lon="11.7321399"><ele>279.0</ele><time>2026-04-26T09:50:56.753Z</time></trkpt><trkpt lat="43.5343587" lon="11.7319771"><ele>279.0</ele><time>2026-04-26T09:50:57.754Z</time></trkpt><trkpt lat="43.5344226" lon="11.7318248"><ele>279.0</ele><time>2026-04-26T09:50:58.754Z</time></trkpt><trkpt lat="43.5344978" lon="11.731676"><ele>279.0</ele><time>2026-04-26T09:50:59.754Z</time></trkpt><trkpt lat="43.5345844" lon="11.7315244"><ele>278.0</ele><time>2026-04-26T09:51:00.753Z</time></trkpt><trkpt lat="43.5346807" lon="11.7313581"><ele>277.0</ele><time>2026-04-26T09:51:01.753Z</time></trkpt><trkpt lat="43.5347882" lon="11.7311774"><ele>276.0</ele><time>2026-04-26T09:51:02.754Z</time></trkpt><trkpt lat="43.5348924" lon="11.7309948"><ele>275.75</ele><time>2026-04-26T09:51:03.753Z</time></trkpt><trkpt lat="43.5349933" lon="11.7308251"><ele>275.5</ele><time>2026-04-26T09:51:04.753Z</time></trkpt><trkpt lat="43.5350875" lon="11.7306697"><ele>275.25</ele><time>2026-04-26T09:51:05.753Z</time></trkpt><trkpt lat="43.5351753" lon="11.7305243"><ele>275.0</ele><time>2026-04-26T09:51:06.753Z</time></trkpt><trkpt lat="43.5352627" lon="11.730389"><ele>275.0</ele><time>2026-04-26T09:51:07.755Z</time></trkpt><trkpt lat="43.5353437" lon="11.7302651"><ele>275.0</ele><time>2026-04-26T09:51:08.754Z</time></trkpt><trkpt lat="43.5354172" lon="11.7301548"><ele>275.0</ele><time>2026-04-26T09:51:09.753Z</time></trkpt><trkpt lat="43.5354826" lon="11.7300567"><ele>275.0</ele><time>2026-04-26T09:51:10.753Z</time></trkpt><trkpt lat="43.5355396" lon="11.7299752"><ele>275.0</ele><time>2026-04-26T09:51:11.754Z</time></trkpt><trkpt lat="43.5355865" lon="11.7299044"><ele>274.4</ele><time>2026-04-26T09:51:12.753Z</time></trkpt><trkpt lat="43.5356547" lon="11.7297875"><ele>273.8</ele><time>2026-04-26T09:51:14.753Z</time></trkpt><trkpt lat="43.5357018" lon="11.7296665"><ele>273.2</ele><time>2026-04-26T09:51:16.753Z</time></trkpt><trkpt lat="43.5357223" lon="11.7294771"><ele>272.6</ele><time>2026-04-26T09:51:18.753Z</time></trkpt><trkpt lat="43.535723" lon="11.7293526"><ele>272.0</ele><time>2026-04-26T09:51:19.753Z</time></trkpt><trkpt lat="43.5357294" lon="11.7292119"><ele>272.0</ele><time>2026-04-26T09:51:20.754Z</time></trkpt><trkpt lat="43.5357401" lon="11.7290584"><ele>272.0</ele><time>2026-04-26T09:51:21.756Z</time></trkpt><trkpt lat="43.5357466" lon="11.728885"><ele>272.0</ele><time>2026-04-26T09:51:22.753Z</time></trkpt><trkpt lat="43.5357519" lon="11.7286946"><ele>272.0</ele><time>2026-04-26T09:51:23.754Z</time></trkpt><trkpt lat="43.5357564" lon="11.7284714"><ele>271.33333333333337</ele><time>2026-04-26T09:51:24.755Z</time></trkpt><trkpt lat="43.5357669" lon="11.7282269"><ele>270.6666666666667</ele><time>2026-04-26T09:51:25.754Z</time></trkpt><trkpt lat="43.5357809" lon="11.7279802"><ele>270.0</ele><time>2026-04-26T09:51:26.754Z</time></trkpt><trkpt lat="43.5357919" lon="11.7277496"><ele>269.75</ele><time>2026-04-26T09:51:27.755Z</time></trkpt><trkpt lat="43.5358014" lon="11.7275313"><ele>269.5</ele><time>2026-04-26T09:51:28.753Z</time></trkpt><trkpt lat="43.5358097" lon="11.7273288"><ele>269.25</ele><time>2026-04-26T09:51:29.753Z</time></trkpt><trkpt lat="43.5358175" lon="11.7271427"><ele>269.0</ele><time>2026-04-26T09:51:30.753Z</time></trkpt><trkpt lat="43.5358252" lon="11.7269725"><ele>268.59999999999997</ele><time>2026-04-26T09:51:31.753Z</time></trkpt><trkpt lat="43.5358342" lon="11.7268138"><ele>268.2</ele><time>2026-04-26T09:51:32.753Z</time></trkpt><trkpt lat="43.5358457" lon="11.7266722"><ele>267.79999999999995</ele><time>2026-04-26T09:51:33.754Z</time></trkpt><trkpt lat="43.5358591" lon="11.7265368"><ele>267.4</ele><time>2026-04-26T09:51:34.755Z</time></trkpt><trkpt lat="43.5358839" lon="11.7263942"><ele>267.0</ele><time>2026-04-26T09:51:35.753Z</time></trkpt><trkpt lat="43.5359252" lon="11.7262384"><ele>267.0</ele><time>2026-04-26T09:51:36.753Z</time></trkpt><trkpt lat="43.5359799" lon="11.7260676"><ele>267.0</ele><time>2026-04-26T09:51:37.754Z</time></trkpt><trkpt lat="43.5360484" lon="11.7258827"><ele>267.0</ele><time>2026-04-26T09:51:38.754Z</time></trkpt><trkpt lat="43.5361199" lon="11.7257068"><ele>267.0</ele><time>2026-04-26T09:51:39.754Z</time></trkpt><trkpt lat="43.5361893" lon="11.7255488"><ele>267.2</ele><time>2026-04-26T09:51:40.754Z</time></trkpt><trkpt lat="43.5362482" lon="11.7254111"><ele>267.4</ele><time>2026-04-26T09:51:41.753Z</time></trkpt><trkpt lat="43.536293" lon="11.7252873"><ele>267.6</ele><time>2026-04-26T09:51:42.753Z</time></trkpt><trkpt lat="43.5363172" lon="11.7251618"><ele>267.8</ele><time>2026-04-26T09:51:43.754Z</time></trkpt><trkpt lat="43.5363127" lon="11.7250357"><ele>268.0</ele><time>2026-04-26T09:51:44.754Z</time></trkpt><trkpt lat="43.5362845" lon="11.7249139"><ele>268.0</ele><time>2026-04-26T09:51:45.753Z</time></trkpt><trkpt lat="43.5362292" lon="11.7247862"><ele>268.0</ele><time>2026-04-26T09:51:46.753Z</time></trkpt><trkpt lat="43.5361523" lon="11.7246398"><ele>268.0</ele><time>2026-04-26T09:51:47.753Z</time></trkpt><trkpt lat="43.5360723" lon="11.7244792"><ele>268.0</ele><time>2026-04-26T09:51:48.753Z</time></trkpt><trkpt lat="43.5359981" lon="11.724313"><ele>267.75</ele><time>2026-04-26T09:51:49.754Z</time></trkpt><trkpt lat="43.5359267" lon="11.7241477"><ele>267.5</ele><time>2026-04-26T09:51:50.754Z</time></trkpt><trkpt lat="43.535855" lon="11.723983"><ele>267.25</ele><time>2026-04-26T09:51:51.753Z</time></trkpt><trkpt lat="43.5357758" lon="11.7238182"><ele>267.0</ele><time>2026-04-26T09:51:52.753Z</time></trkpt><trkpt lat="43.5356912" lon="11.7236465"><ele>267.6666666666667</ele><time>2026-04-26T09:51:53.754Z</time></trkpt><trkpt lat="43.5356095" lon="11.7234704"><ele>268.33333333333337</ele><time>2026-04-26T09:51:54.753Z</time></trkpt><trkpt lat="43.5355278" lon="11.7232867"><ele>269.0</ele><time>2026-04-26T09:51:55.754Z</time></trkpt><trkpt lat="43.5354465" lon="11.7231025"><ele>268.5</ele><time>2026-04-26T09:51:56.754Z</time></trkpt><trkpt lat="43.5353643" lon="11.7229197"><ele>268.0</ele><time>2026-04-26T09:51:57.754Z</time></trkpt><trkpt lat="43.5352847" lon="11.722745"><ele>267.5</ele><time>2026-04-26T09:51:58.754Z</time></trkpt><trkpt lat="43.5352188" lon="11.7225885"><ele>267.0</ele><time>2026-04-26T09:51:59.753Z</time></trkpt><trkpt lat="43.5351639" lon="11.7224575"><ele>267.0</ele><time>2026-04-26T09:52:00.754Z</time></trkpt><trkpt lat="43.535118" lon="11.7223479"><ele>267.0</ele><time>2026-04-26T09:52:01.754Z</time></trkpt><trkpt lat="43.5350819" lon="11.7222516"><ele>267.0</ele><time>2026-04-26T09:52:02.754Z</time></trkpt><trkpt lat="43.5350346" lon="11.7221289"><ele>267.0</ele><time>2026-04-26T09:52:04.754Z</time></trkpt><trkpt lat="43.5349871" lon="11.7220287"><ele>267.0</ele><time>2026-04-26T09:52:07.754Z</time></trkpt><trkpt lat="43.534959" lon="11.7218834"><ele>266.1666666666667</ele><time>2026-04-26T09:52:09.753Z</time></trkpt><trkpt lat="43.5349324" lon="11.7217988"><ele>265.3333333333333</ele><time>2026-04-26T09:52:10.753Z</time></trkpt><trkpt lat="43.5349027" lon="11.7217073"><ele>264.5</ele><time>2026-04-26T09:52:11.755Z</time></trkpt><trkpt lat="43.5348692" lon="11.7216105"><ele>263.66666666666663</ele><time>2026-04-26T09:52:12.753Z</time></trkpt><trkpt lat="43.5348265" lon="11.7214997"><ele>262.8333333333333</ele><time>2026-04-26T09:52:13.755Z</time></trkpt><trkpt lat="43.5347742" lon="11.7213785"><ele>262.0</ele><time>2026-04-26T09:52:14.754Z</time></trkpt><trkpt lat="43.5347156" lon="11.7212538"><ele>262.0</ele><time>2026-04-26T09:52:15.753Z</time></trkpt><trkpt lat="43.5346553" lon="11.7211288"><ele>262.0</ele><time>2026-04-26T09:52:16.753Z</time></trkpt><trkpt lat="43.5345954" lon="11.7210012"><ele>262.0</ele><time>2026-04-26T09:52:17.755Z</time></trkpt><trkpt lat="43.5345381" lon="11.7208732"><ele>262.0</ele><time>2026-04-26T09:52:18.755Z</time></trkpt><trkpt lat="43.5344893" lon="11.7207501"><ele>262.0</ele><time>2026-04-26T09:52:19.754Z</time></trkpt><trkpt lat="43.5344406" lon="11.7206184"><ele>262.2</ele><time>2026-04-26T09:52:20.757Z</time></trkpt><trkpt lat="43.5343922" lon="11.720477"><ele>262.4</ele><time>2026-04-26T09:52:21.754Z</time></trkpt><trkpt lat="43.5343519" lon="11.7203368"><ele>262.6</ele><time>2026-04-26T09:52:22.755Z</time></trkpt><trkpt lat="43.5343205" lon="11.720199"><ele>262.8</ele><time>2026-04-26T09:52:23.757Z</time></trkpt><trkpt lat="43.5342932" lon="11.7200655"><ele>263.0</ele><time>2026-04-26T09:52:24.755Z</time></trkpt><trkpt lat="43.534269" lon="11.7199359"><ele>261.8</ele><time>2026-04-26T09:52:25.754Z</time></trkpt><trkpt lat="43.534251" lon="11.7198104"><ele>260.6</ele><time>2026-04-26T09:52:26.755Z</time></trkpt><trkpt lat="43.5342442" lon="11.7196894"><ele>259.4</ele><time>2026-04-26T09:52:27.753Z</time></trkpt><trkpt lat="43.5342409" lon="11.7195681"><ele>258.2</ele><time>2026-04-26T09:52:28.754Z</time></trkpt><trkpt lat="43.5342309" lon="11.7194314"><ele>257.0</ele><time>2026-04-26T09:52:29.755Z</time></trkpt><trkpt lat="43.5342127" lon="11.7193007"><ele>255.0</ele><time>2026-04-26T09:52:30.753Z</time></trkpt><trkpt lat="43.5341843" lon="11.7191824"><ele>253.0</ele><time>2026-04-26T09:52:31.754Z</time></trkpt><trkpt lat="43.5341508" lon="11.7190633"><ele>251.0</ele><time>2026-04-26T09:52:32.754Z</time></trkpt><trkpt lat="43.5341032" lon="11.7189511"><ele>249.0</ele><time>2026-04-26T09:52:33.753Z</time></trkpt><trkpt lat="43.534043" lon="11.7188501"><ele>247.0</ele><time>2026-04-26T09:52:34.754Z</time></trkpt><trkpt lat="43.5339706" lon="11.7187687"><ele>247.0</ele><time>2026-04-26T09:52:35.755Z</time></trkpt><trkpt lat="43.5338895" lon="11.7187075"><ele>247.0</ele><time>2026-04-26T09:52:36.753Z</time></trkpt><trkpt lat="43.5337984" lon="11.7186657"><ele>247.0</ele><time>2026-04-26T09:52:37.752Z</time></trkpt><trkpt lat="43.5336985" lon="11.7186366"><ele>247.0</ele><time>2026-04-26T09:52:38.754Z</time></trkpt><trkpt lat="43.5335953" lon="11.7186167"><ele>247.0</ele><time>2026-04-26T09:52:39.754Z</time></trkpt><trkpt lat="43.5334831" lon="11.7185839"><ele>244.39999999999998</ele><time>2026-04-26T09:52:40.753Z</time></trkpt><trkpt lat="43.5333765" lon="11.7185434"><ele>241.79999999999998</ele><time>2026-04-26T09:52:41.754Z</time></trkpt><trkpt lat="43.5332788" lon="11.7184828"><ele>239.2</ele><time>2026-04-26T09:52:42.754Z</time></trkpt><trkpt lat="43.5332001" lon="11.7184021"><ele>236.6</ele><time>2026-04-26T09:52:43.753Z</time></trkpt><trkpt lat="43.5331322" lon="11.7183123"><ele>234.0</ele><time>2026-04-26T09:52:44.754Z</time></trkpt><trkpt lat="43.5330693" lon="11.7182272"><ele>234.0</ele><time>2026-04-26T09:52:45.753Z</time></trkpt><trkpt lat="43.533003" lon="11.7181432"><ele>234.0</ele><time>2026-04-26T09:52:46.753Z</time></trkpt><trkpt lat="43.5329412" lon="11.7180763"><ele>234.0</ele><time>2026-04-26T09:52:47.754Z</time></trkpt><trkpt lat="43.532877" lon="11.7180142"><ele>234.0</ele><time>2026-04-26T09:52:48.753Z</time></trkpt><trkpt lat="43.532811" lon="11.7179554"><ele>234.0</ele><time>2026-04-26T09:52:49.753Z</time></trkpt><trkpt lat="43.5327469" lon="11.7178848"><ele>234.0</ele><time>2026-04-26T09:52:50.755Z</time></trkpt><trkpt lat="43.5326835" lon="11.7177955"><ele>232.6</ele><time>2026-04-26T09:52:51.755Z</time></trkpt><trkpt lat="43.5326338" lon="11.7176686"><ele>231.2</ele><time>2026-04-26T09:52:52.754Z</time></trkpt><trkpt lat="43.5325866" lon="11.7175321"><ele>229.79999999999998</ele><time>2026-04-26T09:52:53.753Z</time></trkpt><trkpt lat="43.5325355" lon="11.7174035"><ele>228.39999999999998</ele><time>2026-04-26T09:52:54.753Z</time></trkpt><trkpt lat="43.5324954" lon="11.7172829"><ele>227.0</ele><time>2026-04-26T09:52:55.753Z</time></trkpt><trkpt lat="43.5324645" lon="11.7171797"><ele>227.0</ele><time>2026-04-26T09:52:56.756Z</time></trkpt><trkpt lat="43.5324417" lon="11.7170871"><ele>227.0</ele><time>2026-04-26T09:52:57.753Z</time></trkpt><trkpt lat="43.5324374" lon="11.7169259"><ele>227.0</ele><time>2026-04-26T09:52:59.754Z</time></trkpt><trkpt lat="43.532483" lon="11.7167759"><ele>227.0</ele><time>2026-04-26T09:53:01.753Z</time></trkpt><trkpt lat="43.5325237" lon="11.7166659"><ele>227.0</ele><time>2026-04-26T09:53:03.753Z</time></trkpt><trkpt lat="43.5325631" lon="11.7165898"><ele>224.6</ele><time>2026-04-26T09:53:05.754Z</time></trkpt><trkpt lat="43.5326269" lon="11.7165754"><ele>222.2</ele><time>2026-04-26T09:53:07.756Z</time></trkpt><trkpt lat="43.5327042" lon="11.7166151"><ele>219.8</ele><time>2026-04-26T09:53:09.753Z</time></trkpt><trkpt lat="43.5327972" lon="11.7166245"><ele>217.4</ele><time>2026-04-26T09:53:11.754Z</time></trkpt><trkpt lat="43.532933" lon="11.716639"><ele>215.0</ele><time>2026-04-26T09:53:13.754Z</time></trkpt><trkpt lat="43.533012" lon="11.7166418"><ele>215.0</ele><time>2026-04-26T09:53:14.753Z</time></trkpt><trkpt lat="43.533102" lon="11.7166303"><ele>215.0</ele><time>2026-04-26T09:53:15.753Z</time></trkpt><trkpt lat="43.5331978" lon="11.7166174"><ele>215.0</ele><time>2026-04-26T09:53:16.754Z</time></trkpt><trkpt lat="43.5332995" lon="11.716606"><ele>215.0</ele><time>2026-04-26T09:53:17.755Z</time></trkpt><trkpt lat="43.5334022" lon="11.7165911"><ele>215.0</ele><time>2026-04-26T09:53:18.755Z</time></trkpt><trkpt lat="43.5335012" lon="11.7165737"><ele>215.0</ele><time>2026-04-26T09:53:19.756Z</time></trkpt><trkpt lat="43.5335991" lon="11.716568"><ele>215.0</ele><time>2026-04-26T09:53:20.756Z</time></trkpt><trkpt lat="43.5336978" lon="11.716569"><ele>215.0</ele><time>2026-04-26T09:53:21.754Z</time></trkpt><trkpt lat="43.5337981" lon="11.7165749"><ele>215.0</ele><time>2026-04-26T09:53:22.755Z</time></trkpt><trkpt lat="43.5338985" lon="11.7165782"><ele>215.0</ele><time>2026-04-26T09:53:23.755Z</time></trkpt><trkpt lat="43.5340027" lon="11.7165793"><ele>215.0</ele><time>2026-04-26T09:53:24.754Z</time></trkpt><trkpt lat="43.5341082" lon="11.7165813"><ele>215.0</ele><time>2026-04-26T09:53:25.757Z</time></trkpt><trkpt lat="43.5342082" lon="11.7165791"><ele>215.0</ele><time>2026-04-26T09:53:26.754Z</time></trkpt><trkpt lat="43.534304" lon="11.7165683"><ele>215.0</ele><time>2026-04-26T09:53:27.754Z</time></trkpt><trkpt lat="43.5343944" lon="11.716561"><ele>215.0</ele><time>2026-04-26T09:53:28.754Z</time></trkpt><trkpt lat="43.5344735" lon="11.7165668"><ele>215.00000000000003</ele><time>2026-04-26T09:53:29.754Z</time></trkpt><trkpt lat="43.5345473" lon="11.7165746"><ele>215.0</ele><time>2026-04-26T09:53:30.753Z</time></trkpt><trkpt lat="43.5346305" lon="11.7165754"><ele>215.0</ele><time>2026-04-26T09:53:31.754Z</time></trkpt><trkpt lat="43.5347207" lon="11.7165705"><ele>215.0</ele><time>2026-04-26T09:53:32.755Z</time></trkpt><trkpt lat="43.5348095" lon="11.7165677"><ele>215.00000000000003</ele><time>2026-04-26T09:53:33.753Z</time></trkpt><trkpt lat="43.5348995" lon="11.7165652"><ele>215.0</ele><time>2026-04-26T09:53:34.755Z</time></trkpt><trkpt lat="43.5350007" lon="11.7165576"><ele>216.25</ele><time>2026-04-26T09:53:35.753Z</time></trkpt><trkpt lat="43.5351175" lon="11.7165448"><ele>217.5</ele><time>2026-04-26T09:53:36.753Z</time></trkpt><trkpt lat="43.5352316" lon="11.7165364"><ele>218.75</ele><time>2026-04-26T09:53:37.753Z</time></trkpt><trkpt lat="43.5353432" lon="11.7165347"><ele>220.0</ele><time>2026-04-26T09:53:38.754Z</time></trkpt><trkpt lat="43.5354528" lon="11.7165371"><ele>220.4</ele><time>2026-04-26T09:53:39.753Z</time></trkpt><trkpt lat="43.5355591" lon="11.716538"><ele>220.8</ele><time>2026-04-26T09:53:40.754Z</time></trkpt><trkpt lat="43.5356655" lon="11.716533"><ele>221.2</ele><time>2026-04-26T09:53:41.754Z</time></trkpt><trkpt lat="43.535775" lon="11.7165284"><ele>221.6</ele><time>2026-04-26T09:53:42.754Z</time></trkpt><trkpt lat="43.5358889" lon="11.7165233"><ele>222.0</ele><time>2026-04-26T09:53:43.754Z</time></trkpt><trkpt lat="43.5360066" lon="11.71652"><ele>222.0</ele><time>2026-04-26T09:53:44.754Z</time></trkpt><trkpt lat="43.5361276" lon="11.7165158"><ele>222.0</ele><time>2026-04-26T09:53:45.753Z</time></trkpt><trkpt lat="43.5362459" lon="11.7165111"><ele>222.0</ele><time>2026-04-26T09:53:46.753Z</time></trkpt><trkpt lat="43.5363645" lon="11.7165091"><ele>222.0</ele><time>2026-04-26T09:53:47.755Z</time></trkpt><trkpt lat="43.5364779" lon="11.7165093"><ele>222.6</ele><time>2026-04-26T09:53:48.759Z</time></trkpt><trkpt lat="43.5365917" lon="11.7165021"><ele>223.2</ele><time>2026-04-26T09:53:49.755Z</time></trkpt><trkpt lat="43.5366993" lon="11.7164975"><ele>223.8</ele><time>2026-04-26T09:53:50.754Z</time></trkpt><trkpt lat="43.5367939" lon="11.7164936"><ele>224.4</ele><time>2026-04-26T09:53:51.753Z</time></trkpt><trkpt lat="43.5368825" lon="11.7164981"><ele>225.0</ele><time>2026-04-26T09:53:52.753Z</time></trkpt><trkpt lat="43.5369656" lon="11.7165141"><ele>225.0</ele><time>2026-04-26T09:53:53.754Z</time></trkpt><trkpt lat="43.5370398" lon="11.7165339"><ele>225.0</ele><time>2026-04-26T09:53:54.753Z</time></trkpt><trkpt lat="43.5371529" lon="11.7165652"><ele>225.0</ele><time>2026-04-26T09:53:56.753Z</time></trkpt><trkpt lat="43.5372181" lon="11.7165703"><ele>225.0</ele><time>2026-04-26T09:53:57.753Z</time></trkpt><trkpt lat="43.5372894" lon="11.7165632"><ele>225.0</ele><time>2026-04-26T09:53:58.755Z</time></trkpt><trkpt lat="43.5373664" lon="11.7165526"><ele>225.0</ele><time>2026-04-26T09:53:59.755Z</time></trkpt><trkpt lat="43.5374571" lon="11.7165415"><ele>224.5</ele><time>2026-04-26T09:54:00.755Z</time></trkpt><trkpt lat="43.537561" lon="11.7165346"><ele>224.0</ele><time>2026-04-26T09:54:01.757Z</time></trkpt><trkpt lat="43.5376759" lon="11.7165265"><ele>223.5</ele><time>2026-04-26T09:54:02.755Z</time></trkpt><trkpt lat="43.5377958" lon="11.7165082"><ele>223.0</ele><time>2026-04-26T09:54:03.756Z</time></trkpt><trkpt lat="43.5379183" lon="11.7164793"><ele>225.75</ele><time>2026-04-26T09:54:04.754Z</time></trkpt><trkpt lat="43.5380369" lon="11.7164431"><ele>228.5</ele><time>2026-04-26T09:54:05.756Z</time></trkpt><trkpt lat="43.538153" lon="11.7163788"><ele>231.25</ele><time>2026-04-26T09:54:06.755Z</time></trkpt><trkpt lat="43.5382711" lon="11.7162974"><ele>234.0</ele><time>2026-04-26T09:54:07.755Z</time></trkpt><trkpt lat="43.5383904" lon="11.716211"><ele>234.0</ele><time>2026-04-26T09:54:08.755Z</time></trkpt><trkpt lat="43.5385056" lon="11.7161274"><ele>234.0</ele><time>2026-04-26T09:54:09.755Z</time></trkpt><trkpt lat="43.5386145" lon="11.7160521"><ele>234.0</ele><time>2026-04-26T09:54:10.755Z</time></trkpt><trkpt lat="43.5387144" lon="11.7159856"><ele>234.0</ele><time>2026-04-26T09:54:11.753Z</time></trkpt><trkpt lat="43.5388113" lon="11.7159254"><ele>237.39999999999998</ele><time>2026-04-26T09:54:12.754Z</time></trkpt><trkpt lat="43.5389054" lon="11.7158777"><ele>240.79999999999998</ele><time>2026-04-26T09:54:13.757Z</time></trkpt><trkpt lat="43.5389983" lon="11.7158488"><ele>244.20000000000002</ele><time>2026-04-26T09:54:14.754Z</time></trkpt><trkpt lat="43.5390952" lon="11.7158328"><ele>247.60000000000002</ele><time>2026-04-26T09:54:15.754Z</time></trkpt><trkpt lat="43.5391926" lon="11.7158251"><ele>251.0</ele><time>2026-04-26T09:54:16.753Z</time></trkpt><trkpt lat="43.5392891" lon="11.7158216"><ele>251.00000000000003</ele><time>2026-04-26T09:54:17.754Z</time></trkpt><trkpt lat="43.5393763" lon="11.7158159"><ele>251.0</ele><time>2026-04-26T09:54:18.753Z</time></trkpt><trkpt lat="43.5394527" lon="11.715804"><ele>251.0</ele><time>2026-04-26T09:54:19.753Z</time></trkpt><trkpt lat="43.5395249" lon="11.7157854"><ele>251.0</ele><time>2026-04-26T09:54:20.753Z</time></trkpt><trkpt lat="43.5395945" lon="11.7157649"><ele>251.00000000000003</ele><time>2026-04-26T09:54:21.754Z</time></trkpt><trkpt lat="43.5396585" lon="11.7157397"><ele>251.0</ele><time>2026-04-26T09:54:22.753Z</time></trkpt><trkpt lat="43.5397505" lon="11.7156842"><ele>251.16666666666669</ele><time>2026-04-26T09:54:24.754Z</time></trkpt><trkpt lat="43.5398119" lon="11.7156233"><ele>251.33333333333334</ele><time>2026-04-26T09:54:27.753Z</time></trkpt><trkpt lat="43.5398454" lon="11.7155205"><ele>251.5</ele><time>2026-04-26T09:54:29.753Z</time></trkpt><trkpt lat="43.5398864" lon="11.7154137"><ele>251.66666666666669</ele><time>2026-04-26T09:54:31.753Z</time></trkpt><trkpt lat="43.5399376" lon="11.7153208"><ele>251.83333333333334</ele><time>2026-04-26T09:54:34.753Z</time></trkpt><trkpt lat="43.5399796" lon="11.7152495"><ele>252.0</ele><time>2026-04-26T09:54:36.753Z</time></trkpt><trkpt lat="43.5400453" lon="11.7152207"><ele>252.0</ele><time>2026-04-26T09:54:38.754Z</time></trkpt><trkpt lat="43.5401198" lon="11.7152843"><ele>252.0</ele><time>2026-04-26T09:54:40.755Z</time></trkpt><trkpt lat="43.5401902" lon="11.7153867"><ele>252.0</ele><time>2026-04-26T09:54:42.753Z</time></trkpt><trkpt lat="43.5402668" lon="11.7155012"><ele>252.0</ele><time>2026-04-26T09:54:44.754Z</time></trkpt><trkpt lat="43.5403457" lon="11.7156102"><ele>252.0</ele><time>2026-04-26T09:54:46.753Z</time></trkpt><trkpt lat="43.54044" lon="11.715675"><ele>252.33333333333334</ele><time>2026-04-26T09:54:48.754Z</time></trkpt><trkpt lat="43.5405333" lon="11.7156967"><ele>252.66666666666669</ele><time>2026-04-26T09:54:50.755Z</time></trkpt><trkpt lat="43.5406067" lon="11.7156733"><ele>253.0</ele><time>2026-04-26T09:54:52.753Z</time></trkpt><trkpt lat="43.540595" lon="11.7155833"><ele>253.33333333333334</ele><time>2026-04-26T09:54:54.753Z</time></trkpt><trkpt lat="43.5405533" lon="11.715505"><ele>253.66666666666669</ele><time>2026-04-26T09:54:55.754Z</time></trkpt><trkpt lat="43.540515" lon="11.7154183"><ele>254.0</ele><time>2026-04-26T09:54:56.754Z</time></trkpt><trkpt lat="43.54048" lon="11.71532"><ele>256.57142857142856</ele><time>2026-04-26T09:54:57.754Z</time></trkpt><trkpt lat="43.54046" lon="11.71523"><ele>259.1428571428571</ele><time>2026-04-26T09:54:58.753Z</time></trkpt><trkpt lat="43.540455" lon="11.7151267"><ele>261.71428571428567</ele><time>2026-04-26T09:54:59.753Z</time></trkpt><trkpt lat="43.5404617" lon="11.7150233"><ele>264.2857142857143</ele><time>2026-04-26T09:55:00.753Z</time></trkpt><trkpt lat="43.5404817" lon="11.71492"><ele>266.85714285714283</ele><time>2026-04-26T09:55:01.753Z</time></trkpt><trkpt lat="43.5405233" lon="11.7148317"><ele>269.4285714285714</ele><time>2026-04-26T09:55:02.754Z</time></trkpt><trkpt lat="43.5405683" lon="11.7147517"><ele>272.0</ele><time>2026-04-26T09:55:03.754Z</time></trkpt><trkpt lat="43.5406183" lon="11.7146767"><ele>272.0</ele><time>2026-04-26T09:55:04.755Z</time></trkpt><trkpt lat="43.5406783" lon="11.7146017"><ele>272.0</ele><time>2026-04-26T09:55:05.754Z</time></trkpt><trkpt lat="43.5407383" lon="11.7145283"><ele>272.0</ele><time>2026-04-26T09:55:06.754Z</time></trkpt><trkpt lat="43.540795" lon="11.7144567"><ele>272.0</ele><time>2026-04-26T09:55:07.754Z</time></trkpt><trkpt lat="43.5408467" lon="11.7143833"><ele>272.0</ele><time>2026-04-26T09:55:08.755Z</time></trkpt><trkpt lat="43.5409067" lon="11.7143167"><ele>272.0</ele><time>2026-04-26T09:55:09.753Z</time></trkpt><trkpt lat="43.5409717" lon="11.7142517"><ele>272.2</ele><time>2026-04-26T09:55:10.753Z</time></trkpt><trkpt lat="43.5410283" lon="11.7141733"><ele>272.4</ele><time>2026-04-26T09:55:11.754Z</time></trkpt><trkpt lat="43.5410867" lon="11.7140833"><ele>272.6</ele><time>2026-04-26T09:55:12.753Z</time></trkpt><trkpt lat="43.5411533" lon="11.7139833"><ele>272.8</ele><time>2026-04-26T09:55:13.754Z</time></trkpt><trkpt lat="43.5412267" lon="11.7138767"><ele>273.0</ele><time>2026-04-26T09:55:14.754Z</time></trkpt><trkpt lat="43.5413033" lon="11.7137667"><ele>273.8</ele><time>2026-04-26T09:55:15.754Z</time></trkpt><trkpt lat="43.5413767" lon="11.7136583"><ele>274.6</ele><time>2026-04-26T09:55:16.753Z</time></trkpt><trkpt lat="43.5414383" lon="11.7135633"><ele>275.4</ele><time>2026-04-26T09:55:17.755Z</time></trkpt><trkpt lat="43.5415033" lon="11.7134667"><ele>276.2</ele><time>2026-04-26T09:55:18.754Z</time></trkpt><trkpt lat="43.5415767" lon="11.7133733"><ele>277.0</ele><time>2026-04-26T09:55:19.753Z</time></trkpt><trkpt lat="43.54165" lon="11.7132767"><ele>277.0</ele><time>2026-04-26T09:55:20.758Z</time></trkpt><trkpt lat="43.5417267" lon="11.7131833"><ele>277.0</ele><time>2026-04-26T09:55:21.753Z</time></trkpt><trkpt lat="43.5418065" lon="11.7130923"><ele>277.0</ele><time>2026-04-26T09:55:22.754Z</time></trkpt><trkpt lat="43.5418931" lon="11.7130198"><ele>277.0</ele><time>2026-04-26T09:55:23.755Z</time></trkpt><trkpt lat="43.5419815" lon="11.712968"><ele>277.0</ele><time>2026-04-26T09:55:24.755Z</time></trkpt><trkpt lat="43.5420575" lon="11.7129297"><ele>277.5</ele><time>2026-04-26T09:55:25.755Z</time></trkpt><trkpt lat="43.542125" lon="11.7129047"><ele>278.0</ele><time>2026-04-26T09:55:26.755Z</time></trkpt><trkpt lat="43.5422063" lon="11.7128654"><ele>278.5</ele><time>2026-04-26T09:55:28.754Z</time></trkpt><trkpt lat="43.5422578" lon="11.7128041"><ele>279.0</ele><time>2026-04-26T09:55:30.754Z</time></trkpt><trkpt lat="43.5423533" lon="11.7127767"><ele>279.5</ele><time>2026-04-26T09:55:41.752Z</time></trkpt><trkpt lat="43.5424567" lon="11.71269"><ele>280.0</ele><time>2026-04-26T09:55:43.753Z</time></trkpt><trkpt lat="43.5425217" lon="11.7126183"><ele>280.0</ele><time>2026-04-26T09:55:44.754Z</time></trkpt><trkpt lat="43.5425967" lon="11.7125417"><ele>280.0</ele><time>2026-04-26T09:55:45.753Z</time></trkpt><trkpt lat="43.542695" lon="11.712445"><ele>280.0</ele><time>2026-04-26T09:55:46.753Z</time></trkpt><trkpt lat="43.5428033" lon="11.7123233"><ele>280.0</ele><time>2026-04-26T09:55:47.753Z</time></trkpt><trkpt lat="43.5429183" lon="11.712185"><ele>280.4</ele><time>2026-04-26T09:55:48.754Z</time></trkpt><trkpt lat="43.543025" lon="11.7120633"><ele>280.8</ele><time>2026-04-26T09:55:49.756Z</time></trkpt><trkpt lat="43.543115" lon="11.7119633"><ele>281.2</ele><time>2026-04-26T09:55:50.754Z</time></trkpt><trkpt lat="43.5431917" lon="11.7118783"><ele>281.6</ele><time>2026-04-26T09:55:51.754Z</time></trkpt><trkpt lat="43.543255" lon="11.711805"><ele>282.0</ele><time>2026-04-26T09:55:52.753Z</time></trkpt><trkpt lat="43.5433383" lon="11.7117217"><ele>282.0</ele><time>2026-04-26T09:55:54.754Z</time></trkpt><trkpt lat="43.5433817" lon="11.711655"><ele>282.0</ele><time>2026-04-26T09:55:56.756Z</time></trkpt><trkpt lat="43.5434233" lon="11.7115517"><ele>282.0</ele><time>2026-04-26T09:55:58.754Z</time></trkpt><trkpt lat="43.5434683" lon="11.7114283"><ele>282.0</ele><time>2026-04-26T09:56:00.755Z</time></trkpt><trkpt lat="43.5434983" lon="11.7113483"><ele>282.0</ele><time>2026-04-26T09:56:02.753Z</time></trkpt><trkpt lat="43.5434983" lon="11.7112283"><ele>282.0</ele><time>2026-04-26T09:56:12.753Z</time></trkpt><trkpt lat="43.5435167" lon="11.7111167"><ele>281.8</ele><time>2026-04-26T09:56:14.753Z</time></trkpt><trkpt lat="43.5435583" lon="11.710945"><ele>281.6</ele><time>2026-04-26T09:56:16.752Z</time></trkpt><trkpt lat="43.5435883" lon="11.710835"><ele>281.40000000000003</ele><time>2026-04-26T09:56:17.754Z</time></trkpt><trkpt lat="43.5436183" lon="11.7107183"><ele>281.2</ele><time>2026-04-26T09:56:18.753Z</time></trkpt><trkpt lat="43.5436517" lon="11.710595"><ele>281.0</ele><time>2026-04-26T09:56:19.754Z</time></trkpt><trkpt lat="43.5436833" lon="11.7104667"><ele>281.40000000000003</ele><time>2026-04-26T09:56:20.754Z</time></trkpt><trkpt lat="43.5437183" lon="11.7103333"><ele>281.8</ele><time>2026-04-26T09:56:21.753Z</time></trkpt><trkpt lat="43.5437483" lon="11.71019"><ele>282.20000000000005</ele><time>2026-04-26T09:56:22.753Z</time></trkpt><trkpt lat="43.54378" lon="11.710045"><ele>282.6</ele><time>2026-04-26T09:56:23.758Z</time></trkpt><trkpt lat="43.5438117" lon="11.70989"><ele>283.0</ele><time>2026-04-26T09:56:24.753Z</time></trkpt><trkpt lat="43.54385" lon="11.70973"><ele>283.0</ele><time>2026-04-26T09:56:25.754Z</time></trkpt><trkpt lat="43.5438883" lon="11.709575"><ele>283.0</ele><time>2026-04-26T09:56:26.754Z</time></trkpt><trkpt lat="43.5439217" lon="11.7094233"><ele>283.0</ele><time>2026-04-26T09:56:27.753Z</time></trkpt><trkpt lat="43.543955" lon="11.7092733"><ele>283.0</ele><time>2026-04-26T09:56:28.754Z</time></trkpt><trkpt lat="43.54399" lon="11.7091367"><ele>283.0</ele><time>2026-04-26T09:56:29.753Z</time></trkpt><trkpt lat="43.54402" lon="11.7090133"><ele>283.0</ele><time>2026-04-26T09:56:30.754Z</time></trkpt><trkpt lat="43.544045" lon="11.7089033"><ele>283.0</ele><time>2026-04-26T09:56:31.753Z</time></trkpt><trkpt lat="43.54407" lon="11.7088"><ele>283.0</ele><time>2026-04-26T09:56:32.755Z</time></trkpt><trkpt lat="43.5440917" lon="11.7087"><ele>283.0</ele><time>2026-04-26T09:56:33.753Z</time></trkpt><trkpt lat="43.5441167" lon="11.7086067"><ele>283.0</ele><time>2026-04-26T09:56:34.753Z</time></trkpt><trkpt lat="43.5441467" lon="11.70851"><ele>282.66666666666663</ele><time>2026-04-26T09:56:35.753Z</time></trkpt><trkpt lat="43.54418" lon="11.7084133"><ele>282.3333333333333</ele><time>2026-04-26T09:56:36.753Z</time></trkpt><trkpt lat="43.54422" lon="11.7083133"><ele>282.0</ele><time>2026-04-26T09:56:37.753Z</time></trkpt><trkpt lat="43.5442617" lon="11.708215"><ele>281.6666666666667</ele><time>2026-04-26T09:56:38.754Z</time></trkpt><trkpt lat="43.5443067" lon="11.708125"><ele>281.33333333333337</ele><time>2026-04-26T09:56:39.753Z</time></trkpt><trkpt lat="43.544355" lon="11.7080217"><ele>281.0</ele><time>2026-04-26T09:56:41.753Z</time></trkpt><trkpt lat="43.54439" lon="11.7079367"><ele>281.0</ele><time>2026-04-26T09:56:44.754Z</time></trkpt><trkpt lat="43.5444483" lon="11.7079017"><ele>281.0</ele><time>2026-04-26T09:56:48.753Z</time></trkpt><trkpt lat="43.5443833" lon="11.7080183"><ele>281.0</ele><time>2026-04-26T09:56:52.753Z</time></trkpt><trkpt lat="43.5443167" lon="11.708155"><ele>281.0</ele><time>2026-04-26T09:56:54.753Z</time></trkpt><trkpt lat="43.5442462" lon="11.7083007"><ele>281.0</ele><time>2026-04-26T09:56:56.754Z</time></trkpt><trkpt lat="43.5442035" lon="11.7083752"><ele>281.00000000000006</ele><time>2026-04-26T09:56:57.753Z</time></trkpt><trkpt lat="43.5441698" lon="11.7084594"><ele>281.0</ele><time>2026-04-26T09:56:58.753Z</time></trkpt><trkpt lat="43.5441418" lon="11.7085498"><ele>281.0</ele><time>2026-04-26T09:56:59.754Z</time></trkpt><trkpt lat="43.5441145" lon="11.7086464"><ele>281.0</ele><time>2026-04-26T09:57:00.753Z</time></trkpt><trkpt lat="43.5440888" lon="11.7087458"><ele>281.0</ele><time>2026-04-26T09:57:01.755Z</time></trkpt><trkpt lat="43.5440671" lon="11.7088434"><ele>281.00000000000006</ele><time>2026-04-26T09:57:02.754Z</time></trkpt><trkpt lat="43.5440421" lon="11.7089401"><ele>281.0</ele><time>2026-04-26T09:57:03.753Z</time></trkpt><trkpt lat="43.5440149" lon="11.7090368"><ele>281.33333333333337</ele><time>2026-04-26T09:57:04.754Z</time></trkpt><trkpt lat="43.5439908" lon="11.7091283"><ele>281.6666666666667</ele><time>2026-04-26T09:57:05.754Z</time></trkpt><trkpt lat="43.5439703" lon="11.7092122"><ele>282.0</ele><time>2026-04-26T09:57:06.753Z</time></trkpt><trkpt lat="43.5439338" lon="11.709357"><ele>282.3333333333333</ele><time>2026-04-26T09:57:08.754Z</time></trkpt><trkpt lat="43.5439031" lon="11.7094662"><ele>282.66666666666663</ele><time>2026-04-26T09:57:10.754Z</time></trkpt><trkpt lat="43.543882" lon="11.7095497"><ele>283.0</ele><time>2026-04-26T09:57:12.753Z</time></trkpt><trkpt lat="43.5438754" lon="11.709652"><ele>283.0</ele><time>2026-04-26T09:57:15.756Z</time></trkpt><trkpt lat="43.5439404" lon="11.7096561"><ele>283.0</ele><time>2026-04-26T09:57:21.753Z</time></trkpt><trkpt lat="43.5440694" lon="11.7096464"><ele>283.0</ele><time>2026-04-26T09:57:23.754Z</time></trkpt><trkpt lat="43.5441569" lon="11.7096415"><ele>283.0</ele><time>2026-04-26T09:57:24.754Z</time></trkpt><trkpt lat="43.5442519" lon="11.7096359"><ele>283.0</ele><time>2026-04-26T09:57:25.754Z</time></trkpt><trkpt lat="43.5443461" lon="11.7096334"><ele>283.0</ele><time>2026-04-26T09:57:26.755Z</time></trkpt><trkpt lat="43.5444425" lon="11.7096304"><ele>283.0</ele><time>2026-04-26T09:57:27.753Z</time></trkpt><trkpt lat="43.5445398" lon="11.7096242"><ele>283.0</ele><time>2026-04-26T09:57:28.753Z</time></trkpt><trkpt lat="43.5446373" lon="11.7096217"><ele>283.0</ele><time>2026-04-26T09:57:29.754Z</time></trkpt><trkpt lat="43.5447384" lon="11.7096168"><ele>283.0</ele><time>2026-04-26T09:57:30.753Z</time></trkpt><trkpt lat="43.5448422" lon="11.7096111"><ele>283.4</ele><time>2026-04-26T09:57:31.753Z</time></trkpt><trkpt lat="43.5449474" lon="11.7096065"><ele>283.8</ele><time>2026-04-26T09:57:32.755Z</time></trkpt><trkpt lat="43.5450556" lon="11.7096027"><ele>284.2</ele><time>2026-04-26T09:57:33.753Z</time></trkpt><trkpt lat="43.545163" lon="11.7095992"><ele>284.6</ele><time>2026-04-26T09:57:34.752Z</time></trkpt><trkpt lat="43.5452686" lon="11.709596"><ele>285.0</ele><time>2026-04-26T09:57:35.753Z</time></trkpt><trkpt lat="43.5453706" lon="11.7095963"><ele>285.2</ele><time>2026-04-26T09:57:36.753Z</time></trkpt><trkpt lat="43.5454675" lon="11.709597"><ele>285.4</ele><time>2026-04-26T09:57:37.754Z</time></trkpt><trkpt lat="43.5455623" lon="11.7095976"><ele>285.6</ele><time>2026-04-26T09:57:38.754Z</time></trkpt><trkpt lat="43.545663" lon="11.7095932"><ele>285.8</ele><time>2026-04-26T09:57:39.753Z</time></trkpt><trkpt lat="43.5457625" lon="11.7095865"><ele>286.0</ele><time>2026-04-26T09:57:40.754Z</time></trkpt><trkpt lat="43.5458471" lon="11.7095813"><ele>286.0</ele><time>2026-04-26T09:57:41.754Z</time></trkpt><trkpt lat="43.5459199" lon="11.7095769"><ele>286.0</ele><time>2026-04-26T09:57:42.753Z</time></trkpt><trkpt lat="43.5459849" lon="11.709573"><ele>286.0</ele><time>2026-04-26T09:57:43.754Z</time></trkpt><trkpt lat="43.5460483" lon="11.7095699"><ele>286.0</ele><time>2026-04-26T09:57:44.755Z</time></trkpt><trkpt lat="43.5461125" lon="11.7095652"><ele>286.0</ele><time>2026-04-26T09:57:45.753Z</time></trkpt><trkpt lat="43.5462353" lon="11.709556"><ele>286.0</ele><time>2026-04-26T09:57:47.755Z</time></trkpt><trkpt lat="43.5463464" lon="11.7095584"><ele>286.66666666666663</ele><time>2026-04-26T09:57:49.754Z</time></trkpt><trkpt lat="43.5464128" lon="11.7095538"><ele>287.3333333333333</ele><time>2026-04-26T09:57:51.753Z</time></trkpt><trkpt lat="43.5464619" lon="11.7094536"><ele>288.0</ele><time>2026-04-26T09:57:54.755Z</time></trkpt><trkpt lat="43.5464631" lon="11.7093293"><ele>288.6666666666667</ele><time>2026-04-26T09:57:56.754Z</time></trkpt><trkpt lat="43.5464647" lon="11.7092215"><ele>289.33333333333337</ele><time>2026-04-26T09:57:58.795Z</time></trkpt><trkpt lat="43.5464437" lon="11.7090844"><ele>290.0</ele><time>2026-04-26T09:58:00.814Z</time></trkpt><trkpt lat="43.5464509" lon="11.7089493"><ele>290.33333333333337</ele><time>2026-04-26T09:58:02.816Z</time></trkpt><trkpt lat="43.5464611" lon="11.70885"><ele>290.6666666666667</ele><time>2026-04-26T09:58:04.793Z</time></trkpt><trkpt lat="43.5464858" lon="11.7087588"><ele>291.0</ele><time>2026-04-26T09:58:07.821Z</time></trkpt><trkpt lat="43.5465033" lon="11.7086383"><ele>291.3333333333333</ele><time>2026-04-26T09:58:10.753Z</time></trkpt><trkpt lat="43.5465167" lon="11.7085283"><ele>291.66666666666663</ele><time>2026-04-26T09:58:12.753Z</time></trkpt><trkpt lat="43.5465283" lon="11.708415"><ele>292.0</ele><time>2026-04-26T09:58:14.754Z</time></trkpt><trkpt lat="43.546535" lon="11.70831"><ele>291.3333333333333</ele><time>2026-04-26T09:58:16.753Z</time></trkpt><trkpt lat="43.54654" lon="11.708215"><ele>290.66666666666663</ele><time>2026-04-26T09:58:18.753Z</time></trkpt><trkpt lat="43.5465491" lon="11.7081187"><ele>290.0</ele><time>2026-04-26T09:58:20.764Z</time></trkpt><trkpt lat="43.5465697" lon="11.7080175"><ele>289.3333333333333</ele><time>2026-04-26T09:58:23.709Z</time></trkpt><trkpt lat="43.5465874" lon="11.7079034"><ele>288.6666666666667</ele><time>2026-04-26T09:58:25.769Z</time></trkpt><trkpt lat="43.5465977" lon="11.7078"><ele>288.0</ele><time>2026-04-26T09:58:27.771Z</time></trkpt><trkpt lat="43.5465902" lon="11.7076937"><ele>287.6666666666667</ele><time>2026-04-26T09:58:30.774Z</time></trkpt><trkpt lat="43.5466504" lon="11.7076476"><ele>287.3333333333333</ele><time>2026-04-26T09:58:33.776Z</time></trkpt><trkpt lat="43.5467199" lon="11.7076698"><ele>287.0</ele><time>2026-04-26T09:58:35.833Z</time></trkpt><trkpt lat="43.5467993" lon="11.7076648"><ele>286.66666666666663</ele><time>2026-04-26T09:58:37.754Z</time></trkpt><trkpt lat="43.5468896" lon="11.707651"><ele>286.3333333333333</ele><time>2026-04-26T09:58:39.782Z</time></trkpt><trkpt lat="43.5469837" lon="11.7076653"><ele>286.0</ele><time>2026-04-26T09:58:41.783Z</time></trkpt><trkpt lat="43.5470594" lon="11.7076728"><ele>286.0</ele><time>2026-04-26T09:58:43.848Z</time></trkpt><trkpt lat="43.547133" lon="11.7076674"><ele>286.0</ele><time>2026-04-26T09:58:48.753Z</time></trkpt><trkpt lat="43.5471467" lon="11.7075683"><ele>286.0</ele><time>2026-04-26T09:58:55.752Z</time></trkpt><trkpt lat="43.5471567" lon="11.7074667"><ele>286.0</ele><time>2026-04-26T09:58:57.754Z</time></trkpt><trkpt lat="43.5471683" lon="11.7073533"><ele>286.0</ele><time>2026-04-26T09:58:59.753Z</time></trkpt><trkpt lat="43.5471767" lon="11.7072333"><ele>286.0</ele><time>2026-04-26T09:59:01.754Z</time></trkpt><trkpt lat="43.5471783" lon="11.707115"><ele>286.0</ele><time>2026-04-26T09:59:03.753Z</time></trkpt><trkpt lat="43.54718" lon="11.7070067"><ele>286.0</ele><time>2026-04-26T09:59:05.755Z</time></trkpt><trkpt lat="43.5472167" lon="11.7069167"><ele>286.0</ele><time>2026-04-26T09:59:07.754Z</time></trkpt><trkpt lat="43.5472983" lon="11.70685"><ele>286.0</ele><time>2026-04-26T09:59:10.758Z</time></trkpt><trkpt lat="43.5473833" lon="11.706795"><ele>286.0</ele><time>2026-04-26T09:59:12.753Z</time></trkpt><trkpt lat="43.5474433" lon="11.7067633"><ele>286.0</ele><time>2026-04-26T09:59:13.753Z</time></trkpt><trkpt lat="43.54751" lon="11.7067333"><ele>285.8333333333333</ele><time>2026-04-26T09:59:14.754Z</time></trkpt><trkpt lat="43.5475833" lon="11.70671"><ele>285.66666666666663</ele><time>2026-04-26T09:59:15.753Z</time></trkpt><trkpt lat="43.5476583" lon="11.7066883"><ele>285.5</ele><time>2026-04-26T09:59:16.754Z</time></trkpt><trkpt lat="43.547735" lon="11.7066767"><ele>285.3333333333333</ele><time>2026-04-26T09:59:17.754Z</time></trkpt><trkpt lat="43.54781" lon="11.706665"><ele>285.1666666666667</ele><time>2026-04-26T09:59:18.753Z</time></trkpt><trkpt lat="43.547885" lon="11.706665"><ele>285.0</ele><time>2026-04-26T09:59:19.754Z</time></trkpt><trkpt lat="43.54796" lon="11.7066633"><ele>285.0</ele><time>2026-04-26T09:59:20.754Z</time></trkpt><trkpt lat="43.54803" lon="11.7066583"><ele>285.0</ele><time>2026-04-26T09:59:21.759Z</time></trkpt><trkpt lat="43.5480933" lon="11.7066533"><ele>285.0</ele><time>2026-04-26T09:59:22.753Z</time></trkpt><trkpt lat="43.5482033" lon="11.7066433"><ele>285.0</ele><time>2026-04-26T09:59:24.753Z</time></trkpt><trkpt lat="43.5482789" lon="11.7066423"><ele>285.0</ele><time>2026-04-26T09:59:26.754Z</time></trkpt><trkpt lat="43.5483267" lon="11.7067126"><ele>285.0</ele><time>2026-04-26T09:59:30.754Z</time></trkpt><trkpt lat="43.548308" lon="11.7068106"><ele>285.6</ele><time>2026-04-26T09:59:32.754Z</time></trkpt><trkpt lat="43.5482837" lon="11.7069323"><ele>286.2</ele><time>2026-04-26T09:59:34.754Z</time></trkpt><trkpt lat="43.5482625" lon="11.7070549"><ele>286.8</ele><time>2026-04-26T09:59:36.753Z</time></trkpt><trkpt lat="43.548236" lon="11.7072088"><ele>287.4</ele><time>2026-04-26T09:59:38.754Z</time></trkpt><trkpt lat="43.5482119" lon="11.7073733"><ele>288.0</ele><time>2026-04-26T09:59:40.753Z</time></trkpt><trkpt lat="43.5481986" lon="11.7074623"><ele>288.0</ele><time>2026-04-26T09:59:41.754Z</time></trkpt><trkpt lat="43.5481836" lon="11.7075542"><ele>288.0</ele><time>2026-04-26T09:59:42.754Z</time></trkpt><trkpt lat="43.548169" lon="11.7076445"><ele>288.0</ele><time>2026-04-26T09:59:43.754Z</time></trkpt><trkpt lat="43.5481394" lon="11.7078093"><ele>288.0</ele><time>2026-04-26T09:59:45.755Z</time></trkpt><trkpt lat="43.5481186" lon="11.7079729"><ele>288.0</ele><time>2026-04-26T09:59:47.754Z</time></trkpt><trkpt lat="43.5481136" lon="11.7080597"><ele>288.0</ele><time>2026-04-26T09:59:48.754Z</time></trkpt><trkpt lat="43.5481103" lon="11.7081513"><ele>288.28571428571433</ele><time>2026-04-26T09:59:49.754Z</time></trkpt><trkpt lat="43.5481069" lon="11.7082437"><ele>288.57142857142856</ele><time>2026-04-26T09:59:50.754Z</time></trkpt><trkpt lat="43.548103" lon="11.7083418"><ele>288.8571428571429</ele><time>2026-04-26T09:59:51.753Z</time></trkpt><trkpt lat="43.548101" lon="11.7084319"><ele>289.14285714285717</ele><time>2026-04-26T09:59:52.754Z</time></trkpt><trkpt lat="43.5480973" lon="11.7085231"><ele>289.42857142857144</ele><time>2026-04-26T09:59:53.754Z</time></trkpt><trkpt lat="43.5480941" lon="11.7086101"><ele>289.7142857142857</ele><time>2026-04-26T09:59:54.756Z</time></trkpt><trkpt lat="43.5480913" lon="11.708746"><ele>290.0</ele><time>2026-04-26T09:59:56.755Z</time></trkpt><trkpt lat="43.5480881" lon="11.7088572"><ele>290.1666666666667</ele><time>2026-04-26T09:59:59.754Z</time></trkpt><trkpt lat="43.5480256" lon="11.7089002"><ele>290.33333333333337</ele><time>2026-04-26T10:00:04.817Z</time></trkpt><trkpt lat="43.5479234" lon="11.7088836"><ele>290.5</ele><time>2026-04-26T10:00:06.819Z</time></trkpt><trkpt lat="43.5478314" lon="11.7088823"><ele>290.6666666666667</ele><time>2026-04-26T10:00:08.821Z</time></trkpt><trkpt lat="43.5477468" lon="11.708877"><ele>290.8333333333333</ele><time>2026-04-26T10:00:10.823Z</time></trkpt><trkpt lat="43.5476592" lon="11.708874"><ele>291.0</ele><time>2026-04-26T10:00:12.754Z</time></trkpt><trkpt lat="43.547584" lon="11.7088746"><ele>291.0</ele><time>2026-04-26T10:00:14.797Z</time></trkpt><trkpt lat="43.5474794" lon="11.7088622"><ele>291.0</ele><time>2026-04-26T10:00:16.753Z</time></trkpt><trkpt lat="43.5473849" lon="11.708848"><ele>291.0</ele><time>2026-04-26T10:00:18.753Z</time></trkpt><trkpt lat="43.5472943" lon="11.7088418"><ele>291.0</ele><time>2026-04-26T10:00:20.754Z</time></trkpt><trkpt lat="43.5472108" lon="11.708841"><ele>291.0</ele><time>2026-04-26T10:00:22.753Z</time></trkpt><trkpt lat="43.5471358" lon="11.7088334"><ele>291.0</ele><time>2026-04-26T10:00:24.756Z</time></trkpt><trkpt lat="43.547063" lon="11.7088231"><ele>291.1666666666667</ele><time>2026-04-26T10:00:26.754Z</time></trkpt><trkpt lat="43.5469918" lon="11.708808"><ele>291.3333333333333</ele><time>2026-04-26T10:00:28.753Z</time></trkpt><trkpt lat="43.5469243" lon="11.7087984"><ele>291.5</ele><time>2026-04-26T10:00:30.753Z</time></trkpt><trkpt lat="43.5468355" lon="11.7088087"><ele>291.66666666666663</ele><time>2026-04-26T10:00:33.753Z</time></trkpt><trkpt lat="43.5467553" lon="11.708833"><ele>291.8333333333333</ele><time>2026-04-26T10:00:36.753Z</time></trkpt><trkpt lat="43.5466874" lon="11.7088384"><ele>292.0</ele><time>2026-04-26T10:00:39.754Z</time></trkpt><trkpt lat="43.54661" lon="11.7088322"><ele>292.0</ele><time>2026-04-26T10:00:43.753Z</time></trkpt><trkpt lat="43.5465287" lon="11.7088348"><ele>292.0</ele><time>2026-04-26T10:00:47.754Z</time></trkpt><trkpt lat="43.5464631" lon="11.7088709"><ele>292.0</ele><time>2026-04-26T10:00:51.753Z</time></trkpt><trkpt lat="43.5464563" lon="11.7090595"><ele>292.0</ele><time>2026-04-26T10:01:54.753Z</time></trkpt><trkpt lat="43.546458" lon="11.7091774"><ele>292.0</ele><time>2026-04-26T10:01:55.754Z</time></trkpt><trkpt lat="43.5464602" lon="11.7092697"><ele>292.0</ele><time>2026-04-26T10:01:56.759Z</time></trkpt><trkpt lat="43.5464623" lon="11.7093587"><ele>291.66666666666663</ele><time>2026-04-26T10:01:57.753Z</time></trkpt><trkpt lat="43.5464607" lon="11.7094536"><ele>291.3333333333333</ele><time>2026-04-26T10:01:58.758Z</time></trkpt><trkpt lat="43.5464498" lon="11.7095542"><ele>291.0</ele><time>2026-04-26T10:01:59.753Z</time></trkpt><trkpt lat="43.5464368" lon="11.7096606"><ele>290.6666666666667</ele><time>2026-04-26T10:02:00.753Z</time></trkpt><trkpt lat="43.5464303" lon="11.7097695"><ele>290.33333333333337</ele><time>2026-04-26T10:02:01.754Z</time></trkpt><trkpt lat="43.5464294" lon="11.7098769"><ele>290.0</ele><time>2026-04-26T10:02:02.754Z</time></trkpt><trkpt lat="43.5464281" lon="11.7099864"><ele>290.0</ele><time>2026-04-26T10:02:03.753Z</time></trkpt><trkpt lat="43.5464251" lon="11.7101008"><ele>290.0</ele><time>2026-04-26T10:02:04.756Z</time></trkpt><trkpt lat="43.5464201" lon="11.7102164"><ele>290.0</ele><time>2026-04-26T10:02:05.753Z</time></trkpt><trkpt lat="43.5464147" lon="11.7103388"><ele>290.0</ele><time>2026-04-26T10:02:06.753Z</time></trkpt><trkpt lat="43.5464099" lon="11.7104669"><ele>290.0</ele><time>2026-04-26T10:02:07.754Z</time></trkpt><trkpt lat="43.5464063" lon="11.7105928"><ele>290.0</ele><time>2026-04-26T10:02:08.755Z</time></trkpt><trkpt lat="43.546402" lon="11.7107094"><ele>289.83333333333337</ele><time>2026-04-26T10:02:09.754Z</time></trkpt><trkpt lat="43.5463958" lon="11.7108228"><ele>289.6666666666667</ele><time>2026-04-26T10:02:10.754Z</time></trkpt><trkpt lat="43.5463931" lon="11.710929"><ele>289.5</ele><time>2026-04-26T10:02:11.754Z</time></trkpt><trkpt lat="43.5463917" lon="11.7110331"><ele>289.3333333333333</ele><time>2026-04-26T10:02:12.753Z</time></trkpt><trkpt lat="43.546389" lon="11.7111343"><ele>289.16666666666663</ele><time>2026-04-26T10:02:13.754Z</time></trkpt><trkpt lat="43.5463868" lon="11.7112233"><ele>289.0</ele><time>2026-04-26T10:02:14.756Z</time></trkpt><trkpt lat="43.5463864" lon="11.7113678"><ele>288.66666666666663</ele><time>2026-04-26T10:02:16.754Z</time></trkpt><trkpt lat="43.5463942" lon="11.711476"><ele>288.3333333333333</ele><time>2026-04-26T10:02:18.753Z</time></trkpt><trkpt lat="43.5464093" lon="11.711575"><ele>288.0</ele><time>2026-04-26T10:02:21.753Z</time></trkpt><trkpt lat="43.5465068" lon="11.7116144"><ele>287.6666666666667</ele><time>2026-04-26T10:02:24.754Z</time></trkpt><trkpt lat="43.5465727" lon="11.711613"><ele>287.33333333333337</ele><time>2026-04-26T10:02:25.756Z</time></trkpt><trkpt lat="43.5466494" lon="11.7116086"><ele>287.0</ele><time>2026-04-26T10:02:26.757Z</time></trkpt><trkpt lat="43.5467385" lon="11.7116029"><ele>287.0</ele><time>2026-04-26T10:02:27.753Z</time></trkpt><trkpt lat="43.546834" lon="11.7115995"><ele>287.0</ele><time>2026-04-26T10:02:28.754Z</time></trkpt><trkpt lat="43.5469335" lon="11.7115958"><ele>287.0</ele><time>2026-04-26T10:02:29.754Z</time></trkpt><trkpt lat="43.5470329" lon="11.7115935"><ele>287.0</ele><time>2026-04-26T10:02:30.754Z</time></trkpt><trkpt lat="43.5471322" lon="11.7115905"><ele>287.0</ele><time>2026-04-26T10:02:31.754Z</time></trkpt><trkpt lat="43.5472325" lon="11.7115879"><ele>287.4</ele><time>2026-04-26T10:02:32.754Z</time></trkpt><trkpt lat="43.5473342" lon="11.7115846"><ele>287.79999999999995</ele><time>2026-04-26T10:02:33.754Z</time></trkpt><trkpt lat="43.5474402" lon="11.7115812"><ele>288.2</ele><time>2026-04-26T10:02:34.753Z</time></trkpt><trkpt lat="43.5475484" lon="11.711579"><ele>288.59999999999997</ele><time>2026-04-26T10:02:35.754Z</time></trkpt><trkpt lat="43.5476578" lon="11.7115796"><ele>289.0</ele><time>2026-04-26T10:02:36.753Z</time></trkpt><trkpt lat="43.5477665" lon="11.7115798"><ele>289.5</ele><time>2026-04-26T10:02:37.754Z</time></trkpt><trkpt lat="43.5478789" lon="11.7115768"><ele>290.0</ele><time>2026-04-26T10:02:38.757Z</time></trkpt><trkpt lat="43.5479957" lon="11.7115704"><ele>290.5</ele><time>2026-04-26T10:02:39.753Z</time></trkpt><trkpt lat="43.5481157" lon="11.7115641"><ele>291.0</ele><time>2026-04-26T10:02:40.754Z</time></trkpt><trkpt lat="43.5482406" lon="11.7115617"><ele>291.0</ele><time>2026-04-26T10:02:41.754Z</time></trkpt><trkpt lat="43.5483705" lon="11.7115618"><ele>291.0</ele><time>2026-04-26T10:02:42.754Z</time></trkpt><trkpt lat="43.5485048" lon="11.7115583"><ele>291.0</ele><time>2026-04-26T10:02:43.755Z</time></trkpt><trkpt lat="43.5486414" lon="11.7115508"><ele>291.0</ele><time>2026-04-26T10:02:44.754Z</time></trkpt><trkpt lat="43.5487786" lon="11.7115438"><ele>290.0</ele><time>2026-04-26T10:02:45.753Z</time></trkpt><trkpt lat="43.5489173" lon="11.7115391"><ele>289.0</ele><time>2026-04-26T10:02:46.753Z</time></trkpt><trkpt lat="43.5490575" lon="11.7115342"><ele>288.0</ele><time>2026-04-26T10:02:47.754Z</time></trkpt><trkpt lat="43.5492001" lon="11.7115325"><ele>287.0</ele><time>2026-04-26T10:02:48.755Z</time></trkpt><trkpt lat="43.5493456" lon="11.7115309"><ele>287.0</ele><time>2026-04-26T10:02:49.754Z</time></trkpt><trkpt lat="43.5494928" lon="11.711528"><ele>287.0</ele><time>2026-04-26T10:02:50.753Z</time></trkpt><trkpt lat="43.5496364" lon="11.7115226"><ele>287.0</ele><time>2026-04-26T10:02:51.754Z</time></trkpt><trkpt lat="43.5497749" lon="11.7115187"><ele>287.0</ele><time>2026-04-26T10:02:52.753Z</time></trkpt><trkpt lat="43.5499097" lon="11.7115173"><ele>288.25</ele><time>2026-04-26T10:02:53.753Z</time></trkpt><trkpt lat="43.550047" lon="11.7115137"><ele>289.5</ele><time>2026-04-26T10:02:54.752Z</time></trkpt><trkpt lat="43.5501841" lon="11.7115112"><ele>290.75</ele><time>2026-04-26T10:02:55.755Z</time></trkpt><trkpt lat="43.5503206" lon="11.7115093"><ele>292.0</ele><time>2026-04-26T10:02:56.754Z</time></trkpt><trkpt lat="43.5504616" lon="11.7115053"><ele>292.5</ele><time>2026-04-26T10:02:57.754Z</time></trkpt><trkpt lat="43.550605" lon="11.7115005"><ele>293.0</ele><time>2026-04-26T10:02:58.755Z</time></trkpt><trkpt lat="43.5507505" lon="11.7114946"><ele>293.5</ele><time>2026-04-26T10:02:59.754Z</time></trkpt><trkpt lat="43.5508943" lon="11.7114881"><ele>294.0</ele><time>2026-04-26T10:03:00.753Z</time></trkpt><trkpt lat="43.5510355" lon="11.7114816"><ele>294.0</ele><time>2026-04-26T10:03:01.753Z</time></trkpt><trkpt lat="43.5511761" lon="11.711476"><ele>294.0</ele><time>2026-04-26T10:03:02.753Z</time></trkpt><trkpt lat="43.5513172" lon="11.7114677"><ele>294.0</ele><time>2026-04-26T10:03:03.753Z</time></trkpt><trkpt lat="43.5514584" lon="11.7114623"><ele>294.0</ele><time>2026-04-26T10:03:04.754Z</time></trkpt><trkpt lat="43.5515968" lon="11.7114542"><ele>294.2</ele><time>2026-04-26T10:03:05.757Z</time></trkpt><trkpt lat="43.5517272" lon="11.7114448"><ele>294.4</ele><time>2026-04-26T10:03:06.753Z</time></trkpt><trkpt lat="43.5518424" lon="11.7114333"><ele>294.6</ele><time>2026-04-26T10:03:07.754Z</time></trkpt><trkpt lat="43.5519457" lon="11.7114231"><ele>294.8</ele><time>2026-04-26T10:03:08.754Z</time></trkpt><trkpt lat="43.5520433" lon="11.7114115"><ele>295.0</ele><time>2026-04-26T10:03:09.753Z</time></trkpt><trkpt lat="43.5521424" lon="11.7113926"><ele>295.6</ele><time>2026-04-26T10:03:10.753Z</time></trkpt><trkpt lat="43.5522451" lon="11.7113665"><ele>296.2</ele><time>2026-04-26T10:03:11.757Z</time></trkpt><trkpt lat="43.5523514" lon="11.7113304"><ele>296.8</ele><time>2026-04-26T10:03:12.753Z</time></trkpt><trkpt lat="43.5524614" lon="11.7112859"><ele>297.4</ele><time>2026-04-26T10:03:13.754Z</time></trkpt><trkpt lat="43.5525689" lon="11.7112441"><ele>298.0</ele><time>2026-04-26T10:03:14.754Z</time></trkpt><trkpt lat="43.5526713" lon="11.7111987"><ele>298.0</ele><time>2026-04-26T10:03:15.754Z</time></trkpt><trkpt lat="43.5527735" lon="11.7111502"><ele>298.0</ele><time>2026-04-26T10:03:16.752Z</time></trkpt><trkpt lat="43.5528734" lon="11.7110986"><ele>298.0</ele><time>2026-04-26T10:03:17.753Z</time></trkpt><trkpt lat="43.5529646" lon="11.711035"><ele>298.0</ele><time>2026-04-26T10:03:18.753Z</time></trkpt><trkpt lat="43.5530409" lon="11.7109469"><ele>298.0</ele><time>2026-04-26T10:03:19.754Z</time></trkpt><trkpt lat="43.5530973" lon="11.7108364"><ele>299.0</ele><time>2026-04-26T10:03:20.754Z</time></trkpt><trkpt lat="43.5531343" lon="11.7107183"><ele>300.0</ele><time>2026-04-26T10:03:21.753Z</time></trkpt><trkpt lat="43.5531592" lon="11.7106043"><ele>301.0</ele><time>2026-04-26T10:03:22.754Z</time></trkpt><trkpt lat="43.5531809" lon="11.7105017"><ele>302.0</ele><time>2026-04-26T10:03:23.753Z</time></trkpt><trkpt lat="43.5532075" lon="11.7104137"><ele>303.0</ele><time>2026-04-26T10:03:24.753Z</time></trkpt><trkpt lat="43.5532482" lon="11.7102701"><ele>304.0</ele><time>2026-04-26T10:03:26.754Z</time></trkpt><trkpt lat="43.5532888" lon="11.7101326"><ele>304.59999999999997</ele><time>2026-04-26T10:03:28.753Z</time></trkpt><trkpt lat="43.5532743" lon="11.7099586"><ele>305.2</ele><time>2026-04-26T10:03:30.753Z</time></trkpt><trkpt lat="43.553245" lon="11.7098477"><ele>305.79999999999995</ele><time>2026-04-26T10:03:31.754Z</time></trkpt><trkpt lat="43.5532113" lon="11.7097057"><ele>306.4</ele><time>2026-04-26T10:03:32.754Z</time></trkpt><trkpt lat="43.553189" lon="11.7095518"><ele>307.0</ele><time>2026-04-26T10:03:33.753Z</time></trkpt><trkpt lat="43.5531836" lon="11.7094013"><ele>307.16666666666663</ele><time>2026-04-26T10:03:34.753Z</time></trkpt><trkpt lat="43.5531834" lon="11.7092658"><ele>307.3333333333333</ele><time>2026-04-26T10:03:35.753Z</time></trkpt><trkpt lat="43.5531843" lon="11.709143"><ele>307.5</ele><time>2026-04-26T10:03:36.753Z</time></trkpt><trkpt lat="43.5531871" lon="11.7090265"><ele>307.6666666666667</ele><time>2026-04-26T10:03:37.753Z</time></trkpt><trkpt lat="43.5531907" lon="11.7089101"><ele>307.83333333333337</ele><time>2026-04-26T10:03:38.754Z</time></trkpt><trkpt lat="43.5531957" lon="11.7087875"><ele>308.0</ele><time>2026-04-26T10:03:39.762Z</time></trkpt><trkpt lat="43.5531997" lon="11.7086637"><ele>308.0</ele><time>2026-04-26T10:03:40.753Z</time></trkpt><trkpt lat="43.5532048" lon="11.7085394"><ele>308.0</ele><time>2026-04-26T10:03:41.754Z</time></trkpt><trkpt lat="43.5532162" lon="11.7084157"><ele>308.0</ele><time>2026-04-26T10:03:42.754Z</time></trkpt><trkpt lat="43.5532217" lon="11.7082883"><ele>308.0</ele><time>2026-04-26T10:03:43.753Z</time></trkpt><trkpt lat="43.5532167" lon="11.7081667"><ele>308.0</ele><time>2026-04-26T10:03:44.754Z</time></trkpt><trkpt lat="43.55321" lon="11.7080567"><ele>308.0</ele><time>2026-04-26T10:03:45.752Z</time></trkpt><trkpt lat="43.553195" lon="11.707965"><ele>308.0</ele><time>2026-04-26T10:03:46.753Z</time></trkpt><trkpt lat="43.5531633" lon="11.7078"><ele>308.0</ele><time>2026-04-26T10:03:48.753Z</time></trkpt><trkpt lat="43.553165" lon="11.7076383"><ele>308.0</ele><time>2026-04-26T10:03:50.754Z</time></trkpt><trkpt lat="43.5531983" lon="11.70755"><ele>308.0</ele><time>2026-04-26T10:03:51.753Z</time></trkpt><trkpt lat="43.5532517" lon="11.7074617"><ele>308.0</ele><time>2026-04-26T10:03:52.754Z</time></trkpt><trkpt lat="43.5533033" lon="11.7073833"><ele>308.0</ele><time>2026-04-26T10:03:53.754Z</time></trkpt><trkpt lat="43.5533833" lon="11.70728"><ele>308.0</ele><time>2026-04-26T10:03:55.753Z</time></trkpt><trkpt lat="43.553435" lon="11.7072133"><ele>308.0</ele><time>2026-04-26T10:03:58.753Z</time></trkpt><trkpt lat="43.5534017" lon="11.707295"><ele>308.0</ele><time>2026-04-26T10:04:05.754Z</time></trkpt><trkpt lat="43.5533233" lon="11.7074167"><ele>308.0</ele><time>2026-04-26T10:04:07.753Z</time></trkpt><trkpt lat="43.5532317" lon="11.70753"><ele>308.0</ele><time>2026-04-26T10:04:09.753Z</time></trkpt><trkpt lat="43.55314" lon="11.7076"><ele>308.0</ele><time>2026-04-26T10:04:11.754Z</time></trkpt><trkpt lat="43.553065" lon="11.7076"><ele>308.0</ele><time>2026-04-26T10:04:13.753Z</time></trkpt><trkpt lat="43.5529767" lon="11.7075067"><ele>308.0</ele><time>2026-04-26T10:04:15.752Z</time></trkpt><trkpt lat="43.5529317" lon="11.7074183"><ele>308.0</ele><time>2026-04-26T10:04:16.752Z</time></trkpt><trkpt lat="43.55288" lon="11.7073117"><ele>307.6</ele><time>2026-04-26T10:04:17.753Z</time></trkpt><trkpt lat="43.5528133" lon="11.70719"><ele>307.20000000000005</ele><time>2026-04-26T10:04:18.753Z</time></trkpt><trkpt lat="43.5527533" lon="11.7070833"><ele>306.8</ele><time>2026-04-26T10:04:19.754Z</time></trkpt><trkpt lat="43.5526983" lon="11.7069717"><ele>306.40000000000003</ele><time>2026-04-26T10:04:20.754Z</time></trkpt><trkpt lat="43.5526383" lon="11.7068583"><ele>306.0</ele><time>2026-04-26T10:04:21.754Z</time></trkpt><trkpt lat="43.552595" lon="11.7067633"><ele>305.40000000000003</ele><time>2026-04-26T10:04:22.754Z</time></trkpt><trkpt lat="43.5525617" lon="11.706675"><ele>304.8</ele><time>2026-04-26T10:04:23.755Z</time></trkpt><trkpt lat="43.55251" lon="11.70652"><ele>304.20000000000005</ele><time>2026-04-26T10:04:25.755Z</time></trkpt><trkpt lat="43.55248" lon="11.7063533"><ele>303.6</ele><time>2026-04-26T10:04:27.755Z</time></trkpt><trkpt lat="43.5524617" lon="11.7062617"><ele>303.0</ele><time>2026-04-26T10:04:28.754Z</time></trkpt><trkpt lat="43.5524367" lon="11.7061583"><ele>302.6666666666667</ele><time>2026-04-26T10:04:29.753Z</time></trkpt><trkpt lat="43.5524133" lon="11.7060483"><ele>302.3333333333333</ele><time>2026-04-26T10:04:30.753Z</time></trkpt><trkpt lat="43.5523833" lon="11.705935"><ele>302.0</ele><time>2026-04-26T10:04:31.761Z</time></trkpt><trkpt lat="43.5523567" lon="11.7058233"><ele>301.66666666666663</ele><time>2026-04-26T10:04:32.754Z</time></trkpt><trkpt lat="43.5523317" lon="11.7057167"><ele>301.3333333333333</ele><time>2026-04-26T10:04:33.753Z</time></trkpt><trkpt lat="43.55231" lon="11.7056167"><ele>301.0</ele><time>2026-04-26T10:04:34.754Z</time></trkpt><trkpt lat="43.552285" lon="11.7054917"><ele>301.0</ele><time>2026-04-26T10:04:36.754Z</time></trkpt><trkpt lat="43.5522883" lon="11.705625"><ele>301.0</ele><time>2026-04-26T10:04:43.753Z</time></trkpt><trkpt lat="43.5523033" lon="11.7057133"><ele>301.0</ele><time>2026-04-26T10:04:44.754Z</time></trkpt><trkpt lat="43.5523267" lon="11.7058333"><ele>301.0</ele><time>2026-04-26T10:04:45.754Z</time></trkpt><trkpt lat="43.5523583" lon="11.705975"><ele>301.0</ele><time>2026-04-26T10:04:46.753Z</time></trkpt><trkpt lat="43.5523783" lon="11.7061033"><ele>301.3333333333333</ele><time>2026-04-26T10:04:47.753Z</time></trkpt><trkpt lat="43.5523983" lon="11.7062267"><ele>301.66666666666663</ele><time>2026-04-26T10:04:48.754Z</time></trkpt><trkpt lat="43.55242" lon="11.7063333"><ele>302.0</ele><time>2026-04-26T10:04:49.761Z</time></trkpt><trkpt lat="43.5524383" lon="11.70643"><ele>302.3333333333333</ele><time>2026-04-26T10:04:50.754Z</time></trkpt><trkpt lat="43.552475" lon="11.706575"><ele>302.6666666666667</ele><time>2026-04-26T10:04:52.754Z</time></trkpt><trkpt lat="43.552515" lon="11.7066583"><ele>303.0</ele><time>2026-04-26T10:04:54.753Z</time></trkpt><trkpt lat="43.5525967" lon="11.7066483"><ele>303.0</ele><time>2026-04-26T10:04:56.754Z</time></trkpt><trkpt lat="43.5527067" lon="11.7066"><ele>303.0</ele><time>2026-04-26T10:04:58.755Z</time></trkpt><trkpt lat="43.55277" lon="11.7065783"><ele>303.0</ele><time>2026-04-26T10:04:59.755Z</time></trkpt><trkpt lat="43.5528333" lon="11.706565"><ele>303.0</ele><time>2026-04-26T10:05:00.753Z</time></trkpt><trkpt lat="43.5529017" lon="11.7065517"><ele>303.0</ele><time>2026-04-26T10:05:01.755Z</time></trkpt><trkpt lat="43.55297" lon="11.706535"><ele>303.0</ele><time>2026-04-26T10:05:02.755Z</time></trkpt><trkpt lat="43.5530433" lon="11.7065217"><ele>303.57142857142856</ele><time>2026-04-26T10:05:03.754Z</time></trkpt><trkpt lat="43.5531167" lon="11.7065083"><ele>304.1428571428571</ele><time>2026-04-26T10:05:04.754Z</time></trkpt><trkpt lat="43.5531967" lon="11.706495"><ele>304.71428571428567</ele><time>2026-04-26T10:05:05.754Z</time></trkpt><trkpt lat="43.5532733" lon="11.7064817"><ele>305.2857142857143</ele><time>2026-04-26T10:05:06.754Z</time></trkpt><trkpt lat="43.5533483" lon="11.706475"><ele>305.85714285714283</ele><time>2026-04-26T10:05:07.754Z</time></trkpt><trkpt lat="43.5534167" lon="11.7064783"><ele>306.4285714285714</ele><time>2026-04-26T10:05:08.758Z</time></trkpt><trkpt lat="43.5534817" lon="11.70649"><ele>307.0</ele><time>2026-04-26T10:05:09.753Z</time></trkpt><trkpt lat="43.553605" lon="11.70649"><ele>307.0</ele><time>2026-04-26T10:05:11.754Z</time></trkpt><trkpt lat="43.5537017" lon="11.7064933"><ele>307.0</ele><time>2026-04-26T10:05:13.763Z</time></trkpt><trkpt lat="43.55376" lon="11.7065633"><ele>307.0</ele><time>2026-04-26T10:05:15.753Z</time></trkpt><trkpt lat="43.5538083" lon="11.7066883"><ele>307.0</ele><time>2026-04-26T10:05:17.753Z</time></trkpt><trkpt lat="43.5539083" lon="11.7067"><ele>307.0</ele><time>2026-04-26T10:05:19.755Z</time></trkpt><trkpt lat="43.5539733" lon="11.7066583"><ele>307.0</ele><time>2026-04-26T10:05:20.755Z</time></trkpt><trkpt lat="43.554045" lon="11.706585"><ele>307.4</ele><time>2026-04-26T10:05:21.754Z</time></trkpt><trkpt lat="43.5541267" lon="11.7065133"><ele>307.79999999999995</ele><time>2026-04-26T10:05:22.755Z</time></trkpt><trkpt lat="43.5542067" lon="11.7064483"><ele>308.2</ele><time>2026-04-26T10:05:23.754Z</time></trkpt><trkpt lat="43.5542967" lon="11.7064017"><ele>308.59999999999997</ele><time>2026-04-26T10:05:24.753Z</time></trkpt><trkpt lat="43.5543933" lon="11.70637"><ele>309.0</ele><time>2026-04-26T10:05:25.753Z</time></trkpt><trkpt lat="43.5544867" lon="11.706345"><ele>309.59999999999997</ele><time>2026-04-26T10:05:26.754Z</time></trkpt><trkpt lat="43.55458" lon="11.706325"><ele>310.2</ele><time>2026-04-26T10:05:27.753Z</time></trkpt><trkpt lat="43.5546733" lon="11.7063117"><ele>310.79999999999995</ele><time>2026-04-26T10:05:28.754Z</time></trkpt><trkpt lat="43.5547717" lon="11.7062983"><ele>311.4</ele><time>2026-04-26T10:05:29.754Z</time></trkpt><trkpt lat="43.5548717" lon="11.7062817"><ele>312.0</ele><time>2026-04-26T10:05:30.753Z</time></trkpt><trkpt lat="43.5549733" lon="11.7062667"><ele>312.0</ele><time>2026-04-26T10:05:31.755Z</time></trkpt><trkpt lat="43.5550783" lon="11.70625"><ele>312.0</ele><time>2026-04-26T10:05:32.754Z</time></trkpt><trkpt lat="43.55519" lon="11.7062383"><ele>312.0</ele><time>2026-04-26T10:05:33.752Z</time></trkpt><trkpt lat="43.5552979" lon="11.706236"><ele>312.0</ele><time>2026-04-26T10:05:34.754Z</time></trkpt><trkpt lat="43.5553956" lon="11.7062475"><ele>312.0</ele><time>2026-04-26T10:05:35.754Z</time></trkpt><trkpt lat="43.5554905" lon="11.7062608"><ele>312.5</ele><time>2026-04-26T10:05:36.753Z</time></trkpt><trkpt lat="43.5555858" lon="11.7062661"><ele>313.0</ele><time>2026-04-26T10:05:37.757Z</time></trkpt><trkpt lat="43.5556898" lon="11.7062195"><ele>313.5</ele><time>2026-04-26T10:05:38.755Z</time></trkpt><trkpt lat="43.5557936" lon="11.7061297"><ele>314.0</ele><time>2026-04-26T10:05:39.753Z</time></trkpt><trkpt lat="43.5558994" lon="11.7060288"><ele>314.0</ele><time>2026-04-26T10:05:40.756Z</time></trkpt><trkpt lat="43.5560064" lon="11.7059348"><ele>314.0</ele><time>2026-04-26T10:05:41.753Z</time></trkpt><trkpt lat="43.55611" lon="11.7058556"><ele>314.0</ele><time>2026-04-26T10:05:42.753Z</time></trkpt><trkpt lat="43.5562063" lon="11.7057816"><ele>314.0</ele><time>2026-04-26T10:05:43.753Z</time></trkpt><trkpt lat="43.5562931" lon="11.7057002"><ele>314.59999999999997</ele><time>2026-04-26T10:05:44.754Z</time></trkpt><trkpt lat="43.5563664" lon="11.7055986"><ele>315.2</ele><time>2026-04-26T10:05:45.753Z</time></trkpt><trkpt lat="43.5564281" lon="11.7054771"><ele>315.79999999999995</ele><time>2026-04-26T10:05:46.758Z</time></trkpt><trkpt lat="43.5564903" lon="11.7053477"><ele>316.4</ele><time>2026-04-26T10:05:47.755Z</time></trkpt><trkpt lat="43.556556" lon="11.7052199"><ele>317.0</ele><time>2026-04-26T10:05:48.756Z</time></trkpt><trkpt lat="43.5566292" lon="11.7051084"><ele>317.0</ele><time>2026-04-26T10:05:49.754Z</time></trkpt><trkpt lat="43.556713" lon="11.7050078"><ele>317.0</ele><time>2026-04-26T10:05:50.754Z</time></trkpt><trkpt lat="43.5568128" lon="11.7049248"><ele>317.0</ele><time>2026-04-26T10:05:51.754Z</time></trkpt><trkpt lat="43.556926" lon="11.7048663"><ele>317.0</ele><time>2026-04-26T10:05:52.754Z</time></trkpt><trkpt lat="43.5570467" lon="11.7048292"><ele>318.5</ele><time>2026-04-26T10:05:53.754Z</time></trkpt><trkpt lat="43.5571697" lon="11.704789"><ele>320.0</ele><time>2026-04-26T10:05:54.754Z</time></trkpt><trkpt lat="43.55728" lon="11.7047071"><ele>321.5</ele><time>2026-04-26T10:05:55.754Z</time></trkpt><trkpt lat="43.5573689" lon="11.704579"><ele>323.0</ele><time>2026-04-26T10:05:56.755Z</time></trkpt><trkpt lat="43.5574419" lon="11.7044264"><ele>321.75</ele><time>2026-04-26T10:05:57.754Z</time></trkpt><trkpt lat="43.5575175" lon="11.704266"><ele>320.5</ele><time>2026-04-26T10:05:58.754Z</time></trkpt><trkpt lat="43.5576084" lon="11.7041183"><ele>319.25</ele><time>2026-04-26T10:05:59.754Z</time></trkpt><trkpt lat="43.5577167" lon="11.7040014"><ele>318.0</ele><time>2026-04-26T10:06:00.754Z</time></trkpt><trkpt lat="43.5578312" lon="11.703919"><ele>319.1666666666667</ele><time>2026-04-26T10:06:01.754Z</time></trkpt><trkpt lat="43.5579386" lon="11.7038677"><ele>320.3333333333333</ele><time>2026-04-26T10:06:02.754Z</time></trkpt><trkpt lat="43.5580335" lon="11.7038269"><ele>321.5</ele><time>2026-04-26T10:06:03.755Z</time></trkpt><trkpt lat="43.5581025" lon="11.7037941"><ele>322.66666666666663</ele><time>2026-04-26T10:06:04.753Z</time></trkpt><trkpt lat="43.5581912" lon="11.7037484"><ele>323.8333333333333</ele><time>2026-04-26T10:06:06.759Z</time></trkpt><trkpt lat="43.5582326" lon="11.7036792"><ele>325.0</ele><time>2026-04-26T10:06:13.753Z</time></trkpt><trkpt lat="43.5582771" lon="11.7036023"><ele>324.0</ele><time>2026-04-26T10:06:17.757Z</time></trkpt><trkpt lat="43.5583238" lon="11.7034719"><ele>323.0</ele><time>2026-04-26T10:06:19.753Z</time></trkpt><trkpt lat="43.5583629" lon="11.7033426"><ele>322.0</ele><time>2026-04-26T10:06:21.753Z</time></trkpt><trkpt lat="43.5584237" lon="11.7032544"><ele>321.0</ele><time>2026-04-26T10:06:24.753Z</time></trkpt><trkpt lat="43.5584929" lon="11.7032733"><ele>320.0</ele><time>2026-04-26T10:06:26.754Z</time></trkpt><trkpt lat="43.5585881" lon="11.7033175"><ele>321.0</ele><time>2026-04-26T10:06:28.753Z</time></trkpt><trkpt lat="43.5587121" lon="11.7033155"><ele>322.0</ele><time>2026-04-26T10:06:30.753Z</time></trkpt><trkpt lat="43.5587796" lon="11.7032849"><ele>323.0</ele><time>2026-04-26T10:06:31.754Z</time></trkpt><trkpt lat="43.5588446" lon="11.7032409"><ele>324.0</ele><time>2026-04-26T10:06:32.754Z</time></trkpt><trkpt lat="43.558914" lon="11.7031958"><ele>325.0</ele><time>2026-04-26T10:06:33.753Z</time></trkpt><trkpt lat="43.558993" lon="11.7031425"><ele>326.0</ele><time>2026-04-26T10:06:34.753Z</time></trkpt><trkpt lat="43.5590796" lon="11.7030813"><ele>326.0</ele><time>2026-04-26T10:06:35.754Z</time></trkpt><trkpt lat="43.5591815" lon="11.7030108"><ele>326.0</ele><time>2026-04-26T10:06:36.753Z</time></trkpt><trkpt lat="43.5592837" lon="11.7029453"><ele>326.0</ele><time>2026-04-26T10:06:37.753Z</time></trkpt><trkpt lat="43.5593829" lon="11.7028855"><ele>326.0</ele><time>2026-04-26T10:06:38.755Z</time></trkpt><trkpt lat="43.5594791" lon="11.70282"><ele>326.0</ele><time>2026-04-26T10:06:39.753Z</time></trkpt><trkpt lat="43.5595702" lon="11.7027457"><ele>326.4</ele><time>2026-04-26T10:06:40.753Z</time></trkpt><trkpt lat="43.5596485" lon="11.7026667"><ele>326.8</ele><time>2026-04-26T10:06:41.756Z</time></trkpt><trkpt lat="43.5597258" lon="11.7025994"><ele>327.2</ele><time>2026-04-26T10:06:42.753Z</time></trkpt><trkpt lat="43.5598048" lon="11.7025407"><ele>327.59999999999997</ele><time>2026-04-26T10:06:43.758Z</time></trkpt><trkpt lat="43.5598926" lon="11.7024909"><ele>328.0</ele><time>2026-04-26T10:06:44.76Z</time></trkpt><trkpt lat="43.5599903" lon="11.7024495"><ele>328.0</ele><time>2026-04-26T10:06:45.754Z</time></trkpt><trkpt lat="43.5600998" lon="11.7024077"><ele>328.0</ele><time>2026-04-26T10:06:46.753Z</time></trkpt><trkpt lat="43.5602106" lon="11.7023546"><ele>328.0</ele><time>2026-04-26T10:06:47.753Z</time></trkpt><trkpt lat="43.5603095" lon="11.702289"><ele>328.0</ele><time>2026-04-26T10:06:48.753Z</time></trkpt><trkpt lat="43.5604041" lon="11.7022151"><ele>328.0</ele><time>2026-04-26T10:06:49.753Z</time></trkpt><trkpt lat="43.560491" lon="11.7021427"><ele>328.4</ele><time>2026-04-26T10:06:50.754Z</time></trkpt><trkpt lat="43.5605706" lon="11.7020715"><ele>328.79999999999995</ele><time>2026-04-26T10:06:51.753Z</time></trkpt><trkpt lat="43.5606481" lon="11.7019929"><ele>329.2</ele><time>2026-04-26T10:06:52.753Z</time></trkpt><trkpt lat="43.5607302" lon="11.7019037"><ele>329.6</ele><time>2026-04-26T10:06:53.753Z</time></trkpt><trkpt lat="43.5607967" lon="11.7018147"><ele>330.0</ele><time>2026-04-26T10:06:54.753Z</time></trkpt><trkpt lat="43.560849" lon="11.7017237"><ele>330.1666666666667</ele><time>2026-04-26T10:06:55.754Z</time></trkpt><trkpt lat="43.5608816" lon="11.7016429"><ele>330.3333333333333</ele><time>2026-04-26T10:06:56.754Z</time></trkpt><trkpt lat="43.5609607" lon="11.7015139"><ele>330.5</ele><time>2026-04-26T10:06:58.754Z</time></trkpt><trkpt lat="43.5610176" lon="11.7014537"><ele>330.66666666666663</ele><time>2026-04-26T10:06:59.752Z</time></trkpt><trkpt lat="43.5610807" lon="11.7013903"><ele>330.8333333333333</ele><time>2026-04-26T10:07:00.752Z</time></trkpt><trkpt lat="43.5611501" lon="11.7013313"><ele>331.0</ele><time>2026-04-26T10:07:01.754Z</time></trkpt><trkpt lat="43.5612183" lon="11.7012838"><ele>331.66666666666663</ele><time>2026-04-26T10:07:02.754Z</time></trkpt><trkpt lat="43.5612779" lon="11.7012504"><ele>332.3333333333333</ele><time>2026-04-26T10:07:03.753Z</time></trkpt><trkpt lat="43.5613607" lon="11.7012174"><ele>333.0</ele><time>2026-04-26T10:07:05.753Z</time></trkpt><trkpt lat="43.5614239" lon="11.7012092"><ele>333.6666666666667</ele><time>2026-04-26T10:07:07.753Z</time></trkpt><trkpt lat="43.5615013" lon="11.7011916"><ele>334.33333333333337</ele><time>2026-04-26T10:07:09.753Z</time></trkpt><trkpt lat="43.5616101" lon="11.7011702"><ele>335.0</ele><time>2026-04-26T10:07:11.753Z</time></trkpt><trkpt lat="43.5617295" lon="11.7011302"><ele>335.0</ele><time>2026-04-26T10:07:13.753Z</time></trkpt><trkpt lat="43.5617865" lon="11.7010875"><ele>335.0</ele><time>2026-04-26T10:07:14.755Z</time></trkpt><trkpt lat="43.5618631" lon="11.7009834"><ele>335.0</ele><time>2026-04-26T10:07:16.754Z</time></trkpt><trkpt lat="43.5618641" lon="11.7008848"><ele>335.0</ele><time>2026-04-26T10:07:19.754Z</time></trkpt><trkpt lat="43.5617852" lon="11.7008455"><ele>335.0</ele><time>2026-04-26T10:07:22.753Z</time></trkpt><trkpt lat="43.561712" lon="11.7008644"><ele>335.0</ele><time>2026-04-26T10:07:24.754Z</time></trkpt><trkpt lat="43.561619" lon="11.7008754"><ele>336.0</ele><time>2026-04-26T10:07:26.754Z</time></trkpt><trkpt lat="43.561516" lon="11.7008906"><ele>337.0</ele><time>2026-04-26T10:07:28.754Z</time></trkpt><trkpt lat="43.5614303" lon="11.7008797"><ele>338.0</ele><time>2026-04-26T10:07:30.753Z</time></trkpt><trkpt lat="43.5613502" lon="11.7008295"><ele>339.0</ele><time>2026-04-26T10:07:32.753Z</time></trkpt><trkpt lat="43.5612879" lon="11.7007816"><ele>340.0</ele><time>2026-04-26T10:07:34.756Z</time></trkpt><trkpt lat="43.5613277" lon="11.700868"><ele>341.0</ele><time>2026-04-26T10:07:55.813Z</time></trkpt><trkpt lat="43.5614923" lon="11.7009101"><ele>341.0</ele><time>2026-04-26T10:08:01.797Z</time></trkpt><trkpt lat="43.5616236" lon="11.7008709"><ele>341.0</ele><time>2026-04-26T10:08:05.772Z</time></trkpt><trkpt lat="43.5617479" lon="11.7008575"><ele>341.0</ele><time>2026-04-26T10:08:10.786Z</time></trkpt><trkpt lat="43.5618025" lon="11.700903"><ele>341.0</ele><time>2026-04-26T10:08:20.836Z</time></trkpt><trkpt lat="43.5618078" lon="11.7010133"><ele>341.0</ele><time>2026-04-26T10:08:23.799Z</time></trkpt><trkpt lat="43.5617258" lon="11.7010854"><ele>339.8</ele><time>2026-04-26T10:08:56.673Z</time></trkpt><trkpt lat="43.5616058" lon="11.7011347"><ele>338.6</ele><time>2026-04-26T10:08:57.753Z</time></trkpt><trkpt lat="43.5615228" lon="11.70116"><ele>337.4</ele><time>2026-04-26T10:08:58.753Z</time></trkpt><trkpt lat="43.5614502" lon="11.7011853"><ele>336.2</ele><time>2026-04-26T10:08:59.754Z</time></trkpt><trkpt lat="43.561366" lon="11.7012163"><ele>335.0</ele><time>2026-04-26T10:09:00.753Z</time></trkpt><trkpt lat="43.5612852" lon="11.7012466"><ele>335.0</ele><time>2026-04-26T10:09:01.753Z</time></trkpt><trkpt lat="43.5612106" lon="11.7012791"><ele>335.0</ele><time>2026-04-26T10:09:02.758Z</time></trkpt><trkpt lat="43.5611402" lon="11.7013204"><ele>335.0</ele><time>2026-04-26T10:09:03.753Z</time></trkpt><trkpt lat="43.5610778" lon="11.7013693"><ele>335.0</ele><time>2026-04-26T10:09:04.753Z</time></trkpt><trkpt lat="43.5610206" lon="11.7014289"><ele>335.0</ele><time>2026-04-26T10:09:05.754Z</time></trkpt><trkpt lat="43.5609675" lon="11.701482"><ele>335.0</ele><time>2026-04-26T10:09:06.754Z</time></trkpt><trkpt lat="43.5608741" lon="11.7015902"><ele>334.4285714285714</ele><time>2026-04-26T10:09:08.755Z</time></trkpt><trkpt lat="43.5608345" lon="11.7016602"><ele>333.85714285714283</ele><time>2026-04-26T10:09:09.754Z</time></trkpt><trkpt lat="43.5607967" lon="11.7017451"><ele>333.2857142857143</ele><time>2026-04-26T10:09:10.754Z</time></trkpt><trkpt lat="43.5607644" lon="11.7018345"><ele>332.71428571428567</ele><time>2026-04-26T10:09:11.754Z</time></trkpt><trkpt lat="43.5607309" lon="11.7019207"><ele>332.1428571428571</ele><time>2026-04-26T10:09:12.754Z</time></trkpt><trkpt lat="43.5606791" lon="11.7019992"><ele>331.57142857142856</ele><time>2026-04-26T10:09:13.753Z</time></trkpt><trkpt lat="43.5606088" lon="11.7020778"><ele>331.0</ele><time>2026-04-26T10:09:14.754Z</time></trkpt><trkpt lat="43.5605247" lon="11.7021536"><ele>330.8</ele><time>2026-04-26T10:09:15.754Z</time></trkpt><trkpt lat="43.5604364" lon="11.7022266"><ele>330.6</ele><time>2026-04-26T10:09:16.753Z</time></trkpt><trkpt lat="43.5603528" lon="11.7022917"><ele>330.4</ele><time>2026-04-26T10:09:17.754Z</time></trkpt><trkpt lat="43.5602699" lon="11.7023484"><ele>330.2</ele><time>2026-04-26T10:09:18.753Z</time></trkpt><trkpt lat="43.5601842" lon="11.7023996"><ele>330.0</ele><time>2026-04-26T10:09:19.753Z</time></trkpt><trkpt lat="43.5600916" lon="11.702438"><ele>329.6666666666667</ele><time>2026-04-26T10:09:20.753Z</time></trkpt><trkpt lat="43.5600029" lon="11.7024734"><ele>329.3333333333333</ele><time>2026-04-26T10:09:21.754Z</time></trkpt><trkpt lat="43.5599182" lon="11.7025132"><ele>329.0</ele><time>2026-04-26T10:09:22.753Z</time></trkpt><trkpt lat="43.5598424" lon="11.7025527"><ele>328.66666666666663</ele><time>2026-04-26T10:09:23.754Z</time></trkpt><trkpt lat="43.5597656" lon="11.7025896"><ele>328.3333333333333</ele><time>2026-04-26T10:09:24.753Z</time></trkpt><trkpt lat="43.5596894" lon="11.7026326"><ele>328.0</ele><time>2026-04-26T10:09:25.753Z</time></trkpt><trkpt lat="43.5596209" lon="11.702682"><ele>328.0</ele><time>2026-04-26T10:09:26.756Z</time></trkpt><trkpt lat="43.5595518" lon="11.7027458"><ele>328.0</ele><time>2026-04-26T10:09:27.754Z</time></trkpt><trkpt lat="43.5594757" lon="11.7028149"><ele>328.0</ele><time>2026-04-26T10:09:28.753Z</time></trkpt><trkpt lat="43.5593844" lon="11.7028768"><ele>328.0</ele><time>2026-04-26T10:09:29.754Z</time></trkpt><trkpt lat="43.5592891" lon="11.7029372"><ele>328.0</ele><time>2026-04-26T10:09:30.753Z</time></trkpt><trkpt lat="43.5591955" lon="11.7029992"><ele>327.59999999999997</ele><time>2026-04-26T10:09:31.753Z</time></trkpt><trkpt lat="43.5591082" lon="11.7030597"><ele>327.2</ele><time>2026-04-26T10:09:32.754Z</time></trkpt><trkpt lat="43.5590272" lon="11.703109"><ele>326.8</ele><time>2026-04-26T10:09:33.753Z</time></trkpt><trkpt lat="43.5589569" lon="11.7031476"><ele>326.4</ele><time>2026-04-26T10:09:34.752Z</time></trkpt><trkpt lat="43.5588581" lon="11.7032083"><ele>326.0</ele><time>2026-04-26T10:09:36.753Z</time></trkpt><trkpt lat="43.5587829" lon="11.7032685"><ele>324.8</ele><time>2026-04-26T10:09:38.754Z</time></trkpt><trkpt lat="43.5586984" lon="11.703327"><ele>323.6</ele><time>2026-04-26T10:09:40.756Z</time></trkpt><trkpt lat="43.5585806" lon="11.7033641"><ele>322.4</ele><time>2026-04-26T10:09:42.753Z</time></trkpt><trkpt lat="43.5584659" lon="11.7033448"><ele>321.2</ele><time>2026-04-26T10:09:44.755Z</time></trkpt><trkpt lat="43.5583958" lon="11.7033083"><ele>320.0</ele><time>2026-04-26T10:09:46.753Z</time></trkpt><trkpt lat="43.5583388" lon="11.703364"><ele>320.0</ele><time>2026-04-26T10:09:49.754Z</time></trkpt><trkpt lat="43.5583112" lon="11.703464"><ele>320.0</ele><time>2026-04-26T10:09:51.753Z</time></trkpt><trkpt lat="43.5582759" lon="11.7036103"><ele>320.0</ele><time>2026-04-26T10:09:53.754Z</time></trkpt><trkpt lat="43.5582419" lon="11.7037216"><ele>320.0</ele><time>2026-04-26T10:09:55.755Z</time></trkpt><trkpt lat="43.5583182" lon="11.7038026"><ele>320.0</ele><time>2026-04-26T10:09:59.753Z</time></trkpt><trkpt lat="43.5584378" lon="11.7038265"><ele>320.83333333333337</ele><time>2026-04-26T10:10:01.754Z</time></trkpt><trkpt lat="43.5585077" lon="11.7038479"><ele>321.6666666666667</ele><time>2026-04-26T10:10:02.754Z</time></trkpt><trkpt lat="43.5585834" lon="11.7038713"><ele>322.5</ele><time>2026-04-26T10:10:03.753Z</time></trkpt><trkpt lat="43.5586667" lon="11.7038961"><ele>323.3333333333333</ele><time>2026-04-26T10:10:04.756Z</time></trkpt><trkpt lat="43.5587566" lon="11.7039167"><ele>324.16666666666663</ele><time>2026-04-26T10:10:05.753Z</time></trkpt><trkpt lat="43.558852" lon="11.7039382"><ele>325.0</ele><time>2026-04-26T10:10:06.753Z</time></trkpt><trkpt lat="43.5589479" lon="11.7039617"><ele>325.8</ele><time>2026-04-26T10:10:07.754Z</time></trkpt><trkpt lat="43.5590435" lon="11.7039865"><ele>326.6</ele><time>2026-04-26T10:10:08.754Z</time></trkpt><trkpt lat="43.5591424" lon="11.7040144"><ele>327.4</ele><time>2026-04-26T10:10:09.755Z</time></trkpt><trkpt lat="43.5592447" lon="11.7040449"><ele>328.2</ele><time>2026-04-26T10:10:10.754Z</time></trkpt><trkpt lat="43.5593542" lon="11.7040786"><ele>329.0</ele><time>2026-04-26T10:10:11.754Z</time></trkpt><trkpt lat="43.5594734" lon="11.704115"><ele>330.5</ele><time>2026-04-26T10:10:12.754Z</time></trkpt><trkpt lat="43.5596024" lon="11.704155"><ele>332.0</ele><time>2026-04-26T10:10:13.755Z</time></trkpt><trkpt lat="43.5597363" lon="11.7041979"><ele>333.5</ele><time>2026-04-26T10:10:14.754Z</time></trkpt><trkpt lat="43.5598744" lon="11.7042423"><ele>335.0</ele><time>2026-04-26T10:10:15.754Z</time></trkpt><trkpt lat="43.5600104" lon="11.7042849"><ele>335.0</ele><time>2026-04-26T10:10:16.754Z</time></trkpt><trkpt lat="43.5601385" lon="11.7043196"><ele>335.0</ele><time>2026-04-26T10:10:17.754Z</time></trkpt><trkpt lat="43.560262" lon="11.7043453"><ele>335.0</ele><time>2026-04-26T10:10:18.753Z</time></trkpt><trkpt lat="43.560384" lon="11.7043552"><ele>335.0</ele><time>2026-04-26T10:10:19.756Z</time></trkpt><trkpt lat="43.5605026" lon="11.7043403"><ele>336.25</ele><time>2026-04-26T10:10:20.754Z</time></trkpt><trkpt lat="43.5606193" lon="11.7042917"><ele>337.5</ele><time>2026-04-26T10:10:21.753Z</time></trkpt><trkpt lat="43.56073" lon="11.7042093"><ele>338.75</ele><time>2026-04-26T10:10:22.753Z</time></trkpt><trkpt lat="43.5608364" lon="11.7041091"><ele>340.0</ele><time>2026-04-26T10:10:23.754Z</time></trkpt><trkpt lat="43.560943" lon="11.7040026"><ele>340.0</ele><time>2026-04-26T10:10:24.754Z</time></trkpt><trkpt lat="43.5610513" lon="11.7038932"><ele>340.0</ele><time>2026-04-26T10:10:25.754Z</time></trkpt><trkpt lat="43.5611623" lon="11.703786"><ele>340.0</ele><time>2026-04-26T10:10:26.754Z</time></trkpt><trkpt lat="43.5612744" lon="11.7036844"><ele>340.0</ele><time>2026-04-26T10:10:27.753Z</time></trkpt><trkpt lat="43.5613906" lon="11.7035889"><ele>341.5</ele><time>2026-04-26T10:10:28.753Z</time></trkpt><trkpt lat="43.5615143" lon="11.7035028"><ele>343.0</ele><time>2026-04-26T10:10:29.753Z</time></trkpt><trkpt lat="43.5616375" lon="11.7034258"><ele>344.5</ele><time>2026-04-26T10:10:30.753Z</time></trkpt><trkpt lat="43.561751" lon="11.7033604"><ele>346.0</ele><time>2026-04-26T10:10:31.754Z</time></trkpt><trkpt lat="43.5618589" lon="11.7033"><ele>346.0</ele><time>2026-04-26T10:10:32.754Z</time></trkpt><trkpt lat="43.5619689" lon="11.703243"><ele>346.0</ele><time>2026-04-26T10:10:33.753Z</time></trkpt><trkpt lat="43.5620831" lon="11.7031865"><ele>346.0</ele><time>2026-04-26T10:10:34.754Z</time></trkpt><trkpt lat="43.5622022" lon="11.7031281"><ele>346.0</ele><time>2026-04-26T10:10:35.753Z</time></trkpt><trkpt lat="43.5623183" lon="11.703046"><ele>347.0</ele><time>2026-04-26T10:10:36.755Z</time></trkpt><trkpt lat="43.562429" lon="11.7029356"><ele>348.0</ele><time>2026-04-26T10:10:37.753Z</time></trkpt><trkpt lat="43.5625377" lon="11.7028107"><ele>349.0</ele><time>2026-04-26T10:10:38.754Z</time></trkpt><trkpt lat="43.5626431" lon="11.7026841"><ele>350.0</ele><time>2026-04-26T10:10:39.753Z</time></trkpt><trkpt lat="43.562747" lon="11.7025571"><ele>350.0</ele><time>2026-04-26T10:10:40.754Z</time></trkpt><trkpt lat="43.5628464" lon="11.7024331"><ele>350.0</ele><time>2026-04-26T10:10:41.753Z</time></trkpt><trkpt lat="43.562938" lon="11.702318"><ele>350.0</ele><time>2026-04-26T10:10:42.753Z</time></trkpt><trkpt lat="43.5630283" lon="11.702209"><ele>350.0</ele><time>2026-04-26T10:10:43.753Z</time></trkpt><trkpt lat="43.5631277" lon="11.7020959"><ele>351.5</ele><time>2026-04-26T10:10:44.754Z</time></trkpt><trkpt lat="43.5632393" lon="11.7019883"><ele>353.0</ele><time>2026-04-26T10:10:45.753Z</time></trkpt><trkpt lat="43.563353" lon="11.7018817"><ele>354.5</ele><time>2026-04-26T10:10:46.753Z</time></trkpt><trkpt lat="43.5634723" lon="11.701774"><ele>356.0</ele><time>2026-04-26T10:10:47.752Z</time></trkpt><trkpt lat="43.5635984" lon="11.70168"><ele>358.75</ele><time>2026-04-26T10:10:48.755Z</time></trkpt><trkpt lat="43.5637286" lon="11.7015925"><ele>361.5</ele><time>2026-04-26T10:10:49.754Z</time></trkpt><trkpt lat="43.5638602" lon="11.7015162"><ele>364.25</ele><time>2026-04-26T10:10:50.754Z</time></trkpt><trkpt lat="43.5639971" lon="11.7014554"><ele>367.0</ele><time>2026-04-26T10:10:51.754Z</time></trkpt><trkpt lat="43.5641394" lon="11.7014149"><ele>367.0</ele><time>2026-04-26T10:10:52.754Z</time></trkpt><trkpt lat="43.5642863" lon="11.7013941"><ele>367.0</ele><time>2026-04-26T10:10:53.754Z</time></trkpt><trkpt lat="43.5644353" lon="11.701384"><ele>367.0</ele><time>2026-04-26T10:10:54.753Z</time></trkpt><trkpt lat="43.5645841" lon="11.7013786"><ele>367.0</ele><time>2026-04-26T10:10:55.753Z</time></trkpt><trkpt lat="43.5647321" lon="11.7013715"><ele>369.0</ele><time>2026-04-26T10:10:56.753Z</time></trkpt><trkpt lat="43.5648772" lon="11.7013637"><ele>371.0</ele><time>2026-04-26T10:10:57.755Z</time></trkpt><trkpt lat="43.5650242" lon="11.7013555"><ele>373.0</ele><time>2026-04-26T10:10:58.754Z</time></trkpt><trkpt lat="43.5651757" lon="11.701346"><ele>375.0</ele><time>2026-04-26T10:10:59.753Z</time></trkpt><trkpt lat="43.5653312" lon="11.7013316"><ele>377.3333333333333</ele><time>2026-04-26T10:11:00.753Z</time></trkpt><trkpt lat="43.5654838" lon="11.7013215"><ele>379.66666666666663</ele><time>2026-04-26T10:11:01.753Z</time></trkpt><trkpt lat="43.5656371" lon="11.7013071"><ele>382.0</ele><time>2026-04-26T10:11:02.753Z</time></trkpt><trkpt lat="43.5657898" lon="11.7012967"><ele>382.0</ele><time>2026-04-26T10:11:03.756Z</time></trkpt><trkpt lat="43.5659396" lon="11.7012979"><ele>382.0</ele><time>2026-04-26T10:11:04.753Z</time></trkpt><trkpt lat="43.5660929" lon="11.7013155"><ele>382.0</ele><time>2026-04-26T10:11:05.753Z</time></trkpt><trkpt lat="43.566248" lon="11.7013463"><ele>384.66666666666663</ele><time>2026-04-26T10:11:06.754Z</time></trkpt><trkpt lat="43.5664029" lon="11.7013853"><ele>387.3333333333333</ele><time>2026-04-26T10:11:07.753Z</time></trkpt><trkpt lat="43.5665562" lon="11.7014283"><ele>390.0</ele><time>2026-04-26T10:11:08.754Z</time></trkpt><trkpt lat="43.5667061" lon="11.7014761"><ele>390.0</ele><time>2026-04-26T10:11:09.755Z</time></trkpt><trkpt lat="43.5668563" lon="11.7015206"><ele>390.0</ele><time>2026-04-26T10:11:10.754Z</time></trkpt><trkpt lat="43.5670084" lon="11.7015551"><ele>390.0</ele><time>2026-04-26T10:11:11.753Z</time></trkpt><trkpt lat="43.5671619" lon="11.7015771"><ele>391.33333333333337</ele><time>2026-04-26T10:11:12.755Z</time></trkpt><trkpt lat="43.5673189" lon="11.7015939"><ele>392.6666666666667</ele><time>2026-04-26T10:11:13.753Z</time></trkpt><trkpt lat="43.5674816" lon="11.7016215"><ele>394.0</ele><time>2026-04-26T10:11:14.758Z</time></trkpt><trkpt lat="43.5676437" lon="11.7016566"><ele>394.0</ele><time>2026-04-26T10:11:15.753Z</time></trkpt><trkpt lat="43.567808" lon="11.7017012"><ele>394.0</ele><time>2026-04-26T10:11:16.753Z</time></trkpt><trkpt lat="43.5679766" lon="11.7017651"><ele>394.0</ele><time>2026-04-26T10:11:17.753Z</time></trkpt><trkpt lat="43.5681423" lon="11.7018473"><ele>400.6666666666667</ele><time>2026-04-26T10:11:18.754Z</time></trkpt><trkpt lat="43.5682989" lon="11.7019447"><ele>407.33333333333337</ele><time>2026-04-26T10:11:19.753Z</time></trkpt><trkpt lat="43.5684362" lon="11.7020369"><ele>414.0</ele><time>2026-04-26T10:11:20.754Z</time></trkpt><trkpt lat="43.568554" lon="11.7021215"><ele>414.0</ele><time>2026-04-26T10:11:21.753Z</time></trkpt><trkpt lat="43.5686584" lon="11.7021896"><ele>414.0</ele><time>2026-04-26T10:11:22.753Z</time></trkpt><trkpt lat="43.5687527" lon="11.7022253"><ele>414.0</ele><time>2026-04-26T10:11:23.754Z</time></trkpt><trkpt lat="43.568839" lon="11.7022165"><ele>414.0</ele><time>2026-04-26T10:11:24.753Z</time></trkpt><trkpt lat="43.5689186" lon="11.7021544"><ele>414.0</ele><time>2026-04-26T10:11:25.753Z</time></trkpt><trkpt lat="43.5689747" lon="11.7020389"><ele>414.5</ele><time>2026-04-26T10:11:26.756Z</time></trkpt><trkpt lat="43.569002" lon="11.7019009"><ele>415.0</ele><time>2026-04-26T10:11:27.754Z</time></trkpt><trkpt lat="43.5689876" lon="11.7017501"><ele>415.5</ele><time>2026-04-26T10:11:28.753Z</time></trkpt><trkpt lat="43.5689221" lon="11.7015876"><ele>416.0</ele><time>2026-04-26T10:11:29.753Z</time></trkpt><trkpt lat="43.5688193" lon="11.7014216"><ele>416.0</ele><time>2026-04-26T10:11:30.754Z</time></trkpt><trkpt lat="43.5687002" lon="11.7012581"><ele>416.0</ele><time>2026-04-26T10:11:31.754Z</time></trkpt><trkpt lat="43.5685851" lon="11.7010877"><ele>416.0</ele><time>2026-04-26T10:11:32.754Z</time></trkpt><trkpt lat="43.5684862" lon="11.7009147"><ele>414.25</ele><time>2026-04-26T10:11:33.753Z</time></trkpt><trkpt lat="43.5684035" lon="11.7007596"><ele>412.5</ele><time>2026-04-26T10:11:34.753Z</time></trkpt><trkpt lat="43.5683347" lon="11.7006198"><ele>410.75</ele><time>2026-04-26T10:11:35.753Z</time></trkpt><trkpt lat="43.5682786" lon="11.7004895"><ele>409.0</ele><time>2026-04-26T10:11:36.753Z</time></trkpt><trkpt lat="43.5682429" lon="11.7003706"><ele>409.0</ele><time>2026-04-26T10:11:37.753Z</time></trkpt><trkpt lat="43.5682317" lon="11.7002688"><ele>409.0</ele><time>2026-04-26T10:11:38.753Z</time></trkpt><trkpt lat="43.5682999" lon="11.7001444"><ele>409.0</ele><time>2026-04-26T10:11:40.753Z</time></trkpt><trkpt lat="43.5683798" lon="11.7001284"><ele>409.0</ele><time>2026-04-26T10:11:41.753Z</time></trkpt><trkpt lat="43.5684772" lon="11.700139"><ele>409.0</ele><time>2026-04-26T10:11:42.753Z</time></trkpt><trkpt lat="43.5686032" lon="11.7002104"><ele>412.0</ele><time>2026-04-26T10:11:43.754Z</time></trkpt><trkpt lat="43.5687296" lon="11.7003081"><ele>415.0</ele><time>2026-04-26T10:11:44.755Z</time></trkpt><trkpt lat="43.5688482" lon="11.7004037"><ele>418.0</ele><time>2026-04-26T10:11:45.753Z</time></trkpt><trkpt lat="43.568961" lon="11.7004944"><ele>421.0</ele><time>2026-04-26T10:11:46.754Z</time></trkpt><trkpt lat="43.5690737" lon="11.7005816"><ele>421.0</ele><time>2026-04-26T10:11:47.753Z</time></trkpt><trkpt lat="43.5691958" lon="11.7006666"><ele>421.0</ele><time>2026-04-26T10:11:48.753Z</time></trkpt><trkpt lat="43.5693285" lon="11.7007517"><ele>421.0</ele><time>2026-04-26T10:11:49.753Z</time></trkpt><trkpt lat="43.5694671" lon="11.7008333"><ele>421.0</ele><time>2026-04-26T10:11:50.755Z</time></trkpt><trkpt lat="43.5696078" lon="11.7009116"><ele>421.33333333333337</ele><time>2026-04-26T10:11:51.753Z</time></trkpt><trkpt lat="43.5697528" lon="11.7009937"><ele>421.66666666666663</ele><time>2026-04-26T10:11:52.754Z</time></trkpt><trkpt lat="43.5698956" lon="11.7010727"><ele>422.0</ele><time>2026-04-26T10:11:53.754Z</time></trkpt><trkpt lat="43.5700344" lon="11.7011354"><ele>424.5</ele><time>2026-04-26T10:11:54.753Z</time></trkpt><trkpt lat="43.5701711" lon="11.7011807"><ele>427.0</ele><time>2026-04-26T10:11:55.752Z</time></trkpt><trkpt lat="43.5703088" lon="11.7012147"><ele>429.5</ele><time>2026-04-26T10:11:56.754Z</time></trkpt><trkpt lat="43.5704448" lon="11.7012542"><ele>432.0</ele><time>2026-04-26T10:11:57.754Z</time></trkpt><trkpt lat="43.5705781" lon="11.7013136"><ele>433.0</ele><time>2026-04-26T10:11:58.753Z</time></trkpt><trkpt lat="43.5707045" lon="11.7013803"><ele>434.00000000000006</ele><time>2026-04-26T10:11:59.755Z</time></trkpt><trkpt lat="43.5708137" lon="11.7014393"><ele>435.00000000000006</ele><time>2026-04-26T10:12:00.753Z</time></trkpt><trkpt lat="43.5709123" lon="11.7014803"><ele>436.0</ele><time>2026-04-26T10:12:01.753Z</time></trkpt><trkpt lat="43.5710016" lon="11.7014869"><ele>437.0</ele><time>2026-04-26T10:12:02.754Z</time></trkpt><trkpt lat="43.5710775" lon="11.7014414"><ele>437.0</ele><time>2026-04-26T10:12:03.753Z</time></trkpt><trkpt lat="43.5711396" lon="11.7013502"><ele>437.00000000000006</ele><time>2026-04-26T10:12:04.754Z</time></trkpt><trkpt lat="43.5711911" lon="11.7012321"><ele>437.00000000000006</ele><time>2026-04-26T10:12:05.754Z</time></trkpt><trkpt lat="43.5712367" lon="11.7010988"><ele>437.0</ele><time>2026-04-26T10:12:06.753Z</time></trkpt><trkpt lat="43.5712785" lon="11.7009614"><ele>437.0</ele><time>2026-04-26T10:12:07.754Z</time></trkpt><trkpt lat="43.571309" lon="11.7008332"><ele>437.49999999999994</ele><time>2026-04-26T10:12:08.754Z</time></trkpt><trkpt lat="43.5713304" lon="11.7007164"><ele>438.0</ele><time>2026-04-26T10:12:09.754Z</time></trkpt><trkpt lat="43.5713462" lon="11.7006096"><ele>438.5</ele><time>2026-04-26T10:12:10.754Z</time></trkpt><trkpt lat="43.5713711" lon="11.7005049"><ele>439.0</ele><time>2026-04-26T10:12:11.754Z</time></trkpt><trkpt lat="43.5714098" lon="11.7004051"><ele>439.49999999999994</ele><time>2026-04-26T10:12:12.753Z</time></trkpt><trkpt lat="43.5714583" lon="11.7003128"><ele>440.0</ele><time>2026-04-26T10:12:13.755Z</time></trkpt><trkpt lat="43.5715145" lon="11.7002365"><ele>439.99999999999994</ele><time>2026-04-26T10:12:14.753Z</time></trkpt><trkpt lat="43.5715822" lon="11.7001818"><ele>440.0</ele><time>2026-04-26T10:12:15.752Z</time></trkpt><trkpt lat="43.5716558" lon="11.7001467"><ele>440.0</ele><time>2026-04-26T10:12:16.759Z</time></trkpt><trkpt lat="43.5717352" lon="11.7001358"><ele>440.0</ele><time>2026-04-26T10:12:17.754Z</time></trkpt><trkpt lat="43.5718183" lon="11.7001373"><ele>439.99999999999994</ele><time>2026-04-26T10:12:18.754Z</time></trkpt><trkpt lat="43.5719088" lon="11.7001463"><ele>440.0</ele><time>2026-04-26T10:12:19.755Z</time></trkpt><trkpt lat="43.5720045" lon="11.7001571"><ele>439.4</ele><time>2026-04-26T10:12:20.756Z</time></trkpt><trkpt lat="43.5721029" lon="11.700171"><ele>438.8</ele><time>2026-04-26T10:12:21.754Z</time></trkpt><trkpt lat="43.572204" lon="11.7001878"><ele>438.20000000000005</ele><time>2026-04-26T10:12:22.754Z</time></trkpt><trkpt lat="43.5723102" lon="11.700209"><ele>437.6</ele><time>2026-04-26T10:12:23.754Z</time></trkpt><trkpt lat="43.5724174" lon="11.700244"><ele>437.0</ele><time>2026-04-26T10:12:24.754Z</time></trkpt><trkpt lat="43.5725234" lon="11.7002934"><ele>440.20000000000005</ele><time>2026-04-26T10:12:25.758Z</time></trkpt><trkpt lat="43.5726238" lon="11.7003524"><ele>443.40000000000003</ele><time>2026-04-26T10:12:26.754Z</time></trkpt><trkpt lat="43.5727154" lon="11.7004172"><ele>446.59999999999997</ele><time>2026-04-26T10:12:27.753Z</time></trkpt><trkpt lat="43.5728082" lon="11.7004769"><ele>449.79999999999995</ele><time>2026-04-26T10:12:28.753Z</time></trkpt><trkpt lat="43.5729075" lon="11.7005203"><ele>453.0</ele><time>2026-04-26T10:12:29.755Z</time></trkpt><trkpt lat="43.5730096" lon="11.7005509"><ele>453.75</ele><time>2026-04-26T10:12:30.753Z</time></trkpt><trkpt lat="43.5731183" lon="11.7005711"><ele>454.5</ele><time>2026-04-26T10:12:31.754Z</time></trkpt><trkpt lat="43.5732342" lon="11.7005679"><ele>455.25</ele><time>2026-04-26T10:12:32.754Z</time></trkpt><trkpt lat="43.5733584" lon="11.7005392"><ele>456.0</ele><time>2026-04-26T10:12:33.753Z</time></trkpt><trkpt lat="43.5734873" lon="11.7004955"><ele>456.0</ele><time>2026-04-26T10:12:34.758Z</time></trkpt><trkpt lat="43.5736204" lon="11.700457"><ele>456.0</ele><time>2026-04-26T10:12:35.755Z</time></trkpt><trkpt lat="43.5737535" lon="11.7004373"><ele>456.0</ele><time>2026-04-26T10:12:36.753Z</time></trkpt><trkpt lat="43.5738925" lon="11.7004464"><ele>456.0</ele><time>2026-04-26T10:12:37.754Z</time></trkpt><trkpt lat="43.5740378" lon="11.7004731"><ele>457.75</ele><time>2026-04-26T10:12:38.755Z</time></trkpt><trkpt lat="43.5741853" lon="11.7004942"><ele>459.5</ele><time>2026-04-26T10:12:39.753Z</time></trkpt><trkpt lat="43.5743324" lon="11.700511"><ele>461.25</ele><time>2026-04-26T10:12:40.754Z</time></trkpt><trkpt lat="43.5744789" lon="11.7005235"><ele>463.0</ele><time>2026-04-26T10:12:41.754Z</time></trkpt><trkpt lat="43.5746288" lon="11.7005303"><ele>465.75</ele><time>2026-04-26T10:12:42.753Z</time></trkpt><trkpt lat="43.5747767" lon="11.7005287"><ele>468.5</ele><time>2026-04-26T10:12:43.756Z</time></trkpt><trkpt lat="43.574922" lon="11.700512"><ele>471.25</ele><time>2026-04-26T10:12:44.754Z</time></trkpt><trkpt lat="43.575068" lon="11.7004839"><ele>474.0</ele><time>2026-04-26T10:12:45.753Z</time></trkpt><trkpt lat="43.5752159" lon="11.7004501"><ele>475.75</ele><time>2026-04-26T10:12:46.753Z</time></trkpt><trkpt lat="43.5753576" lon="11.700422"><ele>477.5</ele><time>2026-04-26T10:12:47.754Z</time></trkpt><trkpt lat="43.5754845" lon="11.7003809"><ele>479.25</ele><time>2026-04-26T10:12:48.753Z</time></trkpt><trkpt lat="43.5755884" lon="11.7003016"><ele>481.0</ele><time>2026-04-26T10:12:49.755Z</time></trkpt><trkpt lat="43.5756648" lon="11.7001751"><ele>476.8</ele><time>2026-04-26T10:12:50.754Z</time></trkpt><trkpt lat="43.5757069" lon="11.7000181"><ele>472.6</ele><time>2026-04-26T10:12:51.754Z</time></trkpt><trkpt lat="43.5757331" lon="11.6998672"><ele>468.4</ele><time>2026-04-26T10:12:52.754Z</time></trkpt><trkpt lat="43.5757581" lon="11.6997336"><ele>464.2</ele><time>2026-04-26T10:12:53.755Z</time></trkpt><trkpt lat="43.5757901" lon="11.699617"><ele>460.0</ele><time>2026-04-26T10:12:54.753Z</time></trkpt><trkpt lat="43.5758317" lon="11.699508"><ele>459.2</ele><time>2026-04-26T10:12:55.757Z</time></trkpt><trkpt lat="43.5758908" lon="11.6994039"><ele>458.4</ele><time>2026-04-26T10:12:56.754Z</time></trkpt><trkpt lat="43.575965" lon="11.6993036"><ele>457.6</ele><time>2026-04-26T10:12:57.753Z</time></trkpt><trkpt lat="43.5760506" lon="11.6992002"><ele>456.8</ele><time>2026-04-26T10:12:58.756Z</time></trkpt><trkpt lat="43.5761474" lon="11.6990916"><ele>456.0</ele><time>2026-04-26T10:12:59.754Z</time></trkpt><trkpt lat="43.5762534" lon="11.6989795"><ele>458.5</ele><time>2026-04-26T10:13:00.753Z</time></trkpt><trkpt lat="43.5763627" lon="11.6988627"><ele>461.0</ele><time>2026-04-26T10:13:01.755Z</time></trkpt><trkpt lat="43.5764768" lon="11.6987489"><ele>463.5</ele><time>2026-04-26T10:13:02.754Z</time></trkpt><trkpt lat="43.5765937" lon="11.6986343"><ele>466.0</ele><time>2026-04-26T10:13:03.753Z</time></trkpt><trkpt lat="43.5767047" lon="11.6985129"><ele>466.0</ele><time>2026-04-26T10:13:04.754Z</time></trkpt><trkpt lat="43.576808" lon="11.6983816"><ele>466.0</ele><time>2026-04-26T10:13:05.753Z</time></trkpt><trkpt lat="43.5769019" lon="11.6982429"><ele>466.0</ele><time>2026-04-26T10:13:06.753Z</time></trkpt><trkpt lat="43.5769874" lon="11.6980991"><ele>466.0</ele><time>2026-04-26T10:13:07.752Z</time></trkpt><trkpt lat="43.5770741" lon="11.6979601"><ele>469.0</ele><time>2026-04-26T10:13:08.753Z</time></trkpt><trkpt lat="43.5771617" lon="11.6978292"><ele>472.0</ele><time>2026-04-26T10:13:09.758Z</time></trkpt><trkpt lat="43.5772535" lon="11.6977035"><ele>475.0</ele><time>2026-04-26T10:13:10.753Z</time></trkpt><trkpt lat="43.5773468" lon="11.6975798"><ele>478.0</ele><time>2026-04-26T10:13:11.753Z</time></trkpt><trkpt lat="43.5774458" lon="11.6974589"><ele>478.0</ele><time>2026-04-26T10:13:12.753Z</time></trkpt><trkpt lat="43.5775479" lon="11.6973446"><ele>478.0</ele><time>2026-04-26T10:13:13.754Z</time></trkpt><trkpt lat="43.5776505" lon="11.6972496"><ele>478.0</ele><time>2026-04-26T10:13:14.754Z</time></trkpt><trkpt lat="43.577767" lon="11.6971783"><ele>478.0</ele><time>2026-04-26T10:13:15.753Z</time></trkpt><trkpt lat="43.5779016" lon="11.6971366"><ele>483.33333333333337</ele><time>2026-04-26T10:13:16.754Z</time></trkpt><trkpt lat="43.5780499" lon="11.6971136"><ele>488.66666666666663</ele><time>2026-04-26T10:13:17.754Z</time></trkpt><trkpt lat="43.5782045" lon="11.6970937"><ele>494.0</ele><time>2026-04-26T10:13:18.756Z</time></trkpt><trkpt lat="43.5783591" lon="11.6970761"><ele>494.0</ele><time>2026-04-26T10:13:19.755Z</time></trkpt><trkpt lat="43.5785078" lon="11.6970586"><ele>494.0</ele><time>2026-04-26T10:13:20.754Z</time></trkpt><trkpt lat="43.5786502" lon="11.6970485"><ele>494.0</ele><time>2026-04-26T10:13:21.753Z</time></trkpt><trkpt lat="43.5787869" lon="11.697056"><ele>494.0</ele><time>2026-04-26T10:13:22.753Z</time></trkpt><trkpt lat="43.5789186" lon="11.6970941"><ele>493.75</ele><time>2026-04-26T10:13:23.754Z</time></trkpt><trkpt lat="43.5790432" lon="11.6971587"><ele>493.5</ele><time>2026-04-26T10:13:24.754Z</time></trkpt><trkpt lat="43.5791669" lon="11.6972447"><ele>493.25</ele><time>2026-04-26T10:13:25.753Z</time></trkpt><trkpt lat="43.5792956" lon="11.6973464"><ele>493.0</ele><time>2026-04-26T10:13:26.755Z</time></trkpt><trkpt lat="43.5794277" lon="11.6974607"><ele>497.6666666666667</ele><time>2026-04-26T10:13:27.756Z</time></trkpt><trkpt lat="43.5795665" lon="11.697585"><ele>502.33333333333337</ele><time>2026-04-26T10:13:28.753Z</time></trkpt><trkpt lat="43.5797021" lon="11.697713"><ele>507.0</ele><time>2026-04-26T10:13:29.753Z</time></trkpt><trkpt lat="43.5798244" lon="11.6978339"><ele>507.0</ele><time>2026-04-26T10:13:30.753Z</time></trkpt><trkpt lat="43.5799343" lon="11.6979506"><ele>507.0</ele><time>2026-04-26T10:13:31.754Z</time></trkpt><trkpt lat="43.5800476" lon="11.6980434"><ele>507.0</ele><time>2026-04-26T10:13:32.753Z</time></trkpt><trkpt lat="43.5801754" lon="11.6981016"><ele>507.0</ele><time>2026-04-26T10:13:33.753Z</time></trkpt><trkpt lat="43.5803087" lon="11.6981404"><ele>505.0</ele><time>2026-04-26T10:13:34.753Z</time></trkpt><trkpt lat="43.5804447" lon="11.6981755"><ele>503.0</ele><time>2026-04-26T10:13:35.753Z</time></trkpt><trkpt lat="43.580576" lon="11.6982046"><ele>501.0</ele><time>2026-04-26T10:13:36.753Z</time></trkpt><trkpt lat="43.580705" lon="11.6982268"><ele>499.0</ele><time>2026-04-26T10:13:37.754Z</time></trkpt><trkpt lat="43.5808381" lon="11.6982199"><ele>499.0</ele><time>2026-04-26T10:13:38.753Z</time></trkpt><trkpt lat="43.5809658" lon="11.6981775"><ele>499.0</ele><time>2026-04-26T10:13:39.753Z</time></trkpt><trkpt lat="43.5810866" lon="11.6981053"><ele>499.0</ele><time>2026-04-26T10:13:40.753Z</time></trkpt><trkpt lat="43.5811806" lon="11.6980082"><ele>499.0</ele><time>2026-04-26T10:13:41.753Z</time></trkpt><trkpt lat="43.581237" lon="11.697876"><ele>499.5</ele><time>2026-04-26T10:13:42.753Z</time></trkpt><trkpt lat="43.5812506" lon="11.6977066"><ele>500.0</ele><time>2026-04-26T10:13:43.753Z</time></trkpt><trkpt lat="43.5812197" lon="11.6975186"><ele>500.5</ele><time>2026-04-26T10:13:44.753Z</time></trkpt><trkpt lat="43.5811568" lon="11.6973289"><ele>501.0</ele><time>2026-04-26T10:13:45.753Z</time></trkpt><trkpt lat="43.5810658" lon="11.6971503"><ele>497.0</ele><time>2026-04-26T10:13:46.753Z</time></trkpt><trkpt lat="43.5809489" lon="11.6969863"><ele>493.0</ele><time>2026-04-26T10:13:47.753Z</time></trkpt><trkpt lat="43.5808183" lon="11.6968386"><ele>489.0</ele><time>2026-04-26T10:13:48.754Z</time></trkpt><trkpt lat="43.5806778" lon="11.696698"><ele>489.0</ele><time>2026-04-26T10:13:49.754Z</time></trkpt><trkpt lat="43.5805269" lon="11.6965513"><ele>489.0</ele><time>2026-04-26T10:13:50.754Z</time></trkpt><trkpt lat="43.5803785" lon="11.6964066"><ele>489.0</ele><time>2026-04-26T10:13:51.757Z</time></trkpt><trkpt lat="43.5802434" lon="11.6962697"><ele>489.66666666666663</ele><time>2026-04-26T10:13:52.753Z</time></trkpt><trkpt lat="43.5801217" lon="11.6961219"><ele>490.3333333333333</ele><time>2026-04-26T10:13:53.754Z</time></trkpt><trkpt lat="43.5800198" lon="11.6959598"><ele>491.0</ele><time>2026-04-26T10:13:54.754Z</time></trkpt><trkpt lat="43.5799393" lon="11.6957913"><ele>491.0</ele><time>2026-04-26T10:13:55.754Z</time></trkpt><trkpt lat="43.5798858" lon="11.6956193"><ele>491.0</ele><time>2026-04-26T10:13:56.754Z</time></trkpt><trkpt lat="43.5798692" lon="11.6954428"><ele>491.0</ele><time>2026-04-26T10:13:57.754Z</time></trkpt><trkpt lat="43.5798915" lon="11.695261"><ele>491.0</ele><time>2026-04-26T10:13:58.753Z</time></trkpt><trkpt lat="43.57994" lon="11.6950771"><ele>494.0</ele><time>2026-04-26T10:13:59.753Z</time></trkpt><trkpt lat="43.5799885" lon="11.6948897"><ele>497.0</ele><time>2026-04-26T10:14:00.753Z</time></trkpt><trkpt lat="43.5800105" lon="11.6947075"><ele>500.0</ele><time>2026-04-26T10:14:01.753Z</time></trkpt><trkpt lat="43.5799815" lon="11.6945473"><ele>503.0</ele><time>2026-04-26T10:14:02.754Z</time></trkpt><trkpt lat="43.5799007" lon="11.6944193"><ele>502.0</ele><time>2026-04-26T10:14:03.754Z</time></trkpt><trkpt lat="43.5797817" lon="11.694339"><ele>501.0</ele><time>2026-04-26T10:14:04.754Z</time></trkpt><trkpt lat="43.5796284" lon="11.6943177"><ele>500.0</ele><time>2026-04-26T10:14:05.754Z</time></trkpt><trkpt lat="43.5794716" lon="11.6943107"><ele>499.0</ele><time>2026-04-26T10:14:06.754Z</time></trkpt><trkpt lat="43.5793369" lon="11.6942708"><ele>499.0</ele><time>2026-04-26T10:14:07.754Z</time></trkpt><trkpt lat="43.5792357" lon="11.6941825"><ele>499.0</ele><time>2026-04-26T10:14:08.754Z</time></trkpt><trkpt lat="43.5791797" lon="11.6940512"><ele>499.0</ele><time>2026-04-26T10:14:09.754Z</time></trkpt><trkpt lat="43.5791631" lon="11.6938959"><ele>499.0</ele><time>2026-04-26T10:14:10.755Z</time></trkpt><trkpt lat="43.579195" lon="11.6937467"><ele>499.0</ele><time>2026-04-26T10:14:11.754Z</time></trkpt><trkpt lat="43.5792784" lon="11.693619"><ele>499.0</ele><time>2026-04-26T10:14:12.753Z</time></trkpt><trkpt lat="43.5794093" lon="11.6935152"><ele>499.0</ele><time>2026-04-26T10:14:13.753Z</time></trkpt><trkpt lat="43.5795705" lon="11.6934273"><ele>499.0</ele><time>2026-04-26T10:14:14.759Z</time></trkpt><trkpt lat="43.5797304" lon="11.693343"><ele>504.6666666666667</ele><time>2026-04-26T10:14:15.754Z</time></trkpt><trkpt lat="43.579884" lon="11.6932593"><ele>510.33333333333337</ele><time>2026-04-26T10:14:16.753Z</time></trkpt><trkpt lat="43.580026" lon="11.6931707"><ele>516.0</ele><time>2026-04-26T10:14:17.754Z</time></trkpt><trkpt lat="43.5801543" lon="11.6930697"><ele>516.0</ele><time>2026-04-26T10:14:18.753Z</time></trkpt><trkpt lat="43.5802726" lon="11.6929533"><ele>516.0</ele><time>2026-04-26T10:14:19.753Z</time></trkpt><trkpt lat="43.5803815" lon="11.6928234"><ele>516.0</ele><time>2026-04-26T10:14:20.754Z</time></trkpt><trkpt lat="43.5804806" lon="11.6926802"><ele>516.0</ele><time>2026-04-26T10:14:21.754Z</time></trkpt><trkpt lat="43.5805751" lon="11.6925293"><ele>518.5</ele><time>2026-04-26T10:14:22.757Z</time></trkpt><trkpt lat="43.5806648" lon="11.6923715"><ele>521.0</ele><time>2026-04-26T10:14:23.753Z</time></trkpt><trkpt lat="43.5807512" lon="11.6922162"><ele>523.5</ele><time>2026-04-26T10:14:24.753Z</time></trkpt><trkpt lat="43.5808344" lon="11.6920653"><ele>526.0</ele><time>2026-04-26T10:14:25.753Z</time></trkpt><trkpt lat="43.5809187" lon="11.6919236"><ele>524.25</ele><time>2026-04-26T10:14:26.755Z</time></trkpt><trkpt lat="43.5810046" lon="11.691788"><ele>522.5</ele><time>2026-04-26T10:14:27.753Z</time></trkpt><trkpt lat="43.5810924" lon="11.691663"><ele>520.75</ele><time>2026-04-26T10:14:28.753Z</time></trkpt><trkpt lat="43.5811861" lon="11.691547"><ele>519.0</ele><time>2026-04-26T10:14:29.754Z</time></trkpt><trkpt lat="43.5812814" lon="11.6914447"><ele>524.0</ele><time>2026-04-26T10:14:30.754Z</time></trkpt><trkpt lat="43.5813729" lon="11.6913513"><ele>529.0</ele><time>2026-04-26T10:14:31.754Z</time></trkpt><trkpt lat="43.5814643" lon="11.6912563"><ele>534.0</ele><time>2026-04-26T10:14:32.756Z</time></trkpt><trkpt lat="43.5815503" lon="11.6911549"><ele>539.0</ele><time>2026-04-26T10:14:33.753Z</time></trkpt><trkpt lat="43.5816267" lon="11.6910339"><ele>539.0</ele><time>2026-04-26T10:14:34.754Z</time></trkpt><trkpt lat="43.5816843" lon="11.690884"><ele>539.0</ele><time>2026-04-26T10:14:35.754Z</time></trkpt><trkpt lat="43.581716" lon="11.6907051"><ele>539.0</ele><time>2026-04-26T10:14:36.753Z</time></trkpt><trkpt lat="43.5817102" lon="11.690521"><ele>539.0</ele><time>2026-04-26T10:14:37.753Z</time></trkpt><trkpt lat="43.5816683" lon="11.6903578"><ele>543.25</ele><time>2026-04-26T10:14:38.756Z</time></trkpt><trkpt lat="43.5815895" lon="11.6902293"><ele>547.5</ele><time>2026-04-26T10:14:39.753Z</time></trkpt><trkpt lat="43.5814844" lon="11.6901194"><ele>551.75</ele><time>2026-04-26T10:14:40.753Z</time></trkpt><trkpt lat="43.5813675" lon="11.6900135"><ele>556.0</ele><time>2026-04-26T10:14:41.753Z</time></trkpt><trkpt lat="43.5812552" lon="11.6898998"><ele>551.25</ele><time>2026-04-26T10:14:42.753Z</time></trkpt><trkpt lat="43.5811527" lon="11.6897647"><ele>546.5</ele><time>2026-04-26T10:14:43.754Z</time></trkpt><trkpt lat="43.5810695" lon="11.6895995"><ele>541.75</ele><time>2026-04-26T10:14:44.754Z</time></trkpt><trkpt lat="43.580997" lon="11.6894111"><ele>537.0</ele><time>2026-04-26T10:14:45.753Z</time></trkpt><trkpt lat="43.5809322" lon="11.689206"><ele>537.0</ele><time>2026-04-26T10:14:46.753Z</time></trkpt><trkpt lat="43.5808781" lon="11.6889908"><ele>537.0</ele><time>2026-04-26T10:14:47.755Z</time></trkpt><trkpt lat="43.5808418" lon="11.6887774"><ele>537.0</ele><time>2026-04-26T10:14:48.754Z</time></trkpt><trkpt lat="43.5808298" lon="11.6885691"><ele>537.5</ele><time>2026-04-26T10:14:49.753Z</time></trkpt><trkpt lat="43.5808398" lon="11.6883654"><ele>538.0</ele><time>2026-04-26T10:14:50.753Z</time></trkpt><trkpt lat="43.5808632" lon="11.6881691"><ele>538.5</ele><time>2026-04-26T10:14:51.754Z</time></trkpt><trkpt lat="43.5808974" lon="11.6879757"><ele>539.0</ele><time>2026-04-26T10:14:52.753Z</time></trkpt><trkpt lat="43.5809426" lon="11.687783"><ele>538.0</ele><time>2026-04-26T10:14:53.753Z</time></trkpt><trkpt lat="43.5809905" lon="11.6875924"><ele>537.0</ele><time>2026-04-26T10:14:54.753Z</time></trkpt><trkpt lat="43.581036" lon="11.6873999"><ele>536.0</ele><time>2026-04-26T10:14:55.754Z</time></trkpt><trkpt lat="43.5810839" lon="11.6872144"><ele>535.0</ele><time>2026-04-26T10:14:56.753Z</time></trkpt><trkpt lat="43.5811378" lon="11.6870472"><ele>538.75</ele><time>2026-04-26T10:14:57.753Z</time></trkpt><trkpt lat="43.5812125" lon="11.6868959"><ele>542.5</ele><time>2026-04-26T10:14:58.754Z</time></trkpt><trkpt lat="43.5813182" lon="11.6867789"><ele>546.25</ele><time>2026-04-26T10:14:59.754Z</time></trkpt><trkpt lat="43.581447" lon="11.6866963"><ele>550.0</ele><time>2026-04-26T10:15:00.754Z</time></trkpt><trkpt lat="43.5815885" lon="11.6866297"><ele>550.0</ele><time>2026-04-26T10:15:01.753Z</time></trkpt><trkpt lat="43.5817321" lon="11.6865647"><ele>550.0</ele><time>2026-04-26T10:15:02.753Z</time></trkpt><trkpt lat="43.5818727" lon="11.686497"><ele>550.0</ele><time>2026-04-26T10:15:03.753Z</time></trkpt><trkpt lat="43.582011" lon="11.6864262"><ele>550.0</ele><time>2026-04-26T10:15:04.761Z</time></trkpt><trkpt lat="43.5821479" lon="11.6863635"><ele>552.0</ele><time>2026-04-26T10:15:05.753Z</time></trkpt><trkpt lat="43.5822901" lon="11.6863068"><ele>554.0</ele><time>2026-04-26T10:15:06.753Z</time></trkpt><trkpt lat="43.582436" lon="11.6862667"><ele>556.0</ele><time>2026-04-26T10:15:07.755Z</time></trkpt><trkpt lat="43.5825836" lon="11.6862519"><ele>558.0</ele><time>2026-04-26T10:15:08.754Z</time></trkpt><trkpt lat="43.5827309" lon="11.6862547"><ele>558.75</ele><time>2026-04-26T10:15:09.754Z</time></trkpt><trkpt lat="43.5828721" lon="11.6862659"><ele>559.5</ele><time>2026-04-26T10:15:10.753Z</time></trkpt><trkpt lat="43.5830074" lon="11.6862829"><ele>560.25</ele><time>2026-04-26T10:15:11.754Z</time></trkpt><trkpt lat="43.5831385" lon="11.6863063"><ele>561.0</ele><time>2026-04-26T10:15:12.754Z</time></trkpt><trkpt lat="43.5832734" lon="11.686327"><ele>561.0</ele><time>2026-04-26T10:15:13.753Z</time></trkpt><trkpt lat="43.5834131" lon="11.6863492"><ele>561.0</ele><time>2026-04-26T10:15:14.754Z</time></trkpt><trkpt lat="43.5835571" lon="11.6863791"><ele>561.0</ele><time>2026-04-26T10:15:15.753Z</time></trkpt><trkpt lat="43.5837023" lon="11.6864089"><ele>561.0</ele><time>2026-04-26T10:15:16.753Z</time></trkpt><trkpt lat="43.5838465" lon="11.6864309"><ele>561.25</ele><time>2026-04-26T10:15:17.753Z</time></trkpt><trkpt lat="43.5839939" lon="11.6864489"><ele>561.5</ele><time>2026-04-26T10:15:18.754Z</time></trkpt><trkpt lat="43.5841372" lon="11.6864669"><ele>561.75</ele><time>2026-04-26T10:15:19.754Z</time></trkpt><trkpt lat="43.5842662" lon="11.6864898"><ele>562.0</ele><time>2026-04-26T10:15:20.756Z</time></trkpt><trkpt lat="43.5843841" lon="11.6865022"><ele>562.0</ele><time>2026-04-26T10:15:21.754Z</time></trkpt><trkpt lat="43.5844956" lon="11.6864848"><ele>562.0</ele><time>2026-04-26T10:15:22.754Z</time></trkpt><trkpt lat="43.5846097" lon="11.6864144"><ele>562.0</ele><time>2026-04-26T10:15:23.754Z</time></trkpt><trkpt lat="43.5847045" lon="11.6863"><ele>562.0</ele><time>2026-04-26T10:15:24.754Z</time></trkpt><trkpt lat="43.5847781" lon="11.686147"><ele>560.75</ele><time>2026-04-26T10:15:25.754Z</time></trkpt><trkpt lat="43.5848381" lon="11.6859763"><ele>559.5</ele><time>2026-04-26T10:15:26.754Z</time></trkpt><trkpt lat="43.5848898" lon="11.6858123"><ele>558.25</ele><time>2026-04-26T10:15:27.754Z</time></trkpt><trkpt lat="43.5849375" lon="11.6856664"><ele>557.0</ele><time>2026-04-26T10:15:28.754Z</time></trkpt><trkpt lat="43.5849753" lon="11.6855399"><ele>557.0</ele><time>2026-04-26T10:15:29.754Z</time></trkpt><trkpt lat="43.5850052" lon="11.6854306"><ele>557.0</ele><time>2026-04-26T10:15:30.754Z</time></trkpt><trkpt lat="43.5850291" lon="11.6853237"><ele>557.0</ele><time>2026-04-26T10:15:31.754Z</time></trkpt><trkpt lat="43.5850618" lon="11.6852367"><ele>557.0</ele><time>2026-04-26T10:15:32.754Z</time></trkpt><trkpt lat="43.5851012" lon="11.6851596"><ele>557.0</ele><time>2026-04-26T10:15:33.753Z</time></trkpt><trkpt lat="43.5851681" lon="11.685092"><ele>557.0</ele><time>2026-04-26T10:15:34.753Z</time></trkpt><trkpt lat="43.5852514" lon="11.6850481"><ele>557.8000000000001</ele><time>2026-04-26T10:15:35.754Z</time></trkpt><trkpt lat="43.5853491" lon="11.685028"><ele>558.6</ele><time>2026-04-26T10:15:36.753Z</time></trkpt><trkpt lat="43.5854521" lon="11.6850095"><ele>559.4000000000001</ele><time>2026-04-26T10:15:37.754Z</time></trkpt><trkpt lat="43.5855443" lon="11.6849724"><ele>560.2</ele><time>2026-04-26T10:15:38.754Z</time></trkpt><trkpt lat="43.5856098" lon="11.6848865"><ele>561.0</ele><time>2026-04-26T10:15:39.754Z</time></trkpt><trkpt lat="43.5856512" lon="11.6847718"><ele>561.0</ele><time>2026-04-26T10:15:40.753Z</time></trkpt><trkpt lat="43.5856656" lon="11.6846487"><ele>561.0</ele><time>2026-04-26T10:15:41.754Z</time></trkpt><trkpt lat="43.5856515" lon="11.6845336"><ele>561.0</ele><time>2026-04-26T10:15:42.753Z</time></trkpt><trkpt lat="43.5855915" lon="11.6844207"><ele>561.0</ele><time>2026-04-26T10:15:43.753Z</time></trkpt><trkpt lat="43.5854915" lon="11.684344"><ele>561.0</ele><time>2026-04-26T10:15:44.754Z</time></trkpt><trkpt lat="43.5853715" lon="11.6842719"><ele>561.5</ele><time>2026-04-26T10:15:45.753Z</time></trkpt><trkpt lat="43.5852703" lon="11.6841819"><ele>562.0</ele><time>2026-04-26T10:15:46.755Z</time></trkpt><trkpt lat="43.5851629" lon="11.6840818"><ele>562.5</ele><time>2026-04-26T10:15:47.752Z</time></trkpt><trkpt lat="43.5850377" lon="11.6840111"><ele>563.0</ele><time>2026-04-26T10:15:48.753Z</time></trkpt><trkpt lat="43.5849045" lon="11.6839629"><ele>563.0</ele><time>2026-04-26T10:15:49.755Z</time></trkpt><trkpt lat="43.584765" lon="11.6839191"><ele>563.0</ele><time>2026-04-26T10:15:50.754Z</time></trkpt><trkpt lat="43.5846308" lon="11.6838709"><ele>563.0</ele><time>2026-04-26T10:15:51.753Z</time></trkpt><trkpt lat="43.584501" lon="11.6838217"><ele>563.0</ele><time>2026-04-26T10:15:52.754Z</time></trkpt><trkpt lat="43.5843808" lon="11.6837743"><ele>561.0</ele><time>2026-04-26T10:15:53.753Z</time></trkpt><trkpt lat="43.584267" lon="11.6837413"><ele>559.0</ele><time>2026-04-26T10:15:54.753Z</time></trkpt><trkpt lat="43.5841583" lon="11.6837205"><ele>557.0</ele><time>2026-04-26T10:15:55.753Z</time></trkpt><trkpt lat="43.5840564" lon="11.6836961"><ele>555.0</ele><time>2026-04-26T10:15:56.754Z</time></trkpt><trkpt lat="43.5839546" lon="11.683664"><ele>553.0</ele><time>2026-04-26T10:15:57.753Z</time></trkpt><trkpt lat="43.5838538" lon="11.6836095"><ele>555.6</ele><time>2026-04-26T10:15:58.753Z</time></trkpt><trkpt lat="43.5837615" lon="11.6835488"><ele>558.1999999999999</ele><time>2026-04-26T10:15:59.754Z</time></trkpt><trkpt lat="43.5836642" lon="11.6834828"><ele>560.8</ele><time>2026-04-26T10:16:00.753Z</time></trkpt><trkpt lat="43.5835731" lon="11.6834188"><ele>563.4</ele><time>2026-04-26T10:16:01.753Z</time></trkpt><trkpt lat="43.5834993" lon="11.6833618"><ele>566.0</ele><time>2026-04-26T10:16:02.754Z</time></trkpt><trkpt lat="43.5834429" lon="11.6833032"><ele>566.0</ele><time>2026-04-26T10:16:03.753Z</time></trkpt><trkpt lat="43.5833819" lon="11.6831744"><ele>566.0</ele><time>2026-04-26T10:16:05.755Z</time></trkpt><trkpt lat="43.5833667" lon="11.6830239"><ele>566.0</ele><time>2026-04-26T10:16:07.755Z</time></trkpt><trkpt lat="43.5833765" lon="11.6828701"><ele>566.0</ele><time>2026-04-26T10:16:09.754Z</time></trkpt><trkpt lat="43.5833569" lon="11.6827705"><ele>566.0</ele><time>2026-04-26T10:16:10.754Z</time></trkpt><trkpt lat="43.5833385" lon="11.6826718"><ele>568.0</ele><time>2026-04-26T10:16:11.753Z</time></trkpt><trkpt lat="43.5833191" lon="11.6825699"><ele>570.0</ele><time>2026-04-26T10:16:12.753Z</time></trkpt><trkpt lat="43.5833048" lon="11.6824649"><ele>572.0</ele><time>2026-04-26T10:16:13.754Z</time></trkpt><trkpt lat="43.583292" lon="11.6823568"><ele>574.0</ele><time>2026-04-26T10:16:14.753Z</time></trkpt><trkpt lat="43.5832778" lon="11.6822441"><ele>576.0</ele><time>2026-04-26T10:16:15.753Z</time></trkpt><trkpt lat="43.5832597" lon="11.6821272"><ele>578.0</ele><time>2026-04-26T10:16:16.753Z</time></trkpt><trkpt lat="43.5832394" lon="11.6819984"><ele>581.0</ele><time>2026-04-26T10:16:17.753Z</time></trkpt><trkpt lat="43.5832185" lon="11.6818571"><ele>584.0</ele><time>2026-04-26T10:16:18.754Z</time></trkpt><trkpt lat="43.5831895" lon="11.6817071"><ele>587.0</ele><time>2026-04-26T10:16:19.753Z</time></trkpt><trkpt lat="43.5831528" lon="11.6815609"><ele>590.0</ele><time>2026-04-26T10:16:20.754Z</time></trkpt><trkpt lat="43.5831097" lon="11.6814334"><ele>593.0</ele><time>2026-04-26T10:16:21.757Z</time></trkpt><trkpt lat="43.5830716" lon="11.6813208"><ele>593.0</ele><time>2026-04-26T10:16:22.754Z</time></trkpt><trkpt lat="43.583038" lon="11.6812105"><ele>593.0</ele><time>2026-04-26T10:16:23.754Z</time></trkpt><trkpt lat="43.5830216" lon="11.6810949"><ele>593.0</ele><time>2026-04-26T10:16:24.753Z</time></trkpt><trkpt lat="43.5830317" lon="11.6809664"><ele>593.0</ele><time>2026-04-26T10:16:25.754Z</time></trkpt><trkpt lat="43.5830566" lon="11.6808258"><ele>593.0</ele><time>2026-04-26T10:16:26.754Z</time></trkpt><trkpt lat="43.5830753" lon="11.6806712"><ele>594.4</ele><time>2026-04-26T10:16:27.753Z</time></trkpt><trkpt lat="43.5830782" lon="11.6805088"><ele>595.8</ele><time>2026-04-26T10:16:28.753Z</time></trkpt><trkpt lat="43.5830642" lon="11.6803605"><ele>597.2</ele><time>2026-04-26T10:16:29.753Z</time></trkpt><trkpt lat="43.583024" lon="11.6802257"><ele>598.6</ele><time>2026-04-26T10:16:30.754Z</time></trkpt><trkpt lat="43.5829509" lon="11.6801024"><ele>600.0</ele><time>2026-04-26T10:16:31.756Z</time></trkpt><trkpt lat="43.5828642" lon="11.6799944"><ele>598.6666666666666</ele><time>2026-04-26T10:16:32.754Z</time></trkpt><trkpt lat="43.5827801" lon="11.6799118"><ele>597.3333333333334</ele><time>2026-04-26T10:16:33.754Z</time></trkpt><trkpt lat="43.5827056" lon="11.6798432"><ele>596.0</ele><time>2026-04-26T10:16:34.754Z</time></trkpt><trkpt lat="43.5826422" lon="11.6797771"><ele>594.6666666666667</ele><time>2026-04-26T10:16:35.753Z</time></trkpt><trkpt lat="43.5825849" lon="11.6796992"><ele>593.3333333333334</ele><time>2026-04-26T10:16:36.754Z</time></trkpt><trkpt lat="43.5825371" lon="11.6795984"><ele>592.0</ele><time>2026-04-26T10:16:37.754Z</time></trkpt><trkpt lat="43.5824961" lon="11.679477"><ele>594.4</ele><time>2026-04-26T10:16:38.754Z</time></trkpt><trkpt lat="43.5824543" lon="11.679344"><ele>596.8000000000001</ele><time>2026-04-26T10:16:39.755Z</time></trkpt><trkpt lat="43.582406" lon="11.6792065"><ele>599.2</ele><time>2026-04-26T10:16:40.753Z</time></trkpt><trkpt lat="43.5823595" lon="11.6790673"><ele>601.6</ele><time>2026-04-26T10:16:41.753Z</time></trkpt><trkpt lat="43.582325" lon="11.6789284"><ele>604.0</ele><time>2026-04-26T10:16:42.754Z</time></trkpt><trkpt lat="43.5823018" lon="11.6787904"><ele>604.0</ele><time>2026-04-26T10:16:43.753Z</time></trkpt><trkpt lat="43.5823031" lon="11.6786597"><ele>604.0</ele><time>2026-04-26T10:16:44.753Z</time></trkpt><trkpt lat="43.5822993" lon="11.6785313"><ele>604.0</ele><time>2026-04-26T10:16:45.756Z</time></trkpt><trkpt lat="43.5822815" lon="11.6784093"><ele>604.0</ele><time>2026-04-26T10:16:46.753Z</time></trkpt><trkpt lat="43.5822437" lon="11.6783114"><ele>604.0</ele><time>2026-04-26T10:16:47.754Z</time></trkpt><trkpt lat="43.5821794" lon="11.6782786"><ele>604.0</ele><time>2026-04-26T10:16:48.753Z</time></trkpt><trkpt lat="43.5821134" lon="11.6782723"><ele>604.5</ele><time>2026-04-26T10:16:49.754Z</time></trkpt><trkpt lat="43.5820504" lon="11.6782765"><ele>605.0</ele><time>2026-04-26T10:16:50.754Z</time></trkpt><trkpt lat="43.5819885" lon="11.6783064"><ele>605.5</ele><time>2026-04-26T10:16:51.753Z</time></trkpt><trkpt lat="43.5819288" lon="11.6783721"><ele>606.0</ele><time>2026-04-26T10:16:52.754Z</time></trkpt><trkpt lat="43.5818847" lon="11.6784766"><ele>606.5</ele><time>2026-04-26T10:16:53.757Z</time></trkpt><trkpt lat="43.5818576" lon="11.6786046"><ele>607.0</ele><time>2026-04-26T10:16:54.753Z</time></trkpt><trkpt lat="43.581834" lon="11.6787307"><ele>607.0</ele><time>2026-04-26T10:16:55.754Z</time></trkpt><trkpt lat="43.5818152" lon="11.6788682"><ele>607.0</ele><time>2026-04-26T10:16:56.755Z</time></trkpt><trkpt lat="43.5817988" lon="11.6790052"><ele>607.0</ele><time>2026-04-26T10:16:57.753Z</time></trkpt><trkpt lat="43.5817854" lon="11.6791399"><ele>607.0</ele><time>2026-04-26T10:16:58.753Z</time></trkpt><trkpt lat="43.5817706" lon="11.6792637"><ele>607.0</ele><time>2026-04-26T10:16:59.753Z</time></trkpt><trkpt lat="43.5817511" lon="11.6793721"><ele>606.1666666666667</ele><time>2026-04-26T10:17:00.755Z</time></trkpt><trkpt lat="43.5817349" lon="11.6794657"><ele>605.3333333333334</ele><time>2026-04-26T10:17:01.753Z</time></trkpt><trkpt lat="43.5817167" lon="11.6795513"><ele>604.5</ele><time>2026-04-26T10:17:02.754Z</time></trkpt><trkpt lat="43.5816897" lon="11.6796338"><ele>603.6666666666666</ele><time>2026-04-26T10:17:03.754Z</time></trkpt><trkpt lat="43.5816186" lon="11.6797653"><ele>602.8333333333333</ele><time>2026-04-26T10:17:05.753Z</time></trkpt><trkpt lat="43.5815124" lon="11.6797812"><ele>602.0</ele><time>2026-04-26T10:17:07.754Z</time></trkpt><trkpt lat="43.5814362" lon="11.6797261"><ele>602.0</ele><time>2026-04-26T10:17:10.754Z</time></trkpt><trkpt lat="43.581362" lon="11.6796687"><ele>602.0</ele><time>2026-04-26T10:17:13.753Z</time></trkpt><trkpt lat="43.5812829" lon="11.6796097"><ele>602.0</ele><time>2026-04-26T10:17:16.753Z</time></trkpt><trkpt lat="43.5812169" lon="11.6795711"><ele>602.0</ele><time>2026-04-26T10:17:18.754Z</time></trkpt><trkpt lat="43.5811408" lon="11.6795179"><ele>602.0</ele><time>2026-04-26T10:17:20.754Z</time></trkpt><trkpt lat="43.5810654" lon="11.6794718"><ele>602.0</ele><time>2026-04-26T10:17:22.754Z</time></trkpt><trkpt lat="43.5809897" lon="11.6794146"><ele>604.6</ele><time>2026-04-26T10:17:24.754Z</time></trkpt><trkpt lat="43.5809207" lon="11.6793494"><ele>607.2</ele><time>2026-04-26T10:17:26.753Z</time></trkpt><trkpt lat="43.5808617" lon="11.67928"><ele>609.8</ele><time>2026-04-26T10:17:29.753Z</time></trkpt><trkpt lat="43.5807883" lon="11.67931"><ele>612.4</ele><time>2026-04-26T10:17:32.754Z</time></trkpt><trkpt lat="43.5807017" lon="11.679405"><ele>615.0</ele><time>2026-04-26T10:17:34.752Z</time></trkpt><trkpt lat="43.5806317" lon="11.6795383"><ele>615.0</ele><time>2026-04-26T10:17:36.753Z</time></trkpt><trkpt lat="43.5805967" lon="11.6796133"><ele>615.0</ele><time>2026-04-26T10:17:37.753Z</time></trkpt><trkpt lat="43.580525" lon="11.6797467"><ele>615.0</ele><time>2026-04-26T10:17:39.753Z</time></trkpt><trkpt lat="43.5804667" lon="11.6797817"><ele>615.0</ele><time>2026-04-26T10:17:40.753Z</time></trkpt><trkpt lat="43.5804033" lon="11.6798117"><ele>615.0</ele><time>2026-04-26T10:17:41.754Z</time></trkpt><trkpt lat="43.5803433" lon="11.6798467"><ele>615.0</ele><time>2026-04-26T10:17:42.754Z</time></trkpt><trkpt lat="43.5802817" lon="11.6798983"><ele>615.6666666666666</ele><time>2026-04-26T10:17:43.753Z</time></trkpt><trkpt lat="43.5802267" lon="11.679965"><ele>616.3333333333334</ele><time>2026-04-26T10:17:44.754Z</time></trkpt><trkpt lat="43.580175" lon="11.6800467"><ele>617.0</ele><time>2026-04-26T10:17:45.754Z</time></trkpt><trkpt lat="43.58012" lon="11.6801483"><ele>617.6666666666667</ele><time>2026-04-26T10:17:46.754Z</time></trkpt><trkpt lat="43.580075" lon="11.680265"><ele>618.3333333333334</ele><time>2026-04-26T10:17:47.753Z</time></trkpt><trkpt lat="43.5800317" lon="11.6803967"><ele>619.0</ele><time>2026-04-26T10:17:48.753Z</time></trkpt><trkpt lat="43.5799917" lon="11.6805317"><ele>619.0</ele><time>2026-04-26T10:17:49.754Z</time></trkpt><trkpt lat="43.5799517" lon="11.6806567"><ele>619.0</ele><time>2026-04-26T10:17:50.754Z</time></trkpt><trkpt lat="43.57991" lon="11.68077"><ele>619.0</ele><time>2026-04-26T10:17:51.753Z</time></trkpt><trkpt lat="43.5798667" lon="11.6808767"><ele>619.0</ele><time>2026-04-26T10:17:52.754Z</time></trkpt><trkpt lat="43.57981" lon="11.680975"><ele>619.0</ele><time>2026-04-26T10:17:53.754Z</time></trkpt><trkpt lat="43.5797517" lon="11.6810633"><ele>619.2</ele><time>2026-04-26T10:17:54.753Z</time></trkpt><trkpt lat="43.5796867" lon="11.6811517"><ele>619.4</ele><time>2026-04-26T10:17:55.754Z</time></trkpt><trkpt lat="43.5796183" lon="11.681235"><ele>619.6</ele><time>2026-04-26T10:17:56.754Z</time></trkpt><trkpt lat="43.579545" lon="11.6813167"><ele>619.8</ele><time>2026-04-26T10:17:57.754Z</time></trkpt><trkpt lat="43.5794683" lon="11.6813967"><ele>620.0</ele><time>2026-04-26T10:17:58.754Z</time></trkpt><trkpt lat="43.5793967" lon="11.6814767"><ele>620.0</ele><time>2026-04-26T10:17:59.754Z</time></trkpt><trkpt lat="43.5793267" lon="11.6815617"><ele>620.0</ele><time>2026-04-26T10:18:00.753Z</time></trkpt><trkpt lat="43.57926" lon="11.68164"><ele>620.0</ele><time>2026-04-26T10:18:01.754Z</time></trkpt><trkpt lat="43.579195" lon="11.681715"><ele>620.0</ele><time>2026-04-26T10:18:02.754Z</time></trkpt><trkpt lat="43.5791267" lon="11.6817783"><ele>620.0</ele><time>2026-04-26T10:18:03.753Z</time></trkpt><trkpt lat="43.57905" lon="11.681825"><ele>620.0</ele><time>2026-04-26T10:18:04.754Z</time></trkpt><trkpt lat="43.57898" lon="11.6818433"><ele>620.0</ele><time>2026-04-26T10:18:05.753Z</time></trkpt><trkpt lat="43.578895" lon="11.68179"><ele>620.0</ele><time>2026-04-26T10:18:07.757Z</time></trkpt><trkpt lat="43.5788267" lon="11.6817333"><ele>620.0</ele><time>2026-04-26T10:18:10.753Z</time></trkpt><trkpt lat="43.5787565" lon="11.68171"><ele>620.0</ele><time>2026-04-26T10:18:13.753Z</time></trkpt><trkpt lat="43.5786958" lon="11.6816691"><ele>620.0</ele><time>2026-04-26T10:18:22.854Z</time></trkpt><trkpt lat="43.5786176" lon="11.6816487"><ele>620.0</ele><time>2026-04-26T10:18:26.784Z</time></trkpt><trkpt lat="43.578495" lon="11.68164"><ele>620.2</ele><time>2026-04-26T10:18:44.756Z</time></trkpt><trkpt lat="43.578425" lon="11.6816067"><ele>620.4</ele><time>2026-04-26T10:18:45.753Z</time></trkpt><trkpt lat="43.5783417" lon="11.681525"><ele>620.6</ele><time>2026-04-26T10:18:46.753Z</time></trkpt><trkpt lat="43.5782717" lon="11.6814383"><ele>620.8</ele><time>2026-04-26T10:18:47.753Z</time></trkpt><trkpt lat="43.5782" lon="11.6813133"><ele>621.0</ele><time>2026-04-26T10:18:48.753Z</time></trkpt><trkpt lat="43.5781283" lon="11.68117"><ele>622.0</ele><time>2026-04-26T10:18:49.753Z</time></trkpt><trkpt lat="43.5780633" lon="11.6810233"><ele>623.0</ele><time>2026-04-26T10:18:50.754Z</time></trkpt><trkpt lat="43.578" lon="11.6808983"><ele>624.0</ele><time>2026-04-26T10:18:51.755Z</time></trkpt><trkpt lat="43.5779183" lon="11.6807867"><ele>625.0</ele><time>2026-04-26T10:18:52.754Z</time></trkpt><trkpt lat="43.5778383" lon="11.6806933"><ele>625.0</ele><time>2026-04-26T10:18:53.754Z</time></trkpt><trkpt lat="43.5777583" lon="11.6806333"><ele>625.0</ele><time>2026-04-26T10:18:54.754Z</time></trkpt><trkpt lat="43.577695" lon="11.6805933"><ele>625.0</ele><time>2026-04-26T10:18:55.753Z</time></trkpt><trkpt lat="43.5776067" lon="11.680535"><ele>625.0</ele><time>2026-04-26T10:18:57.753Z</time></trkpt><trkpt lat="43.5775417" lon="11.6805033"><ele>625.0</ele><time>2026-04-26T10:18:59.753Z</time></trkpt><trkpt lat="43.5774633" lon="11.680445"><ele>625.0</ele><time>2026-04-26T10:19:02.754Z</time></trkpt><trkpt lat="43.577395" lon="11.6804233"><ele>625.0</ele><time>2026-04-26T10:19:05.753Z</time></trkpt><trkpt lat="43.57732" lon="11.6804083"><ele>625.0</ele><time>2026-04-26T10:19:08.754Z</time></trkpt><trkpt lat="43.5772383" lon="11.680375"><ele>625.0</ele><time>2026-04-26T10:19:11.754Z</time></trkpt><trkpt lat="43.57715" lon="11.68033"><ele>625.0</ele><time>2026-04-26T10:19:14.754Z</time></trkpt><trkpt lat="43.5770733" lon="11.6802767"><ele>625.0</ele><time>2026-04-26T10:19:16.754Z</time></trkpt><trkpt lat="43.5769867" lon="11.6802233"><ele>625.0</ele><time>2026-04-26T10:19:18.755Z</time></trkpt><trkpt lat="43.576885" lon="11.6801517"><ele>627.0</ele><time>2026-04-26T10:19:20.754Z</time></trkpt><trkpt lat="43.5768333" lon="11.6801"><ele>629.0</ele><time>2026-04-26T10:19:21.753Z</time></trkpt><trkpt lat="43.5767317" lon="11.6799917"><ele>631.0</ele><time>2026-04-26T10:19:23.754Z</time></trkpt><trkpt lat="43.5766717" lon="11.6799283"><ele>633.0</ele><time>2026-04-26T10:19:24.753Z</time></trkpt><trkpt lat="43.5766083" lon="11.679865"><ele>635.0</ele><time>2026-04-26T10:19:25.754Z</time></trkpt><trkpt lat="43.57654" lon="11.6798067"><ele>637.0</ele><time>2026-04-26T10:19:26.753Z</time></trkpt><trkpt lat="43.57647" lon="11.6797583"><ele>637.0</ele><time>2026-04-26T10:19:27.753Z</time></trkpt><trkpt lat="43.5764" lon="11.6797133"><ele>637.0</ele><time>2026-04-26T10:19:28.753Z</time></trkpt><trkpt lat="43.576325" lon="11.6796883"><ele>637.0</ele><time>2026-04-26T10:19:29.753Z</time></trkpt><trkpt lat="43.57626" lon="11.6797083"><ele>637.0</ele><time>2026-04-26T10:19:30.754Z</time></trkpt><trkpt lat="43.576165" lon="11.67975"><ele>637.0</ele><time>2026-04-26T10:19:32.76Z</time></trkpt><trkpt lat="43.5760933" lon="11.67982"><ele>637.0</ele><time>2026-04-26T10:19:34.753Z</time></trkpt><trkpt lat="43.5760267" lon="11.679905"><ele>636.4</ele><time>2026-04-26T10:19:36.754Z</time></trkpt><trkpt lat="43.5759283" lon="11.6799967"><ele>635.8000000000001</ele><time>2026-04-26T10:19:38.754Z</time></trkpt><trkpt lat="43.57587" lon="11.680045"><ele>635.2</ele><time>2026-04-26T10:19:39.753Z</time></trkpt><trkpt lat="43.5757567" lon="11.6801033"><ele>634.6</ele><time>2026-04-26T10:19:41.753Z</time></trkpt><trkpt lat="43.5756483" lon="11.6801367"><ele>634.0</ele><time>2026-04-26T10:19:43.754Z</time></trkpt><trkpt lat="43.57554" lon="11.68015"><ele>634.0</ele><time>2026-04-26T10:19:45.753Z</time></trkpt><trkpt lat="43.5754367" lon="11.6801617"><ele>634.0</ele><time>2026-04-26T10:19:47.753Z</time></trkpt><trkpt lat="43.5753333" lon="11.6801817"><ele>634.0</ele><time>2026-04-26T10:19:49.754Z</time></trkpt><trkpt lat="43.5752167" lon="11.6802017"><ele>634.0</ele><time>2026-04-26T10:19:51.753Z</time></trkpt><trkpt lat="43.5751517" lon="11.6802083"><ele>634.0</ele><time>2026-04-26T10:19:52.754Z</time></trkpt><trkpt lat="43.5750817" lon="11.6802117"><ele>634.2857142857143</ele><time>2026-04-26T10:19:53.755Z</time></trkpt><trkpt lat="43.5750133" lon="11.6802167"><ele>634.5714285714286</ele><time>2026-04-26T10:19:54.754Z</time></trkpt><trkpt lat="43.5749433" lon="11.6802267"><ele>634.8571428571429</ele><time>2026-04-26T10:19:55.754Z</time></trkpt><trkpt lat="43.5748733" lon="11.6802483"><ele>635.1428571428571</ele><time>2026-04-26T10:19:56.759Z</time></trkpt><trkpt lat="43.574805" lon="11.6802833"><ele>635.4285714285714</ele><time>2026-04-26T10:19:57.753Z</time></trkpt><trkpt lat="43.5747417" lon="11.68034"><ele>635.7142857142857</ele><time>2026-04-26T10:19:58.753Z</time></trkpt><trkpt lat="43.5746817" lon="11.6804217"><ele>636.0</ele><time>2026-04-26T10:19:59.754Z</time></trkpt><trkpt lat="43.5746183" lon="11.6805167"><ele>634.5</ele><time>2026-04-26T10:20:00.754Z</time></trkpt><trkpt lat="43.5745617" lon="11.6806083"><ele>633.0</ele><time>2026-04-26T10:20:01.752Z</time></trkpt><trkpt lat="43.5745067" lon="11.6807033"><ele>631.5</ele><time>2026-04-26T10:20:02.754Z</time></trkpt><trkpt lat="43.5744567" lon="11.68079"><ele>630.0</ele><time>2026-04-26T10:20:03.753Z</time></trkpt><trkpt lat="43.5744117" lon="11.680875"><ele>628.5</ele><time>2026-04-26T10:20:04.754Z</time></trkpt><trkpt lat="43.5743667" lon="11.680945"><ele>627.0</ele><time>2026-04-26T10:20:05.754Z</time></trkpt><trkpt lat="43.57426" lon="11.6810083"><ele>626.8000000000001</ele><time>2026-04-26T10:20:07.754Z</time></trkpt><trkpt lat="43.574185" lon="11.6810017"><ele>626.6</ele><time>2026-04-26T10:20:08.754Z</time></trkpt><trkpt lat="43.5741017" lon="11.6809733"><ele>626.4000000000001</ele><time>2026-04-26T10:20:09.753Z</time></trkpt><trkpt lat="43.574015" lon="11.6809483"><ele>626.2</ele><time>2026-04-26T10:20:10.753Z</time></trkpt><trkpt lat="43.57392" lon="11.680935"><ele>626.0</ele><time>2026-04-26T10:20:11.757Z</time></trkpt><trkpt lat="43.5738083" lon="11.6809783"><ele>626.0</ele><time>2026-04-26T10:20:12.755Z</time></trkpt><trkpt lat="43.5737133" lon="11.6810667"><ele>626.0</ele><time>2026-04-26T10:20:13.753Z</time></trkpt><trkpt lat="43.57363" lon="11.68115"><ele>626.0</ele><time>2026-04-26T10:20:14.754Z</time></trkpt><trkpt lat="43.5735483" lon="11.6812183"><ele>626.0</ele><time>2026-04-26T10:20:15.753Z</time></trkpt><trkpt lat="43.5734633" lon="11.6812717"><ele>626.0</ele><time>2026-04-26T10:20:16.753Z</time></trkpt><trkpt lat="43.573375" lon="11.6813083"><ele>622.0</ele><time>2026-04-26T10:20:17.753Z</time></trkpt><trkpt lat="43.57328" lon="11.681325"><ele>618.0</ele><time>2026-04-26T10:20:18.753Z</time></trkpt><trkpt lat="43.57318" lon="11.6813183"><ele>614.0</ele><time>2026-04-26T10:20:19.753Z</time></trkpt><trkpt lat="43.57308" lon="11.6812883"><ele>610.0</ele><time>2026-04-26T10:20:20.754Z</time></trkpt><trkpt lat="43.5729917" lon="11.6812417"><ele>606.0</ele><time>2026-04-26T10:20:21.754Z</time></trkpt><trkpt lat="43.572915" lon="11.68119"><ele>605.3333333333334</ele><time>2026-04-26T10:20:22.754Z</time></trkpt><trkpt lat="43.5728417" lon="11.681145"><ele>604.6666666666666</ele><time>2026-04-26T10:20:23.753Z</time></trkpt><trkpt lat="43.5727633" lon="11.681115"><ele>604.0</ele><time>2026-04-26T10:20:24.753Z</time></trkpt><trkpt lat="43.572685" lon="11.6811067"><ele>603.3333333333333</ele><time>2026-04-26T10:20:25.754Z</time></trkpt><trkpt lat="43.5726" lon="11.681135"><ele>602.6666666666666</ele><time>2026-04-26T10:20:26.754Z</time></trkpt><trkpt lat="43.5725133" lon="11.6811933"><ele>602.0</ele><time>2026-04-26T10:20:27.753Z</time></trkpt><trkpt lat="43.5724267" lon="11.6812567"><ele>602.0</ele><time>2026-04-26T10:20:28.753Z</time></trkpt><trkpt lat="43.57234" lon="11.6813167"><ele>602.0</ele><time>2026-04-26T10:20:29.757Z</time></trkpt><trkpt lat="43.572255" lon="11.68138"><ele>602.0</ele><time>2026-04-26T10:20:30.754Z</time></trkpt><trkpt lat="43.5721633" lon="11.6814467"><ele>602.0</ele><time>2026-04-26T10:20:31.753Z</time></trkpt><trkpt lat="43.57207" lon="11.6815133"><ele>602.0</ele><time>2026-04-26T10:20:32.755Z</time></trkpt><trkpt lat="43.57198" lon="11.68157"><ele>602.1666666666666</ele><time>2026-04-26T10:20:33.753Z</time></trkpt><trkpt lat="43.5718883" lon="11.6816283"><ele>602.3333333333333</ele><time>2026-04-26T10:20:34.754Z</time></trkpt><trkpt lat="43.571805" lon="11.6816783"><ele>602.5</ele><time>2026-04-26T10:20:35.754Z</time></trkpt><trkpt lat="43.5717283" lon="11.6817133"><ele>602.6666666666666</ele><time>2026-04-26T10:20:36.753Z</time></trkpt><trkpt lat="43.5716617" lon="11.6817333"><ele>602.8333333333334</ele><time>2026-04-26T10:20:37.753Z</time></trkpt><trkpt lat="43.571555" lon="11.6817617"><ele>603.0</ele><time>2026-04-26T10:20:39.753Z</time></trkpt><trkpt lat="43.5714933" lon="11.6817917"><ele>603.0</ele><time>2026-04-26T10:20:41.755Z</time></trkpt><trkpt lat="43.571505" lon="11.6816067"><ele>603.0</ele><time>2026-04-26T10:21:04.754Z</time></trkpt><trkpt lat="43.571495" lon="11.6815167"><ele>603.0</ele><time>2026-04-26T10:21:06.753Z</time></trkpt><trkpt lat="43.57149" lon="11.6814233"><ele>603.0</ele><time>2026-04-26T10:21:08.754Z</time></trkpt><trkpt lat="43.5714862" lon="11.681318"><ele>603.0</ele><time>2026-04-26T10:21:12.797Z</time></trkpt><trkpt lat="43.571475" lon="11.6811945"><ele>603.0</ele><time>2026-04-26T10:21:14.798Z</time></trkpt><trkpt lat="43.5714666" lon="11.6810782"><ele>603.0</ele><time>2026-04-26T10:21:17.831Z</time></trkpt><trkpt lat="43.5714717" lon="11.6809762"><ele>603.0</ele><time>2026-04-26T10:21:20.834Z</time></trkpt><trkpt lat="43.5714811" lon="11.6811263"><ele>603.0</ele><time>2026-04-26T10:21:35.798Z</time></trkpt><trkpt lat="43.5714879" lon="11.6812929"><ele>603.0</ele><time>2026-04-26T10:21:37.754Z</time></trkpt><trkpt lat="43.5714913" lon="11.6814517"><ele>603.0</ele><time>2026-04-26T10:21:39.753Z</time></trkpt><trkpt lat="43.5714939" lon="11.6815736"><ele>603.0</ele><time>2026-04-26T10:21:41.754Z</time></trkpt><trkpt lat="43.5715019" lon="11.6816657"><ele>603.0</ele><time>2026-04-26T10:21:43.753Z</time></trkpt><trkpt lat="43.5714794" lon="11.6817476"><ele>603.0</ele><time>2026-04-26T10:21:47.753Z</time></trkpt><trkpt lat="43.5714374" lon="11.6815753"><ele>603.0</ele><time>2026-04-26T10:21:57.789Z</time></trkpt><trkpt lat="43.571401" lon="11.6814961"><ele>603.0</ele><time>2026-04-26T10:21:59.772Z</time></trkpt><trkpt lat="43.5713218" lon="11.6813471"><ele>603.0</ele><time>2026-04-26T10:22:02.794Z</time></trkpt><trkpt lat="43.5712703" lon="11.6812599"><ele>603.0</ele><time>2026-04-26T10:22:03.754Z</time></trkpt><trkpt lat="43.5712246" lon="11.6811884"><ele>603.0</ele><time>2026-04-26T10:22:04.753Z</time></trkpt><trkpt lat="43.5711693" lon="11.6811304"><ele>603.0</ele><time>2026-04-26T10:22:05.755Z</time></trkpt><trkpt lat="43.5711073" lon="11.6810794"><ele>603.0</ele><time>2026-04-26T10:22:06.754Z</time></trkpt><trkpt lat="43.5710437" lon="11.6810289"><ele>603.0</ele><time>2026-04-26T10:22:07.753Z</time></trkpt><trkpt lat="43.5709809" lon="11.680971"><ele>603.0</ele><time>2026-04-26T10:22:08.754Z</time></trkpt><trkpt lat="43.5709258" lon="11.6809032"><ele>604.0</ele><time>2026-04-26T10:22:09.754Z</time></trkpt><trkpt lat="43.5708787" lon="11.6808298"><ele>605.0</ele><time>2026-04-26T10:22:10.754Z</time></trkpt><trkpt lat="43.5708348" lon="11.680749"><ele>606.0</ele><time>2026-04-26T10:22:11.754Z</time></trkpt><trkpt lat="43.5707949" lon="11.6806625"><ele>607.0</ele><time>2026-04-26T10:22:12.754Z</time></trkpt><trkpt lat="43.5707629" lon="11.6805704"><ele>608.0</ele><time>2026-04-26T10:22:13.753Z</time></trkpt><trkpt lat="43.5707369" lon="11.6804791"><ele>609.0</ele><time>2026-04-26T10:22:14.754Z</time></trkpt><trkpt lat="43.5707003" lon="11.6803364"><ele>609.0</ele><time>2026-04-26T10:22:16.754Z</time></trkpt><trkpt lat="43.5706785" lon="11.6802441"><ele>609.0</ele><time>2026-04-26T10:22:18.753Z</time></trkpt><trkpt lat="43.570725" lon="11.6803917"><ele>609.0</ele><time>2026-04-26T10:22:54.753Z</time></trkpt><trkpt lat="43.570745" lon="11.6804983"><ele>609.0</ele><time>2026-04-26T10:22:55.754Z</time></trkpt><trkpt lat="43.5707667" lon="11.6806233"><ele>609.0</ele><time>2026-04-26T10:22:56.754Z</time></trkpt><trkpt lat="43.570805" lon="11.68074"><ele>609.0</ele><time>2026-04-26T10:22:57.753Z</time></trkpt><trkpt lat="43.5708483" lon="11.6808383"><ele>609.0</ele><time>2026-04-26T10:22:58.754Z</time></trkpt><trkpt lat="43.5709033" lon="11.6809133"><ele>609.0</ele><time>2026-04-26T10:22:59.756Z</time></trkpt><trkpt lat="43.5709933" lon="11.6810217"><ele>609.0</ele><time>2026-04-26T10:23:01.754Z</time></trkpt><trkpt lat="43.571055" lon="11.68107"><ele>609.0</ele><time>2026-04-26T10:23:02.754Z</time></trkpt><trkpt lat="43.571125" lon="11.6811217"><ele>609.0</ele><time>2026-04-26T10:23:03.753Z</time></trkpt><trkpt lat="43.5711933" lon="11.6811767"><ele>607.8</ele><time>2026-04-26T10:23:04.753Z</time></trkpt><trkpt lat="43.5712467" lon="11.68123"><ele>606.5999999999999</ele><time>2026-04-26T10:23:05.755Z</time></trkpt><trkpt lat="43.5713267" lon="11.6813533"><ele>605.4</ele><time>2026-04-26T10:23:07.753Z</time></trkpt><trkpt lat="43.5713983" lon="11.6814917"><ele>604.1999999999999</ele><time>2026-04-26T10:23:09.753Z</time></trkpt><trkpt lat="43.5714433" lon="11.68163"><ele>603.0</ele><time>2026-04-26T10:23:11.753Z</time></trkpt><trkpt lat="43.57148" lon="11.6817517"><ele>603.0</ele><time>2026-04-26T10:23:13.758Z</time></trkpt><trkpt lat="43.5714933" lon="11.6818433"><ele>603.0</ele><time>2026-04-26T10:23:15.753Z</time></trkpt><trkpt lat="43.57146" lon="11.6819783"><ele>603.0</ele><time>2026-04-26T10:23:17.759Z</time></trkpt><trkpt lat="43.5714083" lon="11.6821017"><ele>603.0</ele><time>2026-04-26T10:23:18.753Z</time></trkpt><trkpt lat="43.5713667" lon="11.6822417"><ele>603.0</ele><time>2026-04-26T10:23:19.754Z</time></trkpt><trkpt lat="43.5713217" lon="11.6823783"><ele>601.6</ele><time>2026-04-26T10:23:20.757Z</time></trkpt><trkpt lat="43.5712733" lon="11.6825"><ele>600.1999999999999</ele><time>2026-04-26T10:23:21.753Z</time></trkpt><trkpt lat="43.5712217" lon="11.6826033"><ele>598.8</ele><time>2026-04-26T10:23:22.754Z</time></trkpt><trkpt lat="43.5711717" lon="11.6826883"><ele>597.4</ele><time>2026-04-26T10:23:23.755Z</time></trkpt><trkpt lat="43.5711267" lon="11.6827617"><ele>596.0</ele><time>2026-04-26T10:23:24.753Z</time></trkpt><trkpt lat="43.571035" lon="11.6828717"><ele>595.1666666666666</ele><time>2026-04-26T10:23:26.755Z</time></trkpt><trkpt lat="43.5709817" lon="11.6829267"><ele>594.3333333333333</ele><time>2026-04-26T10:23:27.754Z</time></trkpt><trkpt lat="43.5709283" lon="11.683"><ele>593.5</ele><time>2026-04-26T10:23:28.754Z</time></trkpt><trkpt lat="43.5708767" lon="11.68309"><ele>592.6666666666666</ele><time>2026-04-26T10:23:29.754Z</time></trkpt><trkpt lat="43.5708317" lon="11.6832033"><ele>591.8333333333334</ele><time>2026-04-26T10:23:30.754Z</time></trkpt><trkpt lat="43.5707933" lon="11.6833267"><ele>591.0</ele><time>2026-04-26T10:23:31.754Z</time></trkpt><trkpt lat="43.570755" lon="11.6834467"><ele>591.0</ele><time>2026-04-26T10:23:32.754Z</time></trkpt><trkpt lat="43.5707183" lon="11.6835567"><ele>591.0</ele><time>2026-04-26T10:23:33.753Z</time></trkpt><trkpt lat="43.5706783" lon="11.6836583"><ele>591.0</ele><time>2026-04-26T10:23:34.753Z</time></trkpt><trkpt lat="43.57063" lon="11.68375"><ele>591.0</ele><time>2026-04-26T10:23:35.754Z</time></trkpt><trkpt lat="43.57057" lon="11.68384"><ele>591.0</ele><time>2026-04-26T10:23:36.753Z</time></trkpt><trkpt lat="43.5705067" lon="11.6839317"><ele>591.0</ele><time>2026-04-26T10:23:37.754Z</time></trkpt><trkpt lat="43.57044" lon="11.6840283"><ele>590.2</ele><time>2026-04-26T10:23:38.755Z</time></trkpt><trkpt lat="43.5703717" lon="11.6841267"><ele>589.4000000000001</ele><time>2026-04-26T10:23:39.754Z</time></trkpt><trkpt lat="43.5703017" lon="11.6842267"><ele>588.6</ele><time>2026-04-26T10:23:40.754Z</time></trkpt><trkpt lat="43.57023" lon="11.6843283"><ele>587.8000000000001</ele><time>2026-04-26T10:23:41.754Z</time></trkpt><trkpt lat="43.5701567" lon="11.6844317"><ele>587.0</ele><time>2026-04-26T10:23:42.753Z</time></trkpt><trkpt lat="43.5700833" lon="11.6845333"><ele>585.6</ele><time>2026-04-26T10:23:43.753Z</time></trkpt><trkpt lat="43.57001" lon="11.684635"><ele>584.2</ele><time>2026-04-26T10:23:44.754Z</time></trkpt><trkpt lat="43.5699333" lon="11.68473"><ele>582.8</ele><time>2026-04-26T10:23:45.754Z</time></trkpt><trkpt lat="43.5698483" lon="11.6848167"><ele>581.4</ele><time>2026-04-26T10:23:46.753Z</time></trkpt><trkpt lat="43.569765" lon="11.6849033"><ele>580.0</ele><time>2026-04-26T10:23:47.754Z</time></trkpt><trkpt lat="43.56969" lon="11.6850033"><ele>580.0</ele><time>2026-04-26T10:23:48.754Z</time></trkpt><trkpt lat="43.5696267" lon="11.6851233"><ele>580.0</ele><time>2026-04-26T10:23:49.756Z</time></trkpt><trkpt lat="43.56957" lon="11.6852533"><ele>580.0</ele><time>2026-04-26T10:23:50.755Z</time></trkpt><trkpt lat="43.5695167" lon="11.68538"><ele>580.0</ele><time>2026-04-26T10:23:51.753Z</time></trkpt><trkpt lat="43.5694583" lon="11.6854967"><ele>580.0</ele><time>2026-04-26T10:23:52.754Z</time></trkpt><trkpt lat="43.5693933" lon="11.6856"><ele>579.0</ele><time>2026-04-26T10:23:53.754Z</time></trkpt><trkpt lat="43.56931" lon="11.68567"><ele>578.0</ele><time>2026-04-26T10:23:54.754Z</time></trkpt><trkpt lat="43.5692208" lon="11.6857223"><ele>577.0</ele><time>2026-04-26T10:23:55.754Z</time></trkpt><trkpt lat="43.5691248" lon="11.6857582"><ele>576.0</ele><time>2026-04-26T10:23:56.754Z</time></trkpt><trkpt lat="43.56903" lon="11.6858006"><ele>575.0</ele><time>2026-04-26T10:23:57.753Z</time></trkpt><trkpt lat="43.5689295" lon="11.6858477"><ele>575.0</ele><time>2026-04-26T10:23:58.755Z</time></trkpt><trkpt lat="43.5688179" lon="11.6858781"><ele>575.0</ele><time>2026-04-26T10:23:59.755Z</time></trkpt><trkpt lat="43.5687059" lon="11.6858733"><ele>575.0</ele><time>2026-04-26T10:24:00.753Z</time></trkpt><trkpt lat="43.5685925" lon="11.6858417"><ele>575.0</ele><time>2026-04-26T10:24:01.758Z</time></trkpt><trkpt lat="43.5684861" lon="11.6857968"><ele>573.5</ele><time>2026-04-26T10:24:02.754Z</time></trkpt><trkpt lat="43.5683822" lon="11.6857498"><ele>572.0</ele><time>2026-04-26T10:24:03.753Z</time></trkpt><trkpt lat="43.5682773" lon="11.6856947"><ele>570.5</ele><time>2026-04-26T10:24:04.754Z</time></trkpt><trkpt lat="43.5681722" lon="11.685628"><ele>569.0</ele><time>2026-04-26T10:24:05.753Z</time></trkpt><trkpt lat="43.5680684" lon="11.685545"><ele>569.0</ele><time>2026-04-26T10:24:06.755Z</time></trkpt><trkpt lat="43.5679622" lon="11.685452"><ele>569.0</ele><time>2026-04-26T10:24:07.754Z</time></trkpt><trkpt lat="43.5678528" lon="11.6853651"><ele>569.0</ele><time>2026-04-26T10:24:08.755Z</time></trkpt><trkpt lat="43.5677392" lon="11.6852954"><ele>569.0</ele><time>2026-04-26T10:24:09.753Z</time></trkpt><trkpt lat="43.5676182" lon="11.6852539"><ele>568.0</ele><time>2026-04-26T10:24:10.753Z</time></trkpt><trkpt lat="43.5674806" lon="11.6852502"><ele>567.0</ele><time>2026-04-26T10:24:11.753Z</time></trkpt><trkpt lat="43.5673431" lon="11.6852524"><ele>566.0</ele><time>2026-04-26T10:24:12.754Z</time></trkpt><trkpt lat="43.5672071" lon="11.6852084"><ele>565.0</ele><time>2026-04-26T10:24:13.754Z</time></trkpt><trkpt lat="43.5670772" lon="11.6851402"><ele>562.75</ele><time>2026-04-26T10:24:14.754Z</time></trkpt><trkpt lat="43.5669537" lon="11.6850671"><ele>560.5</ele><time>2026-04-26T10:24:15.754Z</time></trkpt><trkpt lat="43.5668421" lon="11.6849722"><ele>558.25</ele><time>2026-04-26T10:24:16.753Z</time></trkpt><trkpt lat="43.5667457" lon="11.6848349"><ele>556.0</ele><time>2026-04-26T10:24:17.754Z</time></trkpt><trkpt lat="43.5666634" lon="11.6846648"><ele>556.0</ele><time>2026-04-26T10:24:18.755Z</time></trkpt><trkpt lat="43.5665892" lon="11.6844813"><ele>556.0</ele><time>2026-04-26T10:24:19.754Z</time></trkpt><trkpt lat="43.5665197" lon="11.6843079"><ele>556.0</ele><time>2026-04-26T10:24:20.755Z</time></trkpt><trkpt lat="43.566454" lon="11.6841615"><ele>556.0</ele><time>2026-04-26T10:24:21.754Z</time></trkpt><trkpt lat="43.5663936" lon="11.6840453"><ele>556.8</ele><time>2026-04-26T10:24:22.754Z</time></trkpt><trkpt lat="43.5663339" lon="11.6839428"><ele>557.6</ele><time>2026-04-26T10:24:23.755Z</time></trkpt><trkpt lat="43.5662725" lon="11.683838"><ele>558.4</ele><time>2026-04-26T10:24:24.755Z</time></trkpt><trkpt lat="43.5662105" lon="11.6837172"><ele>559.2</ele><time>2026-04-26T10:24:25.754Z</time></trkpt><trkpt lat="43.5661605" lon="11.6835751"><ele>560.0</ele><time>2026-04-26T10:24:26.754Z</time></trkpt><trkpt lat="43.5661181" lon="11.6834155"><ele>555.5</ele><time>2026-04-26T10:24:27.753Z</time></trkpt><trkpt lat="43.5660738" lon="11.6832561"><ele>551.0</ele><time>2026-04-26T10:24:28.755Z</time></trkpt><trkpt lat="43.5660305" lon="11.6831047"><ele>546.5</ele><time>2026-04-26T10:24:29.754Z</time></trkpt><trkpt lat="43.5659874" lon="11.682959"><ele>542.0</ele><time>2026-04-26T10:24:30.754Z</time></trkpt><trkpt lat="43.5659471" lon="11.6828142"><ele>542.25</ele><time>2026-04-26T10:24:31.759Z</time></trkpt><trkpt lat="43.565909" lon="11.6826628"><ele>542.5</ele><time>2026-04-26T10:24:32.754Z</time></trkpt><trkpt lat="43.5658837" lon="11.6824979"><ele>542.75</ele><time>2026-04-26T10:24:33.754Z</time></trkpt><trkpt lat="43.5658847" lon="11.6823263"><ele>543.0</ele><time>2026-04-26T10:24:34.754Z</time></trkpt><trkpt lat="43.5659189" lon="11.6821638"><ele>543.0</ele><time>2026-04-26T10:24:35.754Z</time></trkpt><trkpt lat="43.5659828" lon="11.682025"><ele>543.0</ele><time>2026-04-26T10:24:36.754Z</time></trkpt><trkpt lat="43.5660765" lon="11.6819155"><ele>543.0</ele><time>2026-04-26T10:24:37.754Z</time></trkpt><trkpt lat="43.5661944" lon="11.6818351"><ele>543.0</ele><time>2026-04-26T10:24:38.755Z</time></trkpt><trkpt lat="43.5663304" lon="11.6817842"><ele>542.25</ele><time>2026-04-26T10:24:39.754Z</time></trkpt><trkpt lat="43.5664722" lon="11.6817518"><ele>541.5</ele><time>2026-04-26T10:24:40.753Z</time></trkpt><trkpt lat="43.5666141" lon="11.6817305"><ele>540.75</ele><time>2026-04-26T10:24:41.754Z</time></trkpt><trkpt lat="43.5667437" lon="11.6817152"><ele>540.0</ele><time>2026-04-26T10:24:42.754Z</time></trkpt><trkpt lat="43.5668587" lon="11.6816909"><ele>540.0</ele><time>2026-04-26T10:24:43.754Z</time></trkpt><trkpt lat="43.5669523" lon="11.6816291"><ele>540.0</ele><time>2026-04-26T10:24:44.754Z</time></trkpt><trkpt lat="43.5670222" lon="11.6815286"><ele>540.0</ele><time>2026-04-26T10:24:45.753Z</time></trkpt><trkpt lat="43.5670557" lon="11.6813908"><ele>540.0</ele><time>2026-04-26T10:24:46.754Z</time></trkpt><trkpt lat="43.5670733" lon="11.6812383"><ele>540.0</ele><time>2026-04-26T10:24:47.754Z</time></trkpt><trkpt lat="43.5670795" lon="11.6810779"><ele>542.75</ele><time>2026-04-26T10:24:48.755Z</time></trkpt><trkpt lat="43.5670665" lon="11.6809001"><ele>545.5</ele><time>2026-04-26T10:24:49.755Z</time></trkpt><trkpt lat="43.5670295" lon="11.6807205"><ele>548.25</ele><time>2026-04-26T10:24:50.756Z</time></trkpt><trkpt lat="43.5669859" lon="11.6805542"><ele>551.0</ele><time>2026-04-26T10:24:51.754Z</time></trkpt><trkpt lat="43.5669489" lon="11.6803996"><ele>547.6</ele><time>2026-04-26T10:24:52.755Z</time></trkpt><trkpt lat="43.5669323" lon="11.6802544"><ele>544.2</ele><time>2026-04-26T10:24:53.756Z</time></trkpt><trkpt lat="43.5669512" lon="11.680116"><ele>540.8</ele><time>2026-04-26T10:24:54.754Z</time></trkpt><trkpt lat="43.5670112" lon="11.6800145"><ele>537.4</ele><time>2026-04-26T10:24:55.753Z</time></trkpt><trkpt lat="43.5670981" lon="11.6799653"><ele>534.0</ele><time>2026-04-26T10:24:56.753Z</time></trkpt><trkpt lat="43.5672105" lon="11.6799683"><ele>534.0</ele><time>2026-04-26T10:24:57.754Z</time></trkpt><trkpt lat="43.5673274" lon="11.6799831"><ele>534.0</ele><time>2026-04-26T10:24:58.754Z</time></trkpt><trkpt lat="43.567443" lon="11.6799665"><ele>534.0</ele><time>2026-04-26T10:24:59.754Z</time></trkpt><trkpt lat="43.567541" lon="11.6799047"><ele>534.0</ele><time>2026-04-26T10:25:00.755Z</time></trkpt><trkpt lat="43.5676072" lon="11.6797954"><ele>534.0</ele><time>2026-04-26T10:25:01.754Z</time></trkpt><trkpt lat="43.5676378" lon="11.6796571"><ele>534.0</ele><time>2026-04-26T10:25:02.754Z</time></trkpt><trkpt lat="43.5676438" lon="11.6794976"><ele>534.0</ele><time>2026-04-26T10:25:03.755Z</time></trkpt><trkpt lat="43.5676649" lon="11.6793474"><ele>534.0</ele><time>2026-04-26T10:25:04.753Z</time></trkpt><trkpt lat="43.5677153" lon="11.6792197"><ele>534.0</ele><time>2026-04-26T10:25:05.754Z</time></trkpt><trkpt lat="43.5678007" lon="11.6791267"><ele>534.0</ele><time>2026-04-26T10:25:06.755Z</time></trkpt><trkpt lat="43.5678942" lon="11.6790384"><ele>538.0</ele><time>2026-04-26T10:25:07.758Z</time></trkpt><trkpt lat="43.5679632" lon="11.6789242"><ele>542.0</ele><time>2026-04-26T10:25:08.754Z</time></trkpt><trkpt lat="43.5679706" lon="11.6787743"><ele>546.0</ele><time>2026-04-26T10:25:09.754Z</time></trkpt><trkpt lat="43.567929" lon="11.6786005"><ele>550.0</ele><time>2026-04-26T10:25:10.753Z</time></trkpt><trkpt lat="43.5678476" lon="11.6784158"><ele>536.0</ele><time>2026-04-26T10:25:11.753Z</time></trkpt><trkpt lat="43.5677298" lon="11.6782512"><ele>522.0</ele><time>2026-04-26T10:25:12.754Z</time></trkpt><trkpt lat="43.5676066" lon="11.6781124"><ele>508.0</ele><time>2026-04-26T10:25:13.753Z</time></trkpt><trkpt lat="43.5675011" lon="11.6779695"><ele>508.0</ele><time>2026-04-26T10:25:14.754Z</time></trkpt><trkpt lat="43.5674183" lon="11.6778047"><ele>508.0</ele><time>2026-04-26T10:25:15.755Z</time></trkpt><trkpt lat="43.5673644" lon="11.6776093"><ele>508.0</ele><time>2026-04-26T10:25:16.753Z</time></trkpt><trkpt lat="43.5673279" lon="11.6774156"><ele>508.0</ele><time>2026-04-26T10:25:17.756Z</time></trkpt><trkpt lat="43.5672897" lon="11.6772274"><ele>509.75</ele><time>2026-04-26T10:25:18.754Z</time></trkpt><trkpt lat="43.5672423" lon="11.6770419"><ele>511.5</ele><time>2026-04-26T10:25:19.756Z</time></trkpt><trkpt lat="43.5671777" lon="11.6768678"><ele>513.25</ele><time>2026-04-26T10:25:20.754Z</time></trkpt><trkpt lat="43.5671076" lon="11.676706"><ele>515.0</ele><time>2026-04-26T10:25:21.754Z</time></trkpt><trkpt lat="43.5670362" lon="11.6765581"><ele>509.2</ele><time>2026-04-26T10:25:22.754Z</time></trkpt><trkpt lat="43.5669684" lon="11.6764219"><ele>503.4</ele><time>2026-04-26T10:25:23.754Z</time></trkpt><trkpt lat="43.5669088" lon="11.6762928"><ele>497.6</ele><time>2026-04-26T10:25:24.753Z</time></trkpt><trkpt lat="43.5668708" lon="11.6761614"><ele>491.8</ele><time>2026-04-26T10:25:25.754Z</time></trkpt><trkpt lat="43.5668697" lon="11.6760268"><ele>486.0</ele><time>2026-04-26T10:25:26.754Z</time></trkpt><trkpt lat="43.5669209" lon="11.6759088"><ele>486.0</ele><time>2026-04-26T10:25:27.753Z</time></trkpt><trkpt lat="43.567025" lon="11.6758179"><ele>486.0</ele><time>2026-04-26T10:25:28.753Z</time></trkpt><trkpt lat="43.567153" lon="11.6757553"><ele>486.0</ele><time>2026-04-26T10:25:29.756Z</time></trkpt><trkpt lat="43.5672893" lon="11.6757274"><ele>486.0</ele><time>2026-04-26T10:25:30.753Z</time></trkpt><trkpt lat="43.5674259" lon="11.6757163"><ele>489.0</ele><time>2026-04-26T10:25:31.754Z</time></trkpt><trkpt lat="43.5675621" lon="11.6757084"><ele>492.0</ele><time>2026-04-26T10:25:32.754Z</time></trkpt><trkpt lat="43.567689" lon="11.6757003"><ele>495.0</ele><time>2026-04-26T10:25:33.753Z</time></trkpt><trkpt lat="43.5678089" lon="11.6756949"><ele>498.0</ele><time>2026-04-26T10:25:34.754Z</time></trkpt><trkpt lat="43.5679264" lon="11.6756992"><ele>498.25</ele><time>2026-04-26T10:25:35.755Z</time></trkpt><trkpt lat="43.568045" lon="11.6757171"><ele>498.5</ele><time>2026-04-26T10:25:36.754Z</time></trkpt><trkpt lat="43.5681581" lon="11.6757519"><ele>498.75</ele><time>2026-04-26T10:25:37.753Z</time></trkpt><trkpt lat="43.5682669" lon="11.6757953"><ele>499.0</ele><time>2026-04-26T10:25:38.754Z</time></trkpt><trkpt lat="43.5683692" lon="11.6758263"><ele>499.00000000000006</ele><time>2026-04-26T10:25:39.753Z</time></trkpt><trkpt lat="43.5684692" lon="11.6758432"><ele>499.0</ele><time>2026-04-26T10:25:40.753Z</time></trkpt><trkpt lat="43.5685568" lon="11.6758249"><ele>499.0</ele><time>2026-04-26T10:25:41.753Z</time></trkpt><trkpt lat="43.5686181" lon="11.6757789"><ele>499.0</ele><time>2026-04-26T10:25:42.755Z</time></trkpt><trkpt lat="43.5686619" lon="11.6757089"><ele>499.00000000000006</ele><time>2026-04-26T10:25:43.753Z</time></trkpt><trkpt lat="43.5686388" lon="11.6756068"><ele>499.0</ele><time>2026-04-26T10:25:44.754Z</time></trkpt><trkpt lat="43.5685941" lon="11.6754877"><ele>499.0</ele><time>2026-04-26T10:25:45.753Z</time></trkpt><trkpt lat="43.5685492" lon="11.675355"><ele>499.0</ele><time>2026-04-26T10:25:46.753Z</time></trkpt><trkpt lat="43.5685329" lon="11.6751985"><ele>499.0</ele><time>2026-04-26T10:25:47.755Z</time></trkpt><trkpt lat="43.5685314" lon="11.675039"><ele>499.0</ele><time>2026-04-26T10:25:48.753Z</time></trkpt><trkpt lat="43.5685537" lon="11.674885"><ele>498.0</ele><time>2026-04-26T10:25:49.753Z</time></trkpt><trkpt lat="43.5685953" lon="11.6747439"><ele>497.0</ele><time>2026-04-26T10:25:50.754Z</time></trkpt><trkpt lat="43.5686488" lon="11.6746143"><ele>496.0</ele><time>2026-04-26T10:25:51.753Z</time></trkpt><trkpt lat="43.5687141" lon="11.6745057"><ele>495.0</ele><time>2026-04-26T10:25:52.753Z</time></trkpt><trkpt lat="43.5687928" lon="11.6744265"><ele>494.0</ele><time>2026-04-26T10:25:53.753Z</time></trkpt><trkpt lat="43.5688783" lon="11.6743724"><ele>494.0</ele><time>2026-04-26T10:25:54.754Z</time></trkpt><trkpt lat="43.568968" lon="11.6743372"><ele>494.0</ele><time>2026-04-26T10:25:55.753Z</time></trkpt><trkpt lat="43.5690564" lon="11.6742975"><ele>494.0</ele><time>2026-04-26T10:25:56.753Z</time></trkpt><trkpt lat="43.569129" lon="11.6742295"><ele>494.0</ele><time>2026-04-26T10:25:57.753Z</time></trkpt><trkpt lat="43.5691509" lon="11.6741151"><ele>494.0</ele><time>2026-04-26T10:25:58.754Z</time></trkpt><trkpt lat="43.5691177" lon="11.6739895"><ele>494.0</ele><time>2026-04-26T10:25:59.753Z</time></trkpt><trkpt lat="43.5690357" lon="11.6738793"><ele>494.0</ele><time>2026-04-26T10:26:00.754Z</time></trkpt><trkpt lat="43.568913" lon="11.6738021"><ele>494.0</ele><time>2026-04-26T10:26:01.753Z</time></trkpt><trkpt lat="43.5687743" lon="11.673749"><ele>494.0</ele><time>2026-04-26T10:26:02.754Z</time></trkpt><trkpt lat="43.5686294" lon="11.6737094"><ele>491.75</ele><time>2026-04-26T10:26:03.753Z</time></trkpt><trkpt lat="43.5684917" lon="11.6736779"><ele>489.5</ele><time>2026-04-26T10:26:04.754Z</time></trkpt><trkpt lat="43.568358" lon="11.6736445"><ele>487.25</ele><time>2026-04-26T10:26:05.753Z</time></trkpt><trkpt lat="43.568227" lon="11.6736015"><ele>485.0</ele><time>2026-04-26T10:26:06.753Z</time></trkpt><trkpt lat="43.5680989" lon="11.6735377"><ele>485.0</ele><time>2026-04-26T10:26:07.753Z</time></trkpt><trkpt lat="43.5679757" lon="11.6734583"><ele>485.0</ele><time>2026-04-26T10:26:08.753Z</time></trkpt><trkpt lat="43.5678576" lon="11.6733613"><ele>485.0</ele><time>2026-04-26T10:26:09.753Z</time></trkpt><trkpt lat="43.5677409" lon="11.6732569"><ele>485.0</ele><time>2026-04-26T10:26:10.753Z</time></trkpt><trkpt lat="43.5676241" lon="11.6731561"><ele>479.5</ele><time>2026-04-26T10:26:11.754Z</time></trkpt><trkpt lat="43.5675021" lon="11.6730695"><ele>474.0</ele><time>2026-04-26T10:26:12.754Z</time></trkpt><trkpt lat="43.5673828" lon="11.6729902"><ele>468.5</ele><time>2026-04-26T10:26:13.755Z</time></trkpt><trkpt lat="43.5672705" lon="11.672903"><ele>463.0</ele><time>2026-04-26T10:26:14.754Z</time></trkpt><trkpt lat="43.5671661" lon="11.6728056"><ele>459.25</ele><time>2026-04-26T10:26:15.754Z</time></trkpt><trkpt lat="43.5670666" lon="11.672692"><ele>455.5</ele><time>2026-04-26T10:26:16.753Z</time></trkpt><trkpt lat="43.5669719" lon="11.6725697"><ele>451.75</ele><time>2026-04-26T10:26:17.753Z</time></trkpt><trkpt lat="43.5668859" lon="11.6724454"><ele>448.0</ele><time>2026-04-26T10:26:18.753Z</time></trkpt><trkpt lat="43.5668145" lon="11.6723202"><ele>448.0</ele><time>2026-04-26T10:26:19.753Z</time></trkpt><trkpt lat="43.56676" lon="11.6721919"><ele>447.99999999999994</ele><time>2026-04-26T10:26:20.756Z</time></trkpt><trkpt lat="43.5667379" lon="11.6720634"><ele>447.99999999999994</ele><time>2026-04-26T10:26:21.752Z</time></trkpt><trkpt lat="43.5667448" lon="11.6719378"><ele>448.0</ele><time>2026-04-26T10:26:22.754Z</time></trkpt><trkpt lat="43.5667926" lon="11.6718364"><ele>448.0</ele><time>2026-04-26T10:26:23.754Z</time></trkpt><trkpt lat="43.566868" lon="11.671757"><ele>447.0</ele><time>2026-04-26T10:26:24.753Z</time></trkpt><trkpt lat="43.5669579" lon="11.6716878"><ele>445.99999999999994</ele><time>2026-04-26T10:26:25.753Z</time></trkpt><trkpt lat="43.5670501" lon="11.6716167"><ele>444.99999999999994</ele><time>2026-04-26T10:26:26.754Z</time></trkpt><trkpt lat="43.5671416" lon="11.6715444"><ele>444.0</ele><time>2026-04-26T10:26:27.754Z</time></trkpt><trkpt lat="43.5672196" lon="11.671459"><ele>443.0</ele><time>2026-04-26T10:26:28.754Z</time></trkpt><trkpt lat="43.5672678" lon="11.6713637"><ele>446.49999999999994</ele><time>2026-04-26T10:26:29.753Z</time></trkpt><trkpt lat="43.5672923" lon="11.6712539"><ele>450.0</ele><time>2026-04-26T10:26:30.753Z</time></trkpt><trkpt lat="43.5672599" lon="11.6711542"><ele>453.5</ele><time>2026-04-26T10:26:31.754Z</time></trkpt><trkpt lat="43.5672092" lon="11.6710601"><ele>457.0</ele><time>2026-04-26T10:26:32.754Z</time></trkpt><trkpt lat="43.5671658" lon="11.6709608"><ele>460.49999999999994</ele><time>2026-04-26T10:26:33.753Z</time></trkpt><trkpt lat="43.5671593" lon="11.6708521"><ele>464.0</ele><time>2026-04-26T10:26:34.754Z</time></trkpt><trkpt lat="43.567181" lon="11.6707428"><ele>464.0</ele><time>2026-04-26T10:26:35.754Z</time></trkpt><trkpt lat="43.5672198" lon="11.6706263"><ele>464.0</ele><time>2026-04-26T10:26:36.754Z</time></trkpt><trkpt lat="43.5672575" lon="11.6705022"><ele>464.0</ele><time>2026-04-26T10:26:37.753Z</time></trkpt><trkpt lat="43.5672675" lon="11.6703635"><ele>464.0</ele><time>2026-04-26T10:26:38.754Z</time></trkpt><trkpt lat="43.5672584" lon="11.6702328"><ele>464.0</ele><time>2026-04-26T10:26:39.755Z</time></trkpt><trkpt lat="43.5672088" lon="11.6701189"><ele>465.25</ele><time>2026-04-26T10:26:40.754Z</time></trkpt><trkpt lat="43.5671034" lon="11.6700331"><ele>466.5</ele><time>2026-04-26T10:26:41.753Z</time></trkpt><trkpt lat="43.5669828" lon="11.669957"><ele>467.75</ele><time>2026-04-26T10:26:42.754Z</time></trkpt><trkpt lat="43.5668652" lon="11.6698827"><ele>469.0</ele><time>2026-04-26T10:26:43.755Z</time></trkpt><trkpt lat="43.5667502" lon="11.6698067"><ele>464.75</ele><time>2026-04-26T10:26:44.754Z</time></trkpt><trkpt lat="43.5666411" lon="11.6697237"><ele>460.5</ele><time>2026-04-26T10:26:45.753Z</time></trkpt><trkpt lat="43.5665502" lon="11.6696199"><ele>456.25</ele><time>2026-04-26T10:26:46.754Z</time></trkpt><trkpt lat="43.5664905" lon="11.6694994"><ele>452.0</ele><time>2026-04-26T10:26:47.753Z</time></trkpt><trkpt lat="43.5664683" lon="11.6693627"><ele>452.0</ele><time>2026-04-26T10:26:48.754Z</time></trkpt><trkpt lat="43.5664714" lon="11.6692235"><ele>452.00000000000006</ele><time>2026-04-26T10:26:49.756Z</time></trkpt><trkpt lat="43.5664642" lon="11.669088"><ele>452.00000000000006</ele><time>2026-04-26T10:26:50.754Z</time></trkpt><trkpt lat="43.5664231" lon="11.6689742"><ele>452.0</ele><time>2026-04-26T10:26:51.753Z</time></trkpt><trkpt lat="43.5663499" lon="11.668887"><ele>452.0</ele><time>2026-04-26T10:26:52.754Z</time></trkpt><trkpt lat="43.566247" lon="11.6688019"><ele>447.5</ele><time>2026-04-26T10:26:53.753Z</time></trkpt><trkpt lat="43.5661402" lon="11.6687034"><ele>443.0</ele><time>2026-04-26T10:26:54.753Z</time></trkpt><trkpt lat="43.5660296" lon="11.6685888"><ele>438.5</ele><time>2026-04-26T10:26:55.754Z</time></trkpt><trkpt lat="43.5659218" lon="11.6684776"><ele>434.0</ele><time>2026-04-26T10:26:56.754Z</time></trkpt><trkpt lat="43.5658174" lon="11.6683727"><ele>434.0</ele><time>2026-04-26T10:26:57.753Z</time></trkpt><trkpt lat="43.5657212" lon="11.668264"><ele>434.0</ele><time>2026-04-26T10:26:58.753Z</time></trkpt><trkpt lat="43.5656362" lon="11.6681544"><ele>434.0</ele><time>2026-04-26T10:26:59.753Z</time></trkpt><trkpt lat="43.5655596" lon="11.6680387"><ele>434.0</ele><time>2026-04-26T10:27:00.753Z</time></trkpt><trkpt lat="43.5655023" lon="11.6679089"><ele>435.0</ele><time>2026-04-26T10:27:01.753Z</time></trkpt><trkpt lat="43.5654676" lon="11.6677586"><ele>436.0</ele><time>2026-04-26T10:27:02.754Z</time></trkpt><trkpt lat="43.5654632" lon="11.6675976"><ele>437.0</ele><time>2026-04-26T10:27:03.753Z</time></trkpt><trkpt lat="43.5654786" lon="11.6674314"><ele>438.0</ele><time>2026-04-26T10:27:04.753Z</time></trkpt><trkpt lat="43.5655054" lon="11.6672661"><ele>438.0</ele><time>2026-04-26T10:27:05.753Z</time></trkpt><trkpt lat="43.5655537" lon="11.6671059"><ele>438.0</ele><time>2026-04-26T10:27:06.759Z</time></trkpt><trkpt lat="43.5656083" lon="11.6669474"><ele>438.0</ele><time>2026-04-26T10:27:07.753Z</time></trkpt><trkpt lat="43.5656432" lon="11.66678"><ele>438.0</ele><time>2026-04-26T10:27:08.754Z</time></trkpt><trkpt lat="43.5656467" lon="11.6666046"><ele>436.5</ele><time>2026-04-26T10:27:09.754Z</time></trkpt><trkpt lat="43.5656187" lon="11.6664344"><ele>435.0</ele><time>2026-04-26T10:27:10.753Z</time></trkpt><trkpt lat="43.5655743" lon="11.666271"><ele>433.5</ele><time>2026-04-26T10:27:11.753Z</time></trkpt><trkpt lat="43.5655265" lon="11.6661087"><ele>432.0</ele><time>2026-04-26T10:27:12.758Z</time></trkpt><trkpt lat="43.5654853" lon="11.665948"><ele>431.0</ele><time>2026-04-26T10:27:13.754Z</time></trkpt><trkpt lat="43.565455" lon="11.6657809"><ele>430.0</ele><time>2026-04-26T10:27:14.754Z</time></trkpt><trkpt lat="43.5654412" lon="11.66561"><ele>429.0</ele><time>2026-04-26T10:27:15.754Z</time></trkpt><trkpt lat="43.5654476" lon="11.6654406"><ele>428.0</ele><time>2026-04-26T10:27:16.754Z</time></trkpt><trkpt lat="43.5654777" lon="11.665272"><ele>426.0</ele><time>2026-04-26T10:27:17.754Z</time></trkpt><trkpt lat="43.5655276" lon="11.6651054"><ele>424.0</ele><time>2026-04-26T10:27:18.753Z</time></trkpt><trkpt lat="43.5655947" lon="11.664945"><ele>422.0</ele><time>2026-04-26T10:27:19.754Z</time></trkpt><trkpt lat="43.5656681" lon="11.6647869"><ele>420.0</ele><time>2026-04-26T10:27:20.756Z</time></trkpt><trkpt lat="43.5657332" lon="11.6646221"><ele>420.0</ele><time>2026-04-26T10:27:21.756Z</time></trkpt><trkpt lat="43.5657758" lon="11.664447"><ele>420.0</ele><time>2026-04-26T10:27:22.755Z</time></trkpt><trkpt lat="43.5657977" lon="11.6642684"><ele>420.0</ele><time>2026-04-26T10:27:23.756Z</time></trkpt><trkpt lat="43.5658081" lon="11.6640953"><ele>420.0</ele><time>2026-04-26T10:27:24.755Z</time></trkpt><trkpt lat="43.5658236" lon="11.6639401"><ele>417.6666666666667</ele><time>2026-04-26T10:27:25.755Z</time></trkpt><trkpt lat="43.5658425" lon="11.6638145"><ele>415.33333333333337</ele><time>2026-04-26T10:27:26.756Z</time></trkpt><trkpt lat="43.5658631" lon="11.663721"><ele>413.0</ele><time>2026-04-26T10:27:27.755Z</time></trkpt><trkpt lat="43.5658888" lon="11.6636381"><ele>410.6666666666667</ele><time>2026-04-26T10:27:29.753Z</time></trkpt><trkpt lat="43.5659517" lon="11.663715"><ele>408.33333333333337</ele><time>2026-04-26T10:28:02.753Z</time></trkpt><trkpt lat="43.56601" lon="11.6637483"><ele>406.0</ele><time>2026-04-26T10:28:04.753Z</time></trkpt><trkpt lat="43.5660817" lon="11.66378"><ele>406.0</ele><time>2026-04-26T10:28:06.754Z</time></trkpt><trkpt lat="43.56616" lon="11.6638"><ele>406.0</ele><time>2026-04-26T10:28:08.754Z</time></trkpt><trkpt lat="43.5662267" lon="11.6638283"><ele>406.0</ele><time>2026-04-26T10:28:10.753Z</time></trkpt><trkpt lat="43.5662717" lon="11.6638917"><ele>406.0</ele><time>2026-04-26T10:28:13.753Z</time></trkpt><trkpt lat="43.56633" lon="11.663925"><ele>406.0</ele><time>2026-04-26T10:28:15.754Z</time></trkpt><trkpt lat="43.5664" lon="11.6639217"><ele>406.0</ele><time>2026-04-26T10:28:17.754Z</time></trkpt><trkpt lat="43.5664933" lon="11.6639517"><ele>406.0</ele><time>2026-04-26T10:28:26.755Z</time></trkpt><trkpt lat="43.5665333" lon="11.6640467"><ele>408.00000000000006</ele><time>2026-04-26T10:28:29.754Z</time></trkpt><trkpt lat="43.56653" lon="11.664155"><ele>410.0</ele><time>2026-04-26T10:29:03.753Z</time></trkpt><trkpt lat="43.566465" lon="11.66425"><ele>412.0</ele><time>2026-04-26T10:29:06.753Z</time></trkpt><trkpt lat="43.566395" lon="11.6643233"><ele>414.0</ele><time>2026-04-26T10:29:08.754Z</time></trkpt><trkpt lat="43.5663233" lon="11.6644017"><ele>416.00000000000006</ele><time>2026-04-26T10:29:11.754Z</time></trkpt><trkpt lat="43.5663083" lon="11.6645033"><ele>418.0</ele><time>2026-04-26T10:29:14.754Z</time></trkpt><trkpt lat="43.5663567" lon="11.6644333"><ele>418.0</ele><time>2026-04-26T10:29:46.755Z</time></trkpt><trkpt lat="43.5664033" lon="11.6643683"><ele>418.0</ele><time>2026-04-26T10:29:48.756Z</time></trkpt><trkpt lat="43.5664683" lon="11.6642917"><ele>418.0</ele><time>2026-04-26T10:29:50.755Z</time></trkpt><trkpt lat="43.5665217" lon="11.66422"><ele>418.0</ele><time>2026-04-26T10:29:52.755Z</time></trkpt><trkpt lat="43.5665813" lon="11.6641363"><ele>418.0</ele><time>2026-04-26T10:29:55.821Z</time></trkpt><trkpt lat="43.5665753" lon="11.6640425"><ele>418.0</ele><time>2026-04-26T10:29:57.809Z</time></trkpt><trkpt lat="43.5665527" lon="11.6639544"><ele>418.0</ele><time>2026-04-26T10:29:59.754Z</time></trkpt><trkpt lat="43.5664864" lon="11.663916"><ele>418.00000000000006</ele><time>2026-04-26T10:30:01.836Z</time></trkpt><trkpt lat="43.5663924" lon="11.6639316"><ele>418.0</ele><time>2026-04-26T10:30:04.756Z</time></trkpt><trkpt lat="43.5663121" lon="11.6639287"><ele>418.0</ele><time>2026-04-26T10:30:06.758Z</time></trkpt><trkpt lat="43.5662543" lon="11.6638788"><ele>418.0</ele><time>2026-04-26T10:30:08.761Z</time></trkpt><trkpt lat="43.5662003" lon="11.6637976"><ele>418.00000000000006</ele><time>2026-04-26T10:30:11.764Z</time></trkpt><trkpt lat="43.5661366" lon="11.6637935"><ele>418.0</ele><time>2026-04-26T10:30:13.766Z</time></trkpt><trkpt lat="43.5660425" lon="11.6637653"><ele>416.00000000000006</ele><time>2026-04-26T10:30:15.768Z</time></trkpt><trkpt lat="43.5659836" lon="11.6637133"><ele>414.0</ele><time>2026-04-26T10:30:17.77Z</time></trkpt><trkpt lat="43.5659156" lon="11.6636686"><ele>412.0</ele><time>2026-04-26T10:30:20.773Z</time></trkpt><trkpt lat="43.565898" lon="11.6635646"><ele>410.0</ele><time>2026-04-26T10:30:25.778Z</time></trkpt><trkpt lat="43.5659433" lon="11.6634911"><ele>408.00000000000006</ele><time>2026-04-26T10:30:26.754Z</time></trkpt><trkpt lat="43.5660165" lon="11.6634031"><ele>406.0</ele><time>2026-04-26T10:30:27.753Z</time></trkpt><trkpt lat="43.5661044" lon="11.663326"><ele>404.0</ele><time>2026-04-26T10:30:28.753Z</time></trkpt><trkpt lat="43.5662009" lon="11.6632795"><ele>402.0</ele><time>2026-04-26T10:30:29.754Z</time></trkpt><trkpt lat="43.566307" lon="11.6632649"><ele>400.0</ele><time>2026-04-26T10:30:30.754Z</time></trkpt><trkpt lat="43.5664205" lon="11.6632764"><ele>398.0</ele><time>2026-04-26T10:30:31.754Z</time></trkpt><trkpt lat="43.5665349" lon="11.6633069"><ele>396.0</ele><time>2026-04-26T10:30:32.755Z</time></trkpt><trkpt lat="43.5666463" lon="11.6633526"><ele>396.0</ele><time>2026-04-26T10:30:33.757Z</time></trkpt><trkpt lat="43.5667561" lon="11.6634091"><ele>396.0</ele><time>2026-04-26T10:30:34.756Z</time></trkpt><trkpt lat="43.566862" lon="11.6634665"><ele>396.0</ele><time>2026-04-26T10:30:35.753Z</time></trkpt><trkpt lat="43.5669621" lon="11.6635209"><ele>396.0</ele><time>2026-04-26T10:30:36.755Z</time></trkpt><trkpt lat="43.5670632" lon="11.6635626"><ele>396.0</ele><time>2026-04-26T10:30:37.754Z</time></trkpt><trkpt lat="43.567165" lon="11.6635863"><ele>394.20000000000005</ele><time>2026-04-26T10:30:38.765Z</time></trkpt><trkpt lat="43.5672686" lon="11.6635859"><ele>392.40000000000003</ele><time>2026-04-26T10:30:39.755Z</time></trkpt><trkpt lat="43.5673748" lon="11.6635816"><ele>390.6</ele><time>2026-04-26T10:30:40.753Z</time></trkpt><trkpt lat="43.5674814" lon="11.6635751"><ele>388.8</ele><time>2026-04-26T10:30:41.758Z</time></trkpt><trkpt lat="43.5675852" lon="11.6636056"><ele>387.0</ele><time>2026-04-26T10:30:42.754Z</time></trkpt><trkpt lat="43.5676859" lon="11.6636633"><ele>390.6</ele><time>2026-04-26T10:30:43.753Z</time></trkpt><trkpt lat="43.567785" lon="11.6637332"><ele>394.20000000000005</ele><time>2026-04-26T10:30:44.762Z</time></trkpt><trkpt lat="43.5678909" lon="11.6637788"><ele>397.8</ele><time>2026-04-26T10:30:45.759Z</time></trkpt><trkpt lat="43.5680014" lon="11.6638082"><ele>401.4</ele><time>2026-04-26T10:30:46.754Z</time></trkpt><trkpt lat="43.5681088" lon="11.6638389"><ele>405.0</ele><time>2026-04-26T10:30:47.754Z</time></trkpt><trkpt lat="43.5682129" lon="11.6638748"><ele>405.0</ele><time>2026-04-26T10:30:48.755Z</time></trkpt><trkpt lat="43.5683004" lon="11.6639168"><ele>405.0</ele><time>2026-04-26T10:30:49.753Z</time></trkpt><trkpt lat="43.5683757" lon="11.663937"><ele>405.0</ele><time>2026-04-26T10:30:50.754Z</time></trkpt><trkpt lat="43.5684499" lon="11.6639432"><ele>405.0</ele><time>2026-04-26T10:30:51.754Z</time></trkpt><trkpt lat="43.5685307" lon="11.6638311"><ele>405.0</ele><time>2026-04-26T10:30:53.754Z</time></trkpt><trkpt lat="43.5685191" lon="11.6637168"><ele>405.0</ele><time>2026-04-26T10:30:54.758Z</time></trkpt><trkpt lat="43.5684845" lon="11.6635944"><ele>400.75</ele><time>2026-04-26T10:30:55.753Z</time></trkpt><trkpt lat="43.568426" lon="11.6634616"><ele>396.5</ele><time>2026-04-26T10:30:56.756Z</time></trkpt><trkpt lat="43.5683565" lon="11.6633479"><ele>392.25</ele><time>2026-04-26T10:30:57.758Z</time></trkpt><trkpt lat="43.5682753" lon="11.6632099"><ele>388.0</ele><time>2026-04-26T10:30:58.752Z</time></trkpt><trkpt lat="43.5681959" lon="11.6630715"><ele>388.0</ele><time>2026-04-26T10:30:59.755Z</time></trkpt><trkpt lat="43.5681218" lon="11.6629223"><ele>388.0</ele><time>2026-04-26T10:31:00.755Z</time></trkpt><trkpt lat="43.5680538" lon="11.6627784"><ele>388.0</ele><time>2026-04-26T10:31:01.754Z</time></trkpt><trkpt lat="43.5679914" lon="11.6626364"><ele>388.0</ele><time>2026-04-26T10:31:02.754Z</time></trkpt><trkpt lat="43.5679309" lon="11.6625008"><ele>388.4</ele><time>2026-04-26T10:31:03.753Z</time></trkpt><trkpt lat="43.5678709" lon="11.6623734"><ele>388.79999999999995</ele><time>2026-04-26T10:31:04.755Z</time></trkpt><trkpt lat="43.5678144" lon="11.6622584"><ele>389.2</ele><time>2026-04-26T10:31:05.755Z</time></trkpt><trkpt lat="43.5677565" lon="11.6621556"><ele>389.6</ele><time>2026-04-26T10:31:06.754Z</time></trkpt><trkpt lat="43.5676992" lon="11.6620679"><ele>390.0</ele><time>2026-04-26T10:31:07.754Z</time></trkpt><trkpt lat="43.5676403" lon="11.6619946"><ele>386.1666666666667</ele><time>2026-04-26T10:31:08.757Z</time></trkpt><trkpt lat="43.5675922" lon="11.6619182"><ele>382.3333333333333</ele><time>2026-04-26T10:31:09.754Z</time></trkpt><trkpt lat="43.5675597" lon="11.6618318"><ele>378.5</ele><time>2026-04-26T10:31:10.753Z</time></trkpt><trkpt lat="43.567541" lon="11.6617302"><ele>374.66666666666663</ele><time>2026-04-26T10:31:11.753Z</time></trkpt><trkpt lat="43.5675377" lon="11.6616238"><ele>370.8333333333333</ele><time>2026-04-26T10:31:12.754Z</time></trkpt><trkpt lat="43.5675852" lon="11.6615232"><ele>367.0</ele><time>2026-04-26T10:31:13.754Z</time></trkpt><trkpt lat="43.5676537" lon="11.6614267"><ele>367.0</ele><time>2026-04-26T10:31:14.754Z</time></trkpt><trkpt lat="43.5677129" lon="11.6613202"><ele>367.0</ele><time>2026-04-26T10:31:15.754Z</time></trkpt><trkpt lat="43.5677393" lon="11.6611983"><ele>367.0</ele><time>2026-04-26T10:31:16.753Z</time></trkpt><trkpt lat="43.5677315" lon="11.6610712"><ele>367.0</ele><time>2026-04-26T10:31:17.754Z</time></trkpt><trkpt lat="43.5677161" lon="11.6609488"><ele>367.0</ele><time>2026-04-26T10:31:18.753Z</time></trkpt><trkpt lat="43.5677049" lon="11.6608305"><ele>365.5</ele><time>2026-04-26T10:31:19.753Z</time></trkpt><trkpt lat="43.5677049" lon="11.6607113"><ele>364.0</ele><time>2026-04-26T10:31:20.755Z</time></trkpt><trkpt lat="43.567714" lon="11.6605998"><ele>362.5</ele><time>2026-04-26T10:31:21.753Z</time></trkpt><trkpt lat="43.5677387" lon="11.6604931"><ele>361.0</ele><time>2026-04-26T10:31:22.753Z</time></trkpt><trkpt lat="43.5677797" lon="11.6603986"><ele>359.5</ele><time>2026-04-26T10:31:23.756Z</time></trkpt><trkpt lat="43.5678434" lon="11.6603326"><ele>358.0</ele><time>2026-04-26T10:31:24.754Z</time></trkpt><trkpt lat="43.5679159" lon="11.6602757"><ele>357.8333333333333</ele><time>2026-04-26T10:31:25.754Z</time></trkpt><trkpt lat="43.5679963" lon="11.660244"><ele>357.66666666666663</ele><time>2026-04-26T10:31:26.754Z</time></trkpt><trkpt lat="43.5680803" lon="11.6602384"><ele>357.5</ele><time>2026-04-26T10:31:27.753Z</time></trkpt><trkpt lat="43.5681628" lon="11.6602448"><ele>357.3333333333333</ele><time>2026-04-26T10:31:28.754Z</time></trkpt><trkpt lat="43.5682498" lon="11.6602813"><ele>357.1666666666667</ele><time>2026-04-26T10:31:29.754Z</time></trkpt><trkpt lat="43.5683353" lon="11.6603326"><ele>357.0</ele><time>2026-04-26T10:31:30.754Z</time></trkpt><trkpt lat="43.56842" lon="11.6603866"><ele>359.5</ele><time>2026-04-26T10:31:31.754Z</time></trkpt><trkpt lat="43.5685017" lon="11.6604317"><ele>362.0</ele><time>2026-04-26T10:31:32.755Z</time></trkpt><trkpt lat="43.5685822" lon="11.6604613"><ele>364.5</ele><time>2026-04-26T10:31:33.754Z</time></trkpt><trkpt lat="43.5686613" lon="11.6604726"><ele>367.0</ele><time>2026-04-26T10:31:34.754Z</time></trkpt><trkpt lat="43.5687165" lon="11.6604269"><ele>369.5</ele><time>2026-04-26T10:31:35.754Z</time></trkpt><trkpt lat="43.5687309" lon="11.6603323"><ele>372.0</ele><time>2026-04-26T10:31:36.754Z</time></trkpt><trkpt lat="43.5687181" lon="11.6602274"><ele>369.0</ele><time>2026-04-26T10:31:37.754Z</time></trkpt><trkpt lat="43.5686711" lon="11.6601178"><ele>366.0</ele><time>2026-04-26T10:31:38.755Z</time></trkpt><trkpt lat="43.568615" lon="11.6600038"><ele>363.0</ele><time>2026-04-26T10:31:39.753Z</time></trkpt><trkpt lat="43.5685628" lon="11.6598911"><ele>360.0</ele><time>2026-04-26T10:31:40.755Z</time></trkpt><trkpt lat="43.5685188" lon="11.6597763"><ele>357.0</ele><time>2026-04-26T10:31:41.755Z</time></trkpt><trkpt lat="43.5684817" lon="11.6596583"><ele>357.0</ele><time>2026-04-26T10:31:42.753Z</time></trkpt><trkpt lat="43.5684483" lon="11.6595483"><ele>357.0</ele><time>2026-04-26T10:31:43.754Z</time></trkpt><trkpt lat="43.56841" lon="11.65944"><ele>357.0</ele><time>2026-04-26T10:31:44.754Z</time></trkpt><trkpt lat="43.568375" lon="11.6593317"><ele>357.0</ele><time>2026-04-26T10:31:45.754Z</time></trkpt><trkpt lat="43.5683417" lon="11.6592217"><ele>357.0</ele><time>2026-04-26T10:31:46.753Z</time></trkpt><trkpt lat="43.5683117" lon="11.6591117"><ele>357.0</ele><time>2026-04-26T10:31:47.754Z</time></trkpt><trkpt lat="43.56828" lon="11.659"><ele>355.8333333333333</ele><time>2026-04-26T10:31:48.753Z</time></trkpt><trkpt lat="43.5682533" lon="11.6588867"><ele>354.6666666666667</ele><time>2026-04-26T10:31:49.757Z</time></trkpt><trkpt lat="43.5682317" lon="11.65877"><ele>353.5</ele><time>2026-04-26T10:31:50.755Z</time></trkpt><trkpt lat="43.56822" lon="11.6586617"><ele>352.33333333333337</ele><time>2026-04-26T10:31:51.754Z</time></trkpt><trkpt lat="43.5682133" lon="11.65857"><ele>351.1666666666667</ele><time>2026-04-26T10:31:52.758Z</time></trkpt><trkpt lat="43.5682067" lon="11.658435"><ele>350.0</ele><time>2026-04-26T10:31:54.753Z</time></trkpt><trkpt lat="43.5682183" lon="11.65834"><ele>350.0</ele><time>2026-04-26T10:31:57.754Z</time></trkpt><trkpt lat="43.5681817" lon="11.65847"><ele>350.0</ele><time>2026-04-26T10:32:05.753Z</time></trkpt><trkpt lat="43.568185" lon="11.6585633"><ele>350.0</ele><time>2026-04-26T10:32:06.753Z</time></trkpt><trkpt lat="43.568195" lon="11.65867"><ele>350.0</ele><time>2026-04-26T10:32:07.754Z</time></trkpt><trkpt lat="43.568205" lon="11.65879"><ele>350.0</ele><time>2026-04-26T10:32:08.754Z</time></trkpt><trkpt lat="43.568225" lon="11.65891"><ele>350.0</ele><time>2026-04-26T10:32:09.753Z</time></trkpt><trkpt lat="43.56826" lon="11.65903"><ele>350.0</ele><time>2026-04-26T10:32:10.755Z</time></trkpt><trkpt lat="43.568295" lon="11.6591567"><ele>350.0</ele><time>2026-04-26T10:32:11.753Z</time></trkpt><trkpt lat="43.5683283" lon="11.659285"><ele>350.0</ele><time>2026-04-26T10:32:12.754Z</time></trkpt><trkpt lat="43.5683617" lon="11.6594183"><ele>350.0</ele><time>2026-04-26T10:32:13.753Z</time></trkpt><trkpt lat="43.5683983" lon="11.6595533"><ele>350.0</ele><time>2026-04-26T10:32:14.756Z</time></trkpt><trkpt lat="43.5684383" lon="11.6596867"><ele>351.4</ele><time>2026-04-26T10:32:15.753Z</time></trkpt><trkpt lat="43.5684867" lon="11.6598183"><ele>352.8</ele><time>2026-04-26T10:32:16.754Z</time></trkpt><trkpt lat="43.5685383" lon="11.6599433"><ele>354.20000000000005</ele><time>2026-04-26T10:32:17.753Z</time></trkpt><trkpt lat="43.5685967" lon="11.6600633"><ele>355.6</ele><time>2026-04-26T10:32:18.753Z</time></trkpt><trkpt lat="43.56865" lon="11.6601733"><ele>357.0</ele><time>2026-04-26T10:32:19.755Z</time></trkpt><trkpt lat="43.5686833" lon="11.6602767"><ele>360.0</ele><time>2026-04-26T10:32:20.755Z</time></trkpt><trkpt lat="43.568695" lon="11.6603717"><ele>363.0</ele><time>2026-04-26T10:32:21.753Z</time></trkpt><trkpt lat="43.5686083" lon="11.6604817"><ele>366.0</ele><time>2026-04-26T10:32:23.755Z</time></trkpt><trkpt lat="43.56853" lon="11.6604583"><ele>369.0</ele><time>2026-04-26T10:32:24.754Z</time></trkpt><trkpt lat="43.5684383" lon="11.6604133"><ele>372.0</ele><time>2026-04-26T10:32:25.754Z</time></trkpt><trkpt lat="43.5683267" lon="11.6603433"><ele>372.0</ele><time>2026-04-26T10:32:26.755Z</time></trkpt><trkpt lat="43.5682167" lon="11.6602933"><ele>372.0</ele><time>2026-04-26T10:32:27.753Z</time></trkpt><trkpt lat="43.5680983" lon="11.660275"><ele>372.0</ele><time>2026-04-26T10:32:28.753Z</time></trkpt><trkpt lat="43.567975" lon="11.660295"><ele>372.0</ele><time>2026-04-26T10:32:29.753Z</time></trkpt><trkpt lat="43.567865" lon="11.6603533"><ele>368.5</ele><time>2026-04-26T10:32:30.754Z</time></trkpt><trkpt lat="43.5677733" lon="11.6604533"><ele>365.0</ele><time>2026-04-26T10:32:31.754Z</time></trkpt><trkpt lat="43.5677067" lon="11.66058"><ele>361.5</ele><time>2026-04-26T10:32:32.754Z</time></trkpt><trkpt lat="43.56768" lon="11.660735"><ele>358.0</ele><time>2026-04-26T10:32:33.753Z</time></trkpt><trkpt lat="43.56771" lon="11.6608867"><ele>358.0</ele><time>2026-04-26T10:32:34.753Z</time></trkpt><trkpt lat="43.5677267" lon="11.6610467"><ele>358.0</ele><time>2026-04-26T10:32:35.754Z</time></trkpt><trkpt lat="43.5677333" lon="11.6612083"><ele>358.0</ele><time>2026-04-26T10:32:36.753Z</time></trkpt><trkpt lat="43.5677117" lon="11.661365"><ele>358.0</ele><time>2026-04-26T10:32:37.753Z</time></trkpt><trkpt lat="43.56766" lon="11.6614983"><ele>359.79999999999995</ele><time>2026-04-26T10:32:38.754Z</time></trkpt><trkpt lat="43.5676017" lon="11.661625"><ele>361.6</ele><time>2026-04-26T10:32:39.754Z</time></trkpt><trkpt lat="43.5675683" lon="11.661765"><ele>363.4</ele><time>2026-04-26T10:32:40.754Z</time></trkpt><trkpt lat="43.567575" lon="11.6619133"><ele>365.20000000000005</ele><time>2026-04-26T10:32:41.753Z</time></trkpt><trkpt lat="43.567625" lon="11.6620483"><ele>367.0</ele><time>2026-04-26T10:32:42.752Z</time></trkpt><trkpt lat="43.5677117" lon="11.6621667"><ele>368.0</ele><time>2026-04-26T10:32:43.755Z</time></trkpt><trkpt lat="43.5678" lon="11.662295"><ele>369.0</ele><time>2026-04-26T10:32:44.754Z</time></trkpt><trkpt lat="43.567875" lon="11.6624483"><ele>370.0</ele><time>2026-04-26T10:32:45.753Z</time></trkpt><trkpt lat="43.5679467" lon="11.662605"><ele>371.0</ele><time>2026-04-26T10:32:46.754Z</time></trkpt><trkpt lat="43.5680183" lon="11.6627633"><ele>375.25</ele><time>2026-04-26T10:32:47.754Z</time></trkpt><trkpt lat="43.56809" lon="11.6629133"><ele>379.5</ele><time>2026-04-26T10:32:48.753Z</time></trkpt><trkpt lat="43.5681667" lon="11.6630533"><ele>383.75</ele><time>2026-04-26T10:32:49.753Z</time></trkpt><trkpt lat="43.5682467" lon="11.6631933"><ele>388.0</ele><time>2026-04-26T10:32:50.754Z</time></trkpt><trkpt lat="43.5683267" lon="11.66333"><ele>388.0</ele><time>2026-04-26T10:32:51.753Z</time></trkpt><trkpt lat="43.5684" lon="11.663465"><ele>388.0</ele><time>2026-04-26T10:32:52.753Z</time></trkpt><trkpt lat="43.56845" lon="11.663595"><ele>388.0</ele><time>2026-04-26T10:32:53.753Z</time></trkpt><trkpt lat="43.5684733" lon="11.6637117"><ele>388.0</ele><time>2026-04-26T10:32:54.753Z</time></trkpt><trkpt lat="43.5684633" lon="11.6638133"><ele>388.0</ele><time>2026-04-26T10:32:55.756Z</time></trkpt><trkpt lat="43.5684283" lon="11.6638883"><ele>391.4</ele><time>2026-04-26T10:32:56.754Z</time></trkpt><trkpt lat="43.568365" lon="11.66392"><ele>394.79999999999995</ele><time>2026-04-26T10:32:57.754Z</time></trkpt><trkpt lat="43.5682883" lon="11.6638967"><ele>398.2</ele><time>2026-04-26T10:32:58.754Z</time></trkpt><trkpt lat="43.5681933" lon="11.6638467"><ele>401.6</ele><time>2026-04-26T10:32:59.753Z</time></trkpt><trkpt lat="43.5680917" lon="11.6638167"><ele>405.0</ele><time>2026-04-26T10:33:00.755Z</time></trkpt><trkpt lat="43.5679817" lon="11.6637833"><ele>405.0</ele><time>2026-04-26T10:33:01.753Z</time></trkpt><trkpt lat="43.56787" lon="11.6637417"><ele>405.0</ele><time>2026-04-26T10:33:02.754Z</time></trkpt><trkpt lat="43.5677617" lon="11.66368"><ele>405.0</ele><time>2026-04-26T10:33:03.753Z</time></trkpt><trkpt lat="43.567655" lon="11.6636067"><ele>405.0</ele><time>2026-04-26T10:33:04.754Z</time></trkpt><trkpt lat="43.5675467" lon="11.66355"><ele>402.75</ele><time>2026-04-26T10:33:05.754Z</time></trkpt><trkpt lat="43.5674233" lon="11.663525"><ele>400.5</ele><time>2026-04-26T10:33:06.756Z</time></trkpt><trkpt lat="43.56729" lon="11.6635233"><ele>398.25</ele><time>2026-04-26T10:33:07.754Z</time></trkpt><trkpt lat="43.567155" lon="11.66352"><ele>396.0</ele><time>2026-04-26T10:33:08.754Z</time></trkpt><trkpt lat="43.5670217" lon="11.6635"><ele>396.0</ele><time>2026-04-26T10:33:09.754Z</time></trkpt><trkpt lat="43.5668883" lon="11.6634467"><ele>396.0</ele><time>2026-04-26T10:33:10.754Z</time></trkpt><trkpt lat="43.5667583" lon="11.6633733"><ele>396.0</ele><time>2026-04-26T10:33:11.753Z</time></trkpt><trkpt lat="43.56663" lon="11.6633017"><ele>396.0</ele><time>2026-04-26T10:33:12.755Z</time></trkpt><trkpt lat="43.566495" lon="11.6632517"><ele>396.0</ele><time>2026-04-26T10:33:13.754Z</time></trkpt><trkpt lat="43.5663533" lon="11.66323"><ele>396.0</ele><time>2026-04-26T10:33:14.755Z</time></trkpt><trkpt lat="43.5662167" lon="11.6632383"><ele>396.0</ele><time>2026-04-26T10:33:15.753Z</time></trkpt><trkpt lat="43.566093" lon="11.6632818"><ele>396.0</ele><time>2026-04-26T10:33:16.753Z</time></trkpt><trkpt lat="43.5659864" lon="11.6633666"><ele>396.0</ele><time>2026-04-26T10:33:17.754Z</time></trkpt><trkpt lat="43.5658942" lon="11.6634922"><ele>396.0</ele><time>2026-04-26T10:33:18.755Z</time></trkpt><trkpt lat="43.5658367" lon="11.6636522"><ele>396.0</ele><time>2026-04-26T10:33:19.754Z</time></trkpt><trkpt lat="43.5658074" lon="11.6638309"><ele>396.0</ele><time>2026-04-26T10:33:20.754Z</time></trkpt><trkpt lat="43.5657896" lon="11.6640156"><ele>398.5</ele><time>2026-04-26T10:33:21.755Z</time></trkpt><trkpt lat="43.5657749" lon="11.6642039"><ele>401.0</ele><time>2026-04-26T10:33:22.754Z</time></trkpt><trkpt lat="43.5657625" lon="11.6643991"><ele>403.5</ele><time>2026-04-26T10:33:23.754Z</time></trkpt><trkpt lat="43.5657343" lon="11.6645922"><ele>406.0</ele><time>2026-04-26T10:33:24.754Z</time></trkpt><trkpt lat="43.5656761" lon="11.6647657"><ele>409.5</ele><time>2026-04-26T10:33:25.753Z</time></trkpt><trkpt lat="43.5656001" lon="11.6649293"><ele>413.0</ele><time>2026-04-26T10:33:26.759Z</time></trkpt><trkpt lat="43.565529" lon="11.6650867"><ele>416.5</ele><time>2026-04-26T10:33:27.753Z</time></trkpt><trkpt lat="43.5654798" lon="11.6652531"><ele>420.0</ele><time>2026-04-26T10:33:28.753Z</time></trkpt><trkpt lat="43.5654481" lon="11.6654262"><ele>422.0</ele><time>2026-04-26T10:33:29.754Z</time></trkpt><trkpt lat="43.5654296" lon="11.6656011"><ele>424.0</ele><time>2026-04-26T10:33:30.754Z</time></trkpt><trkpt lat="43.5654314" lon="11.6657752"><ele>426.0</ele><time>2026-04-26T10:33:31.755Z</time></trkpt><trkpt lat="43.5654592" lon="11.6659471"><ele>428.0</ele><time>2026-04-26T10:33:32.754Z</time></trkpt><trkpt lat="43.5654997" lon="11.6661156"><ele>429.0</ele><time>2026-04-26T10:33:33.753Z</time></trkpt><trkpt lat="43.565544" lon="11.6662766"><ele>430.0</ele><time>2026-04-26T10:33:34.753Z</time></trkpt><trkpt lat="43.5655882" lon="11.6664329"><ele>431.0</ele><time>2026-04-26T10:33:35.758Z</time></trkpt><trkpt lat="43.5656246" lon="11.6665882"><ele>432.0</ele><time>2026-04-26T10:33:36.753Z</time></trkpt><trkpt lat="43.5656379" lon="11.6667523"><ele>432.0</ele><time>2026-04-26T10:33:37.754Z</time></trkpt><trkpt lat="43.5656257" lon="11.6669192"><ele>432.0</ele><time>2026-04-26T10:33:38.754Z</time></trkpt><trkpt lat="43.5655811" lon="11.6670819"><ele>432.0</ele><time>2026-04-26T10:33:39.753Z</time></trkpt><trkpt lat="43.5655305" lon="11.6672353"><ele>432.0</ele><time>2026-04-26T10:33:40.753Z</time></trkpt><trkpt lat="43.565494" lon="11.6673696"><ele>432.3333333333333</ele><time>2026-04-26T10:33:41.753Z</time></trkpt><trkpt lat="43.5654731" lon="11.6674739"><ele>432.66666666666663</ele><time>2026-04-26T10:33:42.753Z</time></trkpt><trkpt lat="43.565453" lon="11.6675967"><ele>433.0</ele><time>2026-04-26T10:33:44.755Z</time></trkpt><trkpt lat="43.5654617" lon="11.66776"><ele>433.3333333333333</ele><time>2026-04-26T10:34:04.753Z</time></trkpt><trkpt lat="43.56548" lon="11.667855"><ele>433.66666666666663</ele><time>2026-04-26T10:34:05.755Z</time></trkpt><trkpt lat="43.5655117" lon="11.667955"><ele>434.0</ele><time>2026-04-26T10:34:06.753Z</time></trkpt><trkpt lat="43.5655583" lon="11.668055"><ele>434.0</ele><time>2026-04-26T10:34:07.754Z</time></trkpt><trkpt lat="43.5656183" lon="11.6681533"><ele>434.0</ele><time>2026-04-26T10:34:08.759Z</time></trkpt><trkpt lat="43.5657717" lon="11.668355"><ele>434.0</ele><time>2026-04-26T10:34:10.755Z</time></trkpt><trkpt lat="43.565865" lon="11.66846"><ele>434.0</ele><time>2026-04-26T10:34:11.754Z</time></trkpt><trkpt lat="43.56596" lon="11.6685667"><ele>430.5</ele><time>2026-04-26T10:34:12.753Z</time></trkpt><trkpt lat="43.5660567" lon="11.6686767"><ele>427.0</ele><time>2026-04-26T10:34:13.754Z</time></trkpt><trkpt lat="43.5661517" lon="11.6687833"><ele>423.5</ele><time>2026-04-26T10:34:14.755Z</time></trkpt><trkpt lat="43.566245" lon="11.6688767"><ele>420.0</ele><time>2026-04-26T10:34:15.754Z</time></trkpt><trkpt lat="43.5663367" lon="11.6689483"><ele>423.8</ele><time>2026-04-26T10:34:16.753Z</time></trkpt><trkpt lat="43.56642" lon="11.6690183"><ele>427.6</ele><time>2026-04-26T10:34:17.754Z</time></trkpt><trkpt lat="43.5664733" lon="11.6691133"><ele>431.4</ele><time>2026-04-26T10:34:18.753Z</time></trkpt><trkpt lat="43.5664917" lon="11.6692317"><ele>435.2</ele><time>2026-04-26T10:34:19.754Z</time></trkpt><trkpt lat="43.5664833" lon="11.669355"><ele>439.0</ele><time>2026-04-26T10:34:20.755Z</time></trkpt><trkpt lat="43.5664817" lon="11.669485"><ele>439.0</ele><time>2026-04-26T10:34:21.754Z</time></trkpt><trkpt lat="43.56649" lon="11.6696217"><ele>439.0</ele><time>2026-04-26T10:34:22.754Z</time></trkpt><trkpt lat="43.5665413" lon="11.6697351"><ele>439.0</ele><time>2026-04-26T10:34:23.754Z</time></trkpt><trkpt lat="43.5666135" lon="11.6698311"><ele>439.0</ele><time>2026-04-26T10:34:24.753Z</time></trkpt><trkpt lat="43.5667031" lon="11.6699109"><ele>439.0</ele><time>2026-04-26T10:34:25.753Z</time></trkpt><trkpt lat="43.5668033" lon="11.6699734"><ele>439.0</ele><time>2026-04-26T10:34:26.753Z</time></trkpt><trkpt lat="43.5669034" lon="11.6700359"><ele>439.0</ele><time>2026-04-26T10:34:27.753Z</time></trkpt><trkpt lat="43.5670006" lon="11.6701111"><ele>439.0</ele><time>2026-04-26T10:34:28.754Z</time></trkpt><trkpt lat="43.5670932" lon="11.6701907"><ele>439.0</ele><time>2026-04-26T10:34:29.755Z</time></trkpt><trkpt lat="43.5671766" lon="11.6702696"><ele>439.0</ele><time>2026-04-26T10:34:30.754Z</time></trkpt><trkpt lat="43.5672315" lon="11.6703609"><ele>444.0</ele><time>2026-04-26T10:34:31.753Z</time></trkpt><trkpt lat="43.5672593" lon="11.6704701"><ele>449.0</ele><time>2026-04-26T10:34:32.754Z</time></trkpt><trkpt lat="43.5672572" lon="11.6705963"><ele>454.0</ele><time>2026-04-26T10:34:33.753Z</time></trkpt><trkpt lat="43.5672118" lon="11.6707192"><ele>459.0</ele><time>2026-04-26T10:34:34.755Z</time></trkpt><trkpt lat="43.5671487" lon="11.6708271"><ele>464.0</ele><time>2026-04-26T10:34:35.753Z</time></trkpt><trkpt lat="43.5670965" lon="11.6709387"><ele>463.99999999999994</ele><time>2026-04-26T10:34:36.753Z</time></trkpt><trkpt lat="43.5670896" lon="11.6710549"><ele>464.0</ele><time>2026-04-26T10:34:37.754Z</time></trkpt><trkpt lat="43.5671464" lon="11.6711527"><ele>464.0</ele><time>2026-04-26T10:34:38.755Z</time></trkpt><trkpt lat="43.5672079" lon="11.6712451"><ele>464.0</ele><time>2026-04-26T10:34:39.754Z</time></trkpt><trkpt lat="43.5672575" lon="11.6713429"><ele>463.99999999999994</ele><time>2026-04-26T10:34:40.753Z</time></trkpt><trkpt lat="43.567255" lon="11.6714427"><ele>464.0</ele><time>2026-04-26T10:34:41.753Z</time></trkpt><trkpt lat="43.5672167" lon="11.6715346"><ele>465.0</ele><time>2026-04-26T10:34:42.754Z</time></trkpt><trkpt lat="43.5671379" lon="11.6716079"><ele>466.0</ele><time>2026-04-26T10:34:43.753Z</time></trkpt><trkpt lat="43.567045" lon="11.6716776"><ele>467.0</ele><time>2026-04-26T10:34:44.755Z</time></trkpt><trkpt lat="43.5669525" lon="11.6717498"><ele>468.0</ele><time>2026-04-26T10:34:45.753Z</time></trkpt><trkpt lat="43.5668622" lon="11.6718281"><ele>469.0</ele><time>2026-04-26T10:34:46.754Z</time></trkpt><trkpt lat="43.5667896" lon="11.6719142"><ele>464.79999999999995</ele><time>2026-04-26T10:34:47.754Z</time></trkpt><trkpt lat="43.5667481" lon="11.6720242"><ele>460.59999999999997</ele><time>2026-04-26T10:34:48.753Z</time></trkpt><trkpt lat="43.5667321" lon="11.6721542"><ele>456.4</ele><time>2026-04-26T10:34:49.756Z</time></trkpt><trkpt lat="43.5667633" lon="11.6722868"><ele>452.2</ele><time>2026-04-26T10:34:50.755Z</time></trkpt><trkpt lat="43.5668349" lon="11.6724097"><ele>448.0</ele><time>2026-04-26T10:34:51.754Z</time></trkpt><trkpt lat="43.5669143" lon="11.6725292"><ele>448.0</ele><time>2026-04-26T10:34:52.757Z</time></trkpt><trkpt lat="43.567002" lon="11.6726507"><ele>448.0</ele><time>2026-04-26T10:34:53.756Z</time></trkpt><trkpt lat="43.5670968" lon="11.6727696"><ele>448.0</ele><time>2026-04-26T10:34:54.754Z</time></trkpt><trkpt lat="43.5672045" lon="11.6728763"><ele>448.0</ele><time>2026-04-26T10:34:55.753Z</time></trkpt><trkpt lat="43.5673232" lon="11.6729792"><ele>451.75</ele><time>2026-04-26T10:34:56.753Z</time></trkpt><trkpt lat="43.5674478" lon="11.6730792"><ele>455.5</ele><time>2026-04-26T10:34:57.753Z</time></trkpt><trkpt lat="43.5675698" lon="11.6731759"><ele>459.25</ele><time>2026-04-26T10:34:58.754Z</time></trkpt><trkpt lat="43.5676873" lon="11.6732762"><ele>463.0</ele><time>2026-04-26T10:34:59.755Z</time></trkpt><trkpt lat="43.5677996" lon="11.6733848"><ele>463.5</ele><time>2026-04-26T10:35:00.754Z</time></trkpt><trkpt lat="43.5679117" lon="11.6734964"><ele>464.0</ele><time>2026-04-26T10:35:01.754Z</time></trkpt><trkpt lat="43.5680304" lon="11.6735943"><ele>464.5</ele><time>2026-04-26T10:35:02.755Z</time></trkpt><trkpt lat="43.5681563" lon="11.6736634"><ele>465.0</ele><time>2026-04-26T10:35:03.755Z</time></trkpt><trkpt lat="43.568286" lon="11.6737042"><ele>465.0</ele><time>2026-04-26T10:35:04.755Z</time></trkpt><trkpt lat="43.5684198" lon="11.6737348"><ele>465.0</ele><time>2026-04-26T10:35:05.755Z</time></trkpt><trkpt lat="43.5685575" lon="11.6737675"><ele>465.0</ele><time>2026-04-26T10:35:06.755Z</time></trkpt><trkpt lat="43.5686898" lon="11.673807"><ele>465.0</ele><time>2026-04-26T10:35:07.756Z</time></trkpt><trkpt lat="43.5688215" lon="11.6738602"><ele>470.8</ele><time>2026-04-26T10:35:08.755Z</time></trkpt><trkpt lat="43.5689442" lon="11.6739398"><ele>476.6</ele><time>2026-04-26T10:35:09.753Z</time></trkpt><trkpt lat="43.5690336" lon="11.6740367"><ele>482.4</ele><time>2026-04-26T10:35:10.755Z</time></trkpt><trkpt lat="43.5690711" lon="11.6741486"><ele>488.2</ele><time>2026-04-26T10:35:11.753Z</time></trkpt><trkpt lat="43.5690792" lon="11.6742558"><ele>494.0</ele><time>2026-04-26T10:35:12.753Z</time></trkpt><trkpt lat="43.5690399" lon="11.6743512"><ele>494.0</ele><time>2026-04-26T10:35:13.754Z</time></trkpt><trkpt lat="43.5689546" lon="11.674406"><ele>494.0</ele><time>2026-04-26T10:35:14.754Z</time></trkpt><trkpt lat="43.5688344" lon="11.6744488"><ele>494.0</ele><time>2026-04-26T10:35:15.753Z</time></trkpt><trkpt lat="43.5687097" lon="11.6745177"><ele>494.0</ele><time>2026-04-26T10:35:16.753Z</time></trkpt><trkpt lat="43.5685952" lon="11.6746141"><ele>495.25</ele><time>2026-04-26T10:35:17.754Z</time></trkpt><trkpt lat="43.5685232" lon="11.6747633"><ele>496.5</ele><time>2026-04-26T10:35:18.753Z</time></trkpt><trkpt lat="43.5684846" lon="11.6749524"><ele>497.75</ele><time>2026-04-26T10:35:19.754Z</time></trkpt><trkpt lat="43.5684748" lon="11.6751486"><ele>499.0</ele><time>2026-04-26T10:35:20.754Z</time></trkpt><trkpt lat="43.5684988" lon="11.6753265"><ele>499.00000000000006</ele><time>2026-04-26T10:35:21.753Z</time></trkpt><trkpt lat="43.5685426" lon="11.6754731"><ele>499.0</ele><time>2026-04-26T10:35:22.754Z</time></trkpt><trkpt lat="43.5685778" lon="11.6756011"><ele>499.0</ele><time>2026-04-26T10:35:23.754Z</time></trkpt><trkpt lat="43.5685864" lon="11.6757177"><ele>499.0</ele><time>2026-04-26T10:35:24.755Z</time></trkpt><trkpt lat="43.568552" lon="11.6758004"><ele>499.00000000000006</ele><time>2026-04-26T10:35:25.754Z</time></trkpt><trkpt lat="43.5684773" lon="11.6758332"><ele>499.0</ele><time>2026-04-26T10:35:26.754Z</time></trkpt><trkpt lat="43.5683813" lon="11.6758163"><ele>499.0</ele><time>2026-04-26T10:35:27.753Z</time></trkpt><trkpt lat="43.5682547" lon="11.6757614"><ele>499.0</ele><time>2026-04-26T10:35:28.753Z</time></trkpt><trkpt lat="43.5681067" lon="11.6756984"><ele>499.0</ele><time>2026-04-26T10:35:29.754Z</time></trkpt><trkpt lat="43.5679474" lon="11.6756626"><ele>499.0</ele><time>2026-04-26T10:35:30.753Z</time></trkpt><trkpt lat="43.5677803" lon="11.6756574"><ele>498.6666666666667</ele><time>2026-04-26T10:35:31.754Z</time></trkpt><trkpt lat="43.5676115" lon="11.6756671"><ele>498.33333333333337</ele><time>2026-04-26T10:35:32.754Z</time></trkpt><trkpt lat="43.5674541" lon="11.6756758"><ele>498.0</ele><time>2026-04-26T10:35:33.753Z</time></trkpt><trkpt lat="43.5673093" lon="11.6756929"><ele>498.0</ele><time>2026-04-26T10:35:34.755Z</time></trkpt><trkpt lat="43.5671739" lon="11.67573"><ele>498.0</ele><time>2026-04-26T10:35:35.753Z</time></trkpt><trkpt lat="43.5670473" lon="11.6757999"><ele>498.0</ele><time>2026-04-26T10:35:36.754Z</time></trkpt><trkpt lat="43.5669432" lon="11.6758968"><ele>498.0</ele><time>2026-04-26T10:35:37.754Z</time></trkpt><trkpt lat="43.5668789" lon="11.676016"><ele>495.2</ele><time>2026-04-26T10:35:38.754Z</time></trkpt><trkpt lat="43.5668529" lon="11.6761455"><ele>492.4</ele><time>2026-04-26T10:35:39.754Z</time></trkpt><trkpt lat="43.5668574" lon="11.6762804"><ele>489.59999999999997</ele><time>2026-04-26T10:35:40.755Z</time></trkpt><trkpt lat="43.5669013" lon="11.6764163"><ele>486.79999999999995</ele><time>2026-04-26T10:35:41.753Z</time></trkpt><trkpt lat="43.5669796" lon="11.6765573"><ele>484.0</ele><time>2026-04-26T10:35:42.754Z</time></trkpt><trkpt lat="43.5670592" lon="11.6767119"><ele>491.75</ele><time>2026-04-26T10:35:43.754Z</time></trkpt><trkpt lat="43.5671294" lon="11.6768663"><ele>499.5</ele><time>2026-04-26T10:35:44.754Z</time></trkpt><trkpt lat="43.5672018" lon="11.6770166"><ele>507.25</ele><time>2026-04-26T10:35:45.754Z</time></trkpt><trkpt lat="43.5672585" lon="11.6771723"><ele>515.0</ele><time>2026-04-26T10:35:46.754Z</time></trkpt><trkpt lat="43.567307" lon="11.6773388"><ele>515.0</ele><time>2026-04-26T10:35:47.755Z</time></trkpt><trkpt lat="43.567341" lon="11.6775199"><ele>515.0</ele><time>2026-04-26T10:35:48.755Z</time></trkpt><trkpt lat="43.5673664" lon="11.677707"><ele>515.0</ele><time>2026-04-26T10:35:49.755Z</time></trkpt><trkpt lat="43.5674028" lon="11.6778908"><ele>515.0</ele><time>2026-04-26T10:35:50.755Z</time></trkpt><trkpt lat="43.5674597" lon="11.6780632"><ele>513.25</ele><time>2026-04-26T10:35:51.754Z</time></trkpt><trkpt lat="43.5675514" lon="11.6781977"><ele>511.5</ele><time>2026-04-26T10:35:52.755Z</time></trkpt><trkpt lat="43.5676614" lon="11.6783088"><ele>509.75</ele><time>2026-04-26T10:35:53.756Z</time></trkpt><trkpt lat="43.5677666" lon="11.67843"><ele>508.0</ele><time>2026-04-26T10:35:54.755Z</time></trkpt><trkpt lat="43.5678524" lon="11.6785744"><ele>509.4</ele><time>2026-04-26T10:35:55.754Z</time></trkpt><trkpt lat="43.5679083" lon="11.6787298"><ele>510.79999999999995</ele><time>2026-04-26T10:35:56.754Z</time></trkpt><trkpt lat="43.567932" lon="11.6788784"><ele>512.2</ele><time>2026-04-26T10:35:57.755Z</time></trkpt><trkpt lat="43.5679192" lon="11.6790101"><ele>513.6</ele><time>2026-04-26T10:35:58.755Z</time></trkpt><trkpt lat="43.5678565" lon="11.6791053"><ele>515.0</ele><time>2026-04-26T10:35:59.754Z</time></trkpt><trkpt lat="43.5677583" lon="11.6791714"><ele>515.0</ele><time>2026-04-26T10:36:00.756Z</time></trkpt><trkpt lat="43.5676694" lon="11.6792458"><ele>515.0</ele><time>2026-04-26T10:36:01.753Z</time></trkpt><trkpt lat="43.5675973" lon="11.6793419"><ele>515.0</ele><time>2026-04-26T10:36:02.755Z</time></trkpt><trkpt lat="43.5675808" lon="11.6794765"><ele>515.0</ele><time>2026-04-26T10:36:03.753Z</time></trkpt><trkpt lat="43.5675782" lon="11.6796383"><ele>515.0</ele><time>2026-04-26T10:36:04.754Z</time></trkpt><trkpt lat="43.5675569" lon="11.6797956"><ele>519.75</ele><time>2026-04-26T10:36:05.753Z</time></trkpt><trkpt lat="43.5674976" lon="11.6799081"><ele>524.5</ele><time>2026-04-26T10:36:06.758Z</time></trkpt><trkpt lat="43.567399" lon="11.6799611"><ele>529.25</ele><time>2026-04-26T10:36:07.753Z</time></trkpt><trkpt lat="43.5672697" lon="11.6799638"><ele>534.0</ele><time>2026-04-26T10:36:08.754Z</time></trkpt><trkpt lat="43.5671399" lon="11.6799716"><ele>534.0</ele><time>2026-04-26T10:36:09.754Z</time></trkpt><trkpt lat="43.5670308" lon="11.6800158"><ele>534.0</ele><time>2026-04-26T10:36:10.753Z</time></trkpt><trkpt lat="43.566951" lon="11.6801195"><ele>534.0</ele><time>2026-04-26T10:36:11.754Z</time></trkpt><trkpt lat="43.566897" lon="11.680251"><ele>534.0</ele><time>2026-04-26T10:36:12.754Z</time></trkpt><trkpt lat="43.5668864" lon="11.6804009"><ele>534.0</ele><time>2026-04-26T10:36:13.754Z</time></trkpt><trkpt lat="43.5669368" lon="11.680583"><ele>531.25</ele><time>2026-04-26T10:36:14.754Z</time></trkpt><trkpt lat="43.5669978" lon="11.6807834"><ele>528.5</ele><time>2026-04-26T10:36:15.754Z</time></trkpt><trkpt lat="43.5670352" lon="11.6809836"><ele>525.75</ele><time>2026-04-26T10:36:16.753Z</time></trkpt><trkpt lat="43.5670463" lon="11.6811688"><ele>523.0</ele><time>2026-04-26T10:36:17.755Z</time></trkpt><trkpt lat="43.5670418" lon="11.6813325"><ele>526.4</ele><time>2026-04-26T10:36:18.753Z</time></trkpt><trkpt lat="43.5670245" lon="11.6814734"><ele>529.8</ele><time>2026-04-26T10:36:19.754Z</time></trkpt><trkpt lat="43.5669896" lon="11.6815898"><ele>533.2</ele><time>2026-04-26T10:36:20.754Z</time></trkpt><trkpt lat="43.5669296" lon="11.6816743"><ele>536.6</ele><time>2026-04-26T10:36:21.753Z</time></trkpt><trkpt lat="43.5668517" lon="11.6817286"><ele>540.0</ele><time>2026-04-26T10:36:22.754Z</time></trkpt><trkpt lat="43.5667567" lon="11.6817454"><ele>540.0</ele><time>2026-04-26T10:36:23.755Z</time></trkpt><trkpt lat="43.5666466" lon="11.6817486"><ele>540.0</ele><time>2026-04-26T10:36:24.754Z</time></trkpt><trkpt lat="43.5665282" lon="11.6817575"><ele>540.0</ele><time>2026-04-26T10:36:25.754Z</time></trkpt><trkpt lat="43.566406" lon="11.6817724"><ele>540.0</ele><time>2026-04-26T10:36:26.755Z</time></trkpt><trkpt lat="43.5662814" lon="11.6817954"><ele>540.75</ele><time>2026-04-26T10:36:27.754Z</time></trkpt><trkpt lat="43.5661676" lon="11.6818419"><ele>541.5</ele><time>2026-04-26T10:36:28.753Z</time></trkpt><trkpt lat="43.5660655" lon="11.6819218"><ele>542.25</ele><time>2026-04-26T10:36:29.754Z</time></trkpt><trkpt lat="43.5659766" lon="11.68203"><ele>543.0</ele><time>2026-04-26T10:36:30.753Z</time></trkpt><trkpt lat="43.565911" lon="11.6821626"><ele>543.0</ele><time>2026-04-26T10:36:31.754Z</time></trkpt><trkpt lat="43.5658697" lon="11.6823105"><ele>543.0</ele><time>2026-04-26T10:36:32.754Z</time></trkpt><trkpt lat="43.5658567" lon="11.6824683"><ele>543.0</ele><time>2026-04-26T10:36:33.754Z</time></trkpt><trkpt lat="43.5658705" lon="11.6826312"><ele>543.0</ele><time>2026-04-26T10:36:34.754Z</time></trkpt><trkpt lat="43.565908" lon="11.6827959"><ele>542.75</ele><time>2026-04-26T10:36:35.754Z</time></trkpt><trkpt lat="43.5659597" lon="11.6829663"><ele>542.5</ele><time>2026-04-26T10:36:36.754Z</time></trkpt><trkpt lat="43.566013" lon="11.6831362"><ele>542.25</ele><time>2026-04-26T10:36:37.754Z</time></trkpt><trkpt lat="43.5660596" lon="11.6832955"><ele>542.0</ele><time>2026-04-26T10:36:38.754Z</time></trkpt><trkpt lat="43.5661009" lon="11.6834386"><ele>542.0</ele><time>2026-04-26T10:36:39.754Z</time></trkpt><trkpt lat="43.566136" lon="11.6835715"><ele>542.0</ele><time>2026-04-26T10:36:40.754Z</time></trkpt><trkpt lat="43.5661735" lon="11.6836993"><ele>542.0</ele><time>2026-04-26T10:36:41.754Z</time></trkpt><trkpt lat="43.5662237" lon="11.6838196"><ele>542.0</ele><time>2026-04-26T10:36:42.753Z</time></trkpt><trkpt lat="43.5662858" lon="11.6839256"><ele>542.0</ele><time>2026-04-26T10:36:43.754Z</time></trkpt><trkpt lat="43.5663451" lon="11.684017"><ele>544.3333333333333</ele><time>2026-04-26T10:36:44.754Z</time></trkpt><trkpt lat="43.5663939" lon="11.6841006"><ele>546.6666666666666</ele><time>2026-04-26T10:36:45.754Z</time></trkpt><trkpt lat="43.5664345" lon="11.6841781"><ele>549.0</ele><time>2026-04-26T10:36:46.753Z</time></trkpt><trkpt lat="43.5664877" lon="11.6843033"><ele>551.3333333333334</ele><time>2026-04-26T10:36:48.755Z</time></trkpt><trkpt lat="43.5665279" lon="11.6843928"><ele>553.6666666666667</ele><time>2026-04-26T10:36:50.755Z</time></trkpt><trkpt lat="43.5665653" lon="11.6844734"><ele>556.0</ele><time>2026-04-26T10:36:52.755Z</time></trkpt><trkpt lat="43.5666196" lon="11.6845846"><ele>556.0</ele><time>2026-04-26T10:36:54.754Z</time></trkpt><trkpt lat="43.5666511" lon="11.6846628"><ele>556.0</ele><time>2026-04-26T10:36:55.754Z</time></trkpt><trkpt lat="43.566686" lon="11.6847515"><ele>556.0</ele><time>2026-04-26T10:36:56.755Z</time></trkpt><trkpt lat="43.56673" lon="11.6848451"><ele>556.0</ele><time>2026-04-26T10:36:57.754Z</time></trkpt><trkpt lat="43.5667885" lon="11.6849432"><ele>556.0</ele><time>2026-04-26T10:36:58.754Z</time></trkpt><trkpt lat="43.5668631" lon="11.6850339"><ele>556.0</ele><time>2026-04-26T10:36:59.754Z</time></trkpt><trkpt lat="43.5669571" lon="11.6851128"><ele>556.25</ele><time>2026-04-26T10:37:00.754Z</time></trkpt><trkpt lat="43.5670714" lon="11.6851806"><ele>556.5</ele><time>2026-04-26T10:37:01.754Z</time></trkpt><trkpt lat="43.5671942" lon="11.6852409"><ele>556.75</ele><time>2026-04-26T10:37:02.756Z</time></trkpt><trkpt lat="43.5673231" lon="11.6852932"><ele>557.0</ele><time>2026-04-26T10:37:03.754Z</time></trkpt><trkpt lat="43.5674554" lon="11.6853211"><ele>557.0</ele><time>2026-04-26T10:37:04.754Z</time></trkpt><trkpt lat="43.5675842" lon="11.6853358"><ele>557.0</ele><time>2026-04-26T10:37:05.753Z</time></trkpt><trkpt lat="43.5677058" lon="11.6853511"><ele>557.0</ele><time>2026-04-26T10:37:06.754Z</time></trkpt><trkpt lat="43.5678186" lon="11.6853933"><ele>557.0</ele><time>2026-04-26T10:37:07.755Z</time></trkpt><trkpt lat="43.5679234" lon="11.6854617"><ele>560.0</ele><time>2026-04-26T10:37:08.756Z</time></trkpt><trkpt lat="43.5680283" lon="11.6855356"><ele>563.0</ele><time>2026-04-26T10:37:09.753Z</time></trkpt><trkpt lat="43.5681335" lon="11.6856078"><ele>566.0</ele><time>2026-04-26T10:37:10.755Z</time></trkpt><trkpt lat="43.5682386" lon="11.6856813"><ele>569.0</ele><time>2026-04-26T10:37:11.755Z</time></trkpt><trkpt lat="43.5683504" lon="11.685753"><ele>569.0</ele><time>2026-04-26T10:37:12.754Z</time></trkpt><trkpt lat="43.5684671" lon="11.6858107"><ele>569.0</ele><time>2026-04-26T10:37:13.756Z</time></trkpt><trkpt lat="43.5685901" lon="11.6858559"><ele>569.0</ele><time>2026-04-26T10:37:14.756Z</time></trkpt><trkpt lat="43.5687166" lon="11.6858909"><ele>569.0</ele><time>2026-04-26T10:37:15.754Z</time></trkpt><trkpt lat="43.5688443" lon="11.6859077"><ele>570.5</ele><time>2026-04-26T10:37:16.754Z</time></trkpt><trkpt lat="43.5689714" lon="11.6858844"><ele>572.0</ele><time>2026-04-26T10:37:17.754Z</time></trkpt><trkpt lat="43.5690938" lon="11.6858277"><ele>573.5</ele><time>2026-04-26T10:37:18.753Z</time></trkpt><trkpt lat="43.5692156" lon="11.6857681"><ele>575.0</ele><time>2026-04-26T10:37:19.755Z</time></trkpt><trkpt lat="43.5693384" lon="11.6857062"><ele>575.0</ele><time>2026-04-26T10:37:20.756Z</time></trkpt><trkpt lat="43.5694483" lon="11.6856129"><ele>575.0</ele><time>2026-04-26T10:37:21.755Z</time></trkpt><trkpt lat="43.5695387" lon="11.685485"><ele>575.0</ele><time>2026-04-26T10:37:22.756Z</time></trkpt><trkpt lat="43.5696048" lon="11.6853278"><ele>575.0</ele><time>2026-04-26T10:37:23.755Z</time></trkpt><trkpt lat="43.5696623" lon="11.6851649"><ele>576.25</ele><time>2026-04-26T10:37:24.755Z</time></trkpt><trkpt lat="43.5697276" lon="11.6850109"><ele>577.5</ele><time>2026-04-26T10:37:25.754Z</time></trkpt><trkpt lat="43.5698166" lon="11.6848864"><ele>578.75</ele><time>2026-04-26T10:37:26.755Z</time></trkpt><trkpt lat="43.5699149" lon="11.6847751"><ele>580.0</ele><time>2026-04-26T10:37:27.754Z</time></trkpt><trkpt lat="43.5700108" lon="11.6846603"><ele>580.0</ele><time>2026-04-26T10:37:28.755Z</time></trkpt><trkpt lat="43.570104" lon="11.6845409"><ele>580.0</ele><time>2026-04-26T10:37:29.755Z</time></trkpt><trkpt lat="43.570195" lon="11.6844197"><ele>580.0</ele><time>2026-04-26T10:37:30.756Z</time></trkpt><trkpt lat="43.5702851" lon="11.6842938"><ele>580.0</ele><time>2026-04-26T10:37:31.756Z</time></trkpt><trkpt lat="43.5703749" lon="11.6841669"><ele>581.75</ele><time>2026-04-26T10:37:32.756Z</time></trkpt><trkpt lat="43.5704673" lon="11.6840401"><ele>583.5</ele><time>2026-04-26T10:37:33.755Z</time></trkpt><trkpt lat="43.5705608" lon="11.6839142"><ele>585.25</ele><time>2026-04-26T10:37:34.755Z</time></trkpt><trkpt lat="43.5706497" lon="11.6837821"><ele>587.0</ele><time>2026-04-26T10:37:35.754Z</time></trkpt><trkpt lat="43.5707274" lon="11.6836373"><ele>588.0</ele><time>2026-04-26T10:37:36.755Z</time></trkpt><trkpt lat="43.5707893" lon="11.6834823"><ele>589.0</ele><time>2026-04-26T10:37:37.755Z</time></trkpt><trkpt lat="43.5708382" lon="11.6833204"><ele>590.0</ele><time>2026-04-26T10:37:38.757Z</time></trkpt><trkpt lat="43.5708911" lon="11.6831611"><ele>591.0</ele><time>2026-04-26T10:37:39.755Z</time></trkpt><trkpt lat="43.5709641" lon="11.6830186"><ele>591.0</ele><time>2026-04-26T10:37:40.756Z</time></trkpt><trkpt lat="43.5710445" lon="11.6828958"><ele>591.0</ele><time>2026-04-26T10:37:41.754Z</time></trkpt><trkpt lat="43.5711296" lon="11.6827791"><ele>591.0</ele><time>2026-04-26T10:37:42.754Z</time></trkpt><trkpt lat="43.5712069" lon="11.6826637"><ele>591.0</ele><time>2026-04-26T10:37:43.755Z</time></trkpt><trkpt lat="43.5712733" lon="11.682552"><ele>592.0</ele><time>2026-04-26T10:37:44.755Z</time></trkpt><trkpt lat="43.5713286" lon="11.6824359"><ele>593.0</ele><time>2026-04-26T10:37:45.753Z</time></trkpt><trkpt lat="43.5713701" lon="11.6823171"><ele>594.0</ele><time>2026-04-26T10:37:46.753Z</time></trkpt><trkpt lat="43.5714013" lon="11.6822011"><ele>595.0</ele><time>2026-04-26T10:37:47.754Z</time></trkpt><trkpt lat="43.5714288" lon="11.6820877"><ele>596.0</ele><time>2026-04-26T10:37:48.753Z</time></trkpt><trkpt lat="43.5714645" lon="11.6819778"><ele>597.4</ele><time>2026-04-26T10:37:49.754Z</time></trkpt><trkpt lat="43.5715054" lon="11.6818706"><ele>598.8</ele><time>2026-04-26T10:37:50.754Z</time></trkpt><trkpt lat="43.5715596" lon="11.6817788"><ele>600.1999999999999</ele><time>2026-04-26T10:37:51.757Z</time></trkpt><trkpt lat="43.5716304" lon="11.68171"><ele>601.6</ele><time>2026-04-26T10:37:52.756Z</time></trkpt><trkpt lat="43.5717054" lon="11.6816528"><ele>603.0</ele><time>2026-04-26T10:37:53.753Z</time></trkpt><trkpt lat="43.5718078" lon="11.6816067"><ele>603.0</ele><time>2026-04-26T10:37:54.754Z</time></trkpt><trkpt lat="43.571924" lon="11.681558"><ele>603.0</ele><time>2026-04-26T10:37:55.755Z</time></trkpt><trkpt lat="43.5720359" lon="11.6814974"><ele>603.0</ele><time>2026-04-26T10:37:56.754Z</time></trkpt><trkpt lat="43.5721438" lon="11.6814276"><ele>603.0</ele><time>2026-04-26T10:37:57.753Z</time></trkpt><trkpt lat="43.5722475" lon="11.6813565"><ele>602.75</ele><time>2026-04-26T10:37:58.754Z</time></trkpt><trkpt lat="43.5723552" lon="11.6812843"><ele>602.5</ele><time>2026-04-26T10:37:59.754Z</time></trkpt><trkpt lat="43.5724704" lon="11.6812133"><ele>602.25</ele><time>2026-04-26T10:38:00.754Z</time></trkpt><trkpt lat="43.5725876" lon="11.6811502"><ele>602.0</ele><time>2026-04-26T10:38:01.753Z</time></trkpt><trkpt lat="43.5726978" lon="11.6811091"><ele>602.0</ele><time>2026-04-26T10:38:02.754Z</time></trkpt><trkpt lat="43.5727976" lon="11.681106"><ele>602.0</ele><time>2026-04-26T10:38:03.754Z</time></trkpt><trkpt lat="43.5728857" lon="11.6811423"><ele>602.0</ele><time>2026-04-26T10:38:04.753Z</time></trkpt><trkpt lat="43.5729686" lon="11.6812014"><ele>602.0</ele><time>2026-04-26T10:38:05.753Z</time></trkpt><trkpt lat="43.5730497" lon="11.6812597"><ele>602.0</ele><time>2026-04-26T10:38:06.754Z</time></trkpt><trkpt lat="43.5731349" lon="11.681307"><ele>602.8000000000001</ele><time>2026-04-26T10:38:07.754Z</time></trkpt><trkpt lat="43.5732239" lon="11.6813353"><ele>603.6</ele><time>2026-04-26T10:38:08.754Z</time></trkpt><trkpt lat="43.5733182" lon="11.6813466"><ele>604.4000000000001</ele><time>2026-04-26T10:38:09.754Z</time></trkpt><trkpt lat="43.5734171" lon="11.681331"><ele>605.2</ele><time>2026-04-26T10:38:10.754Z</time></trkpt><trkpt lat="43.5735141" lon="11.6812984"><ele>606.0</ele><time>2026-04-26T10:38:11.754Z</time></trkpt><trkpt lat="43.5736042" lon="11.6812359"><ele>606.0</ele><time>2026-04-26T10:38:12.754Z</time></trkpt><trkpt lat="43.5736831" lon="11.6811515"><ele>606.0</ele><time>2026-04-26T10:38:13.753Z</time></trkpt><trkpt lat="43.5737578" lon="11.681062"><ele>606.0</ele><time>2026-04-26T10:38:14.754Z</time></trkpt><trkpt lat="43.5738384" lon="11.6809864"><ele>606.0</ele><time>2026-04-26T10:38:15.754Z</time></trkpt><trkpt lat="43.5739275" lon="11.6809423"><ele>606.0</ele><time>2026-04-26T10:38:16.755Z</time></trkpt><trkpt lat="43.5740274" lon="11.6809449"><ele>610.0</ele><time>2026-04-26T10:38:17.754Z</time></trkpt><trkpt lat="43.5741275" lon="11.6809775"><ele>614.0</ele><time>2026-04-26T10:38:18.759Z</time></trkpt><trkpt lat="43.5742246" lon="11.6810104"><ele>618.0</ele><time>2026-04-26T10:38:19.754Z</time></trkpt><trkpt lat="43.5743161" lon="11.6810141"><ele>622.0</ele><time>2026-04-26T10:38:20.754Z</time></trkpt><trkpt lat="43.5744065" lon="11.6809894"><ele>626.0</ele><time>2026-04-26T10:38:21.753Z</time></trkpt><trkpt lat="43.5744798" lon="11.6809261"><ele>626.2</ele><time>2026-04-26T10:38:22.754Z</time></trkpt><trkpt lat="43.5745351" lon="11.6808244"><ele>626.4000000000001</ele><time>2026-04-26T10:38:23.753Z</time></trkpt><trkpt lat="43.5745827" lon="11.6807051"><ele>626.6</ele><time>2026-04-26T10:38:24.754Z</time></trkpt><trkpt lat="43.5746305" lon="11.6805879"><ele>626.8000000000001</ele><time>2026-04-26T10:38:25.756Z</time></trkpt><trkpt lat="43.5746817" lon="11.6804854"><ele>627.0</ele><time>2026-04-26T10:38:26.756Z</time></trkpt><trkpt lat="43.5747319" lon="11.6803984"><ele>627.0</ele><time>2026-04-26T10:38:27.754Z</time></trkpt><trkpt lat="43.5747878" lon="11.6803239"><ele>627.0</ele><time>2026-04-26T10:38:28.754Z</time></trkpt><trkpt lat="43.5748449" lon="11.6802671"><ele>627.0</ele><time>2026-04-26T10:38:29.754Z</time></trkpt><trkpt lat="43.5749086" lon="11.6802331"><ele>627.0</ele><time>2026-04-26T10:38:30.755Z</time></trkpt><trkpt lat="43.5749801" lon="11.6802147"><ele>627.0</ele><time>2026-04-26T10:38:31.754Z</time></trkpt><trkpt lat="43.5750586" lon="11.6802087"><ele>627.0</ele><time>2026-04-26T10:38:32.754Z</time></trkpt><trkpt lat="43.5751346" lon="11.6802012"><ele>627.0</ele><time>2026-04-26T10:38:33.753Z</time></trkpt><trkpt lat="43.5752047" lon="11.6801912"><ele>628.1666666666666</ele><time>2026-04-26T10:38:34.754Z</time></trkpt><trkpt lat="43.5753202" lon="11.6801798"><ele>629.3333333333334</ele><time>2026-04-26T10:38:36.754Z</time></trkpt><trkpt lat="43.5754033" lon="11.6801694"><ele>630.5</ele><time>2026-04-26T10:38:38.754Z</time></trkpt><trkpt lat="43.5754753" lon="11.6801658"><ele>631.6666666666667</ele><time>2026-04-26T10:38:40.754Z</time></trkpt><trkpt lat="43.5755518" lon="11.6801657"><ele>632.8333333333334</ele><time>2026-04-26T10:38:43.754Z</time></trkpt><trkpt lat="43.5756232" lon="11.6801448"><ele>634.0</ele><time>2026-04-26T10:38:46.754Z</time></trkpt><trkpt lat="43.5756893" lon="11.6801424"><ele>634.0</ele><time>2026-04-26T10:38:48.754Z</time></trkpt><trkpt lat="43.5757649" lon="11.6801191"><ele>634.0</ele><time>2026-04-26T10:38:50.755Z</time></trkpt><trkpt lat="43.5758409" lon="11.6800816"><ele>634.0</ele><time>2026-04-26T10:38:52.754Z</time></trkpt><trkpt lat="43.5759419" lon="11.680028"><ele>634.0</ele><time>2026-04-26T10:38:54.754Z</time></trkpt><trkpt lat="43.5760032" lon="11.6799741"><ele>634.0</ele><time>2026-04-26T10:38:55.752Z</time></trkpt><trkpt lat="43.5760631" lon="11.6799072"><ele>634.0</ele><time>2026-04-26T10:38:56.754Z</time></trkpt><trkpt lat="43.5761233" lon="11.679835"><ele>634.5</ele><time>2026-04-26T10:38:57.753Z</time></trkpt><trkpt lat="43.5761882" lon="11.6797723"><ele>635.0</ele><time>2026-04-26T10:38:58.754Z</time></trkpt><trkpt lat="43.5762579" lon="11.6797315"><ele>635.5</ele><time>2026-04-26T10:38:59.754Z</time></trkpt><trkpt lat="43.5763321" lon="11.6797108"><ele>636.0</ele><time>2026-04-26T10:39:00.753Z</time></trkpt><trkpt lat="43.5764182" lon="11.6797256"><ele>636.5</ele><time>2026-04-26T10:39:01.754Z</time></trkpt><trkpt lat="43.5765098" lon="11.6797782"><ele>637.0</ele><time>2026-04-26T10:39:02.754Z</time></trkpt><trkpt lat="43.5765986" lon="11.679857"><ele>637.0</ele><time>2026-04-26T10:39:03.753Z</time></trkpt><trkpt lat="43.5766835" lon="11.6799432"><ele>637.0</ele><time>2026-04-26T10:39:04.754Z</time></trkpt><trkpt lat="43.5767648" lon="11.6800301"><ele>637.0</ele><time>2026-04-26T10:39:05.759Z</time></trkpt><trkpt lat="43.5768459" lon="11.6801165"><ele>637.0</ele><time>2026-04-26T10:39:06.754Z</time></trkpt><trkpt lat="43.5769283" lon="11.6801925"><ele>637.0</ele><time>2026-04-26T10:39:07.754Z</time></trkpt><trkpt lat="43.5770185" lon="11.6802568"><ele>634.6</ele><time>2026-04-26T10:39:08.755Z</time></trkpt><trkpt lat="43.5771091" lon="11.6803132"><ele>632.2</ele><time>2026-04-26T10:39:09.753Z</time></trkpt><trkpt lat="43.577197" lon="11.6803647"><ele>629.8</ele><time>2026-04-26T10:39:10.754Z</time></trkpt><trkpt lat="43.577285" lon="11.6804092"><ele>627.4</ele><time>2026-04-26T10:39:11.754Z</time></trkpt><trkpt lat="43.5773716" lon="11.6804495"><ele>625.0</ele><time>2026-04-26T10:39:12.753Z</time></trkpt><trkpt lat="43.5774551" lon="11.6804884"><ele>625.0</ele><time>2026-04-26T10:39:13.753Z</time></trkpt><trkpt lat="43.5775356" lon="11.6805207"><ele>625.0</ele><time>2026-04-26T10:39:14.754Z</time></trkpt><trkpt lat="43.5776171" lon="11.6805504"><ele>625.0</ele><time>2026-04-26T10:39:15.754Z</time></trkpt><trkpt lat="43.5776974" lon="11.6805876"><ele>625.0</ele><time>2026-04-26T10:39:16.754Z</time></trkpt><trkpt lat="43.5777761" lon="11.6806368"><ele>625.0</ele><time>2026-04-26T10:39:17.754Z</time></trkpt><trkpt lat="43.5778543" lon="11.6806919"><ele>625.0</ele><time>2026-04-26T10:39:18.754Z</time></trkpt><trkpt lat="43.5779286" lon="11.680748"><ele>624.3333333333334</ele><time>2026-04-26T10:39:19.754Z</time></trkpt><trkpt lat="43.5779876" lon="11.6808101"><ele>623.6666666666667</ele><time>2026-04-26T10:39:20.757Z</time></trkpt><trkpt lat="43.578058" lon="11.6809297"><ele>623.0</ele><time>2026-04-26T10:39:22.754Z</time></trkpt><trkpt lat="43.5780931" lon="11.6810362"><ele>622.3333333333334</ele><time>2026-04-26T10:39:24.755Z</time></trkpt><trkpt lat="43.5781445" lon="11.6811535"><ele>621.6666666666666</ele><time>2026-04-26T10:39:26.756Z</time></trkpt><trkpt lat="43.5781794" lon="11.6812333"><ele>621.0</ele><time>2026-04-26T10:39:27.755Z</time></trkpt><trkpt lat="43.5782204" lon="11.6813272"><ele>621.0</ele><time>2026-04-26T10:39:28.755Z</time></trkpt><trkpt lat="43.5782692" lon="11.68142"><ele>621.0</ele><time>2026-04-26T10:39:29.754Z</time></trkpt><trkpt lat="43.5783239" lon="11.6815071"><ele>621.0</ele><time>2026-04-26T10:39:30.754Z</time></trkpt><trkpt lat="43.5783864" lon="11.6815819"><ele>621.0</ele><time>2026-04-26T10:39:31.754Z</time></trkpt><trkpt lat="43.5784608" lon="11.6816433"><ele>621.0</ele><time>2026-04-26T10:39:32.754Z</time></trkpt><trkpt lat="43.5785417" lon="11.6816958"><ele>621.0</ele><time>2026-04-26T10:39:33.754Z</time></trkpt><trkpt lat="43.578624" lon="11.6817365"><ele>620.8333333333334</ele><time>2026-04-26T10:39:34.754Z</time></trkpt><trkpt lat="43.5786988" lon="11.6817542"><ele>620.6666666666666</ele><time>2026-04-26T10:39:35.754Z</time></trkpt><trkpt lat="43.5787712" lon="11.6817254"><ele>620.5</ele><time>2026-04-26T10:39:36.753Z</time></trkpt><trkpt lat="43.5788414" lon="11.6816458"><ele>620.3333333333333</ele><time>2026-04-26T10:39:37.753Z</time></trkpt><trkpt lat="43.5789079" lon="11.6815431"><ele>620.1666666666666</ele><time>2026-04-26T10:39:38.755Z</time></trkpt><trkpt lat="43.57898" lon="11.6814342"><ele>620.0</ele><time>2026-04-26T10:39:39.754Z</time></trkpt><trkpt lat="43.5790563" lon="11.6813251"><ele>620.0</ele><time>2026-04-26T10:39:40.754Z</time></trkpt><trkpt lat="43.5791401" lon="11.6812184"><ele>620.0</ele><time>2026-04-26T10:39:41.754Z</time></trkpt><trkpt lat="43.579227" lon="11.6811131"><ele>620.0</ele><time>2026-04-26T10:39:42.754Z</time></trkpt><trkpt lat="43.5793142" lon="11.6810077"><ele>620.0</ele><time>2026-04-26T10:39:43.754Z</time></trkpt><trkpt lat="43.5793987" lon="11.6809051"><ele>619.8</ele><time>2026-04-26T10:39:44.755Z</time></trkpt><trkpt lat="43.5794756" lon="11.6807983"><ele>619.6</ele><time>2026-04-26T10:39:45.755Z</time></trkpt><trkpt lat="43.57955" lon="11.680686"><ele>619.4</ele><time>2026-04-26T10:39:46.754Z</time></trkpt><trkpt lat="43.5796181" lon="11.6805677"><ele>619.2</ele><time>2026-04-26T10:39:47.754Z</time></trkpt><trkpt lat="43.5796677" lon="11.6804302"><ele>619.0</ele><time>2026-04-26T10:39:48.753Z</time></trkpt><trkpt lat="43.5796993" lon="11.6802863"><ele>621.25</ele><time>2026-04-26T10:39:49.753Z</time></trkpt><trkpt lat="43.5797153" lon="11.6801351"><ele>623.5</ele><time>2026-04-26T10:39:50.756Z</time></trkpt><trkpt lat="43.5797188" lon="11.6799702"><ele>625.75</ele><time>2026-04-26T10:39:51.753Z</time></trkpt><trkpt lat="43.5797112" lon="11.6798101"><ele>628.0</ele><time>2026-04-26T10:39:52.754Z</time></trkpt><trkpt lat="43.5797021" lon="11.6796636"><ele>628.0</ele><time>2026-04-26T10:39:53.754Z</time></trkpt><trkpt lat="43.5797005" lon="11.6795369"><ele>628.0</ele><time>2026-04-26T10:39:54.754Z</time></trkpt><trkpt lat="43.5797119" lon="11.6794201"><ele>628.0</ele><time>2026-04-26T10:39:55.754Z</time></trkpt><trkpt lat="43.5797403" lon="11.6793187"><ele>628.0</ele><time>2026-04-26T10:39:56.755Z</time></trkpt><trkpt lat="43.5797909" lon="11.6792374"><ele>628.0</ele><time>2026-04-26T10:39:57.753Z</time></trkpt><trkpt lat="43.5798575" lon="11.679175"><ele>628.0</ele><time>2026-04-26T10:39:58.754Z</time></trkpt><trkpt lat="43.5799452" lon="11.6791341"><ele>630.4</ele><time>2026-04-26T10:39:59.754Z</time></trkpt><trkpt lat="43.580036" lon="11.6790862"><ele>632.8</ele><time>2026-04-26T10:40:00.754Z</time></trkpt><trkpt lat="43.5801137" lon="11.6790169"><ele>635.2</ele><time>2026-04-26T10:40:01.753Z</time></trkpt><trkpt lat="43.5801825" lon="11.67893"><ele>637.6</ele><time>2026-04-26T10:40:02.755Z</time></trkpt><trkpt lat="43.5802421" lon="11.6788236"><ele>640.0</ele><time>2026-04-26T10:40:03.753Z</time></trkpt><trkpt lat="43.5802938" lon="11.6787102"><ele>640.0</ele><time>2026-04-26T10:40:04.754Z</time></trkpt><trkpt lat="43.5803408" lon="11.6786017"><ele>640.0</ele><time>2026-04-26T10:40:05.755Z</time></trkpt><trkpt lat="43.5803921" lon="11.6784903"><ele>640.0</ele><time>2026-04-26T10:40:06.754Z</time></trkpt><trkpt lat="43.5804441" lon="11.6783695"><ele>640.0</ele><time>2026-04-26T10:40:07.755Z</time></trkpt><trkpt lat="43.5804944" lon="11.6782449"><ele>640.0</ele><time>2026-04-26T10:40:08.754Z</time></trkpt><trkpt lat="43.5805434" lon="11.6781188"><ele>639.0</ele><time>2026-04-26T10:40:09.753Z</time></trkpt><trkpt lat="43.5805891" lon="11.6779918"><ele>638.0</ele><time>2026-04-26T10:40:10.754Z</time></trkpt><trkpt lat="43.5806268" lon="11.6778551"><ele>637.0</ele><time>2026-04-26T10:40:11.753Z</time></trkpt><trkpt lat="43.5806498" lon="11.6777133"><ele>636.0</ele><time>2026-04-26T10:40:12.753Z</time></trkpt><trkpt lat="43.5806584" lon="11.6775705"><ele>635.0</ele><time>2026-04-26T10:40:13.754Z</time></trkpt><trkpt lat="43.5793142" lon="11.6810077"><ele>635.0</ele><time>2026-04-26T10:39:43.754Z</time></trkpt><trkpt lat="43.5793987" lon="11.6809051"><ele>635.0</ele><time>2026-04-26T10:39:44.755Z</time></trkpt><trkpt lat="43.5794756" lon="11.6807983"><ele>635.0</ele><time>2026-04-26T10:39:45.755Z</time></trkpt><trkpt lat="43.57955" lon="11.680686"><ele>635.0</ele><time>2026-04-26T10:39:46.754Z</time></trkpt><trkpt lat="43.5796181" lon="11.6805677"><ele>635.0</ele><time>2026-04-26T10:39:47.754Z</time></trkpt><trkpt lat="43.5796677" lon="11.6804302"><ele>633.25</ele><time>2026-04-26T10:39:48.753Z</time></trkpt><trkpt lat="43.5796993" lon="11.6802863"><ele>631.5</ele><time>2026-04-26T10:39:49.753Z</time></trkpt><trkpt lat="43.5797153" lon="11.6801351"><ele>629.75</ele><time>2026-04-26T10:39:50.756Z</time></trkpt><trkpt lat="43.5797188" lon="11.6799702"><ele>628.0</ele><time>2026-04-26T10:39:51.753Z</time></trkpt><trkpt lat="43.5797112" lon="11.6798101"><ele>628.0</ele><time>2026-04-26T10:39:52.754Z</time></trkpt><trkpt lat="43.5797021" lon="11.6796636"><ele>628.0</ele><time>2026-04-26T10:39:53.754Z</time></trkpt><trkpt lat="43.5797005" lon="11.6795369"><ele>628.0</ele><time>2026-04-26T10:39:54.754Z</time></trkpt><trkpt lat="43.5797119" lon="11.6794201"><ele>628.0</ele><time>2026-04-26T10:39:55.754Z</time></trkpt><trkpt lat="43.5797403" lon="11.6793187"><ele>628.0</ele><time>2026-04-26T10:39:56.755Z</time></trkpt><trkpt lat="43.5797909" lon="11.6792374"><ele>628.0</ele><time>2026-04-26T10:39:57.753Z</time></trkpt><trkpt lat="43.5798575" lon="11.679175"><ele>630.4</ele><time>2026-04-26T10:39:58.754Z</time></trkpt><trkpt lat="43.5799452" lon="11.6791341"><ele>632.8</ele><time>2026-04-26T10:39:59.754Z</time></trkpt><trkpt lat="43.580036" lon="11.6790862"><ele>635.2</ele><time>2026-04-26T10:40:00.754Z</time></trkpt><trkpt lat="43.5801137" lon="11.6790169"><ele>637.6</ele><time>2026-04-26T10:40:01.753Z</time></trkpt><trkpt lat="43.5801825" lon="11.67893"><ele>640.0</ele><time>2026-04-26T10:40:02.755Z</time></trkpt><trkpt lat="43.5802421" lon="11.6788236"><ele>640.0</ele><time>2026-04-26T10:40:03.753Z</time></trkpt><trkpt lat="43.5802938" lon="11.6787102"><ele>640.0</ele><time>2026-04-26T10:40:04.754Z</time></trkpt><trkpt lat="43.5803408" lon="11.6786017"><ele>640.0</ele><time>2026-04-26T10:40:05.755Z</time></trkpt><trkpt lat="43.5803921" lon="11.6784903"><ele>640.0</ele><time>2026-04-26T10:40:06.754Z</time></trkpt><trkpt lat="43.5804441" lon="11.6783695"><ele>640.0</ele><time>2026-04-26T10:40:07.755Z</time></trkpt><trkpt lat="43.5804944" lon="11.6782449"><ele>638.8</ele><time>2026-04-26T10:40:08.754Z</time></trkpt><trkpt lat="43.5805434" lon="11.6781188"><ele>637.6</ele><time>2026-04-26T10:40:09.753Z</time></trkpt><trkpt lat="43.5805891" lon="11.6779918"><ele>636.4</ele><time>2026-04-26T10:40:10.754Z</time></trkpt><trkpt lat="43.5806268" lon="11.6778551"><ele>635.2</ele><time>2026-04-26T10:40:11.753Z</time></trkpt><trkpt lat="43.5806498" lon="11.6777133"><ele>634.0</ele><time>2026-04-26T10:40:12.753Z</time></trkpt><trkpt lat="43.5806584" lon="11.6775705"><ele>636.8</ele><time>2026-04-26T10:40:13.754Z</time></trkpt><trkpt lat="43.5806497" lon="11.67743"><ele>639.5999999999999</ele><time>2026-04-26T10:40:14.754Z</time></trkpt><trkpt lat="43.5806365" lon="11.6772898"><ele>642.4</ele><time>2026-04-26T10:40:15.753Z</time></trkpt><trkpt lat="43.5806275" lon="11.6771512"><ele>645.1999999999999</ele><time>2026-04-26T10:40:16.753Z</time></trkpt><trkpt lat="43.5806258" lon="11.677015"><ele>648.0</ele><time>2026-04-26T10:40:17.754Z</time></trkpt><trkpt lat="43.5806323" lon="11.6768805"><ele>650.1666666666666</ele><time>2026-04-26T10:40:18.753Z</time></trkpt><trkpt lat="43.5806551" lon="11.6767677"><ele>652.3333333333334</ele><time>2026-04-26T10:40:19.754Z</time></trkpt><trkpt lat="43.5806926" lon="11.6766639"><ele>654.5</ele><time>2026-04-26T10:40:20.755Z</time></trkpt><trkpt lat="43.5807488" lon="11.6765854"><ele>656.6666666666667</ele><time>2026-04-26T10:40:21.753Z</time></trkpt><trkpt lat="43.5808149" lon="11.6765302"><ele>658.8333333333334</ele><time>2026-04-26T10:40:22.756Z</time></trkpt><trkpt lat="43.5808831" lon="11.6764792"><ele>661.0</ele><time>2026-04-26T10:40:23.755Z</time></trkpt><trkpt lat="43.5809472" lon="11.6764137"><ele>661.0</ele><time>2026-04-26T10:40:24.754Z</time></trkpt><trkpt lat="43.5809985" lon="11.6763203"><ele>661.0</ele><time>2026-04-26T10:40:25.755Z</time></trkpt><trkpt lat="43.5810299" lon="11.6762101"><ele>661.0</ele><time>2026-04-26T10:40:26.755Z</time></trkpt><trkpt lat="43.5810377" lon="11.6760812"><ele>661.0</ele><time>2026-04-26T10:40:27.755Z</time></trkpt><trkpt lat="43.5810255" lon="11.6759401"><ele>661.0</ele><time>2026-04-26T10:40:28.755Z</time></trkpt><trkpt lat="43.5810009" lon="11.6757909"><ele>663.5999999999999</ele><time>2026-04-26T10:40:29.756Z</time></trkpt><trkpt lat="43.5809667" lon="11.6756475"><ele>666.2</ele><time>2026-04-26T10:40:30.754Z</time></trkpt><trkpt lat="43.5809351" lon="11.6755285"><ele>668.8</ele><time>2026-04-26T10:40:31.753Z</time></trkpt><trkpt lat="43.5809119" lon="11.6754195"><ele>671.4000000000001</ele><time>2026-04-26T10:40:32.754Z</time></trkpt><trkpt lat="43.5809066" lon="11.6753218"><ele>674.0</ele><time>2026-04-26T10:40:33.753Z</time></trkpt><trkpt lat="43.580977" lon="11.6752109"><ele>674.4000000000001</ele><time>2026-04-26T10:40:35.754Z</time></trkpt><trkpt lat="43.5810497" lon="11.6751824"><ele>674.8</ele><time>2026-04-26T10:40:36.753Z</time></trkpt><trkpt lat="43.581142" lon="11.6751648"><ele>675.2</ele><time>2026-04-26T10:40:37.754Z</time></trkpt><trkpt lat="43.5812488" lon="11.6751579"><ele>675.5999999999999</ele><time>2026-04-26T10:40:38.754Z</time></trkpt><trkpt lat="43.5813527" lon="11.6751547"><ele>676.0</ele><time>2026-04-26T10:40:39.753Z</time></trkpt><trkpt lat="43.5814439" lon="11.6751372"><ele>676.0</ele><time>2026-04-26T10:40:40.754Z</time></trkpt><trkpt lat="43.5815245" lon="11.675099"><ele>676.0</ele><time>2026-04-26T10:40:41.754Z</time></trkpt><trkpt lat="43.5815987" lon="11.6750414"><ele>676.0</ele><time>2026-04-26T10:40:42.754Z</time></trkpt><trkpt lat="43.581669" lon="11.6749551"><ele>676.0</ele><time>2026-04-26T10:40:43.754Z</time></trkpt><trkpt lat="43.5817331" lon="11.6748276"><ele>676.0</ele><time>2026-04-26T10:40:44.754Z</time></trkpt><trkpt lat="43.5817957" lon="11.6746727"><ele>676.0</ele><time>2026-04-26T10:40:45.753Z</time></trkpt><trkpt lat="43.5818552" lon="11.6744922"><ele>676.0</ele><time>2026-04-26T10:40:46.753Z</time></trkpt><trkpt lat="43.58191" lon="11.6743115"><ele>676.0</ele><time>2026-04-26T10:40:47.754Z</time></trkpt><trkpt lat="43.5819589" lon="11.6741417"><ele>676.0</ele><time>2026-04-26T10:40:48.754Z</time></trkpt><trkpt lat="43.5819968" lon="11.6739697"><ele>675.75</ele><time>2026-04-26T10:40:49.754Z</time></trkpt><trkpt lat="43.5820257" lon="11.6737814"><ele>675.5</ele><time>2026-04-26T10:40:50.756Z</time></trkpt><trkpt lat="43.582051" lon="11.6735808"><ele>675.25</ele><time>2026-04-26T10:40:51.754Z</time></trkpt><trkpt lat="43.5820662" lon="11.6733678"><ele>675.0</ele><time>2026-04-26T10:40:52.756Z</time></trkpt><trkpt lat="43.5820774" lon="11.6731574"><ele>675.0</ele><time>2026-04-26T10:40:53.754Z</time></trkpt><trkpt lat="43.5820941" lon="11.6729588"><ele>675.0</ele><time>2026-04-26T10:40:54.755Z</time></trkpt><trkpt lat="43.582104" lon="11.672779"><ele>675.0</ele><time>2026-04-26T10:40:55.756Z</time></trkpt><trkpt lat="43.5821064" lon="11.6726136"><ele>675.0</ele><time>2026-04-26T10:40:56.755Z</time></trkpt><trkpt lat="43.5820993" lon="11.6724607"><ele>677.75</ele><time>2026-04-26T10:40:57.753Z</time></trkpt><trkpt lat="43.5820697" lon="11.6723084"><ele>680.5</ele><time>2026-04-26T10:40:58.755Z</time></trkpt><trkpt lat="43.5820287" lon="11.6721633"><ele>683.25</ele><time>2026-04-26T10:40:59.754Z</time></trkpt><trkpt lat="43.5819797" lon="11.6720151"><ele>686.0</ele><time>2026-04-26T10:41:00.754Z</time></trkpt><trkpt lat="43.581927" lon="11.6718598"><ele>691.5</ele><time>2026-04-26T10:41:01.754Z</time></trkpt><trkpt lat="43.5818772" lon="11.671696"><ele>697.0</ele><time>2026-04-26T10:41:02.754Z</time></trkpt><trkpt lat="43.5818211" lon="11.6715246"><ele>702.5</ele><time>2026-04-26T10:41:03.754Z</time></trkpt><trkpt lat="43.5817605" lon="11.6713374"><ele>708.0</ele><time>2026-04-26T10:41:04.754Z</time></trkpt><trkpt lat="43.5817008" lon="11.6711436"><ele>708.25</ele><time>2026-04-26T10:41:05.754Z</time></trkpt><trkpt lat="43.5816474" lon="11.6709647"><ele>708.5</ele><time>2026-04-26T10:41:06.754Z</time></trkpt><trkpt lat="43.581599" lon="11.6708097"><ele>708.75</ele><time>2026-04-26T10:41:07.755Z</time></trkpt><trkpt lat="43.5815556" lon="11.6706685"><ele>709.0</ele><time>2026-04-26T10:41:08.754Z</time></trkpt><trkpt lat="43.5815198" lon="11.6705415"><ele>709.0</ele><time>2026-04-26T10:41:09.758Z</time></trkpt><trkpt lat="43.5814929" lon="11.670433"><ele>709.0</ele><time>2026-04-26T10:41:10.754Z</time></trkpt><trkpt lat="43.5814757" lon="11.6703402"><ele>709.0</ele><time>2026-04-26T10:41:11.754Z</time></trkpt><trkpt lat="43.5814637" lon="11.6702285"><ele>709.0</ele><time>2026-04-26T10:41:13.754Z</time></trkpt><trkpt lat="43.581445" lon="11.670145"><ele>709.0</ele><time>2026-04-26T10:41:37.754Z</time></trkpt><trkpt lat="43.58147" lon="11.6700133"><ele>709.0</ele><time>2026-04-26T10:41:39.754Z</time></trkpt><trkpt lat="43.581485" lon="11.6698567"><ele>709.4000000000001</ele><time>2026-04-26T10:41:41.754Z</time></trkpt><trkpt lat="43.5815067" lon="11.6696883"><ele>709.8</ele><time>2026-04-26T10:41:43.753Z</time></trkpt><trkpt lat="43.5815267" lon="11.669585"><ele>710.2</ele><time>2026-04-26T10:41:44.76Z</time></trkpt><trkpt lat="43.581555" lon="11.6694683"><ele>710.5999999999999</ele><time>2026-04-26T10:41:45.755Z</time></trkpt><trkpt lat="43.5815883" lon="11.6693367"><ele>711.0</ele><time>2026-04-26T10:41:46.754Z</time></trkpt><trkpt lat="43.581625" lon="11.6691917"><ele>711.0</ele><time>2026-04-26T10:41:47.754Z</time></trkpt><trkpt lat="43.581665" lon="11.6690417"><ele>711.0</ele><time>2026-04-26T10:41:48.755Z</time></trkpt><trkpt lat="43.581705" lon="11.668895"><ele>711.0</ele><time>2026-04-26T10:41:49.755Z</time></trkpt><trkpt lat="43.5817467" lon="11.6687467"><ele>711.0</ele><time>2026-04-26T10:41:50.758Z</time></trkpt><trkpt lat="43.58179" lon="11.6685983"><ele>709.5</ele><time>2026-04-26T10:41:51.756Z</time></trkpt><trkpt lat="43.581835" lon="11.6684533"><ele>708.0</ele><time>2026-04-26T10:41:52.756Z</time></trkpt><trkpt lat="43.5818783" lon="11.6683"><ele>706.5</ele><time>2026-04-26T10:41:53.756Z</time></trkpt><trkpt lat="43.5819333" lon="11.6681517"><ele>705.0</ele><time>2026-04-26T10:41:54.755Z</time></trkpt><trkpt lat="43.5819933" lon="11.6680133"><ele>706.6</ele><time>2026-04-26T10:41:55.753Z</time></trkpt><trkpt lat="43.582055" lon="11.667885"><ele>708.2</ele><time>2026-04-26T10:41:56.754Z</time></trkpt><trkpt lat="43.58212" lon="11.667765"><ele>709.8</ele><time>2026-04-26T10:41:57.755Z</time></trkpt><trkpt lat="43.582185" lon="11.6676583"><ele>711.4</ele><time>2026-04-26T10:41:58.754Z</time></trkpt><trkpt lat="43.5822567" lon="11.66756"><ele>713.0</ele><time>2026-04-26T10:41:59.752Z</time></trkpt><trkpt lat="43.582335" lon="11.6674767"><ele>713.0</ele><time>2026-04-26T10:42:00.754Z</time></trkpt><trkpt lat="43.582425" lon="11.6674033"><ele>713.0</ele><time>2026-04-26T10:42:01.754Z</time></trkpt><trkpt lat="43.5825283" lon="11.6673517"><ele>713.0</ele><time>2026-04-26T10:42:02.754Z</time></trkpt><trkpt lat="43.58264" lon="11.6673217"><ele>713.0</ele><time>2026-04-26T10:42:03.754Z</time></trkpt><trkpt lat="43.5827533" lon="11.667315"><ele>713.0</ele><time>2026-04-26T10:42:04.753Z</time></trkpt><trkpt lat="43.58286" lon="11.6673367"><ele>713.5999999999999</ele><time>2026-04-26T10:42:05.755Z</time></trkpt><trkpt lat="43.5829667" lon="11.667375"><ele>714.1999999999999</ele><time>2026-04-26T10:42:06.753Z</time></trkpt><trkpt lat="43.5830717" lon="11.6674333"><ele>714.8</ele><time>2026-04-26T10:42:07.755Z</time></trkpt><trkpt lat="43.5831767" lon="11.6675"><ele>715.4</ele><time>2026-04-26T10:42:08.754Z</time></trkpt><trkpt lat="43.583275" lon="11.667565"><ele>716.0</ele><time>2026-04-26T10:42:09.754Z</time></trkpt><trkpt lat="43.5833633" lon="11.6676183"><ele>716.0</ele><time>2026-04-26T10:42:10.753Z</time></trkpt><trkpt lat="43.583445" lon="11.6676583"><ele>716.0</ele><time>2026-04-26T10:42:11.753Z</time></trkpt><trkpt lat="43.5835217" lon="11.6676817"><ele>716.0</ele><time>2026-04-26T10:42:12.754Z</time></trkpt><trkpt lat="43.5836" lon="11.667695"><ele>716.0</ele><time>2026-04-26T10:42:13.754Z</time></trkpt><trkpt lat="43.5836733" lon="11.6676617"><ele>716.0</ele><time>2026-04-26T10:42:14.754Z</time></trkpt><trkpt lat="43.5837367" lon="11.6675883"><ele>716.0</ele><time>2026-04-26T10:42:15.754Z</time></trkpt><trkpt lat="43.58378" lon="11.667485"><ele>719.25</ele><time>2026-04-26T10:42:16.754Z</time></trkpt><trkpt lat="43.583785" lon="11.667345"><ele>722.5</ele><time>2026-04-26T10:42:17.754Z</time></trkpt><trkpt lat="43.5837783" lon="11.6671883"><ele>725.75</ele><time>2026-04-26T10:42:18.753Z</time></trkpt><trkpt lat="43.5837483" lon="11.6670167"><ele>729.0</ele><time>2026-04-26T10:42:19.755Z</time></trkpt><trkpt lat="43.58372" lon="11.66684"><ele>729.4000000000001</ele><time>2026-04-26T10:42:20.754Z</time></trkpt><trkpt lat="43.5836967" lon="11.6666767"><ele>729.8</ele><time>2026-04-26T10:42:21.754Z</time></trkpt><trkpt lat="43.5836883" lon="11.6665267"><ele>730.2</ele><time>2026-04-26T10:42:22.753Z</time></trkpt><trkpt lat="43.5836983" lon="11.6663867"><ele>730.5999999999999</ele><time>2026-04-26T10:42:23.754Z</time></trkpt><trkpt lat="43.5837333" lon="11.666245"><ele>731.0</ele><time>2026-04-26T10:42:24.753Z</time></trkpt><trkpt lat="43.5837867" lon="11.6661083"><ele>729.3333333333333</ele><time>2026-04-26T10:42:25.754Z</time></trkpt><trkpt lat="43.5838417" lon="11.6659967"><ele>727.6666666666666</ele><time>2026-04-26T10:42:26.754Z</time></trkpt><trkpt lat="43.5838983" lon="11.6659083"><ele>726.0</ele><time>2026-04-26T10:42:27.753Z</time></trkpt><trkpt lat="43.58396" lon="11.665835"><ele>724.3333333333334</ele><time>2026-04-26T10:42:28.754Z</time></trkpt><trkpt lat="43.5840317" lon="11.6657767"><ele>722.6666666666667</ele><time>2026-04-26T10:42:29.754Z</time></trkpt><trkpt lat="43.584115" lon="11.665735"><ele>721.0</ele><time>2026-04-26T10:42:30.759Z</time></trkpt><trkpt lat="43.5842183" lon="11.6657233"><ele>721.0</ele><time>2026-04-26T10:42:31.753Z</time></trkpt><trkpt lat="43.5843483" lon="11.6657333"><ele>721.0</ele><time>2026-04-26T10:42:32.754Z</time></trkpt><trkpt lat="43.5844933" lon="11.66575"><ele>721.0</ele><time>2026-04-26T10:42:33.754Z</time></trkpt><trkpt lat="43.5846383" lon="11.66577"><ele>721.0</ele><time>2026-04-26T10:42:34.756Z</time></trkpt><trkpt lat="43.5847833" lon="11.665785"><ele>721.5</ele><time>2026-04-26T10:42:35.756Z</time></trkpt><trkpt lat="43.5849267" lon="11.6657833"><ele>722.0</ele><time>2026-04-26T10:42:36.755Z</time></trkpt><trkpt lat="43.58507" lon="11.66576"><ele>722.5</ele><time>2026-04-26T10:42:37.756Z</time></trkpt><trkpt lat="43.5852183" lon="11.665705"><ele>723.0</ele><time>2026-04-26T10:42:38.756Z</time></trkpt><trkpt lat="43.5853767" lon="11.665625"><ele>724.6666666666666</ele><time>2026-04-26T10:42:39.758Z</time></trkpt><trkpt lat="43.5855433" lon="11.6655383"><ele>726.3333333333333</ele><time>2026-04-26T10:42:40.76Z</time></trkpt><trkpt lat="43.585705" lon="11.665455"><ele>728.0</ele><time>2026-04-26T10:42:41.754Z</time></trkpt><trkpt lat="43.5858633" lon="11.6653767"><ele>728.0</ele><time>2026-04-26T10:42:42.754Z</time></trkpt><trkpt lat="43.5860133" lon="11.66531"><ele>728.0</ele><time>2026-04-26T10:42:43.754Z</time></trkpt><trkpt lat="43.5861483" lon="11.6652517"><ele>728.0</ele><time>2026-04-26T10:42:44.756Z</time></trkpt><trkpt lat="43.58628" lon="11.6651983"><ele>728.0</ele><time>2026-04-26T10:42:45.753Z</time></trkpt><trkpt lat="43.5863967" lon="11.6651483"><ele>727.2</ele><time>2026-04-26T10:42:46.756Z</time></trkpt><trkpt lat="43.5864967" lon="11.66512"><ele>726.4</ele><time>2026-04-26T10:42:47.755Z</time></trkpt><trkpt lat="43.586585" lon="11.6650683"><ele>725.6</ele><time>2026-04-26T10:42:48.753Z</time></trkpt><trkpt lat="43.5866513" lon="11.6649787"><ele>724.8000000000001</ele><time>2026-04-26T10:42:49.754Z</time></trkpt><trkpt lat="43.5866953" lon="11.6648603"><ele>724.0</ele><time>2026-04-26T10:42:50.755Z</time></trkpt><trkpt lat="43.5867355" lon="11.6647215"><ele>724.0</ele><time>2026-04-26T10:42:51.753Z</time></trkpt><trkpt lat="43.5867644" lon="11.6645665"><ele>724.0</ele><time>2026-04-26T10:42:52.753Z</time></trkpt><trkpt lat="43.5867838" lon="11.6643959"><ele>724.0</ele><time>2026-04-26T10:42:53.753Z</time></trkpt><trkpt lat="43.5868009" lon="11.6642137"><ele>724.0</ele><time>2026-04-26T10:42:54.753Z</time></trkpt><trkpt lat="43.5868287" lon="11.6640268"><ele>724.0</ele><time>2026-04-26T10:42:55.753Z</time></trkpt><trkpt lat="43.5868637" lon="11.6638451"><ele>724.0</ele><time>2026-04-26T10:42:56.754Z</time></trkpt><trkpt lat="43.5869127" lon="11.663677"><ele>724.0</ele><time>2026-04-26T10:42:57.754Z</time></trkpt><trkpt lat="43.5869812" lon="11.6635181"><ele>724.0</ele><time>2026-04-26T10:42:58.755Z</time></trkpt><trkpt lat="43.587065" lon="11.663356"><ele>729.75</ele><time>2026-04-26T10:42:59.755Z</time></trkpt><trkpt lat="43.5871398" lon="11.6631988"><ele>735.5</ele><time>2026-04-26T10:43:00.754Z</time></trkpt><trkpt lat="43.5871904" lon="11.6630471"><ele>741.25</ele><time>2026-04-26T10:43:01.754Z</time></trkpt><trkpt lat="43.5872137" lon="11.6629017"><ele>747.0</ele><time>2026-04-26T10:43:02.754Z</time></trkpt><trkpt lat="43.5872108" lon="11.6627557"><ele>747.5</ele><time>2026-04-26T10:43:03.753Z</time></trkpt><trkpt lat="43.5871843" lon="11.6625991"><ele>748.0</ele><time>2026-04-26T10:43:04.753Z</time></trkpt><trkpt lat="43.5871394" lon="11.6624325"><ele>748.5</ele><time>2026-04-26T10:43:05.753Z</time></trkpt><trkpt lat="43.5870859" lon="11.6622545"><ele>749.0</ele><time>2026-04-26T10:43:06.754Z</time></trkpt><trkpt lat="43.5870304" lon="11.662055"><ele>746.75</ele><time>2026-04-26T10:43:07.753Z</time></trkpt><trkpt lat="43.5869771" lon="11.6618458"><ele>744.5</ele><time>2026-04-26T10:43:08.755Z</time></trkpt><trkpt lat="43.5869292" lon="11.6616562"><ele>742.25</ele><time>2026-04-26T10:43:09.754Z</time></trkpt><trkpt lat="43.5868875" lon="11.6614946"><ele>740.0</ele><time>2026-04-26T10:43:10.753Z</time></trkpt><trkpt lat="43.5868517" lon="11.6613492"><ele>740.0</ele><time>2026-04-26T10:43:11.754Z</time></trkpt><trkpt lat="43.5868244" lon="11.6612042"><ele>740.0</ele><time>2026-04-26T10:43:12.753Z</time></trkpt><trkpt lat="43.5868155" lon="11.6610607"><ele>740.0</ele><time>2026-04-26T10:43:13.754Z</time></trkpt><trkpt lat="43.5868302" lon="11.6609287"><ele>740.0</ele><time>2026-04-26T10:43:14.756Z</time></trkpt><trkpt lat="43.586867" lon="11.660815"><ele>740.0</ele><time>2026-04-26T10:43:15.754Z</time></trkpt><trkpt lat="43.5869241" lon="11.6607244"><ele>740.2857142857142</ele><time>2026-04-26T10:43:16.754Z</time></trkpt><trkpt lat="43.5869872" lon="11.6606635"><ele>740.5714285714286</ele><time>2026-04-26T10:43:17.754Z</time></trkpt><trkpt lat="43.5870513" lon="11.6606334"><ele>740.8571428571429</ele><time>2026-04-26T10:43:18.753Z</time></trkpt><trkpt lat="43.5871182" lon="11.660629"><ele>741.1428571428571</ele><time>2026-04-26T10:43:19.753Z</time></trkpt><trkpt lat="43.5871883" lon="11.6606486"><ele>741.4285714285714</ele><time>2026-04-26T10:43:20.755Z</time></trkpt><trkpt lat="43.5872518" lon="11.6606956"><ele>741.7142857142857</ele><time>2026-04-26T10:43:21.753Z</time></trkpt><trkpt lat="43.5873106" lon="11.6607556"><ele>742.0</ele><time>2026-04-26T10:43:22.756Z</time></trkpt><trkpt lat="43.5873671" lon="11.660814"><ele>742.8571428571429</ele><time>2026-04-26T10:43:23.754Z</time></trkpt><trkpt lat="43.5874191" lon="11.6608701"><ele>743.7142857142858</ele><time>2026-04-26T10:43:24.754Z</time></trkpt><trkpt lat="43.5874775" lon="11.6609291"><ele>744.5714285714286</ele><time>2026-04-26T10:43:25.754Z</time></trkpt><trkpt lat="43.5875349" lon="11.6609875"><ele>745.4285714285714</ele><time>2026-04-26T10:43:26.754Z</time></trkpt><trkpt lat="43.5875928" lon="11.6610448"><ele>746.2857142857143</ele><time>2026-04-26T10:43:27.754Z</time></trkpt><trkpt lat="43.5876499" lon="11.6611005"><ele>747.1428571428571</ele><time>2026-04-26T10:43:28.754Z</time></trkpt><trkpt lat="43.5877068" lon="11.6611535"><ele>748.0</ele><time>2026-04-26T10:43:29.754Z</time></trkpt><trkpt lat="43.5877649" lon="11.6612076"><ele>748.7142857142857</ele><time>2026-04-26T10:43:30.753Z</time></trkpt><trkpt lat="43.5878234" lon="11.6612634"><ele>749.4285714285714</ele><time>2026-04-26T10:43:31.754Z</time></trkpt><trkpt lat="43.587882" lon="11.661315"><ele>750.1428571428571</ele><time>2026-04-26T10:43:32.754Z</time></trkpt><trkpt lat="43.5879403" lon="11.6613623"><ele>750.8571428571429</ele><time>2026-04-26T10:43:33.754Z</time></trkpt><trkpt lat="43.5879955" lon="11.6614134"><ele>751.5714285714287</ele><time>2026-04-26T10:43:34.754Z</time></trkpt><trkpt lat="43.5880501" lon="11.6614665"><ele>752.2857142857143</ele><time>2026-04-26T10:43:35.753Z</time></trkpt><trkpt lat="43.5881077" lon="11.6615197"><ele>753.0</ele><time>2026-04-26T10:43:36.755Z</time></trkpt><trkpt lat="43.5881651" lon="11.6615744"><ele>755.0</ele><time>2026-04-26T10:43:37.754Z</time></trkpt><trkpt lat="43.5882222" lon="11.6616304"><ele>757.0</ele><time>2026-04-26T10:43:38.754Z</time></trkpt><trkpt lat="43.5882801" lon="11.6616924"><ele>759.0</ele><time>2026-04-26T10:43:39.754Z</time></trkpt><trkpt lat="43.5883384" lon="11.6617561"><ele>761.0</ele><time>2026-04-26T10:43:40.754Z</time></trkpt><trkpt lat="43.5884009" lon="11.6618166"><ele>763.0</ele><time>2026-04-26T10:43:41.754Z</time></trkpt><trkpt lat="43.5884661" lon="11.6618744"><ele>765.0</ele><time>2026-04-26T10:43:42.754Z</time></trkpt><trkpt lat="43.5885344" lon="11.6619377"><ele>764.8</ele><time>2026-04-26T10:43:43.755Z</time></trkpt><trkpt lat="43.5886047" lon="11.6620042"><ele>764.6</ele><time>2026-04-26T10:43:44.754Z</time></trkpt><trkpt lat="43.5886791" lon="11.6620751"><ele>764.4000000000001</ele><time>2026-04-26T10:43:45.754Z</time></trkpt><trkpt lat="43.5887589" lon="11.6621542"><ele>764.2</ele><time>2026-04-26T10:43:46.754Z</time></trkpt><trkpt lat="43.5888423" lon="11.6622372"><ele>764.0</ele><time>2026-04-26T10:43:47.754Z</time></trkpt><trkpt lat="43.588936" lon="11.6623058"><ele>767.0</ele><time>2026-04-26T10:43:48.759Z</time></trkpt><trkpt lat="43.5890414" lon="11.6623508"><ele>770.0</ele><time>2026-04-26T10:43:49.754Z</time></trkpt><trkpt lat="43.5891604" lon="11.6623741"><ele>773.0</ele><time>2026-04-26T10:43:50.754Z</time></trkpt><trkpt lat="43.589285" lon="11.6623773"><ele>776.0</ele><time>2026-04-26T10:43:51.754Z</time></trkpt><trkpt lat="43.5894085" lon="11.6623673"><ele>776.8333333333334</ele><time>2026-04-26T10:43:52.754Z</time></trkpt><trkpt lat="43.5895168" lon="11.6623543"><ele>777.6666666666667</ele><time>2026-04-26T10:43:53.754Z</time></trkpt><trkpt lat="43.5896035" lon="11.6623463"><ele>778.5</ele><time>2026-04-26T10:43:54.754Z</time></trkpt><trkpt lat="43.5896695" lon="11.6623438"><ele>779.3333333333333</ele><time>2026-04-26T10:43:55.754Z</time></trkpt><trkpt lat="43.5897441" lon="11.662345"><ele>780.1666666666666</ele><time>2026-04-26T10:43:57.755Z</time></trkpt><trkpt lat="43.58968" lon="11.6624417"><ele>781.0</ele><time>2026-04-26T10:44:11.754Z</time></trkpt><trkpt lat="43.5896083" lon="11.662505"><ele>781.0</ele><time>2026-04-26T10:44:13.753Z</time></trkpt><trkpt lat="43.5895583" lon="11.6625783"><ele>781.0</ele><time>2026-04-26T10:44:21.754Z</time></trkpt><trkpt lat="43.58949" lon="11.6627333"><ele>781.0</ele><time>2026-04-26T10:44:23.753Z</time></trkpt><trkpt lat="43.5894433" lon="11.6628017"><ele>781.0</ele><time>2026-04-26T10:44:24.754Z</time></trkpt><trkpt lat="43.58935" lon="11.6628917"><ele>781.0</ele><time>2026-04-26T10:44:26.754Z</time></trkpt><trkpt lat="43.5893" lon="11.6629483"><ele>772.0</ele><time>2026-04-26T10:44:28.753Z</time></trkpt><trkpt lat="43.5893067" lon="11.663055"><ele>772.0</ele><time>2026-04-26T10:44:32.754Z</time></trkpt></trkseg><trkseg><trkpt lat="43.5893317" lon="11.6629483"><ele>772.0</ele><time>2026-04-26T11:11:11.755Z</time></trkpt><trkpt lat="43.589405" lon="11.6628567"><ele>772.0</ele><time>2026-04-26T11:11:13.755Z</time></trkpt><trkpt lat="43.589465" lon="11.662745"><ele>772.0</ele><time>2026-04-26T11:11:15.755Z</time></trkpt><trkpt lat="43.5895117" lon="11.6626283"><ele>772.0</ele><time>2026-04-26T11:11:17.755Z</time></trkpt><trkpt lat="43.58957" lon="11.6625333"><ele>772.0</ele><time>2026-04-26T11:11:19.757Z</time></trkpt><trkpt lat="43.589645" lon="11.6624367"><ele>773.8</ele><time>2026-04-26T11:11:21.754Z</time></trkpt><trkpt lat="43.5897383" lon="11.6623667"><ele>775.6</ele><time>2026-04-26T11:11:23.756Z</time></trkpt><trkpt lat="43.589845" lon="11.6623217"><ele>777.4</ele><time>2026-04-26T11:11:25.755Z</time></trkpt><trkpt lat="43.5899644" lon="11.6623051"><ele>779.1999999999999</ele><time>2026-04-26T11:11:27.755Z</time></trkpt><trkpt lat="43.5900291" lon="11.6623016"><ele>781.0</ele><time>2026-04-26T11:11:28.755Z</time></trkpt><trkpt lat="43.5900947" lon="11.6623124"><ele>780.9999999999999</ele><time>2026-04-26T11:11:29.755Z</time></trkpt><trkpt lat="43.5901575" lon="11.6623465"><ele>781.0</ele><time>2026-04-26T11:11:30.755Z</time></trkpt><trkpt lat="43.5902167" lon="11.6623927"><ele>781.0</ele><time>2026-04-26T11:11:31.756Z</time></trkpt><trkpt lat="43.5902869" lon="11.6625178"><ele>781.0</ele><time>2026-04-26T11:11:33.755Z</time></trkpt><trkpt lat="43.5902841" lon="11.6626772"><ele>780.9999999999999</ele><time>2026-04-26T11:11:35.755Z</time></trkpt><trkpt lat="43.590263" lon="11.6627695"><ele>781.0</ele><time>2026-04-26T11:11:36.755Z</time></trkpt><trkpt lat="43.5902409" lon="11.6628717"><ele>780.3333333333333</ele><time>2026-04-26T11:11:37.756Z</time></trkpt><trkpt lat="43.5902233" lon="11.6629825"><ele>779.6666666666666</ele><time>2026-04-26T11:11:38.757Z</time></trkpt><trkpt lat="43.5902103" lon="11.663096"><ele>779.0</ele><time>2026-04-26T11:11:39.755Z</time></trkpt><trkpt lat="43.5902016" lon="11.6632097"><ele>778.3333333333333</ele><time>2026-04-26T11:11:40.758Z</time></trkpt><trkpt lat="43.5901916" lon="11.6633266"><ele>777.6666666666666</ele><time>2026-04-26T11:11:41.756Z</time></trkpt><trkpt lat="43.5901855" lon="11.663436"><ele>777.0</ele><time>2026-04-26T11:11:42.755Z</time></trkpt><trkpt lat="43.5901847" lon="11.6635378"><ele>777.5</ele><time>2026-04-26T11:11:43.756Z</time></trkpt><trkpt lat="43.5901949" lon="11.6636318"><ele>778.0</ele><time>2026-04-26T11:11:44.755Z</time></trkpt><trkpt lat="43.5902252" lon="11.6637229"><ele>778.5</ele><time>2026-04-26T11:11:45.752Z</time></trkpt><trkpt lat="43.5902687" lon="11.6638146"><ele>779.0</ele><time>2026-04-26T11:11:46.754Z</time></trkpt><trkpt lat="43.590312" lon="11.6639164"><ele>779.5</ele><time>2026-04-26T11:11:47.754Z</time></trkpt><trkpt lat="43.5903513" lon="11.6640302"><ele>780.0</ele><time>2026-04-26T11:11:48.753Z</time></trkpt><trkpt lat="43.590384" lon="11.6641511"><ele>781.8333333333334</ele><time>2026-04-26T11:11:49.754Z</time></trkpt><trkpt lat="43.5904086" lon="11.6642639"><ele>783.6666666666667</ele><time>2026-04-26T11:11:50.754Z</time></trkpt><trkpt lat="43.5904321" lon="11.664369"><ele>785.5</ele><time>2026-04-26T11:11:51.753Z</time></trkpt><trkpt lat="43.590464" lon="11.6644651"><ele>787.3333333333334</ele><time>2026-04-26T11:11:52.753Z</time></trkpt><trkpt lat="43.590505" lon="11.6645467"><ele>789.1666666666667</ele><time>2026-04-26T11:11:53.753Z</time></trkpt><trkpt lat="43.5905546" lon="11.6646135"><ele>791.0</ele><time>2026-04-26T11:11:54.753Z</time></trkpt><trkpt lat="43.5906093" lon="11.6646696"><ele>791.0000000000001</ele><time>2026-04-26T11:11:55.753Z</time></trkpt><trkpt lat="43.5906666" lon="11.6647115"><ele>791.0</ele><time>2026-04-26T11:11:56.758Z</time></trkpt><trkpt lat="43.5907331" lon="11.6647178"><ele>791.0</ele><time>2026-04-26T11:11:57.755Z</time></trkpt><trkpt lat="43.5908066" lon="11.6647013"><ele>791.0</ele><time>2026-04-26T11:11:58.757Z</time></trkpt><trkpt lat="43.5908817" lon="11.6646583"><ele>791.0000000000001</ele><time>2026-04-26T11:11:59.755Z</time></trkpt><trkpt lat="43.5909533" lon="11.6646067"><ele>791.0</ele><time>2026-04-26T11:12:00.755Z</time></trkpt><trkpt lat="43.5910283" lon="11.664535"><ele>791.0</ele><time>2026-04-26T11:12:01.755Z</time></trkpt><trkpt lat="43.5911" lon="11.6644633"><ele>791.0</ele><time>2026-04-26T11:12:02.756Z</time></trkpt><trkpt lat="43.5911817" lon="11.6643967"><ele>791.0</ele><time>2026-04-26T11:12:03.755Z</time></trkpt><trkpt lat="43.5912683" lon="11.664345"><ele>791.0</ele><time>2026-04-26T11:12:04.755Z</time></trkpt><trkpt lat="43.5913567" lon="11.6643083"><ele>791.0</ele><time>2026-04-26T11:12:05.755Z</time></trkpt><trkpt lat="43.5914483" lon="11.6642833"><ele>793.8</ele><time>2026-04-26T11:12:06.755Z</time></trkpt><trkpt lat="43.5915383" lon="11.66428"><ele>796.5999999999999</ele><time>2026-04-26T11:12:07.755Z</time></trkpt><trkpt lat="43.5916283" lon="11.6643017"><ele>799.4</ele><time>2026-04-26T11:12:08.757Z</time></trkpt><trkpt lat="43.5917217" lon="11.66433"><ele>802.2</ele><time>2026-04-26T11:12:09.754Z</time></trkpt><trkpt lat="43.591815" lon="11.6643583"><ele>805.0</ele><time>2026-04-26T11:12:10.756Z</time></trkpt><trkpt lat="43.5919117" lon="11.6643867"><ele>805.5</ele><time>2026-04-26T11:12:11.756Z</time></trkpt><trkpt lat="43.5920133" lon="11.6644217"><ele>806.0</ele><time>2026-04-26T11:12:12.756Z</time></trkpt><trkpt lat="43.59212" lon="11.6644667"><ele>806.5</ele><time>2026-04-26T11:12:13.756Z</time></trkpt><trkpt lat="43.5922317" lon="11.6645233"><ele>807.0</ele><time>2026-04-26T11:12:14.755Z</time></trkpt><trkpt lat="43.5923467" lon="11.66459"><ele>807.0</ele><time>2026-04-26T11:12:15.754Z</time></trkpt><trkpt lat="43.59246" lon="11.6646583"><ele>807.0</ele><time>2026-04-26T11:12:16.757Z</time></trkpt><trkpt lat="43.5925733" lon="11.6647167"><ele>807.0</ele><time>2026-04-26T11:12:17.754Z</time></trkpt><trkpt lat="43.5926867" lon="11.6647617"><ele>807.0</ele><time>2026-04-26T11:12:18.753Z</time></trkpt><trkpt lat="43.5927967" lon="11.6647933"><ele>809.4000000000001</ele><time>2026-04-26T11:12:19.754Z</time></trkpt><trkpt lat="43.592905" lon="11.6648167"><ele>811.8000000000001</ele><time>2026-04-26T11:12:20.755Z</time></trkpt><trkpt lat="43.5930217" lon="11.6648367"><ele>814.2</ele><time>2026-04-26T11:12:21.753Z</time></trkpt><trkpt lat="43.593135" lon="11.664855"><ele>816.6</ele><time>2026-04-26T11:12:22.759Z</time></trkpt><trkpt lat="43.59324" lon="11.6648683"><ele>819.0</ele><time>2026-04-26T11:12:23.754Z</time></trkpt><trkpt lat="43.59333" lon="11.664875"><ele>819.0</ele><time>2026-04-26T11:12:24.754Z</time></trkpt><trkpt lat="43.5934083" lon="11.6648717"><ele>819.0</ele><time>2026-04-26T11:12:25.754Z</time></trkpt><trkpt lat="43.59348" lon="11.6648667"><ele>819.0</ele><time>2026-04-26T11:12:26.756Z</time></trkpt><trkpt lat="43.5935417" lon="11.6648467"><ele>819.0</ele><time>2026-04-26T11:12:27.753Z</time></trkpt><trkpt lat="43.593645" lon="11.664745"><ele>819.0</ele><time>2026-04-26T11:12:29.754Z</time></trkpt><trkpt lat="43.5936917" lon="11.66468"><ele>819.0</ele><time>2026-04-26T11:12:30.754Z</time></trkpt><trkpt lat="43.59378" lon="11.664585"><ele>821.0</ele><time>2026-04-26T11:12:32.754Z</time></trkpt><trkpt lat="43.593865" lon="11.66455"><ele>823.0</ele><time>2026-04-26T11:12:34.753Z</time></trkpt><trkpt lat="43.593945" lon="11.6645533"><ele>825.0</ele><time>2026-04-26T11:12:36.761Z</time></trkpt><trkpt lat="43.59399" lon="11.6644883"><ele>827.0</ele><time>2026-04-26T11:12:38.754Z</time></trkpt><trkpt lat="43.59397" lon="11.6643567"><ele>829.0</ele><time>2026-04-26T11:12:40.754Z</time></trkpt><trkpt lat="43.593925" lon="11.6642817"><ele>831.0</ele><time>2026-04-26T11:12:41.754Z</time></trkpt><trkpt lat="43.5938733" lon="11.6642067"><ele>833.0</ele><time>2026-04-26T11:12:42.753Z</time></trkpt><trkpt lat="43.5938217" lon="11.6641333"><ele>835.0</ele><time>2026-04-26T11:12:43.754Z</time></trkpt><trkpt lat="43.59378" lon="11.6640517"><ele>837.0</ele><time>2026-04-26T11:12:44.754Z</time></trkpt><trkpt lat="43.5937483" lon="11.663965"><ele>839.0</ele><time>2026-04-26T11:12:45.753Z</time></trkpt><trkpt lat="43.5937367" lon="11.6638767"><ele>841.0</ele><time>2026-04-26T11:12:46.753Z</time></trkpt><trkpt lat="43.5937567" lon="11.663725"><ele>843.0</ele><time>2026-04-26T11:12:48.759Z</time></trkpt><trkpt lat="43.5938417" lon="11.663635"><ele>843.0</ele><time>2026-04-26T11:12:50.754Z</time></trkpt><trkpt lat="43.593915" lon="11.6636283"><ele>843.0</ele><time>2026-04-26T11:12:51.753Z</time></trkpt><trkpt lat="43.5939867" lon="11.6636433"><ele>843.0</ele><time>2026-04-26T11:12:52.753Z</time></trkpt><trkpt lat="43.5940533" lon="11.6636917"><ele>843.0</ele><time>2026-04-26T11:12:53.754Z</time></trkpt><trkpt lat="43.59413" lon="11.6637567"><ele>843.0</ele><time>2026-04-26T11:12:54.753Z</time></trkpt><trkpt lat="43.5942067" lon="11.663815"><ele>843.0</ele><time>2026-04-26T11:12:55.754Z</time></trkpt><trkpt lat="43.5942833" lon="11.663875"><ele>843.0</ele><time>2026-04-26T11:12:56.755Z</time></trkpt><trkpt lat="43.5943533" lon="11.6639433"><ele>843.0</ele><time>2026-04-26T11:12:57.753Z</time></trkpt><trkpt lat="43.5944167" lon="11.6640383"><ele>843.0</ele><time>2026-04-26T11:12:58.754Z</time></trkpt><trkpt lat="43.5944783" lon="11.6641367"><ele>843.0</ele><time>2026-04-26T11:12:59.756Z</time></trkpt><trkpt lat="43.5945333" lon="11.6642417"><ele>843.0</ele><time>2026-04-26T11:13:00.755Z</time></trkpt><trkpt lat="43.594585" lon="11.664355"><ele>845.0</ele><time>2026-04-26T11:13:01.755Z</time></trkpt><trkpt lat="43.594645" lon="11.66446"><ele>847.0</ele><time>2026-04-26T11:13:02.756Z</time></trkpt><trkpt lat="43.5947133" lon="11.664555"><ele>849.0</ele><time>2026-04-26T11:13:03.755Z</time></trkpt><trkpt lat="43.5947833" lon="11.6646467"><ele>851.0</ele><time>2026-04-26T11:13:04.754Z</time></trkpt><trkpt lat="43.5948667" lon="11.6647317"><ele>853.0</ele><time>2026-04-26T11:13:05.756Z</time></trkpt><trkpt lat="43.5949533" lon="11.66481"><ele>853.0</ele><time>2026-04-26T11:13:06.755Z</time></trkpt><trkpt lat="43.5950467" lon="11.664895"><ele>853.0</ele><time>2026-04-26T11:13:07.755Z</time></trkpt><trkpt lat="43.5951383" lon="11.664985"><ele>853.0</ele><time>2026-04-26T11:13:08.757Z</time></trkpt><trkpt lat="43.5952217" lon="11.665065"><ele>853.0</ele><time>2026-04-26T11:13:09.754Z</time></trkpt><trkpt lat="43.5953083" lon="11.6651317"><ele>853.0</ele><time>2026-04-26T11:13:10.754Z</time></trkpt><trkpt lat="43.5953983" lon="11.665195"><ele>855.0</ele><time>2026-04-26T11:13:11.755Z</time></trkpt><trkpt lat="43.5954917" lon="11.6652783"><ele>857.0</ele><time>2026-04-26T11:13:12.755Z</time></trkpt><trkpt lat="43.5955783" lon="11.6653983"><ele>859.0</ele><time>2026-04-26T11:13:13.755Z</time></trkpt><trkpt lat="43.5956867" lon="11.6655283"><ele>861.0</ele><time>2026-04-26T11:13:14.754Z</time></trkpt><trkpt lat="43.5957967" lon="11.6656633"><ele>861.0</ele><time>2026-04-26T11:13:15.754Z</time></trkpt><trkpt lat="43.5959033" lon="11.66579"><ele>861.0</ele><time>2026-04-26T11:13:16.754Z</time></trkpt><trkpt lat="43.596005" lon="11.6658983"><ele>861.0</ele><time>2026-04-26T11:13:17.753Z</time></trkpt><trkpt lat="43.5960967" lon="11.6659983"><ele>861.0</ele><time>2026-04-26T11:13:18.753Z</time></trkpt><trkpt lat="43.5961767" lon="11.66608"><ele>861.3333333333334</ele><time>2026-04-26T11:13:19.754Z</time></trkpt><trkpt lat="43.5962467" lon="11.666155"><ele>861.6666666666667</ele><time>2026-04-26T11:13:20.76Z</time></trkpt><trkpt lat="43.596305" lon="11.66622"><ele>862.0</ele><time>2026-04-26T11:13:21.754Z</time></trkpt><trkpt lat="43.5963567" lon="11.66628"><ele>862.3333333333334</ele><time>2026-04-26T11:13:22.753Z</time></trkpt><trkpt lat="43.5964417" lon="11.6663733"><ele>862.6666666666667</ele><time>2026-04-26T11:13:24.754Z</time></trkpt><trkpt lat="43.596505" lon="11.66643"><ele>863.0</ele><time>2026-04-26T11:13:26.754Z</time></trkpt><trkpt lat="43.5965817" lon="11.66649"><ele>863.0000000000001</ele><time>2026-04-26T11:13:29.754Z</time></trkpt><trkpt lat="43.59665" lon="11.6665217"><ele>863.0</ele><time>2026-04-26T11:13:31.754Z</time></trkpt><trkpt lat="43.5967233" lon="11.6664883"><ele>863.0</ele><time>2026-04-26T11:13:50.755Z</time></trkpt><trkpt lat="43.5967267" lon="11.6666133"><ele>863.0</ele><time>2026-04-26T11:13:53.753Z</time></trkpt><trkpt lat="43.5967683" lon="11.6666883"><ele>863.0000000000001</ele><time>2026-04-26T11:13:55.753Z</time></trkpt><trkpt lat="43.5968117" lon="11.6667867"><ele>863.0</ele><time>2026-04-26T11:13:57.754Z</time></trkpt><trkpt lat="43.5968817" lon="11.6669083"><ele>862.0</ele><time>2026-04-26T11:13:59.755Z</time></trkpt><trkpt lat="43.5969584" lon="11.6670248"><ele>861.0</ele><time>2026-04-26T11:14:01.755Z</time></trkpt><trkpt lat="43.5970534" lon="11.6671361"><ele>860.0</ele><time>2026-04-26T11:14:03.755Z</time></trkpt><trkpt lat="43.5971354" lon="11.6672562"><ele>859.0</ele><time>2026-04-26T11:14:05.755Z</time></trkpt><trkpt lat="43.5972038" lon="11.6673934"><ele>858.4000000000001</ele><time>2026-04-26T11:14:07.755Z</time></trkpt><trkpt lat="43.597258" lon="11.6675578"><ele>857.8000000000001</ele><time>2026-04-26T11:14:09.754Z</time></trkpt><trkpt lat="43.5972813" lon="11.6676634"><ele>857.1999999999999</ele><time>2026-04-26T11:14:10.754Z</time></trkpt><trkpt lat="43.5973018" lon="11.6677796"><ele>856.5999999999999</ele><time>2026-04-26T11:14:11.754Z</time></trkpt><trkpt lat="43.5973225" lon="11.6678981"><ele>856.0</ele><time>2026-04-26T11:14:12.754Z</time></trkpt><trkpt lat="43.5973452" lon="11.6680272"><ele>855.8</ele><time>2026-04-26T11:14:13.755Z</time></trkpt><trkpt lat="43.5973632" lon="11.6681644"><ele>855.5999999999999</ele><time>2026-04-26T11:14:14.756Z</time></trkpt><trkpt lat="43.5973851" lon="11.668308"><ele>855.4</ele><time>2026-04-26T11:14:15.753Z</time></trkpt><trkpt lat="43.5974097" lon="11.6684583"><ele>855.2</ele><time>2026-04-26T11:14:16.753Z</time></trkpt><trkpt lat="43.5974404" lon="11.6686139"><ele>855.0</ele><time>2026-04-26T11:14:17.753Z</time></trkpt><trkpt lat="43.5974834" lon="11.6687741"><ele>854.0</ele><time>2026-04-26T11:14:18.753Z</time></trkpt><trkpt lat="43.5975306" lon="11.6689364"><ele>853.0</ele><time>2026-04-26T11:14:19.753Z</time></trkpt><trkpt lat="43.5975735" lon="11.6690962"><ele>852.0</ele><time>2026-04-26T11:14:20.755Z</time></trkpt><trkpt lat="43.5976133" lon="11.6692472"><ele>851.0</ele><time>2026-04-26T11:14:21.754Z</time></trkpt><trkpt lat="43.5976475" lon="11.6693858"><ele>850.8333333333334</ele><time>2026-04-26T11:14:22.753Z</time></trkpt><trkpt lat="43.5976779" lon="11.6695106"><ele>850.6666666666667</ele><time>2026-04-26T11:14:23.754Z</time></trkpt><trkpt lat="43.5977049" lon="11.6696156"><ele>850.5</ele><time>2026-04-26T11:14:24.753Z</time></trkpt><trkpt lat="43.5977284" lon="11.6697164"><ele>850.3333333333333</ele><time>2026-04-26T11:14:25.753Z</time></trkpt><trkpt lat="43.5977489" lon="11.6698091"><ele>850.1666666666666</ele><time>2026-04-26T11:14:26.755Z</time></trkpt><trkpt lat="43.5977534" lon="11.6698993"><ele>850.0</ele><time>2026-04-26T11:14:27.753Z</time></trkpt><trkpt lat="43.5977515" lon="11.6699896"><ele>850.0</ele><time>2026-04-26T11:14:28.753Z</time></trkpt><trkpt lat="43.5977422" lon="11.6701606"><ele>850.0</ele><time>2026-04-26T11:14:30.755Z</time></trkpt><trkpt lat="43.5977371" lon="11.6703201"><ele>850.0</ele><time>2026-04-26T11:14:32.755Z</time></trkpt><trkpt lat="43.5977397" lon="11.6704538"><ele>850.0</ele><time>2026-04-26T11:14:34.755Z</time></trkpt><trkpt lat="43.5977597" lon="11.6705444"><ele>850.0</ele><time>2026-04-26T11:14:37.756Z</time></trkpt><trkpt lat="43.597765" lon="11.67064"><ele>849.8</ele><time>2026-04-26T11:14:42.755Z</time></trkpt><trkpt lat="43.5977683" lon="11.6708183"><ele>849.6</ele><time>2026-04-26T11:14:44.755Z</time></trkpt><trkpt lat="43.597775" lon="11.6709217"><ele>849.4000000000001</ele><time>2026-04-26T11:14:45.754Z</time></trkpt><trkpt lat="43.5977833" lon="11.67102"><ele>849.2</ele><time>2026-04-26T11:14:46.754Z</time></trkpt><trkpt lat="43.5977933" lon="11.6711083"><ele>849.0</ele><time>2026-04-26T11:14:47.753Z</time></trkpt><trkpt lat="43.59783" lon="11.6712617"><ele>850.1666666666666</ele><time>2026-04-26T11:14:49.754Z</time></trkpt><trkpt lat="43.5978817" lon="11.6713683"><ele>851.3333333333333</ele><time>2026-04-26T11:14:51.753Z</time></trkpt><trkpt lat="43.5979417" lon="11.6714433"><ele>852.5</ele><time>2026-04-26T11:14:53.755Z</time></trkpt><trkpt lat="43.5980033" lon="11.67155"><ele>853.6666666666666</ele><time>2026-04-26T11:14:55.753Z</time></trkpt><trkpt lat="43.5980531" lon="11.671662"><ele>854.8333333333333</ele><time>2026-04-26T11:14:57.753Z</time></trkpt><trkpt lat="43.5980746" lon="11.6717483"><ele>856.0</ele><time>2026-04-26T11:14:59.755Z</time></trkpt><trkpt lat="43.5980532" lon="11.6718421"><ele>855.9999999999999</ele><time>2026-04-26T11:15:02.756Z</time></trkpt><trkpt lat="43.5980932" lon="11.6717386"><ele>856.0</ele><time>2026-04-26T11:15:09.753Z</time></trkpt><trkpt lat="43.598061" lon="11.6716418"><ele>856.0</ele><time>2026-04-26T11:15:10.754Z</time></trkpt><trkpt lat="43.5980129" lon="11.6715403"><ele>856.0</ele><time>2026-04-26T11:15:11.753Z</time></trkpt><trkpt lat="43.5979597" lon="11.6714408"><ele>855.9999999999999</ele><time>2026-04-26T11:15:12.753Z</time></trkpt><trkpt lat="43.5979027" lon="11.671335"><ele>856.0</ele><time>2026-04-26T11:15:13.754Z</time></trkpt><trkpt lat="43.597853" lon="11.6712198"><ele>854.4</ele><time>2026-04-26T11:15:14.754Z</time></trkpt><trkpt lat="43.5978159" lon="11.6710844"><ele>852.8</ele><time>2026-04-26T11:15:15.754Z</time></trkpt><trkpt lat="43.5977914" lon="11.670941"><ele>851.1999999999999</ele><time>2026-04-26T11:15:16.753Z</time></trkpt><trkpt lat="43.5977798" lon="11.6708154"><ele>849.5999999999999</ele><time>2026-04-26T11:15:17.753Z</time></trkpt><trkpt lat="43.5977749" lon="11.670714"><ele>848.0</ele><time>2026-04-26T11:15:18.753Z</time></trkpt><trkpt lat="43.5977809" lon="11.6705828"><ele>847.8333333333334</ele><time>2026-04-26T11:15:20.754Z</time></trkpt><trkpt lat="43.5978406" lon="11.6705"><ele>847.6666666666667</ele><time>2026-04-26T11:15:23.754Z</time></trkpt><trkpt lat="43.5979112" lon="11.6704905"><ele>847.5</ele><time>2026-04-26T11:15:25.754Z</time></trkpt><trkpt lat="43.5980167" lon="11.67055"><ele>847.3333333333333</ele><time>2026-04-26T11:15:27.753Z</time></trkpt><trkpt lat="43.5980733" lon="11.6706167"><ele>847.1666666666666</ele><time>2026-04-26T11:15:28.753Z</time></trkpt><trkpt lat="43.598135" lon="11.67071"><ele>847.0</ele><time>2026-04-26T11:15:29.754Z</time></trkpt><trkpt lat="43.5982" lon="11.67081"><ele>847.0</ele><time>2026-04-26T11:15:30.753Z</time></trkpt><trkpt lat="43.5982933" lon="11.6708967"><ele>847.0</ele><time>2026-04-26T11:15:31.754Z</time></trkpt><trkpt lat="43.5983933" lon="11.67098"><ele>847.0</ele><time>2026-04-26T11:15:32.755Z</time></trkpt><trkpt lat="43.5984967" lon="11.6710633"><ele>847.0</ele><time>2026-04-26T11:15:33.753Z</time></trkpt><trkpt lat="43.5986017" lon="11.6711467"><ele>847.25</ele><time>2026-04-26T11:15:34.754Z</time></trkpt><trkpt lat="43.5986983" lon="11.6712367"><ele>847.5</ele><time>2026-04-26T11:15:35.754Z</time></trkpt><trkpt lat="43.5987917" lon="11.6713333"><ele>847.75</ele><time>2026-04-26T11:15:36.759Z</time></trkpt><trkpt lat="43.598885" lon="11.67143"><ele>848.0</ele><time>2026-04-26T11:15:37.754Z</time></trkpt><trkpt lat="43.5989767" lon="11.6715167"><ele>848.0</ele><time>2026-04-26T11:15:38.754Z</time></trkpt><trkpt lat="43.5990717" lon="11.67157"><ele>848.0</ele><time>2026-04-26T11:15:39.753Z</time></trkpt><trkpt lat="43.5991783" lon="11.6715817"><ele>848.0</ele><time>2026-04-26T11:15:40.753Z</time></trkpt><trkpt lat="43.5992817" lon="11.671545"><ele>848.0</ele><time>2026-04-26T11:15:41.753Z</time></trkpt><trkpt lat="43.599385" lon="11.6714767"><ele>848.0</ele><time>2026-04-26T11:15:42.757Z</time></trkpt><trkpt lat="43.599485" lon="11.6714067"><ele>846.5</ele><time>2026-04-26T11:15:43.753Z</time></trkpt><trkpt lat="43.5995967" lon="11.6713733"><ele>845.0</ele><time>2026-04-26T11:15:44.753Z</time></trkpt><trkpt lat="43.5997217" lon="11.6713567"><ele>843.5</ele><time>2026-04-26T11:15:45.754Z</time></trkpt><trkpt lat="43.5998417" lon="11.6713433"><ele>842.0</ele><time>2026-04-26T11:15:46.755Z</time></trkpt><trkpt lat="43.59997" lon="11.6713083"><ele>842.0</ele><time>2026-04-26T11:15:47.755Z</time></trkpt><trkpt lat="43.6001133" lon="11.67125"><ele>842.0</ele><time>2026-04-26T11:15:48.755Z</time></trkpt><trkpt lat="43.600225" lon="11.671195"><ele>842.0</ele><time>2026-04-26T11:15:49.757Z</time></trkpt><trkpt lat="43.6003217" lon="11.6711367"><ele>842.0</ele><time>2026-04-26T11:15:50.755Z</time></trkpt><trkpt lat="43.600415" lon="11.67105"><ele>836.0</ele><time>2026-04-26T11:15:51.755Z</time></trkpt><trkpt lat="43.60049" lon="11.6709383"><ele>830.0</ele><time>2026-04-26T11:15:52.755Z</time></trkpt><trkpt lat="43.6005717" lon="11.6708233"><ele>824.0</ele><time>2026-04-26T11:15:53.755Z</time></trkpt><trkpt lat="43.60065" lon="11.6707033"><ele>818.0</ele><time>2026-04-26T11:15:54.754Z</time></trkpt><trkpt lat="43.6007283" lon="11.6706017"><ele>818.0000000000001</ele><time>2026-04-26T11:15:55.755Z</time></trkpt><trkpt lat="43.6008" lon="11.670525"><ele>818.0</ele><time>2026-04-26T11:15:56.755Z</time></trkpt><trkpt lat="43.6008633" lon="11.6704717"><ele>818.0</ele><time>2026-04-26T11:15:57.755Z</time></trkpt><trkpt lat="43.600935" lon="11.6704783"><ele>818.0</ele><time>2026-04-26T11:15:58.755Z</time></trkpt><trkpt lat="43.6009983" lon="11.6705483"><ele>818.0000000000001</ele><time>2026-04-26T11:15:59.756Z</time></trkpt><trkpt lat="43.601055" lon="11.6706417"><ele>818.0</ele><time>2026-04-26T11:16:00.755Z</time></trkpt><trkpt lat="43.6011067" lon="11.67077"><ele>818.0</ele><time>2026-04-26T11:16:01.755Z</time></trkpt><trkpt lat="43.6011583" lon="11.6708833"><ele>818.0</ele><time>2026-04-26T11:16:02.756Z</time></trkpt><trkpt lat="43.6012" lon="11.6710517"><ele>818.0</ele><time>2026-04-26T11:16:03.755Z</time></trkpt><trkpt lat="43.60122" lon="11.671245"><ele>818.0</ele><time>2026-04-26T11:16:04.755Z</time></trkpt><trkpt lat="43.6012117" lon="11.671415"><ele>815.8</ele><time>2026-04-26T11:16:05.755Z</time></trkpt><trkpt lat="43.6012213" lon="11.6715719"><ele>813.5999999999999</ele><time>2026-04-26T11:16:06.755Z</time></trkpt><trkpt lat="43.6012429" lon="11.6717094"><ele>811.4000000000001</ele><time>2026-04-26T11:16:07.755Z</time></trkpt><trkpt lat="43.6012706" lon="11.6718281"><ele>809.2</ele><time>2026-04-26T11:16:08.76Z</time></trkpt><trkpt lat="43.6012984" lon="11.6719353"><ele>807.0</ele><time>2026-04-26T11:16:09.755Z</time></trkpt><trkpt lat="43.6013285" lon="11.6720275"><ele>807.0</ele><time>2026-04-26T11:16:10.755Z</time></trkpt><trkpt lat="43.6013801" lon="11.6720893"><ele>807.0</ele><time>2026-04-26T11:16:11.755Z</time></trkpt><trkpt lat="43.6014478" lon="11.67209"><ele>807.0</ele><time>2026-04-26T11:16:12.755Z</time></trkpt><trkpt lat="43.6015166" lon="11.672035"><ele>807.0</ele><time>2026-04-26T11:16:13.754Z</time></trkpt><trkpt lat="43.6015703" lon="11.6719533"><ele>807.0</ele><time>2026-04-26T11:16:14.754Z</time></trkpt><trkpt lat="43.6016082" lon="11.6718374"><ele>807.0</ele><time>2026-04-26T11:16:15.753Z</time></trkpt><trkpt lat="43.601655" lon="11.6717153"><ele>807.0</ele><time>2026-04-26T11:16:16.753Z</time></trkpt><trkpt lat="43.6017218" lon="11.6716299"><ele>807.0</ele><time>2026-04-26T11:16:17.753Z</time></trkpt><trkpt lat="43.6018064" lon="11.6716014"><ele>807.0</ele><time>2026-04-26T11:16:18.753Z</time></trkpt><trkpt lat="43.6018967" lon="11.6716112"><ele>807.0</ele><time>2026-04-26T11:16:19.754Z</time></trkpt><trkpt lat="43.6019964" lon="11.6716398"><ele>807.0</ele><time>2026-04-26T11:16:20.754Z</time></trkpt><trkpt lat="43.6020916" lon="11.6716682"><ele>809.3333333333334</ele><time>2026-04-26T11:16:21.753Z</time></trkpt><trkpt lat="43.6021815" lon="11.6716875"><ele>811.6666666666667</ele><time>2026-04-26T11:16:22.754Z</time></trkpt><trkpt lat="43.6022684" lon="11.6717044"><ele>814.0</ele><time>2026-04-26T11:16:23.755Z</time></trkpt><trkpt lat="43.6023454" lon="11.6716785"><ele>816.3333333333334</ele><time>2026-04-26T11:16:24.754Z</time></trkpt><trkpt lat="43.6024155" lon="11.6716119"><ele>818.6666666666667</ele><time>2026-04-26T11:16:25.755Z</time></trkpt><trkpt lat="43.6024423" lon="11.6715202"><ele>821.0</ele><time>2026-04-26T11:16:26.755Z</time></trkpt><trkpt lat="43.6024424" lon="11.6713992"><ele>821.0</ele><time>2026-04-26T11:16:27.755Z</time></trkpt><trkpt lat="43.6024282" lon="11.6712637"><ele>821.0</ele><time>2026-04-26T11:16:28.755Z</time></trkpt><trkpt lat="43.6024279" lon="11.6711272"><ele>821.0</ele><time>2026-04-26T11:16:29.762Z</time></trkpt><trkpt lat="43.6024398" lon="11.6709884"><ele>821.0</ele><time>2026-04-26T11:16:30.755Z</time></trkpt><trkpt lat="43.6024618" lon="11.6708513"><ele>821.0</ele><time>2026-04-26T11:16:31.755Z</time></trkpt><trkpt lat="43.6024945" lon="11.6707185"><ele>818.6666666666667</ele><time>2026-04-26T11:16:32.757Z</time></trkpt><trkpt lat="43.6025299" lon="11.6705869"><ele>816.3333333333334</ele><time>2026-04-26T11:16:33.755Z</time></trkpt><trkpt lat="43.6025608" lon="11.6704596"><ele>814.0</ele><time>2026-04-26T11:16:34.755Z</time></trkpt><trkpt lat="43.6025855" lon="11.6703357"><ele>811.6666666666667</ele><time>2026-04-26T11:16:35.754Z</time></trkpt><trkpt lat="43.6026072" lon="11.6702334"><ele>809.3333333333334</ele><time>2026-04-26T11:16:36.754Z</time></trkpt><trkpt lat="43.6026428" lon="11.6701484"><ele>807.0</ele><time>2026-04-26T11:16:37.754Z</time></trkpt><trkpt lat="43.6026954" lon="11.670076"><ele>808.0</ele><time>2026-04-26T11:16:38.756Z</time></trkpt><trkpt lat="43.6027694" lon="11.6700333"><ele>809.0</ele><time>2026-04-26T11:16:39.754Z</time></trkpt><trkpt lat="43.6028604" lon="11.6700222"><ele>810.0</ele><time>2026-04-26T11:16:40.755Z</time></trkpt><trkpt lat="43.6029588" lon="11.6700338"><ele>811.0</ele><time>2026-04-26T11:16:41.754Z</time></trkpt><trkpt lat="43.6030526" lon="11.6700576"><ele>812.0</ele><time>2026-04-26T11:16:42.753Z</time></trkpt><trkpt lat="43.603141" lon="11.670072"><ele>812.0</ele><time>2026-04-26T11:16:43.755Z</time></trkpt><trkpt lat="43.6032268" lon="11.6700773"><ele>812.0</ele><time>2026-04-26T11:16:44.754Z</time></trkpt><trkpt lat="43.6032982" lon="11.6700456"><ele>812.0</ele><time>2026-04-26T11:16:45.753Z</time></trkpt><trkpt lat="43.6033541" lon="11.6698762"><ele>812.0</ele><time>2026-04-26T11:16:47.753Z</time></trkpt><trkpt lat="43.6033673" lon="11.6697583"><ele>812.0</ele><time>2026-04-26T11:16:48.755Z</time></trkpt><trkpt lat="43.6033824" lon="11.6696322"><ele>812.0</ele><time>2026-04-26T11:16:49.755Z</time></trkpt><trkpt lat="43.6034096" lon="11.6694753"><ele>812.0</ele><time>2026-04-26T11:16:50.756Z</time></trkpt><trkpt lat="43.6034417" lon="11.6693226"><ele>812.0</ele><time>2026-04-26T11:16:51.754Z</time></trkpt><trkpt lat="43.6034774" lon="11.669193"><ele>812.0</ele><time>2026-04-26T11:16:52.755Z</time></trkpt><trkpt lat="43.6035159" lon="11.6690677"><ele>812.0</ele><time>2026-04-26T11:16:53.757Z</time></trkpt><trkpt lat="43.6035617" lon="11.6689698"><ele>812.2</ele><time>2026-04-26T11:16:54.755Z</time></trkpt><trkpt lat="43.6036128" lon="11.6688704"><ele>812.4000000000001</ele><time>2026-04-26T11:16:55.755Z</time></trkpt><trkpt lat="43.6036532" lon="11.668761"><ele>812.5999999999999</ele><time>2026-04-26T11:16:56.755Z</time></trkpt><trkpt lat="43.6036823" lon="11.668642"><ele>812.8</ele><time>2026-04-26T11:16:57.754Z</time></trkpt><trkpt lat="43.6037007" lon="11.6685157"><ele>813.0</ele><time>2026-04-26T11:16:58.754Z</time></trkpt><trkpt lat="43.6037128" lon="11.6683886"><ele>813.0</ele><time>2026-04-26T11:16:59.755Z</time></trkpt><trkpt lat="43.6037271" lon="11.6682666"><ele>813.0</ele><time>2026-04-26T11:17:00.754Z</time></trkpt><trkpt lat="43.6037462" lon="11.6681493"><ele>813.0</ele><time>2026-04-26T11:17:01.753Z</time></trkpt><trkpt lat="43.6037657" lon="11.6680371"><ele>813.0</ele><time>2026-04-26T11:17:02.754Z</time></trkpt><trkpt lat="43.6037879" lon="11.66793"><ele>813.0</ele><time>2026-04-26T11:17:03.753Z</time></trkpt><trkpt lat="43.6038139" lon="11.6678341"><ele>813.0</ele><time>2026-04-26T11:17:04.754Z</time></trkpt><trkpt lat="43.6038399" lon="11.6677508"><ele>809.8</ele><time>2026-04-26T11:17:05.753Z</time></trkpt><trkpt lat="43.6039047" lon="11.6676268"><ele>806.5999999999999</ele><time>2026-04-26T11:17:07.753Z</time></trkpt><trkpt lat="43.6039445" lon="11.6675123"><ele>803.4000000000001</ele><time>2026-04-26T11:17:09.753Z</time></trkpt><trkpt lat="43.6039515" lon="11.6673986"><ele>800.2</ele><time>2026-04-26T11:17:11.753Z</time></trkpt><trkpt lat="43.6039367" lon="11.6672833"><ele>797.0</ele><time>2026-04-26T11:17:13.755Z</time></trkpt><trkpt lat="43.603895" lon="11.667145"><ele>797.0</ele><time>2026-04-26T11:17:15.753Z</time></trkpt><trkpt lat="43.6038467" lon="11.6669967"><ele>797.0</ele><time>2026-04-26T11:17:17.754Z</time></trkpt><trkpt lat="43.6038033" lon="11.6668833"><ele>787.0</ele><time>2026-04-26T11:17:19.755Z</time></trkpt><trkpt lat="43.60377" lon="11.66677"><ele>787.0</ele><time>2026-04-26T11:17:26.754Z</time></trkpt></trkseg><trkseg><trkpt lat="43.6036833" lon="11.6667017"><ele>786.9999999999999</ele><time>2026-04-26T12:23:05.756Z</time></trkpt><trkpt lat="43.60374" lon="11.66684"><ele>787.0</ele><time>2026-04-26T12:23:07.756Z</time></trkpt><trkpt lat="43.603785" lon="11.6669333"><ele>787.0</ele><time>2026-04-26T12:23:09.755Z</time></trkpt><trkpt lat="43.6038267" lon="11.6670383"><ele>787.0</ele><time>2026-04-26T12:23:11.756Z</time></trkpt><trkpt lat="43.60387" lon="11.66714"><ele>786.9999999999999</ele><time>2026-04-26T12:23:13.755Z</time></trkpt><trkpt lat="43.6039033" lon="11.66724"><ele>787.0</ele><time>2026-04-26T12:23:15.755Z</time></trkpt><trkpt lat="43.6039183" lon="11.6673633"><ele>789.0</ele><time>2026-04-26T12:23:17.76Z</time></trkpt><trkpt lat="43.6039117" lon="11.6674833"><ele>791.0</ele><time>2026-04-26T12:23:19.757Z</time></trkpt><trkpt lat="43.6038683" lon="11.6676217"><ele>793.0</ele><time>2026-04-26T12:23:21.755Z</time></trkpt><trkpt lat="43.6038167" lon="11.6677683"><ele>795.0</ele><time>2026-04-26T12:23:23.756Z</time></trkpt><trkpt lat="43.603795" lon="11.6678717"><ele>797.0</ele><time>2026-04-26T12:23:24.755Z</time></trkpt><trkpt lat="43.6037667" lon="11.6680233"><ele>796.6666666666667</ele><time>2026-04-26T12:23:26.756Z</time></trkpt><trkpt lat="43.60375" lon="11.6681483"><ele>796.3333333333334</ele><time>2026-04-26T12:23:28.755Z</time></trkpt><trkpt lat="43.603725" lon="11.668245"><ele>796.0</ele><time>2026-04-26T12:23:30.76Z</time></trkpt><trkpt lat="43.603675" lon="11.6683267"><ele>795.6666666666667</ele><time>2026-04-26T12:23:33.757Z</time></trkpt><trkpt lat="43.60365" lon="11.6684617"><ele>795.3333333333334</ele><time>2026-04-26T12:23:36.755Z</time></trkpt><trkpt lat="43.6036367" lon="11.6685717"><ele>795.0</ele><time>2026-04-26T12:23:38.756Z</time></trkpt><trkpt lat="43.603625" lon="11.6686883"><ele>795.0</ele><time>2026-04-26T12:23:40.756Z</time></trkpt><trkpt lat="43.603575" lon="11.6687967"><ele>795.0</ele><time>2026-04-26T12:23:43.756Z</time></trkpt><trkpt lat="43.6035133" lon="11.6688417"><ele>795.0</ele><time>2026-04-26T12:23:45.755Z</time></trkpt><trkpt lat="43.6034667" lon="11.6689133"><ele>795.0</ele><time>2026-04-26T12:23:47.756Z</time></trkpt><trkpt lat="43.6034233" lon="11.668985"><ele>795.0</ele><time>2026-04-26T12:23:49.756Z</time></trkpt><trkpt lat="43.6033683" lon="11.6690733"><ele>795.0</ele><time>2026-04-26T12:23:51.755Z</time></trkpt><trkpt lat="43.60332" lon="11.6691333"><ele>795.0</ele><time>2026-04-26T12:23:53.756Z</time></trkpt><trkpt lat="43.6032633" lon="11.6692083"><ele>795.0</ele><time>2026-04-26T12:23:56.756Z</time></trkpt><trkpt lat="43.603195" lon="11.6692617"><ele>795.0</ele><time>2026-04-26T12:24:00.755Z</time></trkpt><trkpt lat="43.6031517" lon="11.6693633"><ele>795.0</ele><time>2026-04-26T12:24:02.756Z</time></trkpt><trkpt lat="43.6031183" lon="11.6694683"><ele>795.0</ele><time>2026-04-26T12:24:04.756Z</time></trkpt><trkpt lat="43.6031233" lon="11.66958"><ele>795.0</ele><time>2026-04-26T12:24:06.755Z</time></trkpt><trkpt lat="43.6031317" lon="11.66967"><ele>794.0</ele><time>2026-04-26T12:24:08.756Z</time></trkpt><trkpt lat="43.6030817" lon="11.6697367"><ele>793.0</ele><time>2026-04-26T12:24:12.755Z</time></trkpt><trkpt lat="43.6029883" lon="11.669725"><ele>792.0</ele><time>2026-04-26T12:24:15.755Z</time></trkpt><trkpt lat="43.60291" lon="11.669725"><ele>791.0</ele><time>2026-04-26T12:24:17.756Z</time></trkpt><trkpt lat="43.60283" lon="11.6697233"><ele>790.0</ele><time>2026-04-26T12:24:19.757Z</time></trkpt><trkpt lat="43.6027583" lon="11.6697017"><ele>789.0</ele><time>2026-04-26T12:24:21.754Z</time></trkpt><trkpt lat="43.6026867" lon="11.6696783"><ele>789.0</ele><time>2026-04-26T12:24:23.755Z</time></trkpt><trkpt lat="43.6025917" lon="11.6696833"><ele>789.0</ele><time>2026-04-26T12:24:25.755Z</time></trkpt><trkpt lat="43.602515" lon="11.66971"><ele>789.0</ele><time>2026-04-26T12:24:27.755Z</time></trkpt><trkpt lat="43.6024917" lon="11.66983"><ele>789.0</ele><time>2026-04-26T12:24:46.756Z</time></trkpt><trkpt lat="43.602535" lon="11.66995"><ele>789.0</ele><time>2026-04-26T12:24:49.755Z</time></trkpt><trkpt lat="43.602585" lon="11.6700333"><ele>789.0</ele><time>2026-04-26T12:24:51.754Z</time></trkpt><trkpt lat="43.6026433" lon="11.6700967"><ele>789.0</ele><time>2026-04-26T12:24:53.756Z</time></trkpt><trkpt lat="43.602665" lon="11.67019"><ele>789.0</ele><time>2026-04-26T12:24:57.757Z</time></trkpt><trkpt lat="43.6026117" lon="11.6703117"><ele>789.0</ele><time>2026-04-26T12:24:59.755Z</time></trkpt><trkpt lat="43.6025967" lon="11.6704233"><ele>789.0</ele><time>2026-04-26T12:25:00.754Z</time></trkpt><trkpt lat="43.602575" lon="11.6705483"><ele>789.0</ele><time>2026-04-26T12:25:01.755Z</time></trkpt><trkpt lat="43.6025517" lon="11.67066"><ele>789.0</ele><time>2026-04-26T12:25:02.756Z</time></trkpt><trkpt lat="43.6025233" lon="11.6708"><ele>792.6</ele><time>2026-04-26T12:25:03.754Z</time></trkpt><trkpt lat="43.6025017" lon="11.6709583"><ele>796.2</ele><time>2026-04-26T12:25:04.755Z</time></trkpt><trkpt lat="43.6024833" lon="11.6711117"><ele>799.8000000000001</ele><time>2026-04-26T12:25:05.755Z</time></trkpt><trkpt lat="43.6024767" lon="11.6712483"><ele>803.4000000000001</ele><time>2026-04-26T12:25:06.755Z</time></trkpt><trkpt lat="43.6024733" lon="11.6713717"><ele>807.0</ele><time>2026-04-26T12:25:07.756Z</time></trkpt><trkpt lat="43.6024767" lon="11.671485"><ele>809.3333333333334</ele><time>2026-04-26T12:25:08.756Z</time></trkpt><trkpt lat="43.60248" lon="11.6715967"><ele>811.6666666666667</ele><time>2026-04-26T12:25:09.756Z</time></trkpt><trkpt lat="43.602425" lon="11.6716767"><ele>814.0</ele><time>2026-04-26T12:25:10.756Z</time></trkpt><trkpt lat="43.6023683" lon="11.671755"><ele>816.3333333333334</ele><time>2026-04-26T12:25:11.756Z</time></trkpt><trkpt lat="43.60229" lon="11.6718083"><ele>818.6666666666667</ele><time>2026-04-26T12:25:12.755Z</time></trkpt><trkpt lat="43.6022006" lon="11.6718267"><ele>821.0</ele><time>2026-04-26T12:25:13.755Z</time></trkpt><trkpt lat="43.6020881" lon="11.6717895"><ele>818.1999999999999</ele><time>2026-04-26T12:25:14.756Z</time></trkpt><trkpt lat="43.601984" lon="11.6717222"><ele>815.4</ele><time>2026-04-26T12:25:15.755Z</time></trkpt><trkpt lat="43.6018842" lon="11.6716648"><ele>812.6</ele><time>2026-04-26T12:25:16.755Z</time></trkpt><trkpt lat="43.6017837" lon="11.6716355"><ele>809.8</ele><time>2026-04-26T12:25:17.755Z</time></trkpt><trkpt lat="43.6016965" lon="11.6716552"><ele>807.0</ele><time>2026-04-26T12:25:18.755Z</time></trkpt><trkpt lat="43.6016191" lon="11.6717025"><ele>807.0</ele><time>2026-04-26T12:25:19.755Z</time></trkpt><trkpt lat="43.6015575" lon="11.6717754"><ele>807.0</ele><time>2026-04-26T12:25:20.756Z</time></trkpt><trkpt lat="43.6015084" lon="11.67187"><ele>807.0</ele><time>2026-04-26T12:25:21.755Z</time></trkpt><trkpt lat="43.6014578" lon="11.6719526"><ele>807.0</ele><time>2026-04-26T12:25:22.755Z</time></trkpt><trkpt lat="43.6013597" lon="11.6719231"><ele>807.0</ele><time>2026-04-26T12:25:24.755Z</time></trkpt><trkpt lat="43.6013171" lon="11.671841"><ele>807.0</ele><time>2026-04-26T12:25:25.755Z</time></trkpt><trkpt lat="43.60128" lon="11.6717409"><ele>807.0</ele><time>2026-04-26T12:25:26.755Z</time></trkpt><trkpt lat="43.6012367" lon="11.6716063"><ele>807.0</ele><time>2026-04-26T12:25:27.755Z</time></trkpt><trkpt lat="43.6011975" lon="11.6714367"><ele>807.0</ele><time>2026-04-26T12:25:28.755Z</time></trkpt><trkpt lat="43.6011828" lon="11.6712588"><ele>807.0</ele><time>2026-04-26T12:25:29.755Z</time></trkpt><trkpt lat="43.6011734" lon="11.6710777"><ele>809.2</ele><time>2026-04-26T12:25:30.755Z</time></trkpt><trkpt lat="43.6011587" lon="11.6709051"><ele>811.4000000000001</ele><time>2026-04-26T12:25:31.755Z</time></trkpt><trkpt lat="43.6011306" lon="11.6707546"><ele>813.5999999999999</ele><time>2026-04-26T12:25:32.755Z</time></trkpt><trkpt lat="43.6010766" lon="11.6706249"><ele>815.8</ele><time>2026-04-26T12:25:33.755Z</time></trkpt><trkpt lat="43.6010133" lon="11.6705331"><ele>818.0</ele><time>2026-04-26T12:25:34.755Z</time></trkpt><trkpt lat="43.6009467" lon="11.6704487"><ele>818.0</ele><time>2026-04-26T12:25:35.755Z</time></trkpt><trkpt lat="43.6008882" lon="11.6703887"><ele>818.0</ele><time>2026-04-26T12:25:36.755Z</time></trkpt><trkpt lat="43.6007646" lon="11.6704312"><ele>818.0</ele><time>2026-04-26T12:25:38.756Z</time></trkpt><trkpt lat="43.6006945" lon="11.6705271"><ele>818.0</ele><time>2026-04-26T12:25:39.755Z</time></trkpt><trkpt lat="43.6006135" lon="11.6706514"><ele>818.0</ele><time>2026-04-26T12:25:40.759Z</time></trkpt><trkpt lat="43.6005342" lon="11.6707985"><ele>818.0</ele><time>2026-04-26T12:25:41.766Z</time></trkpt><trkpt lat="43.6004465" lon="11.6709329"><ele>818.0</ele><time>2026-04-26T12:25:42.755Z</time></trkpt><trkpt lat="43.6003683" lon="11.6710525"><ele>818.0</ele><time>2026-04-26T12:25:43.758Z</time></trkpt><trkpt lat="43.6002632" lon="11.6711334"><ele>818.0</ele><time>2026-04-26T12:25:44.755Z</time></trkpt><trkpt lat="43.6001429" lon="11.6711997"><ele>824.0</ele><time>2026-04-26T12:25:45.755Z</time></trkpt><trkpt lat="43.600023" lon="11.6712429"><ele>830.0</ele><time>2026-04-26T12:25:46.755Z</time></trkpt><trkpt lat="43.5998963" lon="11.6712954"><ele>836.0</ele><time>2026-04-26T12:25:47.755Z</time></trkpt><trkpt lat="43.5997753" lon="11.6713251"><ele>842.0</ele><time>2026-04-26T12:25:48.755Z</time></trkpt><trkpt lat="43.5996641" lon="11.6713219"><ele>842.0</ele><time>2026-04-26T12:25:49.755Z</time></trkpt><trkpt lat="43.5995624" lon="11.671307"><ele>842.0</ele><time>2026-04-26T12:25:50.757Z</time></trkpt><trkpt lat="43.599467" lon="11.6713388"><ele>842.0</ele><time>2026-04-26T12:25:51.755Z</time></trkpt><trkpt lat="43.5993703" lon="11.6714088"><ele>842.0</ele><time>2026-04-26T12:25:52.755Z</time></trkpt><trkpt lat="43.5992609" lon="11.6714793"><ele>842.0</ele><time>2026-04-26T12:25:53.76Z</time></trkpt><trkpt lat="43.5991491" lon="11.6715277"><ele>843.5</ele><time>2026-04-26T12:25:54.76Z</time></trkpt><trkpt lat="43.5990405" lon="11.6715352"><ele>845.0</ele><time>2026-04-26T12:25:55.755Z</time></trkpt><trkpt lat="43.598931" lon="11.6714713"><ele>846.5</ele><time>2026-04-26T12:25:56.756Z</time></trkpt><trkpt lat="43.598831" lon="11.6713698"><ele>848.0</ele><time>2026-04-26T12:25:57.755Z</time></trkpt><trkpt lat="43.5987235" lon="11.6712666"><ele>847.75</ele><time>2026-04-26T12:25:58.755Z</time></trkpt><trkpt lat="43.5986142" lon="11.6711714"><ele>847.5</ele><time>2026-04-26T12:25:59.756Z</time></trkpt><trkpt lat="43.5985044" lon="11.671078"><ele>847.25</ele><time>2026-04-26T12:26:00.755Z</time></trkpt><trkpt lat="43.5983944" lon="11.6709786"><ele>847.0</ele><time>2026-04-26T12:26:01.756Z</time></trkpt><trkpt lat="43.5982843" lon="11.6708546"><ele>847.0</ele><time>2026-04-26T12:26:02.758Z</time></trkpt><trkpt lat="43.5981809" lon="11.6707332"><ele>847.0</ele><time>2026-04-26T12:26:03.756Z</time></trkpt><trkpt lat="43.5981115" lon="11.6706262"><ele>847.0</ele><time>2026-04-26T12:26:04.755Z</time></trkpt><trkpt lat="43.5980456" lon="11.6705354"><ele>847.0</ele><time>2026-04-26T12:26:05.757Z</time></trkpt><trkpt lat="43.5979799" lon="11.6704712"><ele>847.0</ele><time>2026-04-26T12:26:06.757Z</time></trkpt><trkpt lat="43.5979036" lon="11.6704413"><ele>847.2</ele><time>2026-04-26T12:26:07.758Z</time></trkpt><trkpt lat="43.5978127" lon="11.6704377"><ele>847.4000000000001</ele><time>2026-04-26T12:26:09.755Z</time></trkpt><trkpt lat="43.5977514" lon="11.670407"><ele>847.5999999999999</ele><time>2026-04-26T12:26:12.756Z</time></trkpt><trkpt lat="43.5977613" lon="11.670283"><ele>847.8</ele><time>2026-04-26T12:26:14.755Z</time></trkpt><trkpt lat="43.5977814" lon="11.670095"><ele>848.0</ele><time>2026-04-26T12:26:16.755Z</time></trkpt><trkpt lat="43.5977936" lon="11.6699783"><ele>848.4</ele><time>2026-04-26T12:26:17.756Z</time></trkpt><trkpt lat="43.5978017" lon="11.6698619"><ele>848.8</ele><time>2026-04-26T12:26:18.755Z</time></trkpt><trkpt lat="43.5977942" lon="11.6697523"><ele>849.2</ele><time>2026-04-26T12:26:19.755Z</time></trkpt><trkpt lat="43.5977686" lon="11.6696437"><ele>849.6</ele><time>2026-04-26T12:26:20.756Z</time></trkpt><trkpt lat="43.597731" lon="11.6695293"><ele>850.0</ele><time>2026-04-26T12:26:21.755Z</time></trkpt><trkpt lat="43.5976811" lon="11.6693855"><ele>850.25</ele><time>2026-04-26T12:26:22.755Z</time></trkpt><trkpt lat="43.5976351" lon="11.6692229"><ele>850.5</ele><time>2026-04-26T12:26:23.76Z</time></trkpt><trkpt lat="43.5975957" lon="11.6690572"><ele>850.75</ele><time>2026-04-26T12:26:24.755Z</time></trkpt><trkpt lat="43.5975557" lon="11.6688962"><ele>851.0</ele><time>2026-04-26T12:26:25.755Z</time></trkpt><trkpt lat="43.5975146" lon="11.6687361"><ele>852.0</ele><time>2026-04-26T12:26:26.755Z</time></trkpt><trkpt lat="43.5974767" lon="11.6685798"><ele>853.0</ele><time>2026-04-26T12:26:27.755Z</time></trkpt><trkpt lat="43.597442" lon="11.6684219"><ele>854.0</ele><time>2026-04-26T12:26:28.756Z</time></trkpt><trkpt lat="43.5974172" lon="11.6682698"><ele>855.0</ele><time>2026-04-26T12:26:29.756Z</time></trkpt><trkpt lat="43.597396" lon="11.6681257"><ele>855.0</ele><time>2026-04-26T12:26:30.755Z</time></trkpt><trkpt lat="43.597372" lon="11.6679843"><ele>855.0</ele><time>2026-04-26T12:26:31.756Z</time></trkpt><trkpt lat="43.5973464" lon="11.6678457"><ele>855.0</ele><time>2026-04-26T12:26:32.756Z</time></trkpt><trkpt lat="43.5973183" lon="11.6677089"><ele>855.0</ele><time>2026-04-26T12:26:33.755Z</time></trkpt><trkpt lat="43.5972858" lon="11.6675785"><ele>855.0</ele><time>2026-04-26T12:26:34.756Z</time></trkpt><trkpt lat="43.5972586" lon="11.6674746"><ele>855.2</ele><time>2026-04-26T12:26:35.756Z</time></trkpt><trkpt lat="43.5972378" lon="11.6673924"><ele>855.4</ele><time>2026-04-26T12:26:36.755Z</time></trkpt><trkpt lat="43.5972121" lon="11.6672538"><ele>855.5999999999999</ele><time>2026-04-26T12:26:38.756Z</time></trkpt><trkpt lat="43.597193" lon="11.6670656"><ele>855.8</ele><time>2026-04-26T12:26:40.757Z</time></trkpt><trkpt lat="43.5971773" lon="11.6669504"><ele>856.0</ele><time>2026-04-26T12:26:41.756Z</time></trkpt><trkpt lat="43.5971585" lon="11.6668423"><ele>856.0</ele><time>2026-04-26T12:26:42.755Z</time></trkpt><trkpt lat="43.5971361" lon="11.6667492"><ele>855.9999999999999</ele><time>2026-04-26T12:26:43.755Z</time></trkpt><trkpt lat="43.5971052" lon="11.6665818"><ele>855.9999999999999</ele><time>2026-04-26T12:26:45.755Z</time></trkpt><trkpt lat="43.5970871" lon="11.6664521"><ele>856.0</ele><time>2026-04-26T12:26:47.755Z</time></trkpt><trkpt lat="43.5970635" lon="11.6662859"><ele>856.0</ele><time>2026-04-26T12:26:49.757Z</time></trkpt><trkpt lat="43.5970317" lon="11.6661267"><ele>856.0</ele><time>2026-04-26T12:26:51.754Z</time></trkpt><trkpt lat="43.597005" lon="11.6659483"><ele>855.9999999999999</ele><time>2026-04-26T12:26:53.756Z</time></trkpt><trkpt lat="43.5970083" lon="11.6658567"><ele>855.9999999999999</ele><time>2026-04-26T12:26:54.756Z</time></trkpt><trkpt lat="43.5970133" lon="11.6657633"><ele>856.0</ele><time>2026-04-26T12:26:55.757Z</time></trkpt><trkpt lat="43.5970217" lon="11.665615"><ele>856.0</ele><time>2026-04-26T12:26:57.756Z</time></trkpt><trkpt lat="43.597025" lon="11.6654733"><ele>856.0</ele><time>2026-04-26T12:26:59.756Z</time></trkpt><trkpt lat="43.5970267" lon="11.6653433"><ele>855.9999999999999</ele><time>2026-04-26T12:27:01.759Z</time></trkpt><trkpt lat="43.5970283" lon="11.66521"><ele>855.9999999999999</ele><time>2026-04-26T12:27:03.756Z</time></trkpt><trkpt lat="43.5970683" lon="11.6650633"><ele>856.0</ele><time>2026-04-26T12:27:05.756Z</time></trkpt><trkpt lat="43.597115" lon="11.6649883"><ele>856.0</ele><time>2026-04-26T12:27:06.756Z</time></trkpt><trkpt lat="43.597165" lon="11.6649083"><ele>855.4999999999999</ele><time>2026-04-26T12:27:07.757Z</time></trkpt><trkpt lat="43.5972133" lon="11.6648183"><ele>855.0</ele><time>2026-04-26T12:27:08.756Z</time></trkpt><trkpt lat="43.59726" lon="11.6647217"><ele>854.5</ele><time>2026-04-26T12:27:09.756Z</time></trkpt><trkpt lat="43.5973133" lon="11.6646283"><ele>854.0</ele><time>2026-04-26T12:27:10.755Z</time></trkpt><trkpt lat="43.5973483" lon="11.66454"><ele>853.4999999999999</ele><time>2026-04-26T12:27:11.755Z</time></trkpt><trkpt lat="43.597375" lon="11.6644517"><ele>853.0</ele><time>2026-04-26T12:27:12.755Z</time></trkpt><trkpt lat="43.5973983" lon="11.6643683"><ele>852.8</ele><time>2026-04-26T12:27:13.757Z</time></trkpt><trkpt lat="43.59743" lon="11.6642917"><ele>852.5999999999999</ele><time>2026-04-26T12:27:14.756Z</time></trkpt><trkpt lat="43.597465" lon="11.664215"><ele>852.4000000000001</ele><time>2026-04-26T12:27:15.755Z</time></trkpt><trkpt lat="43.5975183" lon="11.6640883"><ele>852.2</ele><time>2026-04-26T12:27:17.757Z</time></trkpt><trkpt lat="43.597535" lon="11.6639467"><ele>852.0</ele><time>2026-04-26T12:27:19.756Z</time></trkpt><trkpt lat="43.5975333" lon="11.6637783"><ele>852.0</ele><time>2026-04-26T12:27:21.756Z</time></trkpt><trkpt lat="43.5975167" lon="11.66362"><ele>852.0</ele><time>2026-04-26T12:27:23.756Z</time></trkpt><trkpt lat="43.5975067" lon="11.6634667"><ele>852.0</ele><time>2026-04-26T12:27:25.756Z</time></trkpt><trkpt lat="43.5975433" lon="11.663325"><ele>852.0</ele><time>2026-04-26T12:27:27.756Z</time></trkpt><trkpt lat="43.597595" lon="11.663195"><ele>852.0</ele><time>2026-04-26T12:27:29.756Z</time></trkpt><trkpt lat="43.5976367" lon="11.6630467"><ele>850.9999999999999</ele><time>2026-04-26T12:27:31.756Z</time></trkpt><trkpt lat="43.5976533" lon="11.6629567"><ele>850.0</ele><time>2026-04-26T12:27:32.756Z</time></trkpt><trkpt lat="43.5976583" lon="11.66286"><ele>849.0</ele><time>2026-04-26T12:27:33.756Z</time></trkpt><trkpt lat="43.5976733" lon="11.6627633"><ele>848.0</ele><time>2026-04-26T12:27:34.755Z</time></trkpt><trkpt lat="43.5976967" lon="11.662665"><ele>847.0</ele><time>2026-04-26T12:27:35.755Z</time></trkpt><trkpt lat="43.5977133" lon="11.66258"><ele>845.9999999999999</ele><time>2026-04-26T12:27:36.755Z</time></trkpt><trkpt lat="43.5977217" lon="11.6624933"><ele>845.0</ele><time>2026-04-26T12:27:37.755Z</time></trkpt><trkpt lat="43.5977367" lon="11.6623517"><ele>842.8</ele><time>2026-04-26T12:27:39.755Z</time></trkpt><trkpt lat="43.5977333" lon="11.662205"><ele>840.6</ele><time>2026-04-26T12:27:41.755Z</time></trkpt><trkpt lat="43.5977267" lon="11.6620767"><ele>838.4000000000001</ele><time>2026-04-26T12:27:43.756Z</time></trkpt><trkpt lat="43.597735" lon="11.6619533"><ele>836.2</ele><time>2026-04-26T12:27:45.755Z</time></trkpt><trkpt lat="43.5977383" lon="11.661805"><ele>834.0</ele><time>2026-04-26T12:27:47.756Z</time></trkpt><trkpt lat="43.5977417" lon="11.6617017"><ele>831.6</ele><time>2026-04-26T12:27:48.755Z</time></trkpt><trkpt lat="43.5977417" lon="11.661595"><ele>829.2</ele><time>2026-04-26T12:27:49.756Z</time></trkpt><trkpt lat="43.5977483" lon="11.6614417"><ele>826.8000000000001</ele><time>2026-04-26T12:27:51.755Z</time></trkpt><trkpt lat="43.5977567" lon="11.6613317"><ele>824.4000000000001</ele><time>2026-04-26T12:27:53.756Z</time></trkpt><trkpt lat="43.5977833" lon="11.6612183"><ele>822.0</ele><time>2026-04-26T12:27:55.756Z</time></trkpt><trkpt lat="43.5977967" lon="11.6610533"><ele>820.2857142857142</ele><time>2026-04-26T12:27:57.756Z</time></trkpt><trkpt lat="43.5977967" lon="11.660955"><ele>818.5714285714286</ele><time>2026-04-26T12:27:58.756Z</time></trkpt><trkpt lat="43.5978167" lon="11.6608467"><ele>816.8571428571429</ele><time>2026-04-26T12:27:59.757Z</time></trkpt><trkpt lat="43.59785" lon="11.6607433"><ele>815.1428571428571</ele><time>2026-04-26T12:28:00.757Z</time></trkpt><trkpt lat="43.5978783" lon="11.6606467"><ele>813.4285714285714</ele><time>2026-04-26T12:28:01.756Z</time></trkpt><trkpt lat="43.5979033" lon="11.6605583"><ele>811.7142857142857</ele><time>2026-04-26T12:28:02.757Z</time></trkpt><trkpt lat="43.5979233" lon="11.6604683"><ele>810.0</ele><time>2026-04-26T12:28:03.757Z</time></trkpt><trkpt lat="43.5979417" lon="11.66038"><ele>809.9999999999999</ele><time>2026-04-26T12:28:04.756Z</time></trkpt><trkpt lat="43.5979633" lon="11.66029"><ele>810.0</ele><time>2026-04-26T12:28:05.757Z</time></trkpt><trkpt lat="43.5979867" lon="11.6602017"><ele>810.0</ele><time>2026-04-26T12:28:06.756Z</time></trkpt><trkpt lat="43.5979983" lon="11.6601067"><ele>810.0</ele><time>2026-04-26T12:28:07.757Z</time></trkpt><trkpt lat="43.598" lon="11.66001"><ele>810.0</ele><time>2026-04-26T12:28:08.757Z</time></trkpt><trkpt lat="43.5980017" lon="11.6599183"><ele>809.9999999999999</ele><time>2026-04-26T12:28:09.755Z</time></trkpt><trkpt lat="43.5979983" lon="11.659825"><ele>810.0</ele><time>2026-04-26T12:28:10.756Z</time></trkpt><trkpt lat="43.5980283" lon="11.659665"><ele>809.8333333333334</ele><time>2026-04-26T12:28:12.756Z</time></trkpt><trkpt lat="43.598055" lon="11.6595817"><ele>809.6666666666667</ele><time>2026-04-26T12:28:13.756Z</time></trkpt><trkpt lat="43.5980983" lon="11.6595133"><ele>809.5</ele><time>2026-04-26T12:28:14.756Z</time></trkpt><trkpt lat="43.5981467" lon="11.6594333"><ele>809.3333333333334</ele><time>2026-04-26T12:28:15.755Z</time></trkpt><trkpt lat="43.5981983" lon="11.6593417"><ele>809.1666666666667</ele><time>2026-04-26T12:28:16.756Z</time></trkpt><trkpt lat="43.5982317" lon="11.6592233"><ele>809.0</ele><time>2026-04-26T12:28:17.755Z</time></trkpt><trkpt lat="43.598265" lon="11.6590933"><ele>808.8000000000001</ele><time>2026-04-26T12:28:18.755Z</time></trkpt><trkpt lat="43.5983017" lon="11.65896"><ele>808.6</ele><time>2026-04-26T12:28:19.757Z</time></trkpt><trkpt lat="43.59834" lon="11.65883"><ele>808.4</ele><time>2026-04-26T12:28:20.756Z</time></trkpt><trkpt lat="43.5983733" lon="11.65872"><ele>808.2</ele><time>2026-04-26T12:28:21.756Z</time></trkpt><trkpt lat="43.5983967" lon="11.65861"><ele>808.0</ele><time>2026-04-26T12:28:22.756Z</time></trkpt><trkpt lat="43.5984167" lon="11.6585067"><ele>807.8333333333333</ele><time>2026-04-26T12:28:23.756Z</time></trkpt><trkpt lat="43.5984433" lon="11.6584167"><ele>807.6666666666666</ele><time>2026-04-26T12:28:24.757Z</time></trkpt><trkpt lat="43.59848" lon="11.6583317"><ele>807.5</ele><time>2026-04-26T12:28:25.757Z</time></trkpt><trkpt lat="43.59853" lon="11.6582667"><ele>807.3333333333333</ele><time>2026-04-26T12:28:26.757Z</time></trkpt><trkpt lat="43.5986167" lon="11.6581683"><ele>807.1666666666666</ele><time>2026-04-26T12:28:28.756Z</time></trkpt><trkpt lat="43.5986767" lon="11.6580667"><ele>807.0</ele><time>2026-04-26T12:28:30.756Z</time></trkpt><trkpt lat="43.5987133" lon="11.65791"><ele>802.75</ele><time>2026-04-26T12:28:32.757Z</time></trkpt><trkpt lat="43.5987417" lon="11.6577667"><ele>798.5</ele><time>2026-04-26T12:28:34.756Z</time></trkpt><trkpt lat="43.59877" lon="11.65761"><ele>794.25</ele><time>2026-04-26T12:28:36.756Z</time></trkpt><trkpt lat="43.5988017" lon="11.6574417"><ele>790.0</ele><time>2026-04-26T12:28:38.759Z</time></trkpt><trkpt lat="43.5988267" lon="11.657295"><ele>790.0</ele><time>2026-04-26T12:28:40.755Z</time></trkpt><trkpt lat="43.5988467" lon="11.657165"><ele>790.0</ele><time>2026-04-26T12:28:42.756Z</time></trkpt><trkpt lat="43.5988733" lon="11.657035"><ele>790.0</ele><time>2026-04-26T12:28:44.758Z</time></trkpt><trkpt lat="43.5989167" lon="11.6568867"><ele>790.0</ele><time>2026-04-26T12:28:46.755Z</time></trkpt><trkpt lat="43.5989517" lon="11.6567267"><ele>790.0</ele><time>2026-04-26T12:28:48.756Z</time></trkpt><trkpt lat="43.5989833" lon="11.6565783"><ele>788.2</ele><time>2026-04-26T12:28:50.757Z</time></trkpt><trkpt lat="43.599045" lon="11.6564817"><ele>786.4</ele><time>2026-04-26T12:28:52.756Z</time></trkpt><trkpt lat="43.5991283" lon="11.6564917"><ele>784.5999999999999</ele><time>2026-04-26T12:28:54.756Z</time></trkpt><trkpt lat="43.5992217" lon="11.6565433"><ele>782.8</ele><time>2026-04-26T12:28:56.757Z</time></trkpt><trkpt lat="43.59932" lon="11.6565967"><ele>781.0</ele><time>2026-04-26T12:28:58.756Z</time></trkpt><trkpt lat="43.5993983" lon="11.6566317"><ele>781.0</ele><time>2026-04-26T12:29:00.756Z</time></trkpt><trkpt lat="43.59947" lon="11.6566683"><ele>781.0</ele><time>2026-04-26T12:29:02.757Z</time></trkpt><trkpt lat="43.5995383" lon="11.65673"><ele>781.0</ele><time>2026-04-26T12:29:04.756Z</time></trkpt><trkpt lat="43.5996067" lon="11.6567933"><ele>781.0</ele><time>2026-04-26T12:29:06.756Z</time></trkpt><trkpt lat="43.5997067" lon="11.6568117"><ele>781.0</ele><time>2026-04-26T12:29:08.757Z</time></trkpt><trkpt lat="43.5998117" lon="11.6568517"><ele>776.5999999999999</ele><time>2026-04-26T12:29:10.757Z</time></trkpt><trkpt lat="43.59991" lon="11.6568817"><ele>772.2</ele><time>2026-04-26T12:29:12.755Z</time></trkpt><trkpt lat="43.6000017" lon="11.6568567"><ele>767.8</ele><time>2026-04-26T12:29:14.756Z</time></trkpt><trkpt lat="43.6000933" lon="11.6568583"><ele>763.4000000000001</ele><time>2026-04-26T12:29:16.755Z</time></trkpt><trkpt lat="43.6001683" lon="11.6568133"><ele>759.0</ele><time>2026-04-26T12:29:18.756Z</time></trkpt><trkpt lat="43.6001967" lon="11.6566833"><ele>759.0</ele><time>2026-04-26T12:29:21.756Z</time></trkpt><trkpt lat="43.600175" lon="11.6565567"><ele>759.0</ele><time>2026-04-26T12:29:23.756Z</time></trkpt><trkpt lat="43.600135" lon="11.6564717"><ele>759.0</ele><time>2026-04-26T12:29:24.756Z</time></trkpt><trkpt lat="43.6000833" lon="11.6563733"><ele>759.0</ele><time>2026-04-26T12:29:25.757Z</time></trkpt><trkpt lat="43.600035" lon="11.656265"><ele>759.0</ele><time>2026-04-26T12:29:26.756Z</time></trkpt><trkpt lat="43.599985" lon="11.656145"><ele>759.0</ele><time>2026-04-26T12:29:27.754Z</time></trkpt><trkpt lat="43.59995" lon="11.6560383"><ele>758.4285714285714</ele><time>2026-04-26T12:29:28.756Z</time></trkpt><trkpt lat="43.5999217" lon="11.65594"><ele>757.8571428571429</ele><time>2026-04-26T12:29:29.756Z</time></trkpt><trkpt lat="43.5998967" lon="11.6558367"><ele>757.2857142857142</ele><time>2026-04-26T12:29:30.756Z</time></trkpt><trkpt lat="43.5998933" lon="11.65573"><ele>756.7142857142858</ele><time>2026-04-26T12:29:31.757Z</time></trkpt><trkpt lat="43.599885" lon="11.6556317"><ele>756.1428571428572</ele><time>2026-04-26T12:29:32.757Z</time></trkpt><trkpt lat="43.5998683" lon="11.65554"><ele>755.5714285714286</ele><time>2026-04-26T12:29:33.756Z</time></trkpt><trkpt lat="43.5998517" lon="11.6554483"><ele>755.0</ele><time>2026-04-26T12:29:34.757Z</time></trkpt><trkpt lat="43.5998317" lon="11.6553617"><ele>755.0</ele><time>2026-04-26T12:29:35.757Z</time></trkpt><trkpt lat="43.599815" lon="11.655275"><ele>755.0</ele><time>2026-04-26T12:29:36.756Z</time></trkpt><trkpt lat="43.5998133" lon="11.655115"><ele>755.0</ele><time>2026-04-26T12:29:38.757Z</time></trkpt><trkpt lat="43.59988" lon="11.6550267"><ele>755.0</ele><time>2026-04-26T12:29:40.757Z</time></trkpt><trkpt lat="43.5999433" lon="11.6550067"><ele>755.0</ele><time>2026-04-26T12:29:41.757Z</time></trkpt><trkpt lat="43.6000483" lon="11.654925"><ele>755.0</ele><time>2026-04-26T12:29:43.757Z</time></trkpt><trkpt lat="43.6000967" lon="11.6548383"><ele>755.0</ele><time>2026-04-26T12:29:44.757Z</time></trkpt><trkpt lat="43.6001367" lon="11.6547417"><ele>755.0</ele><time>2026-04-26T12:29:45.755Z</time></trkpt><trkpt lat="43.6001733" lon="11.654655"><ele>755.0</ele><time>2026-04-26T12:29:46.756Z</time></trkpt><trkpt lat="43.6002067" lon="11.6545583"><ele>755.0</ele><time>2026-04-26T12:29:47.757Z</time></trkpt><trkpt lat="43.6002467" lon="11.654465"><ele>755.0</ele><time>2026-04-26T12:29:48.757Z</time></trkpt><trkpt lat="43.6002867" lon="11.654375"><ele>754.1428571428571</ele><time>2026-04-26T12:29:49.757Z</time></trkpt><trkpt lat="43.6003283" lon="11.65429"><ele>753.2857142857143</ele><time>2026-04-26T12:29:50.758Z</time></trkpt><trkpt lat="43.6003767" lon="11.6542183"><ele>752.4285714285714</ele><time>2026-04-26T12:29:51.758Z</time></trkpt><trkpt lat="43.6004267" lon="11.6541583"><ele>751.5714285714286</ele><time>2026-04-26T12:29:52.757Z</time></trkpt><trkpt lat="43.6004817" lon="11.6540983"><ele>750.7142857142858</ele><time>2026-04-26T12:29:53.757Z</time></trkpt><trkpt lat="43.6005317" lon="11.65402"><ele>749.8571428571429</ele><time>2026-04-26T12:29:54.757Z</time></trkpt><trkpt lat="43.6005767" lon="11.6539267"><ele>749.0</ele><time>2026-04-26T12:29:55.758Z</time></trkpt><trkpt lat="43.6006167" lon="11.65383"><ele>748.1666666666666</ele><time>2026-04-26T12:29:56.756Z</time></trkpt><trkpt lat="43.6006567" lon="11.6537367"><ele>747.3333333333333</ele><time>2026-04-26T12:29:57.755Z</time></trkpt><trkpt lat="43.6006933" lon="11.653635"><ele>746.5</ele><time>2026-04-26T12:29:58.757Z</time></trkpt><trkpt lat="43.6007333" lon="11.653525"><ele>745.6666666666666</ele><time>2026-04-26T12:29:59.757Z</time></trkpt><trkpt lat="43.6007667" lon="11.6534017"><ele>744.8333333333334</ele><time>2026-04-26T12:30:00.756Z</time></trkpt><trkpt lat="43.6008" lon="11.6532717"><ele>744.0</ele><time>2026-04-26T12:30:01.757Z</time></trkpt><trkpt lat="43.6008333" lon="11.653145"><ele>744.0</ele><time>2026-04-26T12:30:02.757Z</time></trkpt><trkpt lat="43.6008617" lon="11.6530367"><ele>744.0</ele><time>2026-04-26T12:30:03.756Z</time></trkpt><trkpt lat="43.60089" lon="11.6529367"><ele>744.0</ele><time>2026-04-26T12:30:04.757Z</time></trkpt><trkpt lat="43.6009267" lon="11.6528467"><ele>744.0</ele><time>2026-04-26T12:30:05.757Z</time></trkpt><trkpt lat="43.6009633" lon="11.652765"><ele>744.0</ele><time>2026-04-26T12:30:06.757Z</time></trkpt><trkpt lat="43.6010167" lon="11.6526433"><ele>744.0</ele><time>2026-04-26T12:30:08.758Z</time></trkpt><trkpt lat="43.6010183" lon="11.6525433"><ele>744.0</ele><time>2026-04-26T12:30:10.756Z</time></trkpt><trkpt lat="43.600975" lon="11.6524233"><ele>744.0</ele><time>2026-04-26T12:30:18.758Z</time></trkpt><trkpt lat="43.60095" lon="11.6523167"><ele>744.0</ele><time>2026-04-26T12:30:20.756Z</time></trkpt><trkpt lat="43.600925" lon="11.652225"><ele>744.0</ele><time>2026-04-26T12:30:22.756Z</time></trkpt><trkpt lat="43.60092" lon="11.6521333"><ele>744.0</ele><time>2026-04-26T12:30:25.757Z</time></trkpt><trkpt lat="43.601005" lon="11.6521383"><ele>744.0</ele><time>2026-04-26T12:30:28.756Z</time></trkpt><trkpt lat="43.601075" lon="11.6521633"><ele>741.2</ele><time>2026-04-26T12:30:30.757Z</time></trkpt><trkpt lat="43.6011933" lon="11.6521517"><ele>738.4000000000001</ele><time>2026-04-26T12:30:32.758Z</time></trkpt><trkpt lat="43.6012767" lon="11.652145"><ele>735.6</ele><time>2026-04-26T12:30:34.757Z</time></trkpt><trkpt lat="43.6013483" lon="11.6521283"><ele>732.8</ele><time>2026-04-26T12:30:36.757Z</time></trkpt><trkpt lat="43.601415" lon="11.6520933"><ele>730.0</ele><time>2026-04-26T12:30:38.757Z</time></trkpt><trkpt lat="43.6015183" lon="11.6520683"><ele>730.0</ele><time>2026-04-26T12:30:40.757Z</time></trkpt><trkpt lat="43.601625" lon="11.6520483"><ele>730.0</ele><time>2026-04-26T12:30:42.756Z</time></trkpt><trkpt lat="43.6017133" lon="11.6520117"><ele>730.0</ele><time>2026-04-26T12:30:44.757Z</time></trkpt><trkpt lat="43.6018283" lon="11.6519533"><ele>730.0</ele><time>2026-04-26T12:30:46.756Z</time></trkpt><trkpt lat="43.6019333" lon="11.6519"><ele>730.0</ele><time>2026-04-26T12:30:48.756Z</time></trkpt><trkpt lat="43.60201" lon="11.6518317"><ele>729.3333333333334</ele><time>2026-04-26T12:30:50.756Z</time></trkpt><trkpt lat="43.6020717" lon="11.6517683"><ele>728.6666666666667</ele><time>2026-04-26T12:30:52.755Z</time></trkpt><trkpt lat="43.6021333" lon="11.6517317"><ele>728.0</ele><time>2026-04-26T12:30:55.758Z</time></trkpt><trkpt lat="43.60221" lon="11.6517183"><ele>727.3333333333334</ele><time>2026-04-26T12:30:58.757Z</time></trkpt><trkpt lat="43.602135" lon="11.651725"><ele>726.6666666666666</ele><time>2026-04-26T12:31:15.757Z</time></trkpt><trkpt lat="43.60207" lon="11.65177"><ele>726.0</ele><time>2026-04-26T12:31:17.758Z</time></trkpt><trkpt lat="43.6019933" lon="11.6518433"><ele>726.0</ele><time>2026-04-26T12:31:19.758Z</time></trkpt><trkpt lat="43.601915" lon="11.6518967"><ele>726.0</ele><time>2026-04-26T12:31:21.756Z</time></trkpt><trkpt lat="43.6018444" lon="11.6519482"><ele>726.0</ele><time>2026-04-26T12:31:23.755Z</time></trkpt><trkpt lat="43.6017592" lon="11.6520034"><ele>726.0</ele><time>2026-04-26T12:31:25.758Z</time></trkpt><trkpt lat="43.6016549" lon="11.6520412"><ele>726.0</ele><time>2026-04-26T12:31:27.757Z</time></trkpt><trkpt lat="43.6015728" lon="11.6520692"><ele>726.8</ele><time>2026-04-26T12:31:29.757Z</time></trkpt><trkpt lat="43.6014978" lon="11.6520958"><ele>727.5999999999999</ele><time>2026-04-26T12:31:31.757Z</time></trkpt><trkpt lat="43.6013908" lon="11.6521103"><ele>728.4</ele><time>2026-04-26T12:31:33.757Z</time></trkpt><trkpt lat="43.6012688" lon="11.6521274"><ele>729.2</ele><time>2026-04-26T12:31:35.757Z</time></trkpt><trkpt lat="43.6012055" lon="11.6521425"><ele>730.0</ele><time>2026-04-26T12:31:36.757Z</time></trkpt><trkpt lat="43.6010822" lon="11.6521627"><ele>733.5</ele><time>2026-04-26T12:31:38.757Z</time></trkpt><trkpt lat="43.6009799" lon="11.652153"><ele>737.0</ele><time>2026-04-26T12:31:40.757Z</time></trkpt><trkpt lat="43.6008992" lon="11.6521745"><ele>740.5</ele><time>2026-04-26T12:31:43.756Z</time></trkpt><trkpt lat="43.600765" lon="11.6521377"><ele>744.0</ele><time>2026-04-26T12:32:00.852Z</time></trkpt><trkpt lat="43.6006349" lon="11.6521423"><ele>744.0</ele><time>2026-04-26T12:32:04.796Z</time></trkpt><trkpt lat="43.6005159" lon="11.6522085"><ele>744.0</ele><time>2026-04-26T12:32:07.761Z</time></trkpt><trkpt lat="43.6004571" lon="11.6522644"><ele>744.0</ele><time>2026-04-26T12:32:10.783Z</time></trkpt><trkpt lat="43.600406" lon="11.6523659"><ele>744.0</ele><time>2026-04-26T12:32:13.846Z</time></trkpt><trkpt lat="43.60039" lon="11.6524733"><ele>744.0</ele><time>2026-04-26T12:32:34.759Z</time></trkpt><trkpt lat="43.6003733" lon="11.6525983"><ele>744.0000000000001</ele><time>2026-04-26T12:32:37.754Z</time></trkpt><trkpt lat="43.6003717" lon="11.6527083"><ele>744.0</ele><time>2026-04-26T12:32:39.755Z</time></trkpt><trkpt lat="43.6003767" lon="11.6527967"><ele>744.0</ele><time>2026-04-26T12:32:41.756Z</time></trkpt><trkpt lat="43.6003833" lon="11.6529"><ele>744.0</ele><time>2026-04-26T12:32:44.755Z</time></trkpt><trkpt lat="43.6003817" lon="11.6529967"><ele>744.0</ele><time>2026-04-26T12:32:47.757Z</time></trkpt><trkpt lat="43.6004117" lon="11.6530867"><ele>744.0000000000001</ele><time>2026-04-26T12:32:50.756Z</time></trkpt><trkpt lat="43.6004383" lon="11.6531883"><ele>744.0</ele><time>2026-04-26T12:32:52.755Z</time></trkpt><trkpt lat="43.6004533" lon="11.6533283"><ele>744.0</ele><time>2026-04-26T12:32:54.754Z</time></trkpt><trkpt lat="43.6004617" lon="11.6534717"><ele>744.0</ele><time>2026-04-26T12:32:56.756Z</time></trkpt><trkpt lat="43.6004733" lon="11.6535883"><ele>744.0</ele><time>2026-04-26T12:32:58.756Z</time></trkpt><trkpt lat="43.600485" lon="11.6536883"><ele>744.0</ele><time>2026-04-26T12:33:00.755Z</time></trkpt><trkpt lat="43.600515" lon="11.653765"><ele>744.0</ele><time>2026-04-26T12:33:03.755Z</time></trkpt><trkpt lat="43.6005183" lon="11.653855"><ele>744.0</ele><time>2026-04-26T12:33:05.755Z</time></trkpt><trkpt lat="43.60053" lon="11.6539517"><ele>744.0</ele><time>2026-04-26T12:33:08.755Z</time></trkpt><trkpt lat="43.600525" lon="11.6538633"><ele>744.0</ele><time>2026-04-26T12:33:31.755Z</time></trkpt><trkpt lat="43.6005017" lon="11.6537533"><ele>744.0</ele><time>2026-04-26T12:33:33.757Z</time></trkpt><trkpt lat="43.6004683" lon="11.6536583"><ele>744.0</ele><time>2026-04-26T12:33:35.755Z</time></trkpt><trkpt lat="43.6004667" lon="11.65354"><ele>744.0</ele><time>2026-04-26T12:33:38.756Z</time></trkpt><trkpt lat="43.6004633" lon="11.65344"><ele>744.0</ele><time>2026-04-26T12:33:40.756Z</time></trkpt><trkpt lat="43.6004533" lon="11.65333"><ele>744.0000000000001</ele><time>2026-04-26T12:33:42.756Z</time></trkpt><trkpt lat="43.60044" lon="11.6532217"><ele>744.0</ele><time>2026-04-26T12:33:44.755Z</time></trkpt><trkpt lat="43.6004133" lon="11.6531167"><ele>744.0</ele><time>2026-04-26T12:33:46.755Z</time></trkpt><trkpt lat="43.6003933" lon="11.6530283"><ele>744.0</ele><time>2026-04-26T12:33:48.756Z</time></trkpt><trkpt lat="43.6003867" lon="11.6529283"><ele>744.0</ele><time>2026-04-26T12:33:51.755Z</time></trkpt><trkpt lat="43.60038" lon="11.652835"><ele>744.0000000000001</ele><time>2026-04-26T12:34:04.755Z</time></trkpt><trkpt lat="43.6003667" lon="11.6527467"><ele>744.0</ele><time>2026-04-26T12:34:06.755Z</time></trkpt><trkpt lat="43.6003583" lon="11.65264"><ele>744.0</ele><time>2026-04-26T12:34:08.756Z</time></trkpt><trkpt lat="43.600365" lon="11.6525417"><ele>744.0</ele><time>2026-04-26T12:34:10.756Z</time></trkpt><trkpt lat="43.60038" lon="11.6524367"><ele>744.0</ele><time>2026-04-26T12:34:13.754Z</time></trkpt><trkpt lat="43.6004167" lon="11.6523383"><ele>744.0</ele><time>2026-04-26T12:34:16.755Z</time></trkpt><trkpt lat="43.6004786" lon="11.6522218"><ele>744.0</ele><time>2026-04-26T12:34:19.812Z</time></trkpt><trkpt lat="43.6005568" lon="11.6521704"><ele>744.0</ele><time>2026-04-26T12:34:22.815Z</time></trkpt><trkpt lat="43.6005896" lon="11.6520888"><ele>744.0000000000001</ele><time>2026-04-26T12:34:27.753Z</time></trkpt><trkpt lat="43.6006577" lon="11.6520884"><ele>744.0</ele><time>2026-04-26T12:34:32.826Z</time></trkpt><trkpt lat="43.6007233" lon="11.6521183"><ele>744.0</ele><time>2026-04-26T12:34:38.756Z</time></trkpt><trkpt lat="43.6007967" lon="11.6521433"><ele>744.0</ele><time>2026-04-26T12:34:41.755Z</time></trkpt><trkpt lat="43.60087" lon="11.6521633"><ele>744.0</ele><time>2026-04-26T12:34:44.756Z</time></trkpt><trkpt lat="43.600945" lon="11.6521383"><ele>744.0000000000001</ele><time>2026-04-26T12:34:47.756Z</time></trkpt><trkpt lat="43.6010283" lon="11.65216"><ele>744.0</ele><time>2026-04-26T12:34:50.757Z</time></trkpt><trkpt lat="43.6011217" lon="11.6521533"><ele>741.6666666666666</ele><time>2026-04-26T12:34:52.755Z</time></trkpt><trkpt lat="43.6012117" lon="11.6521367"><ele>739.3333333333334</ele><time>2026-04-26T12:34:54.755Z</time></trkpt><trkpt lat="43.6012883" lon="11.6521267"><ele>737.0</ele><time>2026-04-26T12:34:56.757Z</time></trkpt><trkpt lat="43.601365" lon="11.65211"><ele>734.6666666666667</ele><time>2026-04-26T12:34:58.755Z</time></trkpt><trkpt lat="43.6014617" lon="11.6520883"><ele>732.3333333333334</ele><time>2026-04-26T12:35:00.754Z</time></trkpt><trkpt lat="43.60155" lon="11.6520683"><ele>730.0</ele><time>2026-04-26T12:35:02.756Z</time></trkpt><trkpt lat="43.6016267" lon="11.652045"><ele>730.0</ele><time>2026-04-26T12:35:04.756Z</time></trkpt><trkpt lat="43.60171" lon="11.65201"><ele>730.0</ele><time>2026-04-26T12:35:06.756Z</time></trkpt><trkpt lat="43.6018067" lon="11.651965"><ele>730.0</ele><time>2026-04-26T12:35:08.755Z</time></trkpt><trkpt lat="43.6018917" lon="11.65191"><ele>730.0</ele><time>2026-04-26T12:35:10.756Z</time></trkpt><trkpt lat="43.60196" lon="11.6518533"><ele>730.0</ele><time>2026-04-26T12:35:12.755Z</time></trkpt><trkpt lat="43.6020367" lon="11.651775"><ele>728.6666666666667</ele><time>2026-04-26T12:35:14.755Z</time></trkpt><trkpt lat="43.6021067" lon="11.6517217"><ele>727.3333333333334</ele><time>2026-04-26T12:35:16.755Z</time></trkpt><trkpt lat="43.602185" lon="11.6516983"><ele>726.0</ele><time>2026-04-26T12:35:18.756Z</time></trkpt><trkpt lat="43.6022617" lon="11.651675"><ele>724.6666666666666</ele><time>2026-04-26T12:35:26.755Z</time></trkpt><trkpt lat="43.60233" lon="11.65168"><ele>723.3333333333333</ele><time>2026-04-26T12:35:32.757Z</time></trkpt><trkpt lat="43.6023967" lon="11.6516333"><ele>722.0</ele><time>2026-04-26T12:35:34.755Z</time></trkpt><trkpt lat="43.6024917" lon="11.6515317"><ele>722.0</ele><time>2026-04-26T12:35:36.754Z</time></trkpt><trkpt lat="43.6025633" lon="11.6514667"><ele>722.0</ele><time>2026-04-26T12:35:38.756Z</time></trkpt><trkpt lat="43.6026183" lon="11.65142"><ele>722.0</ele><time>2026-04-26T12:35:40.755Z</time></trkpt><trkpt lat="43.602685" lon="11.65134"><ele>722.0</ele><time>2026-04-26T12:35:49.756Z</time></trkpt><trkpt lat="43.6027567" lon="11.6513097"><ele>722.0</ele><time>2026-04-26T12:35:52.833Z</time></trkpt><trkpt lat="43.6028987" lon="11.651288"><ele>720.2</ele><time>2026-04-26T12:35:55.836Z</time></trkpt><trkpt lat="43.6029967" lon="11.6512833"><ele>718.4000000000001</ele><time>2026-04-26T12:35:56.756Z</time></trkpt><trkpt lat="43.6030883" lon="11.6512667"><ele>716.5999999999999</ele><time>2026-04-26T12:35:58.755Z</time></trkpt><trkpt lat="43.6031733" lon="11.6512217"><ele>714.8</ele><time>2026-04-26T12:36:00.755Z</time></trkpt><trkpt lat="43.60325" lon="11.6511567"><ele>713.0</ele><time>2026-04-26T12:36:02.756Z</time></trkpt><trkpt lat="43.6033317" lon="11.6510983"><ele>713.0</ele><time>2026-04-26T12:36:04.756Z</time></trkpt><trkpt lat="43.6033983" lon="11.6510779"><ele>713.0</ele><time>2026-04-26T12:36:06.756Z</time></trkpt><trkpt lat="43.6034683" lon="11.6510564"><ele>713.0</ele><time>2026-04-26T12:36:07.755Z</time></trkpt><trkpt lat="43.6035651" lon="11.6510286"><ele>713.0</ele><time>2026-04-26T12:36:09.756Z</time></trkpt><trkpt lat="43.6036485" lon="11.6509674"><ele>713.0</ele><time>2026-04-26T12:36:11.755Z</time></trkpt><trkpt lat="43.603728" lon="11.6508888"><ele>713.0</ele><time>2026-04-26T12:36:13.755Z</time></trkpt><trkpt lat="43.6037988" lon="11.6507773"><ele>712.1666666666666</ele><time>2026-04-26T12:36:15.755Z</time></trkpt><trkpt lat="43.6038569" lon="11.6506528"><ele>711.3333333333333</ele><time>2026-04-26T12:36:17.756Z</time></trkpt><trkpt lat="43.6039021" lon="11.6504913"><ele>710.5</ele><time>2026-04-26T12:36:19.756Z</time></trkpt><trkpt lat="43.6039181" lon="11.6504034"><ele>709.6666666666666</ele><time>2026-04-26T12:36:20.757Z</time></trkpt><trkpt lat="43.6039402" lon="11.650319"><ele>708.8333333333334</ele><time>2026-04-26T12:36:21.756Z</time></trkpt><trkpt lat="43.6039697" lon="11.6502364"><ele>708.0</ele><time>2026-04-26T12:36:22.756Z</time></trkpt><trkpt lat="43.6040039" lon="11.6501517"><ele>708.0</ele><time>2026-04-26T12:36:23.756Z</time></trkpt><trkpt lat="43.6040391" lon="11.6500728"><ele>708.0</ele><time>2026-04-26T12:36:24.756Z</time></trkpt><trkpt lat="43.6040922" lon="11.6499639"><ele>708.0</ele><time>2026-04-26T12:36:26.756Z</time></trkpt><trkpt lat="43.6041347" lon="11.6498688"><ele>708.0</ele><time>2026-04-26T12:36:29.755Z</time></trkpt><trkpt lat="43.6041738" lon="11.649774"><ele>708.0</ele><time>2026-04-26T12:36:33.756Z</time></trkpt><trkpt lat="43.6042383" lon="11.6496867"><ele>708.0</ele><time>2026-04-26T12:36:39.757Z</time></trkpt><trkpt lat="43.604295" lon="11.6496183"><ele>708.0</ele><time>2026-04-26T12:36:42.755Z</time></trkpt><trkpt lat="43.6043533" lon="11.6495333"><ele>708.0</ele><time>2026-04-26T12:36:44.756Z</time></trkpt><trkpt lat="43.604405" lon="11.6494333"><ele>708.0</ele><time>2026-04-26T12:36:46.755Z</time></trkpt><trkpt lat="43.6044617" lon="11.6493317"><ele>708.0</ele><time>2026-04-26T12:36:48.755Z</time></trkpt><trkpt lat="43.6045133" lon="11.64923"><ele>708.0</ele><time>2026-04-26T12:36:50.757Z</time></trkpt><trkpt lat="43.6045833" lon="11.649185"><ele>708.0</ele><time>2026-04-26T12:36:53.757Z</time></trkpt><trkpt lat="43.60466" lon="11.64916"><ele>708.0</ele><time>2026-04-26T12:36:56.756Z</time></trkpt><trkpt lat="43.6045933" lon="11.649165"><ele>708.0</ele><time>2026-04-26T12:37:50.756Z</time></trkpt><trkpt lat="43.604535" lon="11.649225"><ele>708.0</ele><time>2026-04-26T12:37:52.755Z</time></trkpt><trkpt lat="43.6044583" lon="11.64935"><ele>708.0</ele><time>2026-04-26T12:37:54.758Z</time></trkpt><trkpt lat="43.6044133" lon="11.6494267"><ele>708.0</ele><time>2026-04-26T12:37:55.756Z</time></trkpt><trkpt lat="43.604365" lon="11.64951"><ele>708.0</ele><time>2026-04-26T12:37:56.756Z</time></trkpt><trkpt lat="43.604325" lon="11.649585"><ele>708.0</ele><time>2026-04-26T12:37:57.756Z</time></trkpt><trkpt lat="43.6042533" lon="11.6496783"><ele>708.0</ele><time>2026-04-26T12:37:59.755Z</time></trkpt><trkpt lat="43.6042" lon="11.649745"><ele>708.0</ele><time>2026-04-26T12:38:02.756Z</time></trkpt><trkpt lat="43.6041583" lon="11.649815"><ele>708.0</ele><time>2026-04-26T12:38:04.755Z</time></trkpt><trkpt lat="43.6041133" lon="11.6499133"><ele>708.0</ele><time>2026-04-26T12:38:06.756Z</time></trkpt><trkpt lat="43.6040583" lon="11.6500367"><ele>708.0</ele><time>2026-04-26T12:38:08.756Z</time></trkpt><trkpt lat="43.6039883" lon="11.6501767"><ele>708.0</ele><time>2026-04-26T12:38:10.756Z</time></trkpt><trkpt lat="43.6039517" lon="11.6502583"><ele>708.0</ele><time>2026-04-26T12:38:11.755Z</time></trkpt><trkpt lat="43.6039167" lon="11.6503467"><ele>708.0</ele><time>2026-04-26T12:38:12.756Z</time></trkpt><trkpt lat="43.6038883" lon="11.6504333"><ele>708.0</ele><time>2026-04-26T12:38:13.755Z</time></trkpt><trkpt lat="43.6038533" lon="11.6505867"><ele>708.0</ele><time>2026-04-26T12:38:15.755Z</time></trkpt><trkpt lat="43.6038083" lon="11.6507183"><ele>708.0</ele><time>2026-04-26T12:38:17.756Z</time></trkpt><trkpt lat="43.6037333" lon="11.650855"><ele>709.0</ele><time>2026-04-26T12:38:19.756Z</time></trkpt><trkpt lat="43.6036617" lon="11.6509617"><ele>710.0</ele><time>2026-04-26T12:38:21.756Z</time></trkpt><trkpt lat="43.6035717" lon="11.6510517"><ele>711.0</ele><time>2026-04-26T12:38:23.756Z</time></trkpt><trkpt lat="43.6035117" lon="11.651085"><ele>712.0</ele><time>2026-04-26T12:38:24.755Z</time></trkpt><trkpt lat="43.6034017" lon="11.6510933"><ele>713.0</ele><time>2026-04-26T12:38:26.756Z</time></trkpt><trkpt lat="43.6033" lon="11.6511167"><ele>713.0</ele><time>2026-04-26T12:38:28.756Z</time></trkpt><trkpt lat="43.6032117" lon="11.6511917"><ele>713.0</ele><time>2026-04-26T12:38:30.756Z</time></trkpt><trkpt lat="43.60311" lon="11.6512783"><ele>713.0</ele><time>2026-04-26T12:38:32.756Z</time></trkpt><trkpt lat="43.60305" lon="11.651305"><ele>713.0</ele><time>2026-04-26T12:38:33.756Z</time></trkpt><trkpt lat="43.6029267" lon="11.651295"><ele>713.0</ele><time>2026-04-26T12:38:35.756Z</time></trkpt><trkpt lat="43.6028533" lon="11.65129"><ele>714.5</ele><time>2026-04-26T12:38:36.756Z</time></trkpt><trkpt lat="43.602775" lon="11.6512983"><ele>716.0</ele><time>2026-04-26T12:38:37.756Z</time></trkpt><trkpt lat="43.6027083" lon="11.6513117"><ele>717.5</ele><time>2026-04-26T12:38:38.756Z</time></trkpt><trkpt lat="43.6026433" lon="11.651375"><ele>719.0</ele><time>2026-04-26T12:38:40.755Z</time></trkpt><trkpt lat="43.6025733" lon="11.6514817"><ele>720.5</ele><time>2026-04-26T12:38:42.756Z</time></trkpt><trkpt lat="43.6025183" lon="11.6515367"><ele>722.0</ele><time>2026-04-26T12:38:43.755Z</time></trkpt><trkpt lat="43.6024667" lon="11.6515933"><ele>722.0</ele><time>2026-04-26T12:38:44.756Z</time></trkpt><trkpt lat="43.6024167" lon="11.6516467"><ele>722.0</ele><time>2026-04-26T12:38:45.756Z</time></trkpt><trkpt lat="43.6023267" lon="11.6517067"><ele>722.0</ele><time>2026-04-26T12:38:47.756Z</time></trkpt><trkpt lat="43.6022617" lon="11.6516683"><ele>722.0</ele><time>2026-04-26T12:38:51.756Z</time></trkpt><trkpt lat="43.6021967" lon="11.651705"><ele>722.0</ele><time>2026-04-26T12:38:56.757Z</time></trkpt><trkpt lat="43.6021117" lon="11.6517267"><ele>722.0</ele><time>2026-04-26T12:38:59.756Z</time></trkpt><trkpt lat="43.6020233" lon="11.6518067"><ele>722.8</ele><time>2026-04-26T12:39:01.756Z</time></trkpt><trkpt lat="43.6019167" lon="11.6518967"><ele>723.6</ele><time>2026-04-26T12:39:03.757Z</time></trkpt><trkpt lat="43.6018617" lon="11.65194"><ele>724.4</ele><time>2026-04-26T12:39:04.756Z</time></trkpt><trkpt lat="43.601745" lon="11.6520067"><ele>725.1999999999999</ele><time>2026-04-26T12:39:06.756Z</time></trkpt><trkpt lat="43.6016383" lon="11.65204"><ele>726.0</ele><time>2026-04-26T12:39:08.756Z</time></trkpt><trkpt lat="43.601535" lon="11.6520633"><ele>726.6666666666666</ele><time>2026-04-26T12:39:10.762Z</time></trkpt><trkpt lat="43.60142" lon="11.6520833"><ele>727.3333333333334</ele><time>2026-04-26T12:39:12.756Z</time></trkpt><trkpt lat="43.60135" lon="11.6520967"><ele>728.0</ele><time>2026-04-26T12:39:13.762Z</time></trkpt><trkpt lat="43.6012783" lon="11.65211"><ele>728.6666666666667</ele><time>2026-04-26T12:39:14.756Z</time></trkpt><trkpt lat="43.6012" lon="11.6521267"><ele>729.3333333333334</ele><time>2026-04-26T12:39:15.756Z</time></trkpt><trkpt lat="43.60112" lon="11.6521433"><ele>730.0</ele><time>2026-04-26T12:39:16.756Z</time></trkpt><trkpt lat="43.601055" lon="11.6521517"><ele>732.3333333333334</ele><time>2026-04-26T12:39:17.756Z</time></trkpt><trkpt lat="43.600955" lon="11.6521317"><ele>734.6666666666667</ele><time>2026-04-26T12:39:19.758Z</time></trkpt><trkpt lat="43.600895" lon="11.65216"><ele>737.0</ele><time>2026-04-26T12:39:21.755Z</time></trkpt><trkpt lat="43.6009417" lon="11.6523133"><ele>739.3333333333334</ele><time>2026-04-26T12:39:24.756Z</time></trkpt><trkpt lat="43.6009733" lon="11.6524033"><ele>741.6666666666666</ele><time>2026-04-26T12:39:25.756Z</time></trkpt><trkpt lat="43.600995" lon="11.6524867"><ele>744.0</ele><time>2026-04-26T12:39:26.757Z</time></trkpt><trkpt lat="43.6010117" lon="11.6525733"><ele>744.0</ele><time>2026-04-26T12:39:27.756Z</time></trkpt><trkpt lat="43.6009767" lon="11.6527283"><ele>744.0</ele><time>2026-04-26T12:39:29.756Z</time></trkpt><trkpt lat="43.6009333" lon="11.6528017"><ele>744.0</ele><time>2026-04-26T12:39:30.756Z</time></trkpt><trkpt lat="43.600885" lon="11.652875"><ele>744.0</ele><time>2026-04-26T12:39:31.755Z</time></trkpt><trkpt lat="43.6008433" lon="11.6529667"><ele>744.0</ele><time>2026-04-26T12:39:32.758Z</time></trkpt><trkpt lat="43.6008117" lon="11.65307"><ele>744.0</ele><time>2026-04-26T12:39:33.756Z</time></trkpt><trkpt lat="43.6007833" lon="11.653175"><ele>744.0</ele><time>2026-04-26T12:39:34.756Z</time></trkpt><trkpt lat="43.6007533" lon="11.653285"><ele>744.0</ele><time>2026-04-26T12:39:35.756Z</time></trkpt><trkpt lat="43.60072" lon="11.6533933"><ele>744.0</ele><time>2026-04-26T12:39:36.755Z</time></trkpt><trkpt lat="43.6006867" lon="11.6535033"><ele>744.0</ele><time>2026-04-26T12:39:37.756Z</time></trkpt><trkpt lat="43.6006533" lon="11.653615"><ele>744.0</ele><time>2026-04-26T12:39:38.756Z</time></trkpt><trkpt lat="43.600625" lon="11.6537333"><ele>744.0</ele><time>2026-04-26T12:39:39.754Z</time></trkpt><trkpt lat="43.6005933" lon="11.6538533"><ele>744.0</ele><time>2026-04-26T12:39:40.763Z</time></trkpt><trkpt lat="43.600555" lon="11.65395"><ele>744.0</ele><time>2026-04-26T12:39:41.756Z</time></trkpt><trkpt lat="43.6005" lon="11.6540433"><ele>744.0</ele><time>2026-04-26T12:39:42.755Z</time></trkpt><trkpt lat="43.60045" lon="11.6541383"><ele>744.0</ele><time>2026-04-26T12:39:43.756Z</time></trkpt><trkpt lat="43.6004" lon="11.654215"><ele>744.0</ele><time>2026-04-26T12:39:44.756Z</time></trkpt><trkpt lat="43.60035" lon="11.65428"><ele>744.0</ele><time>2026-04-26T12:39:45.755Z</time></trkpt><trkpt lat="43.6003" lon="11.65434"><ele>744.8333333333334</ele><time>2026-04-26T12:39:46.756Z</time></trkpt><trkpt lat="43.600255" lon="11.6544067"><ele>745.6666666666666</ele><time>2026-04-26T12:39:47.756Z</time></trkpt><trkpt lat="43.6001933" lon="11.65456"><ele>746.5</ele><time>2026-04-26T12:39:49.756Z</time></trkpt><trkpt lat="43.600165" lon="11.65465"><ele>747.3333333333333</ele><time>2026-04-26T12:39:50.757Z</time></trkpt><trkpt lat="43.6001317" lon="11.6547417"><ele>748.1666666666666</ele><time>2026-04-26T12:39:51.757Z</time></trkpt><trkpt lat="43.600095" lon="11.6548467"><ele>749.0</ele><time>2026-04-26T12:39:52.756Z</time></trkpt><trkpt lat="43.6000533" lon="11.654935"><ele>750.0</ele><time>2026-04-26T12:39:53.756Z</time></trkpt><trkpt lat="43.6000067" lon="11.6550017"><ele>751.0</ele><time>2026-04-26T12:39:54.756Z</time></trkpt><trkpt lat="43.599945" lon="11.6550433"><ele>752.0</ele><time>2026-04-26T12:39:55.756Z</time></trkpt><trkpt lat="43.599885" lon="11.65507"><ele>753.0</ele><time>2026-04-26T12:39:56.756Z</time></trkpt><trkpt lat="43.5997967" lon="11.6551367"><ele>754.0</ele><time>2026-04-26T12:39:58.756Z</time></trkpt><trkpt lat="43.5997667" lon="11.6552767"><ele>755.0</ele><time>2026-04-26T12:40:00.758Z</time></trkpt><trkpt lat="43.5997817" lon="11.655365"><ele>755.0</ele><time>2026-04-26T12:40:01.756Z</time></trkpt><trkpt lat="43.5998083" lon="11.6554667"><ele>755.0</ele><time>2026-04-26T12:40:02.756Z</time></trkpt><trkpt lat="43.5998383" lon="11.65558"><ele>755.0</ele><time>2026-04-26T12:40:03.756Z</time></trkpt><trkpt lat="43.5998617" lon="11.6556933"><ele>755.0</ele><time>2026-04-26T12:40:04.755Z</time></trkpt><trkpt lat="43.5998817" lon="11.6557933"><ele>755.0</ele><time>2026-04-26T12:40:05.755Z</time></trkpt><trkpt lat="43.5999083" lon="11.6559483"><ele>755.0</ele><time>2026-04-26T12:40:07.756Z</time></trkpt><trkpt lat="43.5999383" lon="11.6561133"><ele>755.6666666666666</ele><time>2026-04-26T12:40:09.756Z</time></trkpt><trkpt lat="43.5999633" lon="11.6561967"><ele>756.3333333333333</ele><time>2026-04-26T12:40:10.755Z</time></trkpt><trkpt lat="43.6000033" lon="11.6562833"><ele>757.0</ele><time>2026-04-26T12:40:11.756Z</time></trkpt><trkpt lat="43.6000583" lon="11.656385"><ele>757.6666666666666</ele><time>2026-04-26T12:40:12.755Z</time></trkpt><trkpt lat="43.6001117" lon="11.6564867"><ele>758.3333333333334</ele><time>2026-04-26T12:40:13.755Z</time></trkpt><trkpt lat="43.600155" lon="11.6565783"><ele>759.0</ele><time>2026-04-26T12:40:14.756Z</time></trkpt><trkpt lat="43.6001767" lon="11.6566617"><ele>759.0</ele><time>2026-04-26T12:40:15.755Z</time></trkpt><trkpt lat="43.6001767" lon="11.6567567"><ele>759.0</ele><time>2026-04-26T12:40:17.756Z</time></trkpt><trkpt lat="43.60012" lon="11.6568383"><ele>759.0</ele><time>2026-04-26T12:40:19.757Z</time></trkpt><trkpt lat="43.6000567" lon="11.65686"><ele>759.0</ele><time>2026-04-26T12:40:20.757Z</time></trkpt><trkpt lat="43.5999783" lon="11.6568717"><ele>759.0</ele><time>2026-04-26T12:40:21.756Z</time></trkpt><trkpt lat="43.5999017" lon="11.6568783"><ele>759.0</ele><time>2026-04-26T12:40:22.759Z</time></trkpt><trkpt lat="43.5998233" lon="11.6568683"><ele>759.0</ele><time>2026-04-26T12:40:23.756Z</time></trkpt><trkpt lat="43.5997467" lon="11.6568333"><ele>759.0</ele><time>2026-04-26T12:40:24.757Z</time></trkpt><trkpt lat="43.59967" lon="11.65681"><ele>759.0</ele><time>2026-04-26T12:40:25.756Z</time></trkpt><trkpt lat="43.5995683" lon="11.6567733"><ele>759.0</ele><time>2026-04-26T12:40:27.757Z</time></trkpt><trkpt lat="43.5994833" lon="11.656705"><ele>759.0</ele><time>2026-04-26T12:40:29.757Z</time></trkpt><trkpt lat="43.5993967" lon="11.6566183"><ele>763.4000000000001</ele><time>2026-04-26T12:40:31.756Z</time></trkpt><trkpt lat="43.599275" lon="11.6565767"><ele>767.8</ele><time>2026-04-26T12:40:33.756Z</time></trkpt><trkpt lat="43.5991733" lon="11.6565283"><ele>772.2</ele><time>2026-04-26T12:40:35.756Z</time></trkpt><trkpt lat="43.599065" lon="11.65647"><ele>776.5999999999999</ele><time>2026-04-26T12:40:37.756Z</time></trkpt><trkpt lat="43.5989933" lon="11.656465"><ele>781.0</ele><time>2026-04-26T12:40:39.757Z</time></trkpt><trkpt lat="43.5989617" lon="11.6565617"><ele>780.9999999999999</ele><time>2026-04-26T12:40:41.757Z</time></trkpt><trkpt lat="43.5989417" lon="11.6566467"><ele>781.0</ele><time>2026-04-26T12:40:42.756Z</time></trkpt><trkpt lat="43.5989233" lon="11.6567467"><ele>781.0</ele><time>2026-04-26T12:40:43.755Z</time></trkpt><trkpt lat="43.5989033" lon="11.656845"><ele>781.0</ele><time>2026-04-26T12:40:44.757Z</time></trkpt><trkpt lat="43.59888" lon="11.6569383"><ele>780.9999999999999</ele><time>2026-04-26T12:40:45.756Z</time></trkpt><trkpt lat="43.598855" lon="11.6570417"><ele>781.0</ele><time>2026-04-26T12:40:46.755Z</time></trkpt><trkpt lat="43.5988333" lon="11.6571567"><ele>782.4999999999999</ele><time>2026-04-26T12:40:47.756Z</time></trkpt><trkpt lat="43.598815" lon="11.6572717"><ele>784.0</ele><time>2026-04-26T12:40:48.756Z</time></trkpt><trkpt lat="43.5987983" lon="11.6573833"><ele>785.5</ele><time>2026-04-26T12:40:49.758Z</time></trkpt><trkpt lat="43.5987767" lon="11.6574967"><ele>787.0</ele><time>2026-04-26T12:40:50.758Z</time></trkpt><trkpt lat="43.59875" lon="11.6576233"><ele>788.4999999999999</ele><time>2026-04-26T12:40:51.756Z</time></trkpt><trkpt lat="43.59873" lon="11.6577467"><ele>790.0</ele><time>2026-04-26T12:40:52.756Z</time></trkpt><trkpt lat="43.5987183" lon="11.6578517"><ele>791.3333333333333</ele><time>2026-04-26T12:40:53.756Z</time></trkpt><trkpt lat="43.5987067" lon="11.657945"><ele>792.6666666666666</ele><time>2026-04-26T12:40:54.756Z</time></trkpt><trkpt lat="43.5986983" lon="11.6580383"><ele>794.0</ele><time>2026-04-26T12:40:55.757Z</time></trkpt><trkpt lat="43.5986683" lon="11.6581633"><ele>795.3333333333333</ele><time>2026-04-26T12:40:57.756Z</time></trkpt><trkpt lat="43.5985833" lon="11.6582483"><ele>796.6666666666666</ele><time>2026-04-26T12:40:59.756Z</time></trkpt><trkpt lat="43.5985167" lon="11.6583117"><ele>798.0</ele><time>2026-04-26T12:41:00.756Z</time></trkpt><trkpt lat="43.59845" lon="11.6583883"><ele>800.25</ele><time>2026-04-26T12:41:01.756Z</time></trkpt><trkpt lat="43.5984033" lon="11.6584967"><ele>802.5</ele><time>2026-04-26T12:41:02.756Z</time></trkpt><trkpt lat="43.5983667" lon="11.658655"><ele>804.75</ele><time>2026-04-26T12:41:03.756Z</time></trkpt><trkpt lat="43.5983217" lon="11.6588133"><ele>807.0</ele><time>2026-04-26T12:41:04.756Z</time></trkpt><trkpt lat="43.5982683" lon="11.658975"><ele>807.2</ele><time>2026-04-26T12:41:05.756Z</time></trkpt><trkpt lat="43.5982217" lon="11.6591317"><ele>807.4000000000001</ele><time>2026-04-26T12:41:06.756Z</time></trkpt><trkpt lat="43.5981917" lon="11.659265"><ele>807.5999999999999</ele><time>2026-04-26T12:41:07.756Z</time></trkpt><trkpt lat="43.5981633" lon="11.6593683"><ele>807.8</ele><time>2026-04-26T12:41:08.759Z</time></trkpt><trkpt lat="43.5981233" lon="11.659455"><ele>808.0</ele><time>2026-04-26T12:41:09.756Z</time></trkpt><trkpt lat="43.5980683" lon="11.6595383"><ele>808.1666666666666</ele><time>2026-04-26T12:41:10.756Z</time></trkpt><trkpt lat="43.59802" lon="11.6596333"><ele>808.3333333333333</ele><time>2026-04-26T12:41:11.756Z</time></trkpt><trkpt lat="43.59799" lon="11.6597467"><ele>808.5</ele><time>2026-04-26T12:41:12.756Z</time></trkpt><trkpt lat="43.59798" lon="11.6598817"><ele>808.6666666666667</ele><time>2026-04-26T12:41:13.756Z</time></trkpt><trkpt lat="43.597975" lon="11.6600117"><ele>808.8333333333334</ele><time>2026-04-26T12:41:14.756Z</time></trkpt><trkpt lat="43.5979683" lon="11.6601233"><ele>809.0</ele><time>2026-04-26T12:41:15.756Z</time></trkpt><trkpt lat="43.59796" lon="11.660225"><ele>809.2</ele><time>2026-04-26T12:41:16.756Z</time></trkpt><trkpt lat="43.5979417" lon="11.6603333"><ele>809.4000000000001</ele><time>2026-04-26T12:41:17.757Z</time></trkpt><trkpt lat="43.5979117" lon="11.66046"><ele>809.6</ele><time>2026-04-26T12:41:18.756Z</time></trkpt><trkpt lat="43.5978767" lon="11.6606"><ele>809.8</ele><time>2026-04-26T12:41:19.758Z</time></trkpt><trkpt lat="43.5978433" lon="11.6607217"><ele>810.0</ele><time>2026-04-26T12:41:20.757Z</time></trkpt><trkpt lat="43.59781" lon="11.6608317"><ele>810.0</ele><time>2026-04-26T12:41:21.756Z</time></trkpt><trkpt lat="43.597785" lon="11.6609367"><ele>810.0</ele><time>2026-04-26T12:41:22.756Z</time></trkpt><trkpt lat="43.5977733" lon="11.661045"><ele>810.0</ele><time>2026-04-26T12:41:23.758Z</time></trkpt><trkpt lat="43.5977733" lon="11.6611567"><ele>810.0</ele><time>2026-04-26T12:41:24.757Z</time></trkpt><trkpt lat="43.59777" lon="11.6612667"><ele>810.0</ele><time>2026-04-26T12:41:25.757Z</time></trkpt><trkpt lat="43.5977617" lon="11.6613733"><ele>810.0</ele><time>2026-04-26T12:41:26.757Z</time></trkpt><trkpt lat="43.5977333" lon="11.66154"><ele>812.0</ele><time>2026-04-26T12:41:28.756Z</time></trkpt><trkpt lat="43.5977267" lon="11.6616367"><ele>814.0</ele><time>2026-04-26T12:41:29.756Z</time></trkpt><trkpt lat="43.5977283" lon="11.661735"><ele>816.0</ele><time>2026-04-26T12:41:30.756Z</time></trkpt><trkpt lat="43.5977283" lon="11.6618383"><ele>818.0</ele><time>2026-04-26T12:41:31.756Z</time></trkpt><trkpt lat="43.5977267" lon="11.661935"><ele>820.0</ele><time>2026-04-26T12:41:32.756Z</time></trkpt><trkpt lat="43.5977217" lon="11.662095"><ele>822.0</ele><time>2026-04-26T12:41:34.757Z</time></trkpt><trkpt lat="43.5977267" lon="11.6622467"><ele>824.4000000000001</ele><time>2026-04-26T12:41:36.757Z</time></trkpt><trkpt lat="43.5977283" lon="11.6623817"><ele>826.8000000000001</ele><time>2026-04-26T12:41:38.757Z</time></trkpt><trkpt lat="43.5977317" lon="11.6625117"><ele>829.2</ele><time>2026-04-26T12:41:40.756Z</time></trkpt><trkpt lat="43.5977" lon="11.6626933"><ele>831.6</ele><time>2026-04-26T12:41:42.755Z</time></trkpt><trkpt lat="43.5976683" lon="11.662805"><ele>834.0</ele><time>2026-04-26T12:41:43.756Z</time></trkpt><trkpt lat="43.5976483" lon="11.6629183"><ele>836.2</ele><time>2026-04-26T12:41:44.756Z</time></trkpt><trkpt lat="43.5976417" lon="11.6630167"><ele>838.4000000000001</ele><time>2026-04-26T12:41:45.755Z</time></trkpt><trkpt lat="43.5976067" lon="11.6631783"><ele>840.6</ele><time>2026-04-26T12:41:47.755Z</time></trkpt><trkpt lat="43.59755" lon="11.6633383"><ele>842.8</ele><time>2026-04-26T12:41:49.756Z</time></trkpt><trkpt lat="43.597515" lon="11.6634317"><ele>845.0</ele><time>2026-04-26T12:41:50.756Z</time></trkpt><trkpt lat="43.59749" lon="11.663525"><ele>846.4</ele><time>2026-04-26T12:41:51.755Z</time></trkpt><trkpt lat="43.5974883" lon="11.6636717"><ele>847.8</ele><time>2026-04-26T12:41:53.759Z</time></trkpt><trkpt lat="43.5975" lon="11.6638367"><ele>849.2</ele><time>2026-04-26T12:41:55.754Z</time></trkpt><trkpt lat="43.5975" lon="11.6639483"><ele>850.6</ele><time>2026-04-26T12:41:56.755Z</time></trkpt><trkpt lat="43.5974917" lon="11.6640583"><ele>852.0</ele><time>2026-04-26T12:41:57.755Z</time></trkpt><trkpt lat="43.5974683" lon="11.6641567"><ele>852.0</ele><time>2026-04-26T12:41:58.756Z</time></trkpt><trkpt lat="43.597435" lon="11.6642533"><ele>852.0</ele><time>2026-04-26T12:41:59.756Z</time></trkpt><trkpt lat="43.59739" lon="11.6643533"><ele>852.0</ele><time>2026-04-26T12:42:00.756Z</time></trkpt><trkpt lat="43.59735" lon="11.6644583"><ele>852.0</ele><time>2026-04-26T12:42:01.756Z</time></trkpt><trkpt lat="43.59731" lon="11.66457"><ele>852.0</ele><time>2026-04-26T12:42:02.756Z</time></trkpt><trkpt lat="43.5972633" lon="11.6646783"><ele>852.0</ele><time>2026-04-26T12:42:03.756Z</time></trkpt><trkpt lat="43.5972117" lon="11.664775"><ele>852.1666666666666</ele><time>2026-04-26T12:42:04.756Z</time></trkpt><trkpt lat="43.5971667" lon="11.66486"><ele>852.3333333333333</ele><time>2026-04-26T12:42:05.756Z</time></trkpt><trkpt lat="43.5971267" lon="11.6649383"><ele>852.5</ele><time>2026-04-26T12:42:06.755Z</time></trkpt><trkpt lat="43.59705" lon="11.665055"><ele>852.6666666666666</ele><time>2026-04-26T12:42:08.758Z</time></trkpt><trkpt lat="43.596985" lon="11.6651617"><ele>852.8333333333333</ele><time>2026-04-26T12:42:10.756Z</time></trkpt><trkpt lat="43.5969867" lon="11.665265"><ele>853.0</ele><time>2026-04-26T12:42:12.755Z</time></trkpt><trkpt lat="43.5970117" lon="11.6654117"><ele>853.4999999999999</ele><time>2026-04-26T12:42:14.756Z</time></trkpt><trkpt lat="43.5970183" lon="11.6655017"><ele>854.0</ele><time>2026-04-26T12:42:15.755Z</time></trkpt><trkpt lat="43.5970233" lon="11.6655917"><ele>854.5</ele><time>2026-04-26T12:42:16.755Z</time></trkpt><trkpt lat="43.5970217" lon="11.6656817"><ele>855.0</ele><time>2026-04-26T12:42:17.755Z</time></trkpt><trkpt lat="43.5970217" lon="11.6658617"><ele>855.4999999999999</ele><time>2026-04-26T12:42:19.755Z</time></trkpt><trkpt lat="43.597025" lon="11.66596"><ele>856.0</ele><time>2026-04-26T12:42:20.756Z</time></trkpt><trkpt lat="43.59703" lon="11.6660517"><ele>855.9999999999999</ele><time>2026-04-26T12:42:21.755Z</time></trkpt><trkpt lat="43.597045" lon="11.6661433"><ele>856.0</ele><time>2026-04-26T12:42:22.755Z</time></trkpt><trkpt lat="43.59706" lon="11.6662583"><ele>856.0</ele><time>2026-04-26T12:42:24.755Z</time></trkpt><trkpt lat="43.597055" lon="11.666345"><ele>856.0</ele><time>2026-04-26T12:42:26.755Z</time></trkpt><trkpt lat="43.5969933" lon="11.6664217"><ele>855.9999999999999</ele><time>2026-04-26T12:42:29.755Z</time></trkpt><trkpt lat="43.5969033" lon="11.666455"><ele>856.0</ele><time>2026-04-26T12:42:31.755Z</time></trkpt><trkpt lat="43.5968183" lon="11.666465"><ele>863.0</ele><time>2026-04-26T12:42:33.755Z</time></trkpt></trkseg></trk></gpx>